<?xml version="1.0" encoding="UTF-8" standalone="no" ?>
<gpx xmlns="http://www.topografix.com/GPX/1/1" xmlns:xsi="http://www.w3.org/2001/XMLSchema-instance" xsi:schemaLocation="http://www.topografix.com/GPX/1/1 http://www.topografix.com/GPX/1/1/gpx.xsd" version="1.1" creator="VisuGPX - https://www.visugpx.com">
  <metadata>
    <name>ESCOUTOUX</name>
    <desc><![CDATA[Rando revisitée après un 1er parcours in situ.
Un peu de goudron mais de  très beaux sentiers et chemins qui le font vite oublier.
A revérifier]]></desc>
  </metadata>
  <trk>
    <name><![CDATA[ESCOUTOUX_1]]></name>
    <trkseg>
      <trkpt lat="45.81959" lon="3.56079">
        <ele>399.4</ele>
        <extensions>
          <visugpx:TrkExtension xmlns:visugpx="https://www.visugpx.com/editgpx/">
            <visugpx:node>15</visugpx:node>
            </visugpx:TrkExtension>
        </extensions>
      </trkpt>
      <trkpt lat="45.8197" lon="3.56087">
        <ele>400.1</ele>
      </trkpt>
      <trkpt lat="45.81979" lon="3.56093">
        <ele>400.6</ele>
      </trkpt>
      <trkpt lat="45.8199" lon="3.56102">
        <ele>401.3</ele>
      </trkpt>
      <trkpt lat="45.82001" lon="3.56119">
        <ele>402.1</ele>
      </trkpt>
      <trkpt lat="45.82004" lon="3.56134">
        <ele>402.5</ele>
      </trkpt>
      <trkpt lat="45.82004" lon="3.56148">
        <ele>402.5</ele>
      </trkpt>
      <trkpt lat="45.82001" lon="3.56176">
        <ele>401.5</ele>
        <extensions>
          <visugpx:TrkExtension xmlns:visugpx="https://www.visugpx.com/editgpx/">
            <visugpx:node>13</visugpx:node>
            </visugpx:TrkExtension>
        </extensions>
      </trkpt>
      <trkpt lat="45.81994" lon="3.56271">
        <ele>393.3</ele>
      </trkpt>
      <trkpt lat="45.81997" lon="3.56297">
        <ele>391.2</ele>
      </trkpt>
      <trkpt lat="45.82004" lon="3.56346">
        <ele>388</ele>
      </trkpt>
      <trkpt lat="45.82009" lon="3.56344">
        <ele>388.6</ele>
      </trkpt>
      <trkpt lat="45.82014" lon="3.56344">
        <ele>389.1</ele>
      </trkpt>
      <trkpt lat="45.8203" lon="3.56343">
        <ele>390.9</ele>
      </trkpt>
      <trkpt lat="45.82032" lon="3.56359">
        <ele>390.7</ele>
      </trkpt>
      <trkpt lat="45.8204" lon="3.56381">
        <ele>390.9</ele>
      </trkpt>
      <trkpt lat="45.82043" lon="3.56387">
        <ele>391</ele>
        <extensions>
          <visugpx:TrkExtension xmlns:visugpx="https://www.visugpx.com/editgpx/">
            <visugpx:node>14</visugpx:node>
            </visugpx:TrkExtension>
        </extensions>
      </trkpt>
      <trkpt lat="45.82046" lon="3.56384">
        <ele>389</ele>
        <time>2021-02-21T08:53:42Z</time>
      </trkpt>
      <trkpt lat="45.82046" lon="3.56387">
        <ele>389</ele>
        <time>2021-02-21T08:53:44Z</time>
      </trkpt>
      <trkpt lat="45.82049" lon="3.56393">
        <ele>389</ele>
        <time>2021-02-21T08:53:48Z</time>
      </trkpt>
      <trkpt lat="45.82051" lon="3.56398">
        <ele>389</ele>
        <time>2021-02-21T08:53:51Z</time>
      </trkpt>
      <trkpt lat="45.82052" lon="3.56402">
        <ele>389</ele>
        <time>2021-02-21T08:53:53Z</time>
      </trkpt>
      <trkpt lat="45.82056" lon="3.56415">
        <ele>390</ele>
        <time>2021-02-21T08:54:00Z</time>
      </trkpt>
      <trkpt lat="45.82056" lon="3.56418">
        <ele>390</ele>
        <time>2021-02-21T08:54:02Z</time>
      </trkpt>
      <trkpt lat="45.82056" lon="3.56422">
        <ele>390</ele>
        <time>2021-02-21T08:54:06Z</time>
      </trkpt>
      <trkpt lat="45.82054" lon="3.56426">
        <ele>391</ele>
        <time>2021-02-21T08:54:09Z</time>
      </trkpt>
      <trkpt lat="45.82054" lon="3.5643">
        <ele>391</ele>
        <time>2021-02-21T08:54:11Z</time>
      </trkpt>
      <trkpt lat="45.82055" lon="3.56433">
        <ele>392</ele>
        <time>2021-02-21T08:54:14Z</time>
      </trkpt>
      <trkpt lat="45.82056" lon="3.56436">
        <ele>392</ele>
        <time>2021-02-21T08:54:16Z</time>
      </trkpt>
      <trkpt lat="45.82057" lon="3.56438">
        <ele>393</ele>
        <time>2021-02-21T08:54:18Z</time>
      </trkpt>
      <trkpt lat="45.82057" lon="3.56441">
        <ele>393</ele>
        <time>2021-02-21T08:54:20Z</time>
      </trkpt>
      <trkpt lat="45.82059" lon="3.56444">
        <ele>394</ele>
        <time>2021-02-21T08:54:22Z</time>
      </trkpt>
      <trkpt lat="45.8206" lon="3.56447">
        <ele>395</ele>
        <time>2021-02-21T08:54:24Z</time>
      </trkpt>
      <trkpt lat="45.82061" lon="3.56449">
        <ele>395</ele>
        <time>2021-02-21T08:54:26Z</time>
      </trkpt>
      <trkpt lat="45.82063" lon="3.56452">
        <ele>396</ele>
        <time>2021-02-21T08:54:29Z</time>
      </trkpt>
      <trkpt lat="45.82066" lon="3.56454">
        <ele>397</ele>
        <time>2021-02-21T08:54:32Z</time>
      </trkpt>
      <trkpt lat="45.82067" lon="3.56455">
        <ele>398</ele>
        <time>2021-02-21T08:54:35Z</time>
      </trkpt>
      <trkpt lat="45.82069" lon="3.56456">
        <ele>398</ele>
        <time>2021-02-21T08:54:38Z</time>
      </trkpt>
      <trkpt lat="45.82071" lon="3.56457">
        <ele>399</ele>
        <time>2021-02-21T08:54:41Z</time>
      </trkpt>
      <trkpt lat="45.82073" lon="3.56457">
        <ele>400</ele>
        <time>2021-02-21T08:54:43Z</time>
      </trkpt>
      <trkpt lat="45.82075" lon="3.56456">
        <ele>400</ele>
        <time>2021-02-21T08:54:48Z</time>
      </trkpt>
      <trkpt lat="45.82077" lon="3.56457">
        <ele>401</ele>
        <time>2021-02-21T08:54:51Z</time>
      </trkpt>
      <trkpt lat="45.82079" lon="3.56458">
        <ele>402</ele>
        <time>2021-02-21T08:54:53Z</time>
      </trkpt>
      <trkpt lat="45.82081" lon="3.56459">
        <ele>403</ele>
        <time>2021-02-21T08:54:55Z</time>
      </trkpt>
      <trkpt lat="45.82083" lon="3.56461">
        <ele>404</ele>
        <time>2021-02-21T08:54:57Z</time>
      </trkpt>
      <trkpt lat="45.82085" lon="3.56462">
        <ele>405</ele>
        <time>2021-02-21T08:55:02Z</time>
      </trkpt>
      <trkpt lat="45.82087" lon="3.56464">
        <ele>405</ele>
        <time>2021-02-21T08:55:04Z</time>
      </trkpt>
      <trkpt lat="45.82089" lon="3.56465">
        <ele>406</ele>
        <time>2021-02-21T08:55:07Z</time>
      </trkpt>
      <trkpt lat="45.82091" lon="3.56466">
        <ele>407</ele>
        <time>2021-02-21T08:55:09Z</time>
      </trkpt>
      <trkpt lat="45.82093" lon="3.56468">
        <ele>408</ele>
        <time>2021-02-21T08:55:15Z</time>
      </trkpt>
      <trkpt lat="45.82095" lon="3.56469">
        <ele>409</ele>
        <time>2021-02-21T08:55:17Z</time>
      </trkpt>
      <trkpt lat="45.82098" lon="3.56469">
        <ele>409</ele>
        <time>2021-02-21T08:55:20Z</time>
      </trkpt>
      <trkpt lat="45.82099" lon="3.5647">
        <ele>410</ele>
        <time>2021-02-21T08:55:23Z</time>
      </trkpt>
      <trkpt lat="45.82102" lon="3.5647">
        <ele>410</ele>
        <time>2021-02-21T08:55:26Z</time>
      </trkpt>
      <trkpt lat="45.82105" lon="3.56471">
        <ele>411</ele>
        <time>2021-02-21T08:55:28Z</time>
      </trkpt>
      <trkpt lat="45.82107" lon="3.56473">
        <ele>412</ele>
        <time>2021-02-21T08:55:30Z</time>
      </trkpt>
      <trkpt lat="45.82109" lon="3.56475">
        <ele>413</ele>
        <time>2021-02-21T08:55:33Z</time>
      </trkpt>
      <trkpt lat="45.82111" lon="3.56477">
        <ele>414</ele>
        <time>2021-02-21T08:55:35Z</time>
      </trkpt>
      <trkpt lat="45.82112" lon="3.5648">
        <ele>415</ele>
        <time>2021-02-21T08:55:37Z</time>
      </trkpt>
      <trkpt lat="45.82113" lon="3.56482">
        <ele>415</ele>
        <time>2021-02-21T08:55:40Z</time>
      </trkpt>
      <trkpt lat="45.82115" lon="3.56483">
        <ele>416</ele>
        <time>2021-02-21T08:55:44Z</time>
      </trkpt>
      <trkpt lat="45.82117" lon="3.56483">
        <ele>416</ele>
        <time>2021-02-21T08:55:47Z</time>
      </trkpt>
      <trkpt lat="45.8212" lon="3.56482">
        <ele>416</ele>
        <time>2021-02-21T08:55:50Z</time>
      </trkpt>
      <trkpt lat="45.82122" lon="3.56483">
        <ele>416</ele>
        <time>2021-02-21T08:55:52Z</time>
      </trkpt>
      <trkpt lat="45.82124" lon="3.56483">
        <ele>416</ele>
        <time>2021-02-21T08:55:55Z</time>
      </trkpt>
      <trkpt lat="45.82126" lon="3.56484">
        <ele>416</ele>
        <time>2021-02-21T08:55:58Z</time>
      </trkpt>
      <trkpt lat="45.82128" lon="3.56484">
        <ele>417</ele>
        <time>2021-02-21T08:56:00Z</time>
      </trkpt>
      <trkpt lat="45.82131" lon="3.56484">
        <ele>417</ele>
        <time>2021-02-21T08:56:06Z</time>
      </trkpt>
      <trkpt lat="45.82133" lon="3.56484">
        <ele>417</ele>
        <time>2021-02-21T08:56:08Z</time>
      </trkpt>
      <trkpt lat="45.82135" lon="3.56484">
        <ele>417</ele>
        <time>2021-02-21T08:56:12Z</time>
      </trkpt>
      <trkpt lat="45.82138" lon="3.56484">
        <ele>417</ele>
        <time>2021-02-21T08:56:16Z</time>
      </trkpt>
      <trkpt lat="45.8214" lon="3.56485">
        <ele>417</ele>
        <time>2021-02-21T08:56:21Z</time>
      </trkpt>
      <trkpt lat="45.82142" lon="3.56486">
        <ele>417</ele>
        <time>2021-02-21T08:56:24Z</time>
      </trkpt>
      <trkpt lat="45.82144" lon="3.56487">
        <ele>418</ele>
        <time>2021-02-21T08:56:27Z</time>
      </trkpt>
      <trkpt lat="45.82146" lon="3.56488">
        <ele>418</ele>
        <time>2021-02-21T08:56:30Z</time>
      </trkpt>
      <trkpt lat="45.82148" lon="3.56489">
        <ele>418</ele>
        <time>2021-02-21T08:56:33Z</time>
      </trkpt>
      <trkpt lat="45.82149" lon="3.56491">
        <ele>418</ele>
        <time>2021-02-21T08:56:35Z</time>
      </trkpt>
      <trkpt lat="45.82151" lon="3.56492">
        <ele>419</ele>
        <time>2021-02-21T08:56:37Z</time>
      </trkpt>
      <trkpt lat="45.82153" lon="3.56493">
        <ele>419</ele>
        <time>2021-02-21T08:56:40Z</time>
      </trkpt>
      <trkpt lat="45.82155" lon="3.56494">
        <ele>419</ele>
        <time>2021-02-21T08:56:43Z</time>
      </trkpt>
      <trkpt lat="45.82157" lon="3.56496">
        <ele>420</ele>
        <time>2021-02-21T08:56:46Z</time>
      </trkpt>
      <trkpt lat="45.82159" lon="3.56496">
        <ele>420</ele>
        <time>2021-02-21T08:56:49Z</time>
      </trkpt>
      <trkpt lat="45.82161" lon="3.56496">
        <ele>420</ele>
        <time>2021-02-21T08:56:52Z</time>
      </trkpt>
      <trkpt lat="45.82163" lon="3.56499">
        <ele>420</ele>
        <time>2021-02-21T08:56:55Z</time>
      </trkpt>
      <trkpt lat="45.82164" lon="3.56501">
        <ele>421</ele>
        <time>2021-02-21T08:56:58Z</time>
      </trkpt>
      <trkpt lat="45.82165" lon="3.56504">
        <ele>422</ele>
        <time>2021-02-21T08:57:01Z</time>
      </trkpt>
      <trkpt lat="45.82166" lon="3.56506">
        <ele>423</ele>
        <time>2021-02-21T08:57:04Z</time>
      </trkpt>
      <trkpt lat="45.82166" lon="3.56509">
        <ele>424</ele>
        <time>2021-02-21T08:57:07Z</time>
      </trkpt>
      <trkpt lat="45.82166" lon="3.56512">
        <ele>425</ele>
        <time>2021-02-21T08:57:09Z</time>
      </trkpt>
      <trkpt lat="45.82166" lon="3.56514">
        <ele>426</ele>
        <time>2021-02-21T08:57:11Z</time>
      </trkpt>
      <trkpt lat="45.82166" lon="3.56517">
        <ele>427</ele>
        <time>2021-02-21T08:57:14Z</time>
      </trkpt>
      <trkpt lat="45.82165" lon="3.5652">
        <ele>428</ele>
        <time>2021-02-21T08:57:17Z</time>
      </trkpt>
      <trkpt lat="45.82164" lon="3.56523">
        <ele>429</ele>
        <time>2021-02-21T08:57:20Z</time>
      </trkpt>
      <trkpt lat="45.82163" lon="3.56526">
        <ele>430</ele>
        <time>2021-02-21T08:57:23Z</time>
      </trkpt>
      <trkpt lat="45.82162" lon="3.56528">
        <ele>430</ele>
        <time>2021-02-21T08:57:26Z</time>
      </trkpt>
      <trkpt lat="45.82161" lon="3.56531">
        <ele>431</ele>
        <time>2021-02-21T08:57:29Z</time>
      </trkpt>
      <trkpt lat="45.8216" lon="3.56533">
        <ele>432</ele>
        <time>2021-02-21T08:57:32Z</time>
      </trkpt>
      <trkpt lat="45.82161" lon="3.56536">
        <ele>433</ele>
        <time>2021-02-21T08:57:35Z</time>
      </trkpt>
      <trkpt lat="45.8216" lon="3.56539">
        <ele>434</ele>
        <time>2021-02-21T08:57:38Z</time>
      </trkpt>
      <trkpt lat="45.82159" lon="3.56542">
        <ele>435</ele>
        <time>2021-02-21T08:57:41Z</time>
      </trkpt>
      <trkpt lat="45.82159" lon="3.56545">
        <ele>436</ele>
        <time>2021-02-21T08:57:44Z</time>
      </trkpt>
      <trkpt lat="45.82157" lon="3.56546">
        <ele>437</ele>
        <time>2021-02-21T08:57:51Z</time>
      </trkpt>
      <trkpt lat="45.82156" lon="3.56549">
        <ele>437</ele>
        <time>2021-02-21T08:57:54Z</time>
      </trkpt>
      <trkpt lat="45.82155" lon="3.56552">
        <ele>438</ele>
        <time>2021-02-21T08:57:57Z</time>
      </trkpt>
      <trkpt lat="45.82153" lon="3.56554">
        <ele>439</ele>
        <time>2021-02-21T08:58:00Z</time>
      </trkpt>
      <trkpt lat="45.82152" lon="3.56556">
        <ele>440</ele>
        <time>2021-02-21T08:58:03Z</time>
      </trkpt>
      <trkpt lat="45.82151" lon="3.56564">
        <ele>442</ele>
        <time>2021-02-21T08:58:11Z</time>
      </trkpt>
      <trkpt lat="45.8215" lon="3.56568">
        <ele>443</ele>
        <time>2021-02-21T08:58:16Z</time>
      </trkpt>
      <trkpt lat="45.8215" lon="3.5657">
        <ele>443</ele>
        <time>2021-02-21T08:58:19Z</time>
      </trkpt>
      <trkpt lat="45.8215" lon="3.56573">
        <ele>444</ele>
        <time>2021-02-21T08:58:22Z</time>
      </trkpt>
      <trkpt lat="45.82151" lon="3.56576">
        <ele>445</ele>
        <time>2021-02-21T08:58:26Z</time>
      </trkpt>
      <trkpt lat="45.82152" lon="3.56578">
        <ele>445</ele>
        <time>2021-02-21T08:58:28Z</time>
      </trkpt>
      <trkpt lat="45.82154" lon="3.56579">
        <ele>446</ele>
        <time>2021-02-21T08:58:32Z</time>
      </trkpt>
      <trkpt lat="45.82156" lon="3.5658">
        <ele>446</ele>
        <time>2021-02-21T08:58:35Z</time>
      </trkpt>
      <trkpt lat="45.82158" lon="3.56581">
        <ele>447</ele>
        <time>2021-02-21T08:58:39Z</time>
      </trkpt>
      <trkpt lat="45.82159" lon="3.56584">
        <ele>448</ele>
        <time>2021-02-21T08:58:42Z</time>
      </trkpt>
      <trkpt lat="45.82161" lon="3.56586">
        <ele>448</ele>
        <time>2021-02-21T08:58:45Z</time>
      </trkpt>
      <trkpt lat="45.82163" lon="3.56587">
        <ele>449</ele>
        <time>2021-02-21T08:58:48Z</time>
      </trkpt>
      <trkpt lat="45.82165" lon="3.56589">
        <ele>450</ele>
        <time>2021-02-21T08:58:51Z</time>
      </trkpt>
      <trkpt lat="45.82167" lon="3.56591">
        <ele>450</ele>
        <time>2021-02-21T08:58:54Z</time>
      </trkpt>
      <trkpt lat="45.82168" lon="3.56593">
        <ele>451</ele>
        <time>2021-02-21T08:58:57Z</time>
      </trkpt>
      <trkpt lat="45.82169" lon="3.56596">
        <ele>452</ele>
        <time>2021-02-21T08:59:00Z</time>
      </trkpt>
      <trkpt lat="45.82169" lon="3.56598">
        <ele>452</ele>
        <time>2021-02-21T08:59:02Z</time>
      </trkpt>
      <trkpt lat="45.8217" lon="3.56601">
        <ele>453</ele>
        <time>2021-02-21T08:59:04Z</time>
      </trkpt>
      <trkpt lat="45.82171" lon="3.56604">
        <ele>454</ele>
        <time>2021-02-21T08:59:06Z</time>
      </trkpt>
      <trkpt lat="45.8217" lon="3.56607">
        <ele>455</ele>
        <time>2021-02-21T08:59:09Z</time>
      </trkpt>
      <trkpt lat="45.82169" lon="3.56609">
        <ele>455</ele>
        <time>2021-02-21T08:59:13Z</time>
      </trkpt>
      <trkpt lat="45.82167" lon="3.56611">
        <ele>456</ele>
        <time>2021-02-21T08:59:15Z</time>
      </trkpt>
      <trkpt lat="45.82165" lon="3.56613">
        <ele>456</ele>
        <time>2021-02-21T08:59:17Z</time>
      </trkpt>
      <trkpt lat="45.82164" lon="3.56615">
        <ele>457</ele>
        <time>2021-02-21T08:59:19Z</time>
      </trkpt>
      <trkpt lat="45.82162" lon="3.56617">
        <ele>457</ele>
        <time>2021-02-21T08:59:22Z</time>
      </trkpt>
      <trkpt lat="45.82162" lon="3.56621">
        <ele>458</ele>
        <time>2021-02-21T08:59:25Z</time>
      </trkpt>
      <trkpt lat="45.82161" lon="3.56624">
        <ele>459</ele>
        <time>2021-02-21T08:59:29Z</time>
      </trkpt>
      <trkpt lat="45.8216" lon="3.56626">
        <ele>460</ele>
        <time>2021-02-21T08:59:33Z</time>
      </trkpt>
      <trkpt lat="45.82158" lon="3.56627">
        <ele>460</ele>
        <time>2021-02-21T08:59:36Z</time>
      </trkpt>
      <trkpt lat="45.82156" lon="3.56629">
        <ele>460</ele>
        <time>2021-02-21T08:59:38Z</time>
      </trkpt>
      <trkpt lat="45.82155" lon="3.56631">
        <ele>461</ele>
        <time>2021-02-21T08:59:40Z</time>
      </trkpt>
      <trkpt lat="45.82153" lon="3.56633">
        <ele>461</ele>
        <time>2021-02-21T08:59:42Z</time>
      </trkpt>
      <trkpt lat="45.82152" lon="3.56635">
        <ele>462</ele>
        <time>2021-02-21T08:59:44Z</time>
      </trkpt>
      <trkpt lat="45.8215" lon="3.56638">
        <ele>462</ele>
        <time>2021-02-21T08:59:46Z</time>
      </trkpt>
      <trkpt lat="45.82149" lon="3.56641">
        <ele>463</ele>
        <time>2021-02-21T08:59:48Z</time>
      </trkpt>
      <trkpt lat="45.82149" lon="3.56643">
        <ele>464</ele>
        <time>2021-02-21T08:59:50Z</time>
      </trkpt>
      <trkpt lat="45.82147" lon="3.56646">
        <ele>465</ele>
        <time>2021-02-21T08:59:52Z</time>
      </trkpt>
      <trkpt lat="45.82146" lon="3.56649">
        <ele>465</ele>
        <time>2021-02-21T08:59:54Z</time>
      </trkpt>
      <trkpt lat="45.82146" lon="3.56651">
        <ele>466</ele>
        <time>2021-02-21T08:59:56Z</time>
      </trkpt>
      <trkpt lat="45.82145" lon="3.56654">
        <ele>467</ele>
        <time>2021-02-21T08:59:58Z</time>
      </trkpt>
      <trkpt lat="45.82144" lon="3.56656">
        <ele>467</ele>
        <time>2021-02-21T09:00:00Z</time>
      </trkpt>
      <trkpt lat="45.82143" lon="3.56659">
        <ele>468</ele>
        <time>2021-02-21T09:00:03Z</time>
      </trkpt>
      <trkpt lat="45.82142" lon="3.56662">
        <ele>469</ele>
        <time>2021-02-21T09:00:06Z</time>
      </trkpt>
      <trkpt lat="45.82142" lon="3.56665">
        <ele>470</ele>
        <time>2021-02-21T09:00:09Z</time>
      </trkpt>
      <trkpt lat="45.82141" lon="3.56668">
        <ele>471</ele>
        <time>2021-02-21T09:00:12Z</time>
      </trkpt>
      <trkpt lat="45.8214" lon="3.56671">
        <ele>472</ele>
        <time>2021-02-21T09:00:14Z</time>
      </trkpt>
      <trkpt lat="45.8214" lon="3.56673">
        <ele>472</ele>
        <time>2021-02-21T09:00:16Z</time>
      </trkpt>
      <trkpt lat="45.82139" lon="3.56676">
        <ele>473</ele>
        <time>2021-02-21T09:00:18Z</time>
      </trkpt>
      <trkpt lat="45.82138" lon="3.56678">
        <ele>473</ele>
        <time>2021-02-21T09:00:20Z</time>
      </trkpt>
      <trkpt lat="45.82137" lon="3.56681">
        <ele>474</ele>
        <time>2021-02-21T09:00:22Z</time>
      </trkpt>
      <trkpt lat="45.82136" lon="3.56684">
        <ele>474</ele>
        <time>2021-02-21T09:00:25Z</time>
      </trkpt>
      <trkpt lat="45.82134" lon="3.56686">
        <ele>474</ele>
        <time>2021-02-21T09:00:27Z</time>
      </trkpt>
      <trkpt lat="45.82133" lon="3.56689">
        <ele>475</ele>
        <time>2021-02-21T09:00:30Z</time>
      </trkpt>
      <trkpt lat="45.82132" lon="3.56691">
        <ele>475</ele>
        <time>2021-02-21T09:00:32Z</time>
      </trkpt>
      <trkpt lat="45.8213" lon="3.56694">
        <ele>475</ele>
        <time>2021-02-21T09:00:35Z</time>
      </trkpt>
      <trkpt lat="45.82129" lon="3.56698">
        <ele>476</ele>
        <time>2021-02-21T09:00:38Z</time>
      </trkpt>
      <trkpt lat="45.82129" lon="3.567">
        <ele>476</ele>
        <time>2021-02-21T09:00:42Z</time>
      </trkpt>
      <trkpt lat="45.82129" lon="3.56704">
        <ele>477</ele>
        <time>2021-02-21T09:00:46Z</time>
      </trkpt>
      <trkpt lat="45.82127" lon="3.56707">
        <ele>477</ele>
        <time>2021-02-21T09:00:49Z</time>
      </trkpt>
      <trkpt lat="45.82127" lon="3.5671">
        <ele>477</ele>
        <time>2021-02-21T09:00:52Z</time>
      </trkpt>
      <trkpt lat="45.82126" lon="3.56713">
        <ele>478</ele>
        <time>2021-02-21T09:00:55Z</time>
      </trkpt>
      <trkpt lat="45.82125" lon="3.56715">
        <ele>478</ele>
        <time>2021-02-21T09:00:57Z</time>
      </trkpt>
      <trkpt lat="45.82125" lon="3.56719">
        <ele>478</ele>
        <time>2021-02-21T09:01:00Z</time>
      </trkpt>
      <trkpt lat="45.82124" lon="3.56721">
        <ele>479</ele>
        <time>2021-02-21T09:01:02Z</time>
      </trkpt>
      <trkpt lat="45.82123" lon="3.56724">
        <ele>479</ele>
        <time>2021-02-21T09:01:04Z</time>
      </trkpt>
      <trkpt lat="45.82123" lon="3.56727">
        <ele>479</ele>
        <time>2021-02-21T09:01:07Z</time>
      </trkpt>
      <trkpt lat="45.82122" lon="3.5673">
        <ele>479</ele>
        <time>2021-02-21T09:01:09Z</time>
      </trkpt>
      <trkpt lat="45.82118" lon="3.56738">
        <ele>479</ele>
        <time>2021-02-21T09:01:16Z</time>
      </trkpt>
      <trkpt lat="45.82118" lon="3.56741">
        <ele>479</ele>
        <time>2021-02-21T09:01:18Z</time>
      </trkpt>
      <trkpt lat="45.82118" lon="3.56744">
        <ele>479</ele>
        <time>2021-02-21T09:01:20Z</time>
      </trkpt>
      <trkpt lat="45.82119" lon="3.56747">
        <ele>480</ele>
        <time>2021-02-21T09:01:23Z</time>
      </trkpt>
      <trkpt lat="45.8212" lon="3.56749">
        <ele>481</ele>
        <time>2021-02-21T09:01:28Z</time>
      </trkpt>
      <trkpt lat="45.82122" lon="3.5675">
        <ele>481</ele>
        <time>2021-02-21T09:01:32Z</time>
      </trkpt>
      <trkpt lat="45.82124" lon="3.56749">
        <ele>482</ele>
        <time>2021-02-21T09:01:35Z</time>
      </trkpt>
      <trkpt lat="45.82126" lon="3.56748">
        <ele>483</ele>
        <time>2021-02-21T09:01:38Z</time>
      </trkpt>
      <trkpt lat="45.82128" lon="3.56747">
        <ele>483</ele>
        <time>2021-02-21T09:01:41Z</time>
      </trkpt>
      <trkpt lat="45.8213" lon="3.56748">
        <ele>484</ele>
        <time>2021-02-21T09:01:45Z</time>
      </trkpt>
      <trkpt lat="45.82133" lon="3.56748">
        <ele>485</ele>
        <time>2021-02-21T09:01:48Z</time>
      </trkpt>
      <trkpt lat="45.82135" lon="3.56748">
        <ele>486</ele>
        <time>2021-02-21T09:01:51Z</time>
      </trkpt>
      <trkpt lat="45.82138" lon="3.56749">
        <ele>487</ele>
        <time>2021-02-21T09:01:54Z</time>
      </trkpt>
      <trkpt lat="45.8214" lon="3.56748">
        <ele>488</ele>
        <time>2021-02-21T09:01:57Z</time>
      </trkpt>
      <trkpt lat="45.82143" lon="3.56749">
        <ele>488</ele>
        <time>2021-02-21T09:02:00Z</time>
      </trkpt>
      <trkpt lat="45.82145" lon="3.56749">
        <ele>489</ele>
        <time>2021-02-21T09:02:03Z</time>
      </trkpt>
      <trkpt lat="45.82144" lon="3.56747">
        <ele>488</ele>
        <time>2021-02-21T09:02:12Z</time>
      </trkpt>
      <trkpt lat="45.82146" lon="3.56746">
        <ele>489</ele>
        <time>2021-02-21T09:02:46Z</time>
      </trkpt>
      <trkpt lat="45.82148" lon="3.56745">
        <ele>489</ele>
        <time>2021-02-21T09:03:13Z</time>
      </trkpt>
      <trkpt lat="45.8215" lon="3.56743">
        <ele>489</ele>
        <time>2021-02-21T09:03:19Z</time>
      </trkpt>
      <trkpt lat="45.82152" lon="3.56742">
        <ele>490</ele>
        <time>2021-02-21T09:03:32Z</time>
      </trkpt>
      <trkpt lat="45.82151" lon="3.56745">
        <ele>490</ele>
        <time>2021-02-21T09:03:43Z</time>
      </trkpt>
      <trkpt lat="45.82151" lon="3.56748">
        <ele>491</ele>
        <time>2021-02-21T09:03:47Z</time>
      </trkpt>
      <trkpt lat="45.82151" lon="3.56751">
        <ele>491</ele>
        <time>2021-02-21T09:03:51Z</time>
      </trkpt>
      <trkpt lat="45.82149" lon="3.56752">
        <ele>491</ele>
        <time>2021-02-21T09:04:03Z</time>
      </trkpt>
      <trkpt lat="45.82147" lon="3.56751">
        <ele>490</ele>
        <time>2021-02-21T09:04:05Z</time>
      </trkpt>
      <trkpt lat="45.82148" lon="3.56749">
        <ele>490</ele>
        <time>2021-02-21T09:04:26Z</time>
      </trkpt>
      <trkpt lat="45.8215" lon="3.56749">
        <ele>491</ele>
        <time>2021-02-21T09:04:28Z</time>
      </trkpt>
      <trkpt lat="45.82152" lon="3.5675">
        <ele>491</ele>
        <time>2021-02-21T09:04:30Z</time>
      </trkpt>
      <trkpt lat="45.82154" lon="3.5675">
        <ele>492</ele>
        <time>2021-02-21T09:04:32Z</time>
      </trkpt>
      <trkpt lat="45.82156" lon="3.5675">
        <ele>492</ele>
        <time>2021-02-21T09:04:34Z</time>
      </trkpt>
      <trkpt lat="45.82158" lon="3.5675">
        <ele>493</ele>
        <time>2021-02-21T09:04:36Z</time>
      </trkpt>
      <trkpt lat="45.82161" lon="3.56751">
        <ele>494</ele>
        <time>2021-02-21T09:04:38Z</time>
      </trkpt>
      <trkpt lat="45.82163" lon="3.56754">
        <ele>495</ele>
        <time>2021-02-21T09:04:40Z</time>
      </trkpt>
      <trkpt lat="45.82165" lon="3.56756">
        <ele>496</ele>
        <time>2021-02-21T09:04:42Z</time>
      </trkpt>
      <trkpt lat="45.82167" lon="3.56758">
        <ele>497</ele>
        <time>2021-02-21T09:04:44Z</time>
      </trkpt>
      <trkpt lat="45.82168" lon="3.56759">
        <ele>497</ele>
        <time>2021-02-21T09:04:46Z</time>
      </trkpt>
      <trkpt lat="45.8217" lon="3.56762">
        <ele>497</ele>
        <time>2021-02-21T09:04:48Z</time>
      </trkpt>
      <trkpt lat="45.82172" lon="3.56763">
        <ele>498</ele>
        <time>2021-02-21T09:04:50Z</time>
      </trkpt>
      <trkpt lat="45.82174" lon="3.56766">
        <ele>498</ele>
        <time>2021-02-21T09:04:53Z</time>
      </trkpt>
      <trkpt lat="45.82175" lon="3.56768">
        <ele>499</ele>
        <time>2021-02-21T09:04:55Z</time>
      </trkpt>
      <trkpt lat="45.82176" lon="3.56771">
        <ele>499</ele>
        <time>2021-02-21T09:04:57Z</time>
      </trkpt>
      <trkpt lat="45.82177" lon="3.56773">
        <ele>500</ele>
        <time>2021-02-21T09:04:59Z</time>
      </trkpt>
      <trkpt lat="45.82179" lon="3.56775">
        <ele>500</ele>
        <time>2021-02-21T09:05:01Z</time>
      </trkpt>
      <trkpt lat="45.8218" lon="3.56778">
        <ele>500</ele>
        <time>2021-02-21T09:05:03Z</time>
      </trkpt>
      <trkpt lat="45.82181" lon="3.56781">
        <ele>501</ele>
        <time>2021-02-21T09:05:06Z</time>
      </trkpt>
      <trkpt lat="45.82183" lon="3.56783">
        <ele>501</ele>
        <time>2021-02-21T09:05:08Z</time>
      </trkpt>
      <trkpt lat="45.82185" lon="3.56784">
        <ele>502</ele>
        <time>2021-02-21T09:05:10Z</time>
      </trkpt>
      <trkpt lat="45.82187" lon="3.56785">
        <ele>502</ele>
        <time>2021-02-21T09:05:12Z</time>
      </trkpt>
      <trkpt lat="45.82189" lon="3.56787">
        <ele>502</ele>
        <time>2021-02-21T09:05:14Z</time>
      </trkpt>
      <trkpt lat="45.8219" lon="3.56788">
        <ele>503</ele>
        <time>2021-02-21T09:05:16Z</time>
      </trkpt>
      <trkpt lat="45.82192" lon="3.56788">
        <ele>503</ele>
        <time>2021-02-21T09:05:18Z</time>
      </trkpt>
      <trkpt lat="45.82195" lon="3.56788">
        <ele>503</ele>
        <time>2021-02-21T09:05:20Z</time>
      </trkpt>
      <trkpt lat="45.82197" lon="3.56788">
        <ele>503</ele>
        <time>2021-02-21T09:05:22Z</time>
      </trkpt>
      <trkpt lat="45.822" lon="3.56789">
        <ele>503</ele>
        <time>2021-02-21T09:05:25Z</time>
      </trkpt>
      <trkpt lat="45.82202" lon="3.56789">
        <ele>503</ele>
        <time>2021-02-21T09:05:27Z</time>
      </trkpt>
      <trkpt lat="45.82204" lon="3.56791">
        <ele>503</ele>
        <time>2021-02-21T09:05:30Z</time>
      </trkpt>
      <trkpt lat="45.82206" lon="3.56792">
        <ele>504</ele>
        <time>2021-02-21T09:05:32Z</time>
      </trkpt>
      <trkpt lat="45.82208" lon="3.56793">
        <ele>504</ele>
        <time>2021-02-21T09:05:34Z</time>
      </trkpt>
      <trkpt lat="45.8221" lon="3.56794">
        <ele>504</ele>
        <time>2021-02-21T09:05:36Z</time>
      </trkpt>
      <trkpt lat="45.82213" lon="3.56794">
        <ele>504</ele>
        <time>2021-02-21T09:05:38Z</time>
      </trkpt>
      <trkpt lat="45.82215" lon="3.56795">
        <ele>504</ele>
        <time>2021-02-21T09:05:40Z</time>
      </trkpt>
      <trkpt lat="45.82217" lon="3.56796">
        <ele>504</ele>
        <time>2021-02-21T09:05:42Z</time>
      </trkpt>
      <trkpt lat="45.82219" lon="3.56797">
        <ele>504</ele>
        <time>2021-02-21T09:05:44Z</time>
      </trkpt>
      <trkpt lat="45.82221" lon="3.56797">
        <ele>504</ele>
        <time>2021-02-21T09:05:46Z</time>
      </trkpt>
      <trkpt lat="45.82223" lon="3.56798">
        <ele>505</ele>
        <time>2021-02-21T09:05:49Z</time>
      </trkpt>
      <trkpt lat="45.82225" lon="3.56799">
        <ele>505</ele>
        <time>2021-02-21T09:05:52Z</time>
      </trkpt>
      <trkpt lat="45.82227" lon="3.568">
        <ele>505</ele>
        <time>2021-02-21T09:05:55Z</time>
      </trkpt>
      <trkpt lat="45.82228" lon="3.56802">
        <ele>506</ele>
        <time>2021-02-21T09:05:57Z</time>
      </trkpt>
      <trkpt lat="45.8223" lon="3.56804">
        <ele>506</ele>
        <time>2021-02-21T09:05:58Z</time>
      </trkpt>
      <trkpt lat="45.82231" lon="3.56808">
        <ele>507</ele>
        <time>2021-02-21T09:06:00Z</time>
      </trkpt>
      <trkpt lat="45.82231" lon="3.56811">
        <ele>508</ele>
        <time>2021-02-21T09:06:02Z</time>
      </trkpt>
      <trkpt lat="45.82232" lon="3.56814">
        <ele>509</ele>
        <time>2021-02-21T09:06:04Z</time>
      </trkpt>
      <trkpt lat="45.82233" lon="3.56817">
        <ele>510</ele>
        <time>2021-02-21T09:06:06Z</time>
      </trkpt>
      <trkpt lat="45.82234" lon="3.5682">
        <ele>510</ele>
        <time>2021-02-21T09:06:08Z</time>
      </trkpt>
      <trkpt lat="45.82234" lon="3.56823">
        <ele>511</ele>
        <time>2021-02-21T09:06:10Z</time>
      </trkpt>
      <trkpt lat="45.82234" lon="3.56826">
        <ele>511</ele>
        <time>2021-02-21T09:06:12Z</time>
      </trkpt>
      <trkpt lat="45.82234" lon="3.56829">
        <ele>512</ele>
        <time>2021-02-21T09:06:15Z</time>
      </trkpt>
      <trkpt lat="45.82233" lon="3.56833">
        <ele>513</ele>
        <time>2021-02-21T09:06:18Z</time>
      </trkpt>
      <trkpt lat="45.82232" lon="3.56835">
        <ele>513</ele>
        <time>2021-02-21T09:06:20Z</time>
      </trkpt>
      <trkpt lat="45.82232" lon="3.56839">
        <ele>514</ele>
        <time>2021-02-21T09:06:22Z</time>
      </trkpt>
      <trkpt lat="45.82232" lon="3.56841">
        <ele>514</ele>
        <time>2021-02-21T09:06:24Z</time>
      </trkpt>
      <trkpt lat="45.82231" lon="3.56844">
        <ele>515</ele>
        <time>2021-02-21T09:06:26Z</time>
      </trkpt>
      <trkpt lat="45.82231" lon="3.56847">
        <ele>515</ele>
        <time>2021-02-21T09:06:28Z</time>
      </trkpt>
      <trkpt lat="45.82231" lon="3.5685">
        <ele>516</ele>
        <time>2021-02-21T09:06:31Z</time>
      </trkpt>
      <trkpt lat="45.8223" lon="3.56853">
        <ele>516</ele>
        <time>2021-02-21T09:06:34Z</time>
      </trkpt>
      <trkpt lat="45.8223" lon="3.56856">
        <ele>516</ele>
        <time>2021-02-21T09:06:38Z</time>
      </trkpt>
      <trkpt lat="45.82229" lon="3.56859">
        <ele>517</ele>
        <time>2021-02-21T09:06:40Z</time>
      </trkpt>
      <trkpt lat="45.82228" lon="3.56862">
        <ele>517</ele>
        <time>2021-02-21T09:06:42Z</time>
      </trkpt>
      <trkpt lat="45.82227" lon="3.56865">
        <ele>517</ele>
        <time>2021-02-21T09:06:44Z</time>
      </trkpt>
      <trkpt lat="45.82227" lon="3.56868">
        <ele>518</ele>
        <time>2021-02-21T09:06:46Z</time>
      </trkpt>
      <trkpt lat="45.82227" lon="3.56871">
        <ele>518</ele>
        <time>2021-02-21T09:06:48Z</time>
      </trkpt>
      <trkpt lat="45.82226" lon="3.56874">
        <ele>518</ele>
        <time>2021-02-21T09:06:50Z</time>
      </trkpt>
      <trkpt lat="45.82226" lon="3.56877">
        <ele>519</ele>
        <time>2021-02-21T09:06:52Z</time>
      </trkpt>
      <trkpt lat="45.82226" lon="3.56881">
        <ele>519</ele>
        <time>2021-02-21T09:06:55Z</time>
      </trkpt>
      <trkpt lat="45.82226" lon="3.56883">
        <ele>519</ele>
        <time>2021-02-21T09:06:57Z</time>
      </trkpt>
      <trkpt lat="45.82226" lon="3.56886">
        <ele>520</ele>
        <time>2021-02-21T09:06:59Z</time>
      </trkpt>
      <trkpt lat="45.82227" lon="3.56888">
        <ele>521</ele>
        <time>2021-02-21T09:07:01Z</time>
      </trkpt>
      <trkpt lat="45.82229" lon="3.56891">
        <ele>521</ele>
        <time>2021-02-21T09:07:03Z</time>
      </trkpt>
      <trkpt lat="45.82229" lon="3.56894">
        <ele>521</ele>
        <time>2021-02-21T09:07:05Z</time>
      </trkpt>
      <trkpt lat="45.82229" lon="3.56897">
        <ele>522</ele>
        <time>2021-02-21T09:07:07Z</time>
      </trkpt>
      <trkpt lat="45.82229" lon="3.569">
        <ele>522</ele>
        <time>2021-02-21T09:07:09Z</time>
      </trkpt>
      <trkpt lat="45.8223" lon="3.56902">
        <ele>522</ele>
        <time>2021-02-21T09:07:11Z</time>
      </trkpt>
      <trkpt lat="45.82231" lon="3.56905">
        <ele>523</ele>
        <time>2021-02-21T09:07:13Z</time>
      </trkpt>
      <trkpt lat="45.82232" lon="3.56907">
        <ele>523</ele>
        <time>2021-02-21T09:07:15Z</time>
      </trkpt>
      <trkpt lat="45.82233" lon="3.5691">
        <ele>523</ele>
        <time>2021-02-21T09:07:17Z</time>
      </trkpt>
      <trkpt lat="45.82234" lon="3.56912">
        <ele>524</ele>
        <time>2021-02-21T09:07:19Z</time>
      </trkpt>
      <trkpt lat="45.82236" lon="3.56915">
        <ele>524</ele>
        <time>2021-02-21T09:07:22Z</time>
      </trkpt>
      <trkpt lat="45.82237" lon="3.56919">
        <ele>525</ele>
        <time>2021-02-21T09:07:27Z</time>
      </trkpt>
      <trkpt lat="45.82239" lon="3.56921">
        <ele>525</ele>
        <time>2021-02-21T09:07:29Z</time>
      </trkpt>
      <trkpt lat="45.8224" lon="3.56923">
        <ele>525</ele>
        <time>2021-02-21T09:07:31Z</time>
      </trkpt>
      <trkpt lat="45.82242" lon="3.56925">
        <ele>526</ele>
        <time>2021-02-21T09:07:33Z</time>
      </trkpt>
      <trkpt lat="45.82244" lon="3.56927">
        <ele>526</ele>
        <time>2021-02-21T09:07:35Z</time>
      </trkpt>
      <trkpt lat="45.82247" lon="3.56928">
        <ele>526</ele>
        <time>2021-02-21T09:07:38Z</time>
      </trkpt>
      <trkpt lat="45.82249" lon="3.56929">
        <ele>527</ele>
        <time>2021-02-21T09:07:41Z</time>
      </trkpt>
      <trkpt lat="45.82251" lon="3.56929">
        <ele>527</ele>
        <time>2021-02-21T09:07:44Z</time>
      </trkpt>
      <trkpt lat="45.82253" lon="3.5693">
        <ele>527</ele>
        <time>2021-02-21T09:07:46Z</time>
      </trkpt>
      <trkpt lat="45.82255" lon="3.5693">
        <ele>528</ele>
        <time>2021-02-21T09:07:48Z</time>
      </trkpt>
      <trkpt lat="45.82257" lon="3.56931">
        <ele>528</ele>
        <time>2021-02-21T09:07:50Z</time>
      </trkpt>
      <trkpt lat="45.82259" lon="3.56932">
        <ele>528</ele>
        <time>2021-02-21T09:07:52Z</time>
      </trkpt>
      <trkpt lat="45.82261" lon="3.56933">
        <ele>528</ele>
        <time>2021-02-21T09:07:54Z</time>
      </trkpt>
      <trkpt lat="45.82263" lon="3.56936">
        <ele>529</ele>
        <time>2021-02-21T09:07:56Z</time>
      </trkpt>
      <trkpt lat="45.82265" lon="3.56937">
        <ele>529</ele>
        <time>2021-02-21T09:07:58Z</time>
      </trkpt>
      <trkpt lat="45.82267" lon="3.5694">
        <ele>529</ele>
        <time>2021-02-21T09:08:00Z</time>
      </trkpt>
      <trkpt lat="45.8227" lon="3.56942">
        <ele>530</ele>
        <time>2021-02-21T09:08:02Z</time>
      </trkpt>
      <trkpt lat="45.82272" lon="3.56943">
        <ele>530</ele>
        <time>2021-02-21T09:08:04Z</time>
      </trkpt>
      <trkpt lat="45.82274" lon="3.56945">
        <ele>530</ele>
        <time>2021-02-21T09:08:06Z</time>
      </trkpt>
      <trkpt lat="45.82276" lon="3.56949">
        <ele>530</ele>
        <time>2021-02-21T09:08:10Z</time>
      </trkpt>
      <trkpt lat="45.82276" lon="3.56953">
        <ele>531</ele>
        <time>2021-02-21T09:08:20Z</time>
      </trkpt>
      <trkpt lat="45.82278" lon="3.56954">
        <ele>531</ele>
        <time>2021-02-21T09:08:22Z</time>
      </trkpt>
      <trkpt lat="45.82282" lon="3.56955">
        <ele>531</ele>
        <time>2021-02-21T09:08:25Z</time>
      </trkpt>
      <trkpt lat="45.82285" lon="3.56956">
        <ele>532</ele>
        <time>2021-02-21T09:08:27Z</time>
      </trkpt>
      <trkpt lat="45.82288" lon="3.56958">
        <ele>532</ele>
        <time>2021-02-21T09:08:29Z</time>
      </trkpt>
      <trkpt lat="45.82291" lon="3.56959">
        <ele>532</ele>
        <time>2021-02-21T09:08:31Z</time>
      </trkpt>
      <trkpt lat="45.82293" lon="3.5696">
        <ele>533</ele>
        <time>2021-02-21T09:08:33Z</time>
      </trkpt>
      <trkpt lat="45.82296" lon="3.56961">
        <ele>533</ele>
        <time>2021-02-21T09:08:35Z</time>
      </trkpt>
      <trkpt lat="45.82298" lon="3.56963">
        <ele>533</ele>
        <time>2021-02-21T09:08:37Z</time>
      </trkpt>
      <trkpt lat="45.823" lon="3.56966">
        <ele>534</ele>
        <time>2021-02-21T09:08:39Z</time>
      </trkpt>
      <trkpt lat="45.82303" lon="3.56968">
        <ele>534</ele>
        <time>2021-02-21T09:08:41Z</time>
      </trkpt>
      <trkpt lat="45.82305" lon="3.56969">
        <ele>534</ele>
        <time>2021-02-21T09:08:43Z</time>
      </trkpt>
      <trkpt lat="45.82307" lon="3.56971">
        <ele>535</ele>
        <time>2021-02-21T09:08:45Z</time>
      </trkpt>
      <trkpt lat="45.82309" lon="3.56973">
        <ele>535</ele>
        <time>2021-02-21T09:08:47Z</time>
      </trkpt>
      <trkpt lat="45.8231" lon="3.56974">
        <ele>535</ele>
        <time>2021-02-21T09:08:49Z</time>
      </trkpt>
      <trkpt lat="45.82312" lon="3.56977">
        <ele>535</ele>
        <time>2021-02-21T09:08:51Z</time>
      </trkpt>
      <trkpt lat="45.82313" lon="3.56979">
        <ele>535</ele>
        <time>2021-02-21T09:08:53Z</time>
      </trkpt>
      <trkpt lat="45.82316" lon="3.56982">
        <ele>535</ele>
        <time>2021-02-21T09:08:55Z</time>
      </trkpt>
      <trkpt lat="45.82317" lon="3.56985">
        <ele>535</ele>
        <time>2021-02-21T09:08:57Z</time>
      </trkpt>
      <trkpt lat="45.82318" lon="3.56988">
        <ele>535</ele>
        <time>2021-02-21T09:08:59Z</time>
      </trkpt>
      <trkpt lat="45.8232" lon="3.56991">
        <ele>536</ele>
        <time>2021-02-21T09:09:02Z</time>
      </trkpt>
      <trkpt lat="45.82324" lon="3.56996">
        <ele>536</ele>
        <time>2021-02-21T09:09:05Z</time>
      </trkpt>
      <trkpt lat="45.82327" lon="3.56999">
        <ele>536</ele>
        <time>2021-02-21T09:09:07Z</time>
      </trkpt>
      <trkpt lat="45.82329" lon="3.57002">
        <ele>536</ele>
        <time>2021-02-21T09:09:09Z</time>
      </trkpt>
      <trkpt lat="45.82331" lon="3.57005">
        <ele>536</ele>
        <time>2021-02-21T09:09:11Z</time>
      </trkpt>
      <trkpt lat="45.82333" lon="3.57008">
        <ele>536</ele>
        <time>2021-02-21T09:09:13Z</time>
      </trkpt>
      <trkpt lat="45.82335" lon="3.57011">
        <ele>537</ele>
        <time>2021-02-21T09:09:15Z</time>
      </trkpt>
      <trkpt lat="45.82336" lon="3.57013">
        <ele>537</ele>
        <time>2021-02-21T09:09:16Z</time>
      </trkpt>
      <trkpt lat="45.82338" lon="3.57015">
        <ele>537</ele>
        <time>2021-02-21T09:09:18Z</time>
      </trkpt>
      <trkpt lat="45.8234" lon="3.57017">
        <ele>537</ele>
        <time>2021-02-21T09:09:20Z</time>
      </trkpt>
      <trkpt lat="45.82342" lon="3.57018">
        <ele>537</ele>
        <time>2021-02-21T09:09:22Z</time>
      </trkpt>
      <trkpt lat="45.82343" lon="3.5702">
        <ele>537</ele>
        <time>2021-02-21T09:09:24Z</time>
      </trkpt>
      <trkpt lat="45.82345" lon="3.57023">
        <ele>538</ele>
        <time>2021-02-21T09:09:26Z</time>
      </trkpt>
      <trkpt lat="45.82346" lon="3.57025">
        <ele>538</ele>
        <time>2021-02-21T09:09:28Z</time>
      </trkpt>
      <trkpt lat="45.82348" lon="3.57028">
        <ele>538</ele>
        <time>2021-02-21T09:09:30Z</time>
      </trkpt>
      <trkpt lat="45.82349" lon="3.57031">
        <ele>538</ele>
        <time>2021-02-21T09:09:32Z</time>
      </trkpt>
      <trkpt lat="45.82351" lon="3.57034">
        <ele>539</ele>
        <time>2021-02-21T09:09:34Z</time>
      </trkpt>
      <trkpt lat="45.82352" lon="3.57038">
        <ele>539</ele>
        <time>2021-02-21T09:09:36Z</time>
      </trkpt>
      <trkpt lat="45.82357" lon="3.5705">
        <ele>540</ele>
        <time>2021-02-21T09:09:42Z</time>
      </trkpt>
      <trkpt lat="45.82359" lon="3.57055">
        <ele>541</ele>
        <time>2021-02-21T09:09:44Z</time>
      </trkpt>
      <trkpt lat="45.82361" lon="3.57061">
        <ele>542</ele>
        <time>2021-02-21T09:09:47Z</time>
      </trkpt>
      <trkpt lat="45.82361" lon="3.57066">
        <ele>543</ele>
        <time>2021-02-21T09:09:50Z</time>
      </trkpt>
      <trkpt lat="45.82361" lon="3.5707">
        <ele>543</ele>
        <time>2021-02-21T09:09:52Z</time>
      </trkpt>
      <trkpt lat="45.8236" lon="3.57081">
        <ele>544</ele>
        <time>2021-02-21T09:09:58Z</time>
      </trkpt>
      <trkpt lat="45.82361" lon="3.57085">
        <ele>545</ele>
        <time>2021-02-21T09:10:00Z</time>
      </trkpt>
      <trkpt lat="45.8236" lon="3.5709">
        <ele>545</ele>
        <time>2021-02-21T09:10:03Z</time>
      </trkpt>
      <trkpt lat="45.82361" lon="3.57093">
        <ele>546</ele>
        <time>2021-02-21T09:10:05Z</time>
      </trkpt>
      <trkpt lat="45.82362" lon="3.57099">
        <ele>547</ele>
        <time>2021-02-21T09:10:08Z</time>
      </trkpt>
      <trkpt lat="45.82362" lon="3.57103">
        <ele>547</ele>
        <time>2021-02-21T09:10:10Z</time>
      </trkpt>
      <trkpt lat="45.82362" lon="3.57106">
        <ele>548</ele>
        <time>2021-02-21T09:10:12Z</time>
      </trkpt>
      <trkpt lat="45.82362" lon="3.57112">
        <ele>549</ele>
        <time>2021-02-21T09:10:16Z</time>
      </trkpt>
      <trkpt lat="45.82364" lon="3.57124">
        <ele>550</ele>
        <time>2021-02-21T09:10:23Z</time>
      </trkpt>
      <trkpt lat="45.82363" lon="3.57127">
        <ele>550</ele>
        <time>2021-02-21T09:10:25Z</time>
      </trkpt>
      <trkpt lat="45.82363" lon="3.5713">
        <ele>550</ele>
        <time>2021-02-21T09:10:27Z</time>
      </trkpt>
      <trkpt lat="45.82364" lon="3.57134">
        <ele>551</ele>
        <time>2021-02-21T09:10:30Z</time>
      </trkpt>
      <trkpt lat="45.82363" lon="3.57137">
        <ele>551</ele>
        <time>2021-02-21T09:10:32Z</time>
      </trkpt>
      <trkpt lat="45.82364" lon="3.5714">
        <ele>551</ele>
        <time>2021-02-21T09:10:34Z</time>
      </trkpt>
      <trkpt lat="45.82365" lon="3.57144">
        <ele>551</ele>
        <time>2021-02-21T09:10:36Z</time>
      </trkpt>
      <trkpt lat="45.82366" lon="3.57147">
        <ele>551</ele>
        <time>2021-02-21T09:10:38Z</time>
      </trkpt>
      <trkpt lat="45.82367" lon="3.57149">
        <ele>551</ele>
        <time>2021-02-21T09:10:40Z</time>
      </trkpt>
      <trkpt lat="45.82368" lon="3.57151">
        <ele>552</ele>
        <time>2021-02-21T09:10:44Z</time>
      </trkpt>
      <trkpt lat="45.8237" lon="3.57151">
        <ele>552</ele>
        <time>2021-02-21T09:10:46Z</time>
      </trkpt>
      <trkpt lat="45.82372" lon="3.5715">
        <ele>552</ele>
        <time>2021-02-21T09:10:48Z</time>
      </trkpt>
      <trkpt lat="45.82374" lon="3.57149">
        <ele>553</ele>
        <time>2021-02-21T09:10:50Z</time>
      </trkpt>
      <trkpt lat="45.82376" lon="3.57149">
        <ele>553</ele>
        <time>2021-02-21T09:10:52Z</time>
      </trkpt>
      <trkpt lat="45.82378" lon="3.57149">
        <ele>553</ele>
        <time>2021-02-21T09:10:54Z</time>
      </trkpt>
      <trkpt lat="45.82381" lon="3.5715">
        <ele>554</ele>
        <time>2021-02-21T09:10:57Z</time>
      </trkpt>
      <trkpt lat="45.82382" lon="3.5715">
        <ele>554</ele>
        <time>2021-02-21T09:10:59Z</time>
      </trkpt>
      <trkpt lat="45.82385" lon="3.57151">
        <ele>554</ele>
        <time>2021-02-21T09:11:02Z</time>
      </trkpt>
      <trkpt lat="45.82388" lon="3.57152">
        <ele>555</ele>
        <time>2021-02-21T09:11:05Z</time>
      </trkpt>
      <trkpt lat="45.8239" lon="3.57152">
        <ele>555</ele>
        <time>2021-02-21T09:11:07Z</time>
      </trkpt>
      <trkpt lat="45.82393" lon="3.57152">
        <ele>556</ele>
        <time>2021-02-21T09:11:10Z</time>
      </trkpt>
      <trkpt lat="45.82395" lon="3.57152">
        <ele>556</ele>
        <time>2021-02-21T09:11:12Z</time>
      </trkpt>
      <trkpt lat="45.82398" lon="3.57151">
        <ele>556</ele>
        <time>2021-02-21T09:11:14Z</time>
      </trkpt>
      <trkpt lat="45.82401" lon="3.57151">
        <ele>557</ele>
        <time>2021-02-21T09:11:16Z</time>
      </trkpt>
      <trkpt lat="45.82404" lon="3.57153">
        <ele>557</ele>
        <time>2021-02-21T09:11:18Z</time>
      </trkpt>
      <trkpt lat="45.82406" lon="3.57153">
        <ele>558</ele>
        <time>2021-02-21T09:11:20Z</time>
      </trkpt>
      <trkpt lat="45.82409" lon="3.57153">
        <ele>558</ele>
        <time>2021-02-21T09:11:22Z</time>
      </trkpt>
      <trkpt lat="45.82411" lon="3.57153">
        <ele>558</ele>
        <time>2021-02-21T09:11:24Z</time>
      </trkpt>
      <trkpt lat="45.82414" lon="3.57154">
        <ele>559</ele>
        <time>2021-02-21T09:11:27Z</time>
      </trkpt>
      <trkpt lat="45.82416" lon="3.57155">
        <ele>559</ele>
        <time>2021-02-21T09:11:29Z</time>
      </trkpt>
      <trkpt lat="45.82418" lon="3.57156">
        <ele>559</ele>
        <time>2021-02-21T09:11:31Z</time>
      </trkpt>
      <trkpt lat="45.82421" lon="3.57157">
        <ele>560</ele>
        <time>2021-02-21T09:11:34Z</time>
      </trkpt>
      <trkpt lat="45.82422" lon="3.57159">
        <ele>560</ele>
        <time>2021-02-21T09:11:36Z</time>
      </trkpt>
      <trkpt lat="45.82425" lon="3.57161">
        <ele>561</ele>
        <time>2021-02-21T09:11:38Z</time>
      </trkpt>
      <trkpt lat="45.82426" lon="3.57163">
        <ele>561</ele>
        <time>2021-02-21T09:11:40Z</time>
      </trkpt>
      <trkpt lat="45.82429" lon="3.57166">
        <ele>562</ele>
        <time>2021-02-21T09:11:43Z</time>
      </trkpt>
      <trkpt lat="45.82431" lon="3.57168">
        <ele>563</ele>
        <time>2021-02-21T09:11:45Z</time>
      </trkpt>
      <trkpt lat="45.82433" lon="3.5717">
        <ele>563</ele>
        <time>2021-02-21T09:11:47Z</time>
      </trkpt>
      <trkpt lat="45.82435" lon="3.57171">
        <ele>564</ele>
        <time>2021-02-21T09:11:49Z</time>
      </trkpt>
      <trkpt lat="45.82437" lon="3.57173">
        <ele>565</ele>
        <time>2021-02-21T09:11:51Z</time>
      </trkpt>
      <trkpt lat="45.82439" lon="3.57174">
        <ele>565</ele>
        <time>2021-02-21T09:11:53Z</time>
      </trkpt>
      <trkpt lat="45.82441" lon="3.57175">
        <ele>566</ele>
        <time>2021-02-21T09:11:55Z</time>
      </trkpt>
      <trkpt lat="45.82442" lon="3.57176">
        <ele>566</ele>
        <time>2021-02-21T09:11:58Z</time>
      </trkpt>
      <trkpt lat="45.82445" lon="3.57177">
        <ele>567</ele>
        <time>2021-02-21T09:12:01Z</time>
      </trkpt>
      <trkpt lat="45.82447" lon="3.57179">
        <ele>567</ele>
        <time>2021-02-21T09:12:03Z</time>
      </trkpt>
      <trkpt lat="45.82449" lon="3.5718">
        <ele>567</ele>
        <time>2021-02-21T09:12:05Z</time>
      </trkpt>
      <trkpt lat="45.8245" lon="3.5718">
        <ele>567</ele>
        <time>2021-02-21T09:12:07Z</time>
      </trkpt>
      <trkpt lat="45.82453" lon="3.57181">
        <ele>568</ele>
        <time>2021-02-21T09:12:10Z</time>
      </trkpt>
      <trkpt lat="45.82455" lon="3.57182">
        <ele>568</ele>
        <time>2021-02-21T09:12:12Z</time>
      </trkpt>
      <trkpt lat="45.82457" lon="3.57183">
        <ele>568</ele>
        <time>2021-02-21T09:12:14Z</time>
      </trkpt>
      <trkpt lat="45.82459" lon="3.57184">
        <ele>569</ele>
        <time>2021-02-21T09:12:16Z</time>
      </trkpt>
      <trkpt lat="45.82462" lon="3.57184">
        <ele>569</ele>
        <time>2021-02-21T09:12:19Z</time>
      </trkpt>
      <trkpt lat="45.82464" lon="3.57185">
        <ele>569</ele>
        <time>2021-02-21T09:12:21Z</time>
      </trkpt>
      <trkpt lat="45.82467" lon="3.57187">
        <ele>570</ele>
        <time>2021-02-21T09:12:23Z</time>
      </trkpt>
      <trkpt lat="45.82469" lon="3.57187">
        <ele>570</ele>
        <time>2021-02-21T09:12:25Z</time>
      </trkpt>
      <trkpt lat="45.82471" lon="3.57187">
        <ele>570</ele>
        <time>2021-02-21T09:12:27Z</time>
      </trkpt>
      <trkpt lat="45.82473" lon="3.57188">
        <ele>570</ele>
        <time>2021-02-21T09:12:29Z</time>
      </trkpt>
      <trkpt lat="45.82475" lon="3.57189">
        <ele>570</ele>
        <time>2021-02-21T09:12:31Z</time>
      </trkpt>
      <trkpt lat="45.82478" lon="3.57189">
        <ele>570</ele>
        <time>2021-02-21T09:12:34Z</time>
      </trkpt>
      <trkpt lat="45.82479" lon="3.5719">
        <ele>570</ele>
        <time>2021-02-21T09:12:36Z</time>
      </trkpt>
      <trkpt lat="45.82481" lon="3.57191">
        <ele>571</ele>
        <time>2021-02-21T09:12:38Z</time>
      </trkpt>
      <trkpt lat="45.82483" lon="3.57193">
        <ele>571</ele>
        <time>2021-02-21T09:12:40Z</time>
      </trkpt>
      <trkpt lat="45.82485" lon="3.57194">
        <ele>571</ele>
        <time>2021-02-21T09:12:42Z</time>
      </trkpt>
      <trkpt lat="45.82487" lon="3.57195">
        <ele>571</ele>
        <time>2021-02-21T09:12:44Z</time>
      </trkpt>
      <trkpt lat="45.82489" lon="3.57196">
        <ele>571</ele>
        <time>2021-02-21T09:12:46Z</time>
      </trkpt>
      <trkpt lat="45.82491" lon="3.57197">
        <ele>571</ele>
        <time>2021-02-21T09:12:48Z</time>
      </trkpt>
      <trkpt lat="45.82493" lon="3.57197">
        <ele>571</ele>
        <time>2021-02-21T09:12:51Z</time>
      </trkpt>
      <trkpt lat="45.82495" lon="3.57198">
        <ele>572</ele>
        <time>2021-02-21T09:12:53Z</time>
      </trkpt>
      <trkpt lat="45.82496" lon="3.572">
        <ele>572</ele>
        <time>2021-02-21T09:12:55Z</time>
      </trkpt>
      <trkpt lat="45.82498" lon="3.57201">
        <ele>573</ele>
        <time>2021-02-21T09:12:57Z</time>
      </trkpt>
      <trkpt lat="45.825" lon="3.57202">
        <ele>573</ele>
        <time>2021-02-21T09:12:59Z</time>
      </trkpt>
      <trkpt lat="45.82503" lon="3.57203">
        <ele>573</ele>
        <time>2021-02-21T09:13:02Z</time>
      </trkpt>
      <trkpt lat="45.82505" lon="3.57205">
        <ele>574</ele>
        <time>2021-02-21T09:13:04Z</time>
      </trkpt>
      <trkpt lat="45.82507" lon="3.57206">
        <ele>574</ele>
        <time>2021-02-21T09:13:06Z</time>
      </trkpt>
      <trkpt lat="45.82508" lon="3.57206">
        <ele>575</ele>
        <time>2021-02-21T09:13:08Z</time>
      </trkpt>
      <trkpt lat="45.8251" lon="3.57207">
        <ele>575</ele>
        <time>2021-02-21T09:13:10Z</time>
      </trkpt>
      <trkpt lat="45.82512" lon="3.57208">
        <ele>575</ele>
        <time>2021-02-21T09:13:12Z</time>
      </trkpt>
      <trkpt lat="45.82514" lon="3.57209">
        <ele>576</ele>
        <time>2021-02-21T09:13:14Z</time>
      </trkpt>
      <trkpt lat="45.82517" lon="3.57209">
        <ele>576</ele>
        <time>2021-02-21T09:13:16Z</time>
      </trkpt>
      <trkpt lat="45.82519" lon="3.57211">
        <ele>577</ele>
        <time>2021-02-21T09:13:18Z</time>
      </trkpt>
      <trkpt lat="45.82521" lon="3.57212">
        <ele>577</ele>
        <time>2021-02-21T09:13:20Z</time>
      </trkpt>
      <trkpt lat="45.82524" lon="3.57213">
        <ele>578</ele>
        <time>2021-02-21T09:13:23Z</time>
      </trkpt>
      <trkpt lat="45.82526" lon="3.57214">
        <ele>578</ele>
        <time>2021-02-21T09:13:25Z</time>
      </trkpt>
      <trkpt lat="45.82528" lon="3.57215">
        <ele>579</ele>
        <time>2021-02-21T09:13:27Z</time>
      </trkpt>
      <trkpt lat="45.8253" lon="3.57216">
        <ele>579</ele>
        <time>2021-02-21T09:13:29Z</time>
      </trkpt>
      <trkpt lat="45.82532" lon="3.57217">
        <ele>579</ele>
        <time>2021-02-21T09:13:31Z</time>
      </trkpt>
      <trkpt lat="45.82534" lon="3.57218">
        <ele>580</ele>
        <time>2021-02-21T09:13:33Z</time>
      </trkpt>
      <trkpt lat="45.82536" lon="3.57218">
        <ele>580</ele>
        <time>2021-02-21T09:13:35Z</time>
      </trkpt>
      <trkpt lat="45.82539" lon="3.57219">
        <ele>581</ele>
        <time>2021-02-21T09:13:37Z</time>
      </trkpt>
      <trkpt lat="45.82541" lon="3.5722">
        <ele>581</ele>
        <time>2021-02-21T09:13:39Z</time>
      </trkpt>
      <trkpt lat="45.82543" lon="3.5722">
        <ele>582</ele>
        <time>2021-02-21T09:13:41Z</time>
      </trkpt>
      <trkpt lat="45.82545" lon="3.57221">
        <ele>582</ele>
        <time>2021-02-21T09:13:43Z</time>
      </trkpt>
      <trkpt lat="45.82547" lon="3.57222">
        <ele>582</ele>
        <time>2021-02-21T09:13:45Z</time>
      </trkpt>
      <trkpt lat="45.8255" lon="3.57222">
        <ele>583</ele>
        <time>2021-02-21T09:13:47Z</time>
      </trkpt>
      <trkpt lat="45.82552" lon="3.57223">
        <ele>583</ele>
        <time>2021-02-21T09:13:49Z</time>
      </trkpt>
      <trkpt lat="45.82554" lon="3.57223">
        <ele>583</ele>
        <time>2021-02-21T09:13:51Z</time>
      </trkpt>
      <trkpt lat="45.82556" lon="3.57223">
        <ele>584</ele>
        <time>2021-02-21T09:13:53Z</time>
      </trkpt>
      <trkpt lat="45.82559" lon="3.57222">
        <ele>584</ele>
        <time>2021-02-21T09:13:55Z</time>
      </trkpt>
      <trkpt lat="45.82561" lon="3.57222">
        <ele>584</ele>
        <time>2021-02-21T09:13:57Z</time>
      </trkpt>
      <trkpt lat="45.82564" lon="3.57221">
        <ele>585</ele>
        <time>2021-02-21T09:13:59Z</time>
      </trkpt>
      <trkpt lat="45.82566" lon="3.57221">
        <ele>585</ele>
        <time>2021-02-21T09:14:01Z</time>
      </trkpt>
      <trkpt lat="45.82569" lon="3.5722">
        <ele>585</ele>
        <time>2021-02-21T09:14:03Z</time>
      </trkpt>
      <trkpt lat="45.82571" lon="3.5722">
        <ele>586</ele>
        <time>2021-02-21T09:14:05Z</time>
      </trkpt>
      <trkpt lat="45.82574" lon="3.57219">
        <ele>586</ele>
        <time>2021-02-21T09:14:07Z</time>
      </trkpt>
      <trkpt lat="45.82576" lon="3.57219">
        <ele>586</ele>
        <time>2021-02-21T09:14:09Z</time>
      </trkpt>
      <trkpt lat="45.82579" lon="3.57218">
        <ele>587</ele>
        <time>2021-02-21T09:14:11Z</time>
      </trkpt>
      <trkpt lat="45.82581" lon="3.57217">
        <ele>587</ele>
        <time>2021-02-21T09:14:13Z</time>
      </trkpt>
      <trkpt lat="45.82584" lon="3.57216">
        <ele>587</ele>
        <time>2021-02-21T09:14:15Z</time>
      </trkpt>
      <trkpt lat="45.82587" lon="3.57215">
        <ele>588</ele>
        <time>2021-02-21T09:14:17Z</time>
      </trkpt>
      <trkpt lat="45.82589" lon="3.57214">
        <ele>588</ele>
        <time>2021-02-21T09:14:19Z</time>
      </trkpt>
      <trkpt lat="45.82591" lon="3.57214">
        <ele>588</ele>
        <time>2021-02-21T09:14:21Z</time>
      </trkpt>
      <trkpt lat="45.82594" lon="3.57213">
        <ele>588</ele>
        <time>2021-02-21T09:14:23Z</time>
      </trkpt>
      <trkpt lat="45.82597" lon="3.57212">
        <ele>589</ele>
        <time>2021-02-21T09:14:25Z</time>
      </trkpt>
      <trkpt lat="45.826" lon="3.57211">
        <ele>589</ele>
        <time>2021-02-21T09:14:27Z</time>
      </trkpt>
      <trkpt lat="45.82603" lon="3.5721">
        <ele>589</ele>
        <time>2021-02-21T09:14:29Z</time>
      </trkpt>
      <trkpt lat="45.82606" lon="3.57209">
        <ele>590</ele>
        <time>2021-02-21T09:14:31Z</time>
      </trkpt>
      <trkpt lat="45.82608" lon="3.57208">
        <ele>590</ele>
        <time>2021-02-21T09:14:33Z</time>
      </trkpt>
      <trkpt lat="45.82611" lon="3.57207">
        <ele>590</ele>
        <time>2021-02-21T09:14:35Z</time>
      </trkpt>
      <trkpt lat="45.82614" lon="3.57206">
        <ele>590</ele>
        <time>2021-02-21T09:14:37Z</time>
      </trkpt>
      <trkpt lat="45.82617" lon="3.57206">
        <ele>590</ele>
        <time>2021-02-21T09:14:39Z</time>
      </trkpt>
      <trkpt lat="45.8262" lon="3.57205">
        <ele>590</ele>
        <time>2021-02-21T09:14:41Z</time>
      </trkpt>
      <trkpt lat="45.82623" lon="3.57205">
        <ele>590</ele>
        <time>2021-02-21T09:14:43Z</time>
      </trkpt>
      <trkpt lat="45.82626" lon="3.57206">
        <ele>590</ele>
        <time>2021-02-21T09:14:45Z</time>
      </trkpt>
      <trkpt lat="45.82629" lon="3.57207">
        <ele>591</ele>
        <time>2021-02-21T09:14:47Z</time>
      </trkpt>
      <trkpt lat="45.82631" lon="3.57207">
        <ele>591</ele>
        <time>2021-02-21T09:14:49Z</time>
      </trkpt>
      <trkpt lat="45.82634" lon="3.57207">
        <ele>591</ele>
        <time>2021-02-21T09:14:51Z</time>
      </trkpt>
      <trkpt lat="45.82636" lon="3.57207">
        <ele>591</ele>
        <time>2021-02-21T09:14:53Z</time>
      </trkpt>
      <trkpt lat="45.82639" lon="3.57208">
        <ele>591</ele>
        <time>2021-02-21T09:14:55Z</time>
      </trkpt>
      <trkpt lat="45.82642" lon="3.57208">
        <ele>591</ele>
        <time>2021-02-21T09:14:57Z</time>
      </trkpt>
      <trkpt lat="45.82644" lon="3.57209">
        <ele>591</ele>
        <time>2021-02-21T09:14:59Z</time>
      </trkpt>
      <trkpt lat="45.82647" lon="3.57209">
        <ele>592</ele>
        <time>2021-02-21T09:15:01Z</time>
      </trkpt>
      <trkpt lat="45.82649" lon="3.5721">
        <ele>592</ele>
        <time>2021-02-21T09:15:03Z</time>
      </trkpt>
      <trkpt lat="45.82652" lon="3.5721">
        <ele>592</ele>
        <time>2021-02-21T09:15:05Z</time>
      </trkpt>
      <trkpt lat="45.82654" lon="3.57211">
        <ele>592</ele>
        <time>2021-02-21T09:15:07Z</time>
      </trkpt>
      <trkpt lat="45.82656" lon="3.57212">
        <ele>592</ele>
        <time>2021-02-21T09:15:09Z</time>
      </trkpt>
      <trkpt lat="45.82659" lon="3.57212">
        <ele>592</ele>
        <time>2021-02-21T09:15:11Z</time>
      </trkpt>
      <trkpt lat="45.82661" lon="3.57212">
        <ele>592</ele>
        <time>2021-02-21T09:15:13Z</time>
      </trkpt>
      <trkpt lat="45.82664" lon="3.57212">
        <ele>591</ele>
        <time>2021-02-21T09:15:15Z</time>
      </trkpt>
      <trkpt lat="45.82667" lon="3.57211">
        <ele>591</ele>
        <time>2021-02-21T09:15:17Z</time>
      </trkpt>
      <trkpt lat="45.82671" lon="3.57211">
        <ele>591</ele>
        <time>2021-02-21T09:15:19Z</time>
      </trkpt>
      <trkpt lat="45.82673" lon="3.5721">
        <ele>591</ele>
        <time>2021-02-21T09:15:21Z</time>
      </trkpt>
      <trkpt lat="45.82676" lon="3.5721">
        <ele>591</ele>
        <time>2021-02-21T09:15:23Z</time>
      </trkpt>
      <trkpt lat="45.82678" lon="3.57211">
        <ele>591</ele>
        <time>2021-02-21T09:15:25Z</time>
      </trkpt>
      <trkpt lat="45.82681" lon="3.57209">
        <ele>591</ele>
        <time>2021-02-21T09:15:30Z</time>
      </trkpt>
      <trkpt lat="45.82683" lon="3.57209">
        <ele>591</ele>
        <time>2021-02-21T09:15:32Z</time>
      </trkpt>
      <trkpt lat="45.82685" lon="3.57208">
        <ele>591</ele>
        <time>2021-02-21T09:15:33Z</time>
      </trkpt>
      <trkpt lat="45.82687" lon="3.57208">
        <ele>591</ele>
        <time>2021-02-21T09:15:34Z</time>
      </trkpt>
      <trkpt lat="45.8269" lon="3.57208">
        <ele>591</ele>
        <time>2021-02-21T09:15:36Z</time>
      </trkpt>
      <trkpt lat="45.82694" lon="3.57208">
        <ele>591</ele>
        <time>2021-02-21T09:15:38Z</time>
      </trkpt>
      <trkpt lat="45.82697" lon="3.57208">
        <ele>591</ele>
        <time>2021-02-21T09:15:40Z</time>
      </trkpt>
      <trkpt lat="45.82701" lon="3.57209">
        <ele>591</ele>
        <time>2021-02-21T09:15:42Z</time>
      </trkpt>
      <trkpt lat="45.82704" lon="3.57209">
        <ele>591</ele>
        <time>2021-02-21T09:15:44Z</time>
      </trkpt>
      <trkpt lat="45.82706" lon="3.5721">
        <ele>591</ele>
        <time>2021-02-21T09:15:46Z</time>
      </trkpt>
      <trkpt lat="45.82709" lon="3.57211">
        <ele>591</ele>
        <time>2021-02-21T09:15:48Z</time>
      </trkpt>
      <trkpt lat="45.8271" lon="3.57213">
        <ele>592</ele>
        <time>2021-02-21T09:15:49Z</time>
      </trkpt>
      <trkpt lat="45.82713" lon="3.57215">
        <ele>592</ele>
        <time>2021-02-21T09:15:51Z</time>
      </trkpt>
      <trkpt lat="45.82716" lon="3.57216">
        <ele>592</ele>
        <time>2021-02-21T09:15:53Z</time>
      </trkpt>
      <trkpt lat="45.82719" lon="3.57218">
        <ele>592</ele>
        <time>2021-02-21T09:15:55Z</time>
      </trkpt>
      <trkpt lat="45.82721" lon="3.57219">
        <ele>592</ele>
        <time>2021-02-21T09:15:57Z</time>
      </trkpt>
      <trkpt lat="45.82725" lon="3.57223">
        <ele>593</ele>
        <time>2021-02-21T09:16:00Z</time>
      </trkpt>
      <trkpt lat="45.82728" lon="3.57225">
        <ele>593</ele>
        <time>2021-02-21T09:16:02Z</time>
      </trkpt>
      <trkpt lat="45.82729" lon="3.57227">
        <ele>593</ele>
        <time>2021-02-21T09:16:03Z</time>
      </trkpt>
      <trkpt lat="45.82733" lon="3.57231">
        <ele>593</ele>
        <time>2021-02-21T09:16:06Z</time>
      </trkpt>
      <trkpt lat="45.82735" lon="3.57232">
        <ele>594</ele>
        <time>2021-02-21T09:16:08Z</time>
      </trkpt>
      <trkpt lat="45.82738" lon="3.57233">
        <ele>594</ele>
        <time>2021-02-21T09:16:10Z</time>
      </trkpt>
      <trkpt lat="45.8274" lon="3.57234">
        <ele>594</ele>
        <time>2021-02-21T09:16:12Z</time>
      </trkpt>
      <trkpt lat="45.82742" lon="3.57236">
        <ele>594</ele>
        <time>2021-02-21T09:16:14Z</time>
      </trkpt>
      <trkpt lat="45.82745" lon="3.57238">
        <ele>594</ele>
        <time>2021-02-21T09:16:16Z</time>
      </trkpt>
      <trkpt lat="45.82747" lon="3.57241">
        <ele>595</ele>
        <time>2021-02-21T09:16:17Z</time>
      </trkpt>
      <trkpt lat="45.82749" lon="3.57242">
        <ele>595</ele>
        <time>2021-02-21T09:16:18Z</time>
      </trkpt>
      <trkpt lat="45.82751" lon="3.57245">
        <ele>595</ele>
        <time>2021-02-21T09:16:20Z</time>
      </trkpt>
      <trkpt lat="45.82753" lon="3.57247">
        <ele>595</ele>
        <time>2021-02-21T09:16:22Z</time>
      </trkpt>
      <trkpt lat="45.82756" lon="3.57249">
        <ele>595</ele>
        <time>2021-02-21T09:16:24Z</time>
      </trkpt>
      <trkpt lat="45.82759" lon="3.5725">
        <ele>596</ele>
        <time>2021-02-21T09:16:26Z</time>
      </trkpt>
      <trkpt lat="45.82761" lon="3.57252">
        <ele>596</ele>
        <time>2021-02-21T09:16:28Z</time>
      </trkpt>
      <trkpt lat="45.82763" lon="3.57254">
        <ele>596</ele>
        <time>2021-02-21T09:16:30Z</time>
      </trkpt>
      <trkpt lat="45.82765" lon="3.57255">
        <ele>596</ele>
        <time>2021-02-21T09:16:32Z</time>
      </trkpt>
      <trkpt lat="45.82767" lon="3.57257">
        <ele>596</ele>
        <time>2021-02-21T09:16:35Z</time>
      </trkpt>
      <trkpt lat="45.82769" lon="3.57259">
        <ele>596</ele>
        <time>2021-02-21T09:16:37Z</time>
      </trkpt>
      <trkpt lat="45.82771" lon="3.57262">
        <ele>596</ele>
        <time>2021-02-21T09:16:39Z</time>
      </trkpt>
      <trkpt lat="45.82773" lon="3.57264">
        <ele>596</ele>
        <time>2021-02-21T09:16:41Z</time>
      </trkpt>
      <trkpt lat="45.82776" lon="3.57266">
        <ele>596</ele>
        <time>2021-02-21T09:16:43Z</time>
      </trkpt>
      <trkpt lat="45.82777" lon="3.57267">
        <ele>596</ele>
        <time>2021-02-21T09:16:44Z</time>
      </trkpt>
      <trkpt lat="45.8278" lon="3.57269">
        <ele>596</ele>
        <time>2021-02-21T09:16:46Z</time>
      </trkpt>
      <trkpt lat="45.82783" lon="3.57271">
        <ele>596</ele>
        <time>2021-02-21T09:16:48Z</time>
      </trkpt>
      <trkpt lat="45.82786" lon="3.57273">
        <ele>596</ele>
        <time>2021-02-21T09:16:50Z</time>
      </trkpt>
      <trkpt lat="45.82788" lon="3.57274">
        <ele>596</ele>
        <time>2021-02-21T09:16:54Z</time>
      </trkpt>
      <trkpt lat="45.82791" lon="3.57276">
        <ele>596</ele>
        <time>2021-02-21T09:16:56Z</time>
      </trkpt>
      <trkpt lat="45.82793" lon="3.57277">
        <ele>596</ele>
        <time>2021-02-21T09:16:58Z</time>
      </trkpt>
      <trkpt lat="45.82796" lon="3.57277">
        <ele>596</ele>
        <time>2021-02-21T09:17:00Z</time>
      </trkpt>
      <trkpt lat="45.82799" lon="3.57277">
        <ele>596</ele>
        <time>2021-02-21T09:17:02Z</time>
      </trkpt>
      <trkpt lat="45.82801" lon="3.57277">
        <ele>596</ele>
        <time>2021-02-21T09:17:04Z</time>
      </trkpt>
      <trkpt lat="45.82804" lon="3.57277">
        <ele>596</ele>
        <time>2021-02-21T09:17:06Z</time>
      </trkpt>
      <trkpt lat="45.82806" lon="3.57277">
        <ele>595</ele>
        <time>2021-02-21T09:17:08Z</time>
      </trkpt>
      <trkpt lat="45.82809" lon="3.57277">
        <ele>595</ele>
        <time>2021-02-21T09:17:10Z</time>
      </trkpt>
      <trkpt lat="45.82812" lon="3.57277">
        <ele>595</ele>
        <time>2021-02-21T09:17:12Z</time>
      </trkpt>
      <trkpt lat="45.82814" lon="3.57277">
        <ele>594</ele>
        <time>2021-02-21T09:17:14Z</time>
      </trkpt>
      <trkpt lat="45.82817" lon="3.57277">
        <ele>594</ele>
        <time>2021-02-21T09:17:16Z</time>
      </trkpt>
      <trkpt lat="45.8282" lon="3.57277">
        <ele>594</ele>
        <time>2021-02-21T09:17:18Z</time>
      </trkpt>
      <trkpt lat="45.82822" lon="3.57278">
        <ele>594</ele>
        <time>2021-02-21T09:17:20Z</time>
      </trkpt>
      <trkpt lat="45.82824" lon="3.57278">
        <ele>593</ele>
        <time>2021-02-21T09:17:22Z</time>
      </trkpt>
      <trkpt lat="45.82826" lon="3.57278">
        <ele>593</ele>
        <time>2021-02-21T09:17:24Z</time>
      </trkpt>
      <trkpt lat="45.82829" lon="3.57279">
        <ele>593</ele>
        <time>2021-02-21T09:17:26Z</time>
      </trkpt>
      <trkpt lat="45.82831" lon="3.57279">
        <ele>593</ele>
        <time>2021-02-21T09:17:28Z</time>
      </trkpt>
      <trkpt lat="45.82833" lon="3.5728">
        <ele>593</ele>
        <time>2021-02-21T09:17:30Z</time>
      </trkpt>
      <trkpt lat="45.82835" lon="3.57281">
        <ele>593</ele>
        <time>2021-02-21T09:17:32Z</time>
      </trkpt>
      <trkpt lat="45.82837" lon="3.57282">
        <ele>593</ele>
        <time>2021-02-21T09:17:34Z</time>
      </trkpt>
      <trkpt lat="45.82839" lon="3.57282">
        <ele>593</ele>
        <time>2021-02-21T09:17:36Z</time>
      </trkpt>
      <trkpt lat="45.8284" lon="3.57283">
        <ele>593</ele>
        <time>2021-02-21T09:17:38Z</time>
      </trkpt>
      <trkpt lat="45.82842" lon="3.57285">
        <ele>594</ele>
        <time>2021-02-21T09:17:40Z</time>
      </trkpt>
      <trkpt lat="45.82844" lon="3.57286">
        <ele>594</ele>
        <time>2021-02-21T09:17:42Z</time>
      </trkpt>
      <trkpt lat="45.82846" lon="3.57287">
        <ele>594</ele>
        <time>2021-02-21T09:17:44Z</time>
      </trkpt>
      <trkpt lat="45.82848" lon="3.57289">
        <ele>594</ele>
        <time>2021-02-21T09:17:46Z</time>
      </trkpt>
      <trkpt lat="45.8285" lon="3.5729">
        <ele>594</ele>
        <time>2021-02-21T09:17:48Z</time>
      </trkpt>
      <trkpt lat="45.82852" lon="3.5729">
        <ele>594</ele>
        <time>2021-02-21T09:17:50Z</time>
      </trkpt>
      <trkpt lat="45.82854" lon="3.57291">
        <ele>594</ele>
        <time>2021-02-21T09:17:52Z</time>
      </trkpt>
      <trkpt lat="45.82857" lon="3.57292">
        <ele>595</ele>
        <time>2021-02-21T09:17:54Z</time>
      </trkpt>
      <trkpt lat="45.82859" lon="3.57293">
        <ele>595</ele>
        <time>2021-02-21T09:17:56Z</time>
      </trkpt>
      <trkpt lat="45.82861" lon="3.57295">
        <ele>595</ele>
        <time>2021-02-21T09:17:58Z</time>
      </trkpt>
      <trkpt lat="45.82863" lon="3.57297">
        <ele>595</ele>
        <time>2021-02-21T09:18:00Z</time>
      </trkpt>
      <trkpt lat="45.82865" lon="3.57299">
        <ele>596</ele>
        <time>2021-02-21T09:18:02Z</time>
      </trkpt>
      <trkpt lat="45.82867" lon="3.573">
        <ele>596</ele>
        <time>2021-02-21T09:18:04Z</time>
      </trkpt>
      <trkpt lat="45.8287" lon="3.57301">
        <ele>596</ele>
        <time>2021-02-21T09:18:06Z</time>
      </trkpt>
      <trkpt lat="45.82872" lon="3.57303">
        <ele>597</ele>
        <time>2021-02-21T09:18:08Z</time>
      </trkpt>
      <trkpt lat="45.82874" lon="3.57304">
        <ele>597</ele>
        <time>2021-02-21T09:18:10Z</time>
      </trkpt>
      <trkpt lat="45.82876" lon="3.57305">
        <ele>598</ele>
        <time>2021-02-21T09:18:12Z</time>
      </trkpt>
      <trkpt lat="45.82879" lon="3.57307">
        <ele>598</ele>
        <time>2021-02-21T09:18:14Z</time>
      </trkpt>
      <trkpt lat="45.82881" lon="3.57309">
        <ele>598</ele>
        <time>2021-02-21T09:18:16Z</time>
      </trkpt>
      <trkpt lat="45.82883" lon="3.5731">
        <ele>599</ele>
        <time>2021-02-21T09:18:18Z</time>
      </trkpt>
      <trkpt lat="45.82885" lon="3.57312">
        <ele>599</ele>
        <time>2021-02-21T09:18:20Z</time>
      </trkpt>
      <trkpt lat="45.82888" lon="3.57314">
        <ele>599</ele>
        <time>2021-02-21T09:18:22Z</time>
      </trkpt>
      <trkpt lat="45.8289" lon="3.57316">
        <ele>600</ele>
        <time>2021-02-21T09:18:24Z</time>
      </trkpt>
      <trkpt lat="45.82892" lon="3.57318">
        <ele>600</ele>
        <time>2021-02-21T09:18:26Z</time>
      </trkpt>
      <trkpt lat="45.82894" lon="3.57321">
        <ele>601</ele>
        <time>2021-02-21T09:18:28Z</time>
      </trkpt>
      <trkpt lat="45.82896" lon="3.57323">
        <ele>601</ele>
        <time>2021-02-21T09:18:30Z</time>
      </trkpt>
      <trkpt lat="45.82898" lon="3.57325">
        <ele>602</ele>
        <time>2021-02-21T09:18:32Z</time>
      </trkpt>
      <trkpt lat="45.829" lon="3.57328">
        <ele>602</ele>
        <time>2021-02-21T09:18:34Z</time>
      </trkpt>
      <trkpt lat="45.82903" lon="3.5733">
        <ele>603</ele>
        <time>2021-02-21T09:18:36Z</time>
      </trkpt>
      <trkpt lat="45.82905" lon="3.57332">
        <ele>604</ele>
        <time>2021-02-21T09:18:38Z</time>
      </trkpt>
      <trkpt lat="45.82907" lon="3.57334">
        <ele>604</ele>
        <time>2021-02-21T09:18:40Z</time>
      </trkpt>
      <trkpt lat="45.82909" lon="3.57336">
        <ele>605</ele>
        <time>2021-02-21T09:18:42Z</time>
      </trkpt>
      <trkpt lat="45.82911" lon="3.57339">
        <ele>605</ele>
        <time>2021-02-21T09:18:44Z</time>
      </trkpt>
      <trkpt lat="45.82914" lon="3.5734">
        <ele>605</ele>
        <time>2021-02-21T09:18:46Z</time>
      </trkpt>
      <trkpt lat="45.82916" lon="3.57343">
        <ele>606</ele>
        <time>2021-02-21T09:18:48Z</time>
      </trkpt>
      <trkpt lat="45.82918" lon="3.57345">
        <ele>606</ele>
        <time>2021-02-21T09:18:50Z</time>
      </trkpt>
      <trkpt lat="45.8292" lon="3.57348">
        <ele>606</ele>
        <time>2021-02-21T09:18:52Z</time>
      </trkpt>
      <trkpt lat="45.82922" lon="3.5735">
        <ele>606</ele>
        <time>2021-02-21T09:18:54Z</time>
      </trkpt>
      <trkpt lat="45.82924" lon="3.57353">
        <ele>606</ele>
        <time>2021-02-21T09:18:56Z</time>
      </trkpt>
      <trkpt lat="45.82926" lon="3.57355">
        <ele>606</ele>
        <time>2021-02-21T09:18:58Z</time>
      </trkpt>
      <trkpt lat="45.82928" lon="3.57358">
        <ele>606</ele>
        <time>2021-02-21T09:19:00Z</time>
      </trkpt>
      <trkpt lat="45.82929" lon="3.57361">
        <ele>606</ele>
        <time>2021-02-21T09:19:02Z</time>
      </trkpt>
      <trkpt lat="45.82931" lon="3.57364">
        <ele>606</ele>
        <time>2021-02-21T09:19:04Z</time>
      </trkpt>
      <trkpt lat="45.82933" lon="3.57367">
        <ele>606</ele>
        <time>2021-02-21T09:19:06Z</time>
      </trkpt>
      <trkpt lat="45.82934" lon="3.57371">
        <ele>606</ele>
        <time>2021-02-21T09:19:08Z</time>
      </trkpt>
      <trkpt lat="45.82936" lon="3.57374">
        <ele>606</ele>
        <time>2021-02-21T09:19:10Z</time>
      </trkpt>
      <trkpt lat="45.82937" lon="3.57378">
        <ele>606</ele>
        <time>2021-02-21T09:19:12Z</time>
      </trkpt>
      <trkpt lat="45.82939" lon="3.57382">
        <ele>606</ele>
        <time>2021-02-21T09:19:14Z</time>
      </trkpt>
      <trkpt lat="45.8294" lon="3.57385">
        <ele>606</ele>
        <time>2021-02-21T09:19:16Z</time>
      </trkpt>
      <trkpt lat="45.82941" lon="3.57389">
        <ele>606</ele>
        <time>2021-02-21T09:19:18Z</time>
      </trkpt>
      <trkpt lat="45.82942" lon="3.57393">
        <ele>606</ele>
        <time>2021-02-21T09:19:20Z</time>
      </trkpt>
      <trkpt lat="45.82942" lon="3.57396">
        <ele>605</ele>
        <time>2021-02-21T09:19:22Z</time>
      </trkpt>
      <trkpt lat="45.82943" lon="3.574">
        <ele>605</ele>
        <time>2021-02-21T09:19:24Z</time>
      </trkpt>
      <trkpt lat="45.82944" lon="3.57403">
        <ele>605</ele>
        <time>2021-02-21T09:19:26Z</time>
      </trkpt>
      <trkpt lat="45.82946" lon="3.57407">
        <ele>605</ele>
        <time>2021-02-21T09:19:28Z</time>
      </trkpt>
      <trkpt lat="45.82947" lon="3.5741">
        <ele>605</ele>
        <time>2021-02-21T09:19:30Z</time>
      </trkpt>
      <trkpt lat="45.82949" lon="3.57414">
        <ele>605</ele>
        <time>2021-02-21T09:19:32Z</time>
      </trkpt>
      <trkpt lat="45.8295" lon="3.57418">
        <ele>605</ele>
        <time>2021-02-21T09:19:34Z</time>
      </trkpt>
      <trkpt lat="45.82951" lon="3.57421">
        <ele>605</ele>
        <time>2021-02-21T09:19:36Z</time>
      </trkpt>
      <trkpt lat="45.82952" lon="3.57425">
        <ele>605</ele>
        <time>2021-02-21T09:19:38Z</time>
      </trkpt>
      <trkpt lat="45.82953" lon="3.57428">
        <ele>605</ele>
        <time>2021-02-21T09:19:40Z</time>
      </trkpt>
      <trkpt lat="45.82954" lon="3.57432">
        <ele>605</ele>
        <time>2021-02-21T09:19:42Z</time>
      </trkpt>
      <trkpt lat="45.82955" lon="3.57435">
        <ele>605</ele>
        <time>2021-02-21T09:19:44Z</time>
      </trkpt>
      <trkpt lat="45.82956" lon="3.57439">
        <ele>605</ele>
        <time>2021-02-21T09:19:46Z</time>
      </trkpt>
      <trkpt lat="45.82957" lon="3.57442">
        <ele>605</ele>
        <time>2021-02-21T09:19:48Z</time>
      </trkpt>
      <trkpt lat="45.82958" lon="3.57445">
        <ele>605</ele>
        <time>2021-02-21T09:19:50Z</time>
      </trkpt>
      <trkpt lat="45.82959" lon="3.57448">
        <ele>605</ele>
        <time>2021-02-21T09:19:52Z</time>
      </trkpt>
      <trkpt lat="45.8296" lon="3.57451">
        <ele>605</ele>
        <time>2021-02-21T09:19:54Z</time>
      </trkpt>
      <trkpt lat="45.82961" lon="3.57455">
        <ele>604</ele>
        <time>2021-02-21T09:19:56Z</time>
      </trkpt>
      <trkpt lat="45.82962" lon="3.57458">
        <ele>604</ele>
        <time>2021-02-21T09:19:58Z</time>
      </trkpt>
      <trkpt lat="45.82964" lon="3.57461">
        <ele>604</ele>
        <time>2021-02-21T09:20:00Z</time>
      </trkpt>
      <trkpt lat="45.82966" lon="3.57465">
        <ele>604</ele>
        <time>2021-02-21T09:20:02Z</time>
      </trkpt>
      <trkpt lat="45.82966" lon="3.57468">
        <ele>604</ele>
        <time>2021-02-21T09:20:04Z</time>
      </trkpt>
      <trkpt lat="45.82967" lon="3.57472">
        <ele>604</ele>
        <time>2021-02-21T09:20:06Z</time>
      </trkpt>
      <trkpt lat="45.82968" lon="3.57476">
        <ele>604</ele>
        <time>2021-02-21T09:20:08Z</time>
      </trkpt>
      <trkpt lat="45.82968" lon="3.5748">
        <ele>604</ele>
        <time>2021-02-21T09:20:10Z</time>
      </trkpt>
      <trkpt lat="45.82969" lon="3.57483">
        <ele>604</ele>
        <time>2021-02-21T09:20:12Z</time>
      </trkpt>
      <trkpt lat="45.8297" lon="3.57487">
        <ele>604</ele>
        <time>2021-02-21T09:20:14Z</time>
      </trkpt>
      <trkpt lat="45.82971" lon="3.5749">
        <ele>604</ele>
        <time>2021-02-21T09:20:16Z</time>
      </trkpt>
      <trkpt lat="45.82972" lon="3.57494">
        <ele>604</ele>
        <time>2021-02-21T09:20:18Z</time>
      </trkpt>
      <trkpt lat="45.82972" lon="3.57497">
        <ele>603</ele>
        <time>2021-02-21T09:20:20Z</time>
      </trkpt>
      <trkpt lat="45.82973" lon="3.57501">
        <ele>603</ele>
        <time>2021-02-21T09:20:22Z</time>
      </trkpt>
      <trkpt lat="45.82975" lon="3.57504">
        <ele>603</ele>
        <time>2021-02-21T09:20:24Z</time>
      </trkpt>
      <trkpt lat="45.82976" lon="3.57509">
        <ele>603</ele>
        <time>2021-02-21T09:20:26Z</time>
      </trkpt>
      <trkpt lat="45.82977" lon="3.57512">
        <ele>603</ele>
        <time>2021-02-21T09:20:28Z</time>
      </trkpt>
      <trkpt lat="45.82978" lon="3.57515">
        <ele>603</ele>
        <time>2021-02-21T09:20:30Z</time>
      </trkpt>
      <trkpt lat="45.82979" lon="3.57518">
        <ele>603</ele>
        <time>2021-02-21T09:20:32Z</time>
      </trkpt>
      <trkpt lat="45.8298" lon="3.5752">
        <ele>603</ele>
        <time>2021-02-21T09:20:34Z</time>
      </trkpt>
      <trkpt lat="45.82982" lon="3.57523">
        <ele>603</ele>
        <time>2021-02-21T09:20:36Z</time>
      </trkpt>
      <trkpt lat="45.82984" lon="3.57524">
        <ele>602</ele>
        <time>2021-02-21T09:20:38Z</time>
      </trkpt>
      <trkpt lat="45.82986" lon="3.57526">
        <ele>602</ele>
        <time>2021-02-21T09:20:40Z</time>
      </trkpt>
      <trkpt lat="45.82988" lon="3.57528">
        <ele>601</ele>
        <time>2021-02-21T09:20:42Z</time>
      </trkpt>
      <trkpt lat="45.8299" lon="3.5753">
        <ele>601</ele>
        <time>2021-02-21T09:20:44Z</time>
      </trkpt>
      <trkpt lat="45.82992" lon="3.57531">
        <ele>601</ele>
        <time>2021-02-21T09:20:46Z</time>
      </trkpt>
      <trkpt lat="45.82995" lon="3.57531">
        <ele>600</ele>
        <time>2021-02-21T09:20:48Z</time>
      </trkpt>
      <trkpt lat="45.82997" lon="3.57531">
        <ele>599</ele>
        <time>2021-02-21T09:20:50Z</time>
      </trkpt>
      <trkpt lat="45.83" lon="3.57531">
        <ele>598</ele>
        <time>2021-02-21T09:20:52Z</time>
      </trkpt>
      <trkpt lat="45.83002" lon="3.57531">
        <ele>598</ele>
        <time>2021-02-21T09:20:54Z</time>
      </trkpt>
      <trkpt lat="45.83005" lon="3.57531">
        <ele>598</ele>
        <time>2021-02-21T09:20:56Z</time>
      </trkpt>
      <trkpt lat="45.83007" lon="3.57531">
        <ele>597</ele>
        <time>2021-02-21T09:20:58Z</time>
      </trkpt>
      <trkpt lat="45.83009" lon="3.57531">
        <ele>597</ele>
        <time>2021-02-21T09:21:00Z</time>
      </trkpt>
      <trkpt lat="45.83011" lon="3.57532">
        <ele>597</ele>
        <time>2021-02-21T09:21:02Z</time>
      </trkpt>
      <trkpt lat="45.83014" lon="3.57533">
        <ele>597</ele>
        <time>2021-02-21T09:21:04Z</time>
      </trkpt>
      <trkpt lat="45.83016" lon="3.57534">
        <ele>597</ele>
        <time>2021-02-21T09:21:06Z</time>
      </trkpt>
      <trkpt lat="45.83018" lon="3.57534">
        <ele>596</ele>
        <time>2021-02-21T09:21:08Z</time>
      </trkpt>
      <trkpt lat="45.8302" lon="3.57534">
        <ele>596</ele>
        <time>2021-02-21T09:21:10Z</time>
      </trkpt>
      <trkpt lat="45.83023" lon="3.57534">
        <ele>596</ele>
        <time>2021-02-21T09:21:12Z</time>
      </trkpt>
      <trkpt lat="45.83025" lon="3.57534">
        <ele>595</ele>
        <time>2021-02-21T09:21:14Z</time>
      </trkpt>
      <trkpt lat="45.83027" lon="3.57534">
        <ele>595</ele>
        <time>2021-02-21T09:21:16Z</time>
      </trkpt>
      <trkpt lat="45.8303" lon="3.57534">
        <ele>595</ele>
        <time>2021-02-21T09:21:18Z</time>
      </trkpt>
      <trkpt lat="45.83033" lon="3.57535">
        <ele>595</ele>
        <time>2021-02-21T09:21:20Z</time>
      </trkpt>
      <trkpt lat="45.83035" lon="3.57535">
        <ele>595</ele>
        <time>2021-02-21T09:21:22Z</time>
      </trkpt>
      <trkpt lat="45.83038" lon="3.57535">
        <ele>595</ele>
        <time>2021-02-21T09:21:24Z</time>
      </trkpt>
      <trkpt lat="45.83041" lon="3.57536">
        <ele>595</ele>
        <time>2021-02-21T09:21:26Z</time>
      </trkpt>
      <trkpt lat="45.83043" lon="3.57536">
        <ele>595</ele>
        <time>2021-02-21T09:21:28Z</time>
      </trkpt>
      <trkpt lat="45.83046" lon="3.57536">
        <ele>595</ele>
        <time>2021-02-21T09:21:30Z</time>
      </trkpt>
      <trkpt lat="45.83049" lon="3.57536">
        <ele>595</ele>
        <time>2021-02-21T09:21:32Z</time>
      </trkpt>
      <trkpt lat="45.83051" lon="3.57537">
        <ele>595</ele>
        <time>2021-02-21T09:21:34Z</time>
      </trkpt>
      <trkpt lat="45.83054" lon="3.57537">
        <ele>595</ele>
        <time>2021-02-21T09:21:36Z</time>
      </trkpt>
      <trkpt lat="45.83057" lon="3.57538">
        <ele>595</ele>
        <time>2021-02-21T09:21:38Z</time>
      </trkpt>
      <trkpt lat="45.8306" lon="3.57539">
        <ele>595</ele>
        <time>2021-02-21T09:21:40Z</time>
      </trkpt>
      <trkpt lat="45.83062" lon="3.5754">
        <ele>595</ele>
        <time>2021-02-21T09:21:42Z</time>
      </trkpt>
      <trkpt lat="45.83065" lon="3.5754">
        <ele>595</ele>
        <time>2021-02-21T09:21:44Z</time>
      </trkpt>
      <trkpt lat="45.83068" lon="3.5754">
        <ele>595</ele>
        <time>2021-02-21T09:21:46Z</time>
      </trkpt>
      <trkpt lat="45.83071" lon="3.5754">
        <ele>595</ele>
        <time>2021-02-21T09:21:48Z</time>
      </trkpt>
      <trkpt lat="45.83074" lon="3.57541">
        <ele>595</ele>
        <time>2021-02-21T09:21:50Z</time>
      </trkpt>
      <trkpt lat="45.83076" lon="3.57541">
        <ele>595</ele>
        <time>2021-02-21T09:21:52Z</time>
      </trkpt>
      <trkpt lat="45.83079" lon="3.57541">
        <ele>595</ele>
        <time>2021-02-21T09:21:54Z</time>
      </trkpt>
      <trkpt lat="45.83082" lon="3.57541">
        <ele>595</ele>
        <time>2021-02-21T09:21:56Z</time>
      </trkpt>
      <trkpt lat="45.83085" lon="3.57542">
        <ele>594</ele>
        <time>2021-02-21T09:21:58Z</time>
      </trkpt>
      <trkpt lat="45.83088" lon="3.57542">
        <ele>594</ele>
        <time>2021-02-21T09:22:00Z</time>
      </trkpt>
      <trkpt lat="45.8309" lon="3.57543">
        <ele>595</ele>
        <time>2021-02-21T09:22:02Z</time>
      </trkpt>
      <trkpt lat="45.83093" lon="3.57543">
        <ele>595</ele>
        <time>2021-02-21T09:22:04Z</time>
      </trkpt>
      <trkpt lat="45.83096" lon="3.57543">
        <ele>595</ele>
        <time>2021-02-21T09:22:06Z</time>
      </trkpt>
      <trkpt lat="45.83099" lon="3.57544">
        <ele>595</ele>
        <time>2021-02-21T09:22:08Z</time>
      </trkpt>
      <trkpt lat="45.83101" lon="3.57544">
        <ele>595</ele>
        <time>2021-02-21T09:22:10Z</time>
      </trkpt>
      <trkpt lat="45.83104" lon="3.57544">
        <ele>595</ele>
        <time>2021-02-21T09:22:12Z</time>
      </trkpt>
      <trkpt lat="45.83107" lon="3.57544">
        <ele>595</ele>
        <time>2021-02-21T09:22:14Z</time>
      </trkpt>
      <trkpt lat="45.8311" lon="3.57545">
        <ele>595</ele>
        <time>2021-02-21T09:22:16Z</time>
      </trkpt>
      <trkpt lat="45.83112" lon="3.57545">
        <ele>594</ele>
        <time>2021-02-21T09:22:18Z</time>
      </trkpt>
      <trkpt lat="45.83115" lon="3.57545">
        <ele>594</ele>
        <time>2021-02-21T09:22:20Z</time>
      </trkpt>
      <trkpt lat="45.83118" lon="3.57545">
        <ele>594</ele>
        <time>2021-02-21T09:22:22Z</time>
      </trkpt>
      <trkpt lat="45.8312" lon="3.57545">
        <ele>594</ele>
        <time>2021-02-21T09:22:24Z</time>
      </trkpt>
      <trkpt lat="45.83123" lon="3.57545">
        <ele>594</ele>
        <time>2021-02-21T09:22:26Z</time>
      </trkpt>
      <trkpt lat="45.83126" lon="3.57545">
        <ele>594</ele>
        <time>2021-02-21T09:22:28Z</time>
      </trkpt>
      <trkpt lat="45.83128" lon="3.57545">
        <ele>594</ele>
        <time>2021-02-21T09:22:30Z</time>
      </trkpt>
      <trkpt lat="45.83131" lon="3.57545">
        <ele>594</ele>
        <time>2021-02-21T09:22:32Z</time>
      </trkpt>
      <trkpt lat="45.83134" lon="3.57545">
        <ele>593</ele>
        <time>2021-02-21T09:22:34Z</time>
      </trkpt>
      <trkpt lat="45.83136" lon="3.57545">
        <ele>593</ele>
        <time>2021-02-21T09:22:36Z</time>
      </trkpt>
      <trkpt lat="45.83139" lon="3.57546">
        <ele>593</ele>
        <time>2021-02-21T09:22:38Z</time>
      </trkpt>
      <trkpt lat="45.83141" lon="3.57547">
        <ele>594</ele>
        <time>2021-02-21T09:22:40Z</time>
      </trkpt>
      <trkpt lat="45.83144" lon="3.57547">
        <ele>594</ele>
        <time>2021-02-21T09:22:42Z</time>
      </trkpt>
      <trkpt lat="45.83147" lon="3.57548">
        <ele>594</ele>
        <time>2021-02-21T09:22:44Z</time>
      </trkpt>
      <trkpt lat="45.8315" lon="3.57549">
        <ele>594</ele>
        <time>2021-02-21T09:22:46Z</time>
      </trkpt>
      <trkpt lat="45.83152" lon="3.5755">
        <ele>594</ele>
        <time>2021-02-21T09:22:48Z</time>
      </trkpt>
      <trkpt lat="45.83155" lon="3.57552">
        <ele>595</ele>
        <time>2021-02-21T09:22:50Z</time>
      </trkpt>
      <trkpt lat="45.83157" lon="3.57554">
        <ele>595</ele>
        <time>2021-02-21T09:22:52Z</time>
      </trkpt>
      <trkpt lat="45.8316" lon="3.57556">
        <ele>595</ele>
        <time>2021-02-21T09:22:54Z</time>
      </trkpt>
      <trkpt lat="45.83162" lon="3.57557">
        <ele>596</ele>
        <time>2021-02-21T09:22:56Z</time>
      </trkpt>
      <trkpt lat="45.83165" lon="3.57559">
        <ele>596</ele>
        <time>2021-02-21T09:22:58Z</time>
      </trkpt>
      <trkpt lat="45.83167" lon="3.5756">
        <ele>596</ele>
        <time>2021-02-21T09:23:00Z</time>
      </trkpt>
      <trkpt lat="45.8317" lon="3.57561">
        <ele>596</ele>
        <time>2021-02-21T09:23:02Z</time>
      </trkpt>
      <trkpt lat="45.83172" lon="3.57563">
        <ele>597</ele>
        <time>2021-02-21T09:23:04Z</time>
      </trkpt>
      <trkpt lat="45.83174" lon="3.57564">
        <ele>597</ele>
        <time>2021-02-21T09:23:06Z</time>
      </trkpt>
      <trkpt lat="45.83177" lon="3.57565">
        <ele>597</ele>
        <time>2021-02-21T09:23:08Z</time>
      </trkpt>
      <trkpt lat="45.83179" lon="3.57566">
        <ele>597</ele>
        <time>2021-02-21T09:23:10Z</time>
      </trkpt>
      <trkpt lat="45.83182" lon="3.57567">
        <ele>597</ele>
        <time>2021-02-21T09:23:12Z</time>
      </trkpt>
      <trkpt lat="45.83185" lon="3.57568">
        <ele>597</ele>
        <time>2021-02-21T09:23:14Z</time>
      </trkpt>
      <trkpt lat="45.83187" lon="3.57569">
        <ele>597</ele>
        <time>2021-02-21T09:23:16Z</time>
      </trkpt>
      <trkpt lat="45.8319" lon="3.5757">
        <ele>597</ele>
        <time>2021-02-21T09:23:18Z</time>
      </trkpt>
      <trkpt lat="45.83192" lon="3.57571">
        <ele>597</ele>
        <time>2021-02-21T09:23:20Z</time>
      </trkpt>
      <trkpt lat="45.83194" lon="3.57573">
        <ele>598</ele>
        <time>2021-02-21T09:23:22Z</time>
      </trkpt>
      <trkpt lat="45.83197" lon="3.57575">
        <ele>598</ele>
        <time>2021-02-21T09:23:24Z</time>
      </trkpt>
      <trkpt lat="45.83199" lon="3.57577">
        <ele>598</ele>
        <time>2021-02-21T09:23:26Z</time>
      </trkpt>
      <trkpt lat="45.83202" lon="3.57578">
        <ele>598</ele>
        <time>2021-02-21T09:23:28Z</time>
      </trkpt>
      <trkpt lat="45.83204" lon="3.5758">
        <ele>599</ele>
        <time>2021-02-21T09:23:30Z</time>
      </trkpt>
      <trkpt lat="45.83207" lon="3.57581">
        <ele>599</ele>
        <time>2021-02-21T09:23:32Z</time>
      </trkpt>
      <trkpt lat="45.83209" lon="3.57583">
        <ele>599</ele>
        <time>2021-02-21T09:23:34Z</time>
      </trkpt>
      <trkpt lat="45.83212" lon="3.57584">
        <ele>599</ele>
        <time>2021-02-21T09:23:36Z</time>
      </trkpt>
      <trkpt lat="45.83214" lon="3.57587">
        <ele>599</ele>
        <time>2021-02-21T09:23:38Z</time>
      </trkpt>
      <trkpt lat="45.83217" lon="3.57588">
        <ele>599</ele>
        <time>2021-02-21T09:23:40Z</time>
      </trkpt>
      <trkpt lat="45.83219" lon="3.5759">
        <ele>599</ele>
        <time>2021-02-21T09:23:42Z</time>
      </trkpt>
      <trkpt lat="45.83221" lon="3.57592">
        <ele>599</ele>
        <time>2021-02-21T09:23:44Z</time>
      </trkpt>
      <trkpt lat="45.83223" lon="3.57594">
        <ele>599</ele>
        <time>2021-02-21T09:23:46Z</time>
      </trkpt>
      <trkpt lat="45.83226" lon="3.57596">
        <ele>599</ele>
        <time>2021-02-21T09:23:48Z</time>
      </trkpt>
      <trkpt lat="45.83228" lon="3.57598">
        <ele>599</ele>
        <time>2021-02-21T09:23:50Z</time>
      </trkpt>
      <trkpt lat="45.8323" lon="3.576">
        <ele>599</ele>
        <time>2021-02-21T09:23:52Z</time>
      </trkpt>
      <trkpt lat="45.83232" lon="3.57602">
        <ele>599</ele>
        <time>2021-02-21T09:23:54Z</time>
      </trkpt>
      <trkpt lat="45.83234" lon="3.57605">
        <ele>600</ele>
        <time>2021-02-21T09:23:59Z</time>
      </trkpt>
      <trkpt lat="45.83236" lon="3.57608">
        <ele>600</ele>
        <time>2021-02-21T09:24:01Z</time>
      </trkpt>
      <trkpt lat="45.83238" lon="3.57611">
        <ele>600</ele>
        <time>2021-02-21T09:24:03Z</time>
      </trkpt>
      <trkpt lat="45.83239" lon="3.57615">
        <ele>600</ele>
        <time>2021-02-21T09:24:05Z</time>
      </trkpt>
      <trkpt lat="45.8324" lon="3.57618">
        <ele>600</ele>
        <time>2021-02-21T09:24:07Z</time>
      </trkpt>
      <trkpt lat="45.83241" lon="3.57622">
        <ele>601</ele>
        <time>2021-02-21T09:24:09Z</time>
      </trkpt>
      <trkpt lat="45.83242" lon="3.57624">
        <ele>601</ele>
        <time>2021-02-21T09:24:10Z</time>
      </trkpt>
      <trkpt lat="45.83242" lon="3.57627">
        <ele>601</ele>
        <time>2021-02-21T09:24:11Z</time>
      </trkpt>
      <trkpt lat="45.83243" lon="3.5763">
        <ele>601</ele>
        <time>2021-02-21T09:24:12Z</time>
      </trkpt>
      <trkpt lat="45.83244" lon="3.57632">
        <ele>601</ele>
        <time>2021-02-21T09:24:13Z</time>
      </trkpt>
      <trkpt lat="45.83244" lon="3.57635">
        <ele>602</ele>
        <time>2021-02-21T09:24:14Z</time>
      </trkpt>
      <trkpt lat="45.83245" lon="3.57639">
        <ele>602</ele>
        <time>2021-02-21T09:24:16Z</time>
      </trkpt>
      <trkpt lat="45.83246" lon="3.57642">
        <ele>602</ele>
        <time>2021-02-21T09:24:18Z</time>
      </trkpt>
      <trkpt lat="45.83246" lon="3.57645">
        <ele>603</ele>
        <time>2021-02-21T09:24:20Z</time>
      </trkpt>
      <trkpt lat="45.83243" lon="3.57654">
        <ele>604</ele>
        <time>2021-02-21T09:24:32Z</time>
      </trkpt>
      <trkpt lat="45.8324" lon="3.57656">
        <ele>604</ele>
        <time>2021-02-21T09:24:36Z</time>
      </trkpt>
      <trkpt lat="45.83238" lon="3.57659">
        <ele>605</ele>
        <time>2021-02-21T09:24:38Z</time>
      </trkpt>
      <trkpt lat="45.83238" lon="3.57662">
        <ele>605</ele>
        <time>2021-02-21T09:24:40Z</time>
      </trkpt>
      <trkpt lat="45.83235" lon="3.57664">
        <ele>605</ele>
        <time>2021-02-21T09:24:42Z</time>
      </trkpt>
      <trkpt lat="45.83233" lon="3.57667">
        <ele>606</ele>
        <time>2021-02-21T09:24:44Z</time>
      </trkpt>
      <trkpt lat="45.8323" lon="3.57672">
        <ele>607</ele>
        <time>2021-02-21T09:24:50Z</time>
      </trkpt>
      <trkpt lat="45.8323" lon="3.57675">
        <ele>607</ele>
        <time>2021-02-21T09:24:52Z</time>
      </trkpt>
      <trkpt lat="45.83228" lon="3.5768">
        <ele>608</ele>
        <time>2021-02-21T09:24:55Z</time>
      </trkpt>
      <trkpt lat="45.83227" lon="3.57684">
        <ele>608</ele>
        <time>2021-02-21T09:24:57Z</time>
      </trkpt>
      <trkpt lat="45.8322" lon="3.57696">
        <ele>610</ele>
        <time>2021-02-21T09:25:01Z</time>
      </trkpt>
      <trkpt lat="45.83218" lon="3.57698">
        <ele>610</ele>
        <time>2021-02-21T09:25:03Z</time>
      </trkpt>
      <trkpt lat="45.83217" lon="3.57701">
        <ele>610</ele>
        <time>2021-02-21T09:25:05Z</time>
      </trkpt>
      <trkpt lat="45.83219" lon="3.57704">
        <ele>611</ele>
        <time>2021-02-21T09:25:07Z</time>
      </trkpt>
      <trkpt lat="45.83219" lon="3.57707">
        <ele>611</ele>
        <time>2021-02-21T09:25:10Z</time>
      </trkpt>
      <trkpt lat="45.83221" lon="3.57709">
        <ele>611</ele>
        <time>2021-02-21T09:25:12Z</time>
      </trkpt>
      <trkpt lat="45.83223" lon="3.57712">
        <ele>611</ele>
        <time>2021-02-21T09:25:15Z</time>
      </trkpt>
      <trkpt lat="45.83225" lon="3.57715">
        <ele>612</ele>
        <time>2021-02-21T09:25:17Z</time>
      </trkpt>
      <trkpt lat="45.83226" lon="3.57717">
        <ele>612</ele>
        <time>2021-02-21T09:25:19Z</time>
      </trkpt>
      <trkpt lat="45.83228" lon="3.5772">
        <ele>612</ele>
        <time>2021-02-21T09:25:21Z</time>
      </trkpt>
      <trkpt lat="45.8323" lon="3.57723">
        <ele>612</ele>
        <time>2021-02-21T09:25:23Z</time>
      </trkpt>
      <trkpt lat="45.83231" lon="3.57726">
        <ele>613</ele>
        <time>2021-02-21T09:25:25Z</time>
      </trkpt>
      <trkpt lat="45.83232" lon="3.57728">
        <ele>613</ele>
        <time>2021-02-21T09:25:27Z</time>
      </trkpt>
      <trkpt lat="45.83234" lon="3.57729">
        <ele>613</ele>
        <time>2021-02-21T09:25:29Z</time>
      </trkpt>
      <trkpt lat="45.83236" lon="3.57732">
        <ele>614</ele>
        <time>2021-02-21T09:25:31Z</time>
      </trkpt>
      <trkpt lat="45.83238" lon="3.57734">
        <ele>614</ele>
        <time>2021-02-21T09:25:33Z</time>
      </trkpt>
      <trkpt lat="45.8324" lon="3.57737">
        <ele>614</ele>
        <time>2021-02-21T09:25:35Z</time>
      </trkpt>
      <trkpt lat="45.83242" lon="3.5774">
        <ele>615</ele>
        <time>2021-02-21T09:25:37Z</time>
      </trkpt>
      <trkpt lat="45.83243" lon="3.57743">
        <ele>615</ele>
        <time>2021-02-21T09:25:39Z</time>
      </trkpt>
      <trkpt lat="45.83245" lon="3.57745">
        <ele>615</ele>
        <time>2021-02-21T09:25:41Z</time>
      </trkpt>
      <trkpt lat="45.83247" lon="3.57747">
        <ele>615</ele>
        <time>2021-02-21T09:25:43Z</time>
      </trkpt>
      <trkpt lat="45.8325" lon="3.57749">
        <ele>615</ele>
        <time>2021-02-21T09:25:45Z</time>
      </trkpt>
      <trkpt lat="45.83252" lon="3.5775">
        <ele>616</ele>
        <time>2021-02-21T09:25:47Z</time>
      </trkpt>
      <trkpt lat="45.83255" lon="3.57751">
        <ele>616</ele>
        <time>2021-02-21T09:25:49Z</time>
      </trkpt>
      <trkpt lat="45.83257" lon="3.57752">
        <ele>616</ele>
        <time>2021-02-21T09:25:51Z</time>
      </trkpt>
      <trkpt lat="45.8326" lon="3.57753">
        <ele>616</ele>
        <time>2021-02-21T09:25:53Z</time>
      </trkpt>
      <trkpt lat="45.83262" lon="3.57753">
        <ele>617</ele>
        <time>2021-02-21T09:25:55Z</time>
      </trkpt>
      <trkpt lat="45.83265" lon="3.57754">
        <ele>617</ele>
        <time>2021-02-21T09:25:57Z</time>
      </trkpt>
      <trkpt lat="45.83267" lon="3.57755">
        <ele>617</ele>
        <time>2021-02-21T09:25:59Z</time>
      </trkpt>
      <trkpt lat="45.83269" lon="3.57755">
        <ele>617</ele>
        <time>2021-02-21T09:26:01Z</time>
      </trkpt>
      <trkpt lat="45.83272" lon="3.57755">
        <ele>617</ele>
        <time>2021-02-21T09:26:03Z</time>
      </trkpt>
      <trkpt lat="45.83274" lon="3.57756">
        <ele>618</ele>
        <time>2021-02-21T09:26:05Z</time>
      </trkpt>
      <trkpt lat="45.83276" lon="3.57756">
        <ele>618</ele>
        <time>2021-02-21T09:26:07Z</time>
      </trkpt>
      <trkpt lat="45.83278" lon="3.57756">
        <ele>618</ele>
        <time>2021-02-21T09:26:09Z</time>
      </trkpt>
      <trkpt lat="45.83281" lon="3.57757">
        <ele>618</ele>
        <time>2021-02-21T09:26:11Z</time>
      </trkpt>
      <trkpt lat="45.83283" lon="3.57758">
        <ele>618</ele>
        <time>2021-02-21T09:26:13Z</time>
      </trkpt>
      <trkpt lat="45.83286" lon="3.57759">
        <ele>618</ele>
        <time>2021-02-21T09:26:15Z</time>
      </trkpt>
      <trkpt lat="45.83288" lon="3.5776">
        <ele>618</ele>
        <time>2021-02-21T09:26:17Z</time>
      </trkpt>
      <trkpt lat="45.8329" lon="3.5776">
        <ele>619</ele>
        <time>2021-02-21T09:26:19Z</time>
      </trkpt>
      <trkpt lat="45.83292" lon="3.5776">
        <ele>619</ele>
        <time>2021-02-21T09:26:21Z</time>
      </trkpt>
      <trkpt lat="45.83294" lon="3.57762">
        <ele>619</ele>
        <time>2021-02-21T09:26:23Z</time>
      </trkpt>
      <trkpt lat="45.83296" lon="3.57763">
        <ele>619</ele>
        <time>2021-02-21T09:26:25Z</time>
      </trkpt>
      <trkpt lat="45.83298" lon="3.57763">
        <ele>619</ele>
        <time>2021-02-21T09:26:27Z</time>
      </trkpt>
      <trkpt lat="45.833" lon="3.57764">
        <ele>619</ele>
        <time>2021-02-21T09:26:29Z</time>
      </trkpt>
      <trkpt lat="45.83303" lon="3.57765">
        <ele>620</ele>
        <time>2021-02-21T09:26:31Z</time>
      </trkpt>
      <trkpt lat="45.83305" lon="3.57766">
        <ele>620</ele>
        <time>2021-02-21T09:26:33Z</time>
      </trkpt>
      <trkpt lat="45.83307" lon="3.57767">
        <ele>620</ele>
        <time>2021-02-21T09:26:35Z</time>
      </trkpt>
      <trkpt lat="45.8331" lon="3.57769">
        <ele>621</ele>
        <time>2021-02-21T09:26:37Z</time>
      </trkpt>
      <trkpt lat="45.83311" lon="3.57771">
        <ele>621</ele>
        <time>2021-02-21T09:26:40Z</time>
      </trkpt>
      <trkpt lat="45.83313" lon="3.57772">
        <ele>621</ele>
        <time>2021-02-21T09:26:42Z</time>
      </trkpt>
      <trkpt lat="45.83319" lon="3.57774">
        <ele>622</ele>
        <time>2021-02-21T09:26:47Z</time>
      </trkpt>
      <trkpt lat="45.83327" lon="3.57778">
        <ele>623</ele>
        <time>2021-02-21T09:26:53Z</time>
      </trkpt>
      <trkpt lat="45.83335" lon="3.57782">
        <ele>624</ele>
        <time>2021-02-21T09:26:59Z</time>
      </trkpt>
      <trkpt lat="45.83337" lon="3.57783">
        <ele>624</ele>
        <time>2021-02-21T09:27:00Z</time>
      </trkpt>
      <trkpt lat="45.83339" lon="3.57784">
        <ele>624</ele>
        <time>2021-02-21T09:27:01Z</time>
      </trkpt>
      <trkpt lat="45.8334" lon="3.57785">
        <ele>625</ele>
        <time>2021-02-21T09:27:02Z</time>
      </trkpt>
      <trkpt lat="45.83343" lon="3.57786">
        <ele>625</ele>
        <time>2021-02-21T09:27:04Z</time>
      </trkpt>
      <trkpt lat="45.83345" lon="3.57788">
        <ele>625</ele>
        <time>2021-02-21T09:27:06Z</time>
      </trkpt>
      <trkpt lat="45.83348" lon="3.5779">
        <ele>626</ele>
        <time>2021-02-21T09:27:08Z</time>
      </trkpt>
      <trkpt lat="45.8335" lon="3.57792">
        <ele>626</ele>
        <time>2021-02-21T09:27:10Z</time>
      </trkpt>
      <trkpt lat="45.83352" lon="3.57794">
        <ele>627</ele>
        <time>2021-02-21T09:27:12Z</time>
      </trkpt>
      <trkpt lat="45.83354" lon="3.57796">
        <ele>627</ele>
        <time>2021-02-21T09:27:14Z</time>
      </trkpt>
      <trkpt lat="45.83357" lon="3.57798">
        <ele>628</ele>
        <time>2021-02-21T09:27:16Z</time>
      </trkpt>
      <trkpt lat="45.83359" lon="3.578">
        <ele>628</ele>
        <time>2021-02-21T09:27:18Z</time>
      </trkpt>
      <trkpt lat="45.83361" lon="3.57801">
        <ele>629</ele>
        <time>2021-02-21T09:27:20Z</time>
      </trkpt>
      <trkpt lat="45.83363" lon="3.57803">
        <ele>629</ele>
        <time>2021-02-21T09:27:22Z</time>
      </trkpt>
      <trkpt lat="45.83365" lon="3.57805">
        <ele>630</ele>
        <time>2021-02-21T09:27:24Z</time>
      </trkpt>
      <trkpt lat="45.83367" lon="3.57806">
        <ele>630</ele>
        <time>2021-02-21T09:27:26Z</time>
      </trkpt>
      <trkpt lat="45.83369" lon="3.57808">
        <ele>631</ele>
        <time>2021-02-21T09:27:28Z</time>
      </trkpt>
      <trkpt lat="45.83371" lon="3.57809">
        <ele>631</ele>
        <time>2021-02-21T09:27:30Z</time>
      </trkpt>
      <trkpt lat="45.83373" lon="3.5781">
        <ele>631</ele>
        <time>2021-02-21T09:27:32Z</time>
      </trkpt>
      <trkpt lat="45.83375" lon="3.57812">
        <ele>632</ele>
        <time>2021-02-21T09:27:35Z</time>
      </trkpt>
      <trkpt lat="45.83377" lon="3.57813">
        <ele>632</ele>
        <time>2021-02-21T09:27:37Z</time>
      </trkpt>
      <trkpt lat="45.83378" lon="3.57814">
        <ele>632</ele>
        <time>2021-02-21T09:27:39Z</time>
      </trkpt>
      <trkpt lat="45.83381" lon="3.57816">
        <ele>633</ele>
        <time>2021-02-21T09:27:43Z</time>
      </trkpt>
      <trkpt lat="45.83383" lon="3.57818">
        <ele>633</ele>
        <time>2021-02-21T09:27:46Z</time>
      </trkpt>
      <trkpt lat="45.83384" lon="3.5782">
        <ele>634</ele>
        <time>2021-02-21T09:27:48Z</time>
      </trkpt>
      <trkpt lat="45.83386" lon="3.57822">
        <ele>634</ele>
        <time>2021-02-21T09:27:51Z</time>
      </trkpt>
      <trkpt lat="45.83387" lon="3.57825">
        <ele>635</ele>
        <time>2021-02-21T09:27:53Z</time>
      </trkpt>
      <trkpt lat="45.83388" lon="3.57827">
        <ele>635</ele>
        <time>2021-02-21T09:27:55Z</time>
      </trkpt>
      <trkpt lat="45.8339" lon="3.57827">
        <ele>635</ele>
        <time>2021-02-21T09:27:58Z</time>
      </trkpt>
      <trkpt lat="45.83392" lon="3.57828">
        <ele>636</ele>
        <time>2021-02-21T09:28:01Z</time>
      </trkpt>
      <trkpt lat="45.83394" lon="3.57829">
        <ele>636</ele>
        <time>2021-02-21T09:28:03Z</time>
      </trkpt>
      <trkpt lat="45.83396" lon="3.57832">
        <ele>636</ele>
        <time>2021-02-21T09:28:05Z</time>
      </trkpt>
      <trkpt lat="45.83398" lon="3.57834">
        <ele>637</ele>
        <time>2021-02-21T09:28:08Z</time>
      </trkpt>
      <trkpt lat="45.83401" lon="3.57835">
        <ele>637</ele>
        <time>2021-02-21T09:28:10Z</time>
      </trkpt>
      <trkpt lat="45.83403" lon="3.57835">
        <ele>637</ele>
        <time>2021-02-21T09:28:12Z</time>
      </trkpt>
      <trkpt lat="45.83406" lon="3.57836">
        <ele>637</ele>
        <time>2021-02-21T09:28:15Z</time>
      </trkpt>
      <trkpt lat="45.83408" lon="3.57837">
        <ele>637</ele>
        <time>2021-02-21T09:28:17Z</time>
      </trkpt>
      <trkpt lat="45.83409" lon="3.57838">
        <ele>637</ele>
        <time>2021-02-21T09:28:19Z</time>
      </trkpt>
      <trkpt lat="45.83411" lon="3.57839">
        <ele>637</ele>
        <time>2021-02-21T09:28:21Z</time>
      </trkpt>
      <trkpt lat="45.83413" lon="3.57841">
        <ele>638</ele>
        <time>2021-02-21T09:28:24Z</time>
      </trkpt>
      <trkpt lat="45.83415" lon="3.57843">
        <ele>638</ele>
        <time>2021-02-21T09:28:27Z</time>
      </trkpt>
      <trkpt lat="45.83417" lon="3.57845">
        <ele>639</ele>
        <time>2021-02-21T09:28:29Z</time>
      </trkpt>
      <trkpt lat="45.83419" lon="3.57847">
        <ele>639</ele>
        <time>2021-02-21T09:28:31Z</time>
      </trkpt>
      <trkpt lat="45.83421" lon="3.5785">
        <ele>639</ele>
        <time>2021-02-21T09:28:33Z</time>
      </trkpt>
      <trkpt lat="45.83422" lon="3.57854">
        <ele>640</ele>
        <time>2021-02-21T09:28:36Z</time>
      </trkpt>
      <trkpt lat="45.83422" lon="3.57857">
        <ele>640</ele>
        <time>2021-02-21T09:28:39Z</time>
      </trkpt>
      <trkpt lat="45.83424" lon="3.57859">
        <ele>640</ele>
        <time>2021-02-21T09:28:42Z</time>
      </trkpt>
      <trkpt lat="45.83426" lon="3.57862">
        <ele>641</ele>
        <time>2021-02-21T09:28:44Z</time>
      </trkpt>
      <trkpt lat="45.83427" lon="3.57864">
        <ele>641</ele>
        <time>2021-02-21T09:28:46Z</time>
      </trkpt>
      <trkpt lat="45.83429" lon="3.57867">
        <ele>641</ele>
        <time>2021-02-21T09:28:48Z</time>
      </trkpt>
      <trkpt lat="45.83431" lon="3.5787">
        <ele>641</ele>
        <time>2021-02-21T09:28:50Z</time>
      </trkpt>
      <trkpt lat="45.83433" lon="3.57873">
        <ele>641</ele>
        <time>2021-02-21T09:28:52Z</time>
      </trkpt>
      <trkpt lat="45.83434" lon="3.57876">
        <ele>642</ele>
        <time>2021-02-21T09:28:54Z</time>
      </trkpt>
      <trkpt lat="45.83435" lon="3.57879">
        <ele>642</ele>
        <time>2021-02-21T09:28:56Z</time>
      </trkpt>
      <trkpt lat="45.83439" lon="3.57885">
        <ele>642</ele>
        <time>2021-02-21T09:29:01Z</time>
      </trkpt>
      <trkpt lat="45.83441" lon="3.57889">
        <ele>643</ele>
        <time>2021-02-21T09:29:04Z</time>
      </trkpt>
      <trkpt lat="45.83442" lon="3.57892">
        <ele>643</ele>
        <time>2021-02-21T09:29:06Z</time>
      </trkpt>
      <trkpt lat="45.83443" lon="3.57894">
        <ele>643</ele>
        <time>2021-02-21T09:29:08Z</time>
      </trkpt>
      <trkpt lat="45.83443" lon="3.57897">
        <ele>644</ele>
        <time>2021-02-21T09:29:10Z</time>
      </trkpt>
      <trkpt lat="45.83444" lon="3.579">
        <ele>644</ele>
        <time>2021-02-21T09:29:13Z</time>
      </trkpt>
      <trkpt lat="45.83445" lon="3.57904">
        <ele>645</ele>
        <time>2021-02-21T09:29:16Z</time>
      </trkpt>
      <trkpt lat="45.83446" lon="3.57906">
        <ele>645</ele>
        <time>2021-02-21T09:29:18Z</time>
      </trkpt>
      <trkpt lat="45.83447" lon="3.57908">
        <ele>645</ele>
        <time>2021-02-21T09:29:20Z</time>
      </trkpt>
      <trkpt lat="45.83448" lon="3.5791">
        <ele>645</ele>
        <time>2021-02-21T09:29:22Z</time>
      </trkpt>
      <trkpt lat="45.83449" lon="3.57913">
        <ele>645</ele>
        <time>2021-02-21T09:29:24Z</time>
      </trkpt>
      <trkpt lat="45.8345" lon="3.57916">
        <ele>646</ele>
        <time>2021-02-21T09:29:26Z</time>
      </trkpt>
      <trkpt lat="45.83451" lon="3.57918">
        <ele>646</ele>
        <time>2021-02-21T09:29:28Z</time>
      </trkpt>
      <trkpt lat="45.83451" lon="3.57922">
        <ele>646</ele>
        <time>2021-02-21T09:29:30Z</time>
      </trkpt>
      <trkpt lat="45.83452" lon="3.57925">
        <ele>647</ele>
        <time>2021-02-21T09:29:32Z</time>
      </trkpt>
      <trkpt lat="45.83453" lon="3.57928">
        <ele>647</ele>
        <time>2021-02-21T09:29:34Z</time>
      </trkpt>
      <trkpt lat="45.83454" lon="3.57932">
        <ele>647</ele>
        <time>2021-02-21T09:29:36Z</time>
      </trkpt>
      <trkpt lat="45.83455" lon="3.57937">
        <ele>648</ele>
        <time>2021-02-21T09:29:40Z</time>
      </trkpt>
      <trkpt lat="45.83455" lon="3.57941">
        <ele>648</ele>
        <time>2021-02-21T09:29:43Z</time>
      </trkpt>
      <trkpt lat="45.83455" lon="3.57944">
        <ele>649</ele>
        <time>2021-02-21T09:29:46Z</time>
      </trkpt>
      <trkpt lat="45.83456" lon="3.57947">
        <ele>649</ele>
        <time>2021-02-21T09:29:49Z</time>
      </trkpt>
      <trkpt lat="45.83457" lon="3.57949">
        <ele>650</ele>
        <time>2021-02-21T09:29:52Z</time>
      </trkpt>
      <trkpt lat="45.83458" lon="3.57952">
        <ele>650</ele>
        <time>2021-02-21T09:29:55Z</time>
      </trkpt>
      <trkpt lat="45.83458" lon="3.57955">
        <ele>650</ele>
        <time>2021-02-21T09:29:58Z</time>
      </trkpt>
      <trkpt lat="45.83459" lon="3.57958">
        <ele>651</ele>
        <time>2021-02-21T09:30:01Z</time>
      </trkpt>
      <trkpt lat="45.83461" lon="3.57961">
        <ele>651</ele>
        <time>2021-02-21T09:30:04Z</time>
      </trkpt>
      <trkpt lat="45.83462" lon="3.57964">
        <ele>651</ele>
        <time>2021-02-21T09:30:07Z</time>
      </trkpt>
      <trkpt lat="45.83462" lon="3.57967">
        <ele>652</ele>
        <time>2021-02-21T09:30:10Z</time>
      </trkpt>
      <trkpt lat="45.83462" lon="3.57972">
        <ele>653</ele>
        <time>2021-02-21T09:30:14Z</time>
      </trkpt>
      <trkpt lat="45.83463" lon="3.57974">
        <ele>653</ele>
        <time>2021-02-21T09:30:16Z</time>
      </trkpt>
      <trkpt lat="45.83464" lon="3.57978">
        <ele>653</ele>
        <time>2021-02-21T09:30:19Z</time>
      </trkpt>
      <trkpt lat="45.83465" lon="3.57985">
        <ele>654</ele>
        <time>2021-02-21T09:30:23Z</time>
      </trkpt>
      <trkpt lat="45.83465" lon="3.5799">
        <ele>654</ele>
        <time>2021-02-21T09:30:26Z</time>
      </trkpt>
      <trkpt lat="45.83466" lon="3.57994">
        <ele>655</ele>
        <time>2021-02-21T09:30:29Z</time>
      </trkpt>
      <trkpt lat="45.83467" lon="3.57998">
        <ele>655</ele>
        <time>2021-02-21T09:30:31Z</time>
      </trkpt>
      <trkpt lat="45.83467" lon="3.58002">
        <ele>655</ele>
        <time>2021-02-21T09:30:33Z</time>
      </trkpt>
      <trkpt lat="45.83468" lon="3.58005">
        <ele>655</ele>
        <time>2021-02-21T09:30:35Z</time>
      </trkpt>
      <trkpt lat="45.83469" lon="3.58009">
        <ele>655</ele>
        <time>2021-02-21T09:30:37Z</time>
      </trkpt>
      <trkpt lat="45.83471" lon="3.5802">
        <ele>655</ele>
        <time>2021-02-21T09:30:43Z</time>
      </trkpt>
      <trkpt lat="45.83471" lon="3.58023">
        <ele>655</ele>
        <time>2021-02-21T09:30:46Z</time>
      </trkpt>
      <trkpt lat="45.8347" lon="3.58031">
        <ele>655</ele>
        <time>2021-02-21T09:30:51Z</time>
      </trkpt>
      <trkpt lat="45.8347" lon="3.58034">
        <ele>655</ele>
        <time>2021-02-21T09:30:53Z</time>
      </trkpt>
      <trkpt lat="45.8347" lon="3.5804">
        <ele>654</ele>
        <time>2021-02-21T09:30:58Z</time>
      </trkpt>
      <trkpt lat="45.8347" lon="3.58043">
        <ele>654</ele>
        <time>2021-02-21T09:31:00Z</time>
      </trkpt>
      <trkpt lat="45.8347" lon="3.58047">
        <ele>654</ele>
        <time>2021-02-21T09:31:03Z</time>
      </trkpt>
      <trkpt lat="45.83469" lon="3.58051">
        <ele>654</ele>
        <time>2021-02-21T09:31:06Z</time>
      </trkpt>
      <trkpt lat="45.83469" lon="3.58054">
        <ele>654</ele>
        <time>2021-02-21T09:31:09Z</time>
      </trkpt>
      <trkpt lat="45.83469" lon="3.58057">
        <ele>654</ele>
        <time>2021-02-21T09:31:11Z</time>
      </trkpt>
      <trkpt lat="45.83468" lon="3.5806">
        <ele>654</ele>
        <time>2021-02-21T09:31:13Z</time>
      </trkpt>
      <trkpt lat="45.83468" lon="3.58063">
        <ele>654</ele>
        <time>2021-02-21T09:31:15Z</time>
      </trkpt>
      <trkpt lat="45.83467" lon="3.58065">
        <ele>655</ele>
        <time>2021-02-21T09:31:17Z</time>
      </trkpt>
      <trkpt lat="45.83467" lon="3.58068">
        <ele>655</ele>
        <time>2021-02-21T09:31:19Z</time>
      </trkpt>
      <trkpt lat="45.83465" lon="3.58071">
        <ele>655</ele>
        <time>2021-02-21T09:31:21Z</time>
      </trkpt>
      <trkpt lat="45.83464" lon="3.58074">
        <ele>656</ele>
        <time>2021-02-21T09:31:23Z</time>
      </trkpt>
      <trkpt lat="45.83463" lon="3.58076">
        <ele>656</ele>
        <time>2021-02-21T09:31:25Z</time>
      </trkpt>
      <trkpt lat="45.83462" lon="3.58079">
        <ele>656</ele>
        <time>2021-02-21T09:31:28Z</time>
      </trkpt>
      <trkpt lat="45.83457" lon="3.58091">
        <ele>657</ele>
        <time>2021-02-21T09:31:37Z</time>
      </trkpt>
      <trkpt lat="45.83455" lon="3.58094">
        <ele>657</ele>
        <time>2021-02-21T09:31:39Z</time>
      </trkpt>
      <trkpt lat="45.83448" lon="3.58103">
        <ele>658</ele>
        <time>2021-02-21T09:31:46Z</time>
      </trkpt>
      <trkpt lat="45.83446" lon="3.58106">
        <ele>658</ele>
        <time>2021-02-21T09:31:48Z</time>
      </trkpt>
      <trkpt lat="45.83445" lon="3.58108">
        <ele>658</ele>
        <time>2021-02-21T09:31:49Z</time>
      </trkpt>
      <trkpt lat="45.83444" lon="3.58111">
        <ele>659</ele>
        <time>2021-02-21T09:31:51Z</time>
      </trkpt>
      <trkpt lat="45.83443" lon="3.58114">
        <ele>659</ele>
        <time>2021-02-21T09:31:53Z</time>
      </trkpt>
      <trkpt lat="45.83438" lon="3.5812">
        <ele>659</ele>
        <time>2021-02-21T09:31:58Z</time>
      </trkpt>
      <trkpt lat="45.83437" lon="3.58124">
        <ele>659</ele>
        <time>2021-02-21T09:32:01Z</time>
      </trkpt>
      <trkpt lat="45.83435" lon="3.58126">
        <ele>660</ele>
        <time>2021-02-21T09:32:03Z</time>
      </trkpt>
      <trkpt lat="45.83434" lon="3.58129">
        <ele>660</ele>
        <time>2021-02-21T09:32:05Z</time>
      </trkpt>
      <trkpt lat="45.83431" lon="3.58132">
        <ele>660</ele>
        <time>2021-02-21T09:32:07Z</time>
      </trkpt>
      <trkpt lat="45.83425" lon="3.58142">
        <ele>660</ele>
        <time>2021-02-21T09:32:13Z</time>
      </trkpt>
      <trkpt lat="45.8342" lon="3.58153">
        <ele>660</ele>
        <time>2021-02-21T09:32:20Z</time>
      </trkpt>
      <trkpt lat="45.83418" lon="3.58159">
        <ele>660</ele>
        <time>2021-02-21T09:32:23Z</time>
      </trkpt>
      <trkpt lat="45.83417" lon="3.58163">
        <ele>660</ele>
        <time>2021-02-21T09:32:25Z</time>
      </trkpt>
      <trkpt lat="45.83416" lon="3.58167">
        <ele>661</ele>
        <time>2021-02-21T09:32:27Z</time>
      </trkpt>
      <trkpt lat="45.83414" lon="3.58172">
        <ele>661</ele>
        <time>2021-02-21T09:32:30Z</time>
      </trkpt>
      <trkpt lat="45.83411" lon="3.58176">
        <ele>661</ele>
        <time>2021-02-21T09:32:32Z</time>
      </trkpt>
      <trkpt lat="45.8341" lon="3.58178">
        <ele>661</ele>
        <time>2021-02-21T09:32:33Z</time>
      </trkpt>
      <trkpt lat="45.83409" lon="3.5818">
        <ele>661</ele>
        <time>2021-02-21T09:32:34Z</time>
      </trkpt>
      <trkpt lat="45.83407" lon="3.58183">
        <ele>661</ele>
        <time>2021-02-21T09:32:36Z</time>
      </trkpt>
      <trkpt lat="45.83405" lon="3.58187">
        <ele>662</ele>
        <time>2021-02-21T09:32:38Z</time>
      </trkpt>
      <trkpt lat="45.83404" lon="3.5819">
        <ele>662</ele>
        <time>2021-02-21T09:32:40Z</time>
      </trkpt>
      <trkpt lat="45.83402" lon="3.58195">
        <ele>662</ele>
        <time>2021-02-21T09:32:42Z</time>
      </trkpt>
      <trkpt lat="45.83401" lon="3.58199">
        <ele>662</ele>
        <time>2021-02-21T09:32:44Z</time>
      </trkpt>
      <trkpt lat="45.83399" lon="3.58203">
        <ele>662</ele>
        <time>2021-02-21T09:32:46Z</time>
      </trkpt>
      <trkpt lat="45.83396" lon="3.58206">
        <ele>662</ele>
        <time>2021-02-21T09:32:48Z</time>
      </trkpt>
      <trkpt lat="45.83394" lon="3.5821">
        <ele>663</ele>
        <time>2021-02-21T09:32:50Z</time>
      </trkpt>
      <trkpt lat="45.83393" lon="3.58212">
        <ele>663</ele>
        <time>2021-02-21T09:32:51Z</time>
      </trkpt>
      <trkpt lat="45.83392" lon="3.58216">
        <ele>663</ele>
        <time>2021-02-21T09:32:53Z</time>
      </trkpt>
      <trkpt lat="45.8339" lon="3.58219">
        <ele>663</ele>
        <time>2021-02-21T09:32:55Z</time>
      </trkpt>
      <trkpt lat="45.83388" lon="3.58222">
        <ele>663</ele>
        <time>2021-02-21T09:32:57Z</time>
      </trkpt>
      <trkpt lat="45.83387" lon="3.58225">
        <ele>663</ele>
        <time>2021-02-21T09:32:59Z</time>
      </trkpt>
      <trkpt lat="45.83385" lon="3.58227">
        <ele>663</ele>
        <time>2021-02-21T09:33:01Z</time>
      </trkpt>
      <trkpt lat="45.83383" lon="3.5823">
        <ele>663</ele>
        <time>2021-02-21T09:33:03Z</time>
      </trkpt>
      <trkpt lat="45.8338" lon="3.58231">
        <ele>663</ele>
        <time>2021-02-21T09:33:05Z</time>
      </trkpt>
      <trkpt lat="45.83377" lon="3.58232">
        <ele>664</ele>
        <time>2021-02-21T09:33:07Z</time>
      </trkpt>
      <trkpt lat="45.83375" lon="3.58232">
        <ele>664</ele>
        <time>2021-02-21T09:33:09Z</time>
      </trkpt>
      <trkpt lat="45.83372" lon="3.58232">
        <ele>664</ele>
        <time>2021-02-21T09:33:11Z</time>
      </trkpt>
      <trkpt lat="45.83369" lon="3.58231">
        <ele>664</ele>
        <time>2021-02-21T09:33:13Z</time>
      </trkpt>
      <trkpt lat="45.83368" lon="3.5823">
        <ele>664</ele>
        <time>2021-02-21T09:33:15Z</time>
      </trkpt>
      <trkpt lat="45.83366" lon="3.58229">
        <ele>664</ele>
        <time>2021-02-21T09:33:17Z</time>
      </trkpt>
      <trkpt lat="45.83364" lon="3.58228">
        <ele>664</ele>
        <time>2021-02-21T09:33:19Z</time>
      </trkpt>
      <trkpt lat="45.83361" lon="3.58227">
        <ele>665</ele>
        <time>2021-02-21T09:33:21Z</time>
      </trkpt>
      <trkpt lat="45.83359" lon="3.58226">
        <ele>665</ele>
        <time>2021-02-21T09:33:23Z</time>
      </trkpt>
      <trkpt lat="45.83357" lon="3.58226">
        <ele>665</ele>
        <time>2021-02-21T09:33:25Z</time>
      </trkpt>
      <trkpt lat="45.83355" lon="3.58226">
        <ele>665</ele>
        <time>2021-02-21T09:33:27Z</time>
      </trkpt>
      <trkpt lat="45.83352" lon="3.58226">
        <ele>666</ele>
        <time>2021-02-21T09:33:30Z</time>
      </trkpt>
      <trkpt lat="45.8335" lon="3.58226">
        <ele>666</ele>
        <time>2021-02-21T09:33:32Z</time>
      </trkpt>
      <trkpt lat="45.83347" lon="3.58226">
        <ele>666</ele>
        <time>2021-02-21T09:33:34Z</time>
      </trkpt>
      <trkpt lat="45.83344" lon="3.58227">
        <ele>667</ele>
        <time>2021-02-21T09:33:36Z</time>
      </trkpt>
      <trkpt lat="45.83342" lon="3.58228">
        <ele>667</ele>
        <time>2021-02-21T09:33:38Z</time>
      </trkpt>
      <trkpt lat="45.8334" lon="3.58229">
        <ele>668</ele>
        <time>2021-02-21T09:33:40Z</time>
      </trkpt>
      <trkpt lat="45.83338" lon="3.58229">
        <ele>668</ele>
        <time>2021-02-21T09:33:42Z</time>
      </trkpt>
      <trkpt lat="45.83336" lon="3.58229">
        <ele>668</ele>
        <time>2021-02-21T09:33:44Z</time>
      </trkpt>
      <trkpt lat="45.83333" lon="3.5823">
        <ele>669</ele>
        <time>2021-02-21T09:33:46Z</time>
      </trkpt>
      <trkpt lat="45.83331" lon="3.58231">
        <ele>669</ele>
        <time>2021-02-21T09:33:48Z</time>
      </trkpt>
      <trkpt lat="45.83328" lon="3.58231">
        <ele>669</ele>
        <time>2021-02-21T09:33:50Z</time>
      </trkpt>
      <trkpt lat="45.83326" lon="3.58232">
        <ele>669</ele>
        <time>2021-02-21T09:33:52Z</time>
      </trkpt>
      <trkpt lat="45.83323" lon="3.58232">
        <ele>669</ele>
        <time>2021-02-21T09:33:54Z</time>
      </trkpt>
      <trkpt lat="45.8332" lon="3.58233">
        <ele>670</ele>
        <time>2021-02-21T09:33:56Z</time>
      </trkpt>
      <trkpt lat="45.83317" lon="3.58233">
        <ele>670</ele>
        <time>2021-02-21T09:33:58Z</time>
      </trkpt>
      <trkpt lat="45.83314" lon="3.58233">
        <ele>670</ele>
        <time>2021-02-21T09:34:00Z</time>
      </trkpt>
      <trkpt lat="45.83312" lon="3.58233">
        <ele>670</ele>
        <time>2021-02-21T09:34:02Z</time>
      </trkpt>
      <trkpt lat="45.8331" lon="3.58235">
        <ele>670</ele>
        <time>2021-02-21T09:34:08Z</time>
      </trkpt>
      <trkpt lat="45.83308" lon="3.58236">
        <ele>670</ele>
        <time>2021-02-21T09:34:10Z</time>
      </trkpt>
      <trkpt lat="45.83306" lon="3.58236">
        <ele>670</ele>
        <time>2021-02-21T09:34:12Z</time>
      </trkpt>
      <trkpt lat="45.83304" lon="3.58237">
        <ele>671</ele>
        <time>2021-02-21T09:34:15Z</time>
      </trkpt>
      <trkpt lat="45.83301" lon="3.58239">
        <ele>671</ele>
        <time>2021-02-21T09:34:18Z</time>
      </trkpt>
      <trkpt lat="45.833" lon="3.5824">
        <ele>671</ele>
        <time>2021-02-21T09:34:20Z</time>
      </trkpt>
      <trkpt lat="45.83297" lon="3.58242">
        <ele>671</ele>
        <time>2021-02-21T09:34:22Z</time>
      </trkpt>
      <trkpt lat="45.83295" lon="3.58244">
        <ele>671</ele>
        <time>2021-02-21T09:34:23Z</time>
      </trkpt>
      <trkpt lat="45.83293" lon="3.58245">
        <ele>671</ele>
        <time>2021-02-21T09:34:24Z</time>
      </trkpt>
      <trkpt lat="45.83291" lon="3.58246">
        <ele>671</ele>
        <time>2021-02-21T09:34:25Z</time>
      </trkpt>
      <trkpt lat="45.83289" lon="3.58247">
        <ele>672</ele>
        <time>2021-02-21T09:34:26Z</time>
      </trkpt>
      <trkpt lat="45.83287" lon="3.58248">
        <ele>672</ele>
        <time>2021-02-21T09:34:27Z</time>
      </trkpt>
      <trkpt lat="45.83286" lon="3.58249">
        <ele>672</ele>
        <time>2021-02-21T09:34:28Z</time>
      </trkpt>
      <trkpt lat="45.83282" lon="3.58251">
        <ele>672</ele>
        <time>2021-02-21T09:34:30Z</time>
      </trkpt>
      <trkpt lat="45.83279" lon="3.58252">
        <ele>672</ele>
        <time>2021-02-21T09:34:32Z</time>
      </trkpt>
      <trkpt lat="45.83277" lon="3.58252">
        <ele>672</ele>
        <time>2021-02-21T09:34:34Z</time>
      </trkpt>
      <trkpt lat="45.83275" lon="3.58253">
        <ele>673</ele>
        <time>2021-02-21T09:34:36Z</time>
      </trkpt>
      <trkpt lat="45.83273" lon="3.58255">
        <ele>673</ele>
        <time>2021-02-21T09:34:38Z</time>
      </trkpt>
      <trkpt lat="45.83271" lon="3.58256">
        <ele>673</ele>
        <time>2021-02-21T09:34:40Z</time>
      </trkpt>
      <trkpt lat="45.83269" lon="3.58257">
        <ele>673</ele>
        <time>2021-02-21T09:34:43Z</time>
      </trkpt>
      <trkpt lat="45.83267" lon="3.58257">
        <ele>673</ele>
        <time>2021-02-21T09:34:45Z</time>
      </trkpt>
      <trkpt lat="45.83265" lon="3.58257">
        <ele>674</ele>
        <time>2021-02-21T09:34:49Z</time>
      </trkpt>
      <trkpt lat="45.83263" lon="3.58257">
        <ele>674</ele>
        <time>2021-02-21T09:34:52Z</time>
      </trkpt>
      <trkpt lat="45.83261" lon="3.58258">
        <ele>674</ele>
        <time>2021-02-21T09:34:54Z</time>
      </trkpt>
      <trkpt lat="45.83259" lon="3.58259">
        <ele>674</ele>
        <time>2021-02-21T09:34:56Z</time>
      </trkpt>
      <trkpt lat="45.83257" lon="3.5826">
        <ele>675</ele>
        <time>2021-02-21T09:34:58Z</time>
      </trkpt>
      <trkpt lat="45.83254" lon="3.58261">
        <ele>675</ele>
        <time>2021-02-21T09:35:01Z</time>
      </trkpt>
      <trkpt lat="45.83252" lon="3.58261">
        <ele>675</ele>
        <time>2021-02-21T09:35:03Z</time>
      </trkpt>
      <trkpt lat="45.8325" lon="3.58261">
        <ele>675</ele>
        <time>2021-02-21T09:35:05Z</time>
      </trkpt>
      <trkpt lat="45.83247" lon="3.58261">
        <ele>676</ele>
        <time>2021-02-21T09:35:07Z</time>
      </trkpt>
      <trkpt lat="45.83245" lon="3.58262">
        <ele>676</ele>
        <time>2021-02-21T09:35:11Z</time>
      </trkpt>
      <trkpt lat="45.83242" lon="3.58266">
        <ele>677</ele>
        <time>2021-02-21T09:35:16Z</time>
      </trkpt>
      <trkpt lat="45.83234" lon="3.58274">
        <ele>679</ele>
        <time>2021-02-21T09:35:25Z</time>
      </trkpt>
      <trkpt lat="45.8323" lon="3.58286">
        <ele>680</ele>
        <time>2021-02-21T09:35:33Z</time>
      </trkpt>
      <trkpt lat="45.83227" lon="3.58301">
        <ele>680</ele>
        <time>2021-02-21T09:35:39Z</time>
      </trkpt>
      <trkpt lat="45.83221" lon="3.5831">
        <ele>683</ele>
        <time>2021-02-21T09:35:43Z</time>
      </trkpt>
      <trkpt lat="45.83219" lon="3.58314">
        <ele>684</ele>
        <time>2021-02-21T09:35:45Z</time>
      </trkpt>
      <trkpt lat="45.83219" lon="3.58317">
        <ele>684</ele>
        <time>2021-02-21T09:35:47Z</time>
      </trkpt>
      <trkpt lat="45.83219" lon="3.5832">
        <ele>684</ele>
        <time>2021-02-21T09:35:49Z</time>
      </trkpt>
      <trkpt lat="45.83219" lon="3.58324">
        <ele>685</ele>
        <time>2021-02-21T09:35:51Z</time>
      </trkpt>
      <trkpt lat="45.83219" lon="3.58328">
        <ele>685</ele>
        <time>2021-02-21T09:35:53Z</time>
      </trkpt>
      <trkpt lat="45.83218" lon="3.58331">
        <ele>685</ele>
        <time>2021-02-21T09:35:55Z</time>
      </trkpt>
      <trkpt lat="45.83218" lon="3.58334">
        <ele>685</ele>
        <time>2021-02-21T09:35:57Z</time>
      </trkpt>
      <trkpt lat="45.83218" lon="3.58339">
        <ele>686</ele>
        <time>2021-02-21T09:36:00Z</time>
      </trkpt>
      <trkpt lat="45.83217" lon="3.58343">
        <ele>686</ele>
        <time>2021-02-21T09:36:02Z</time>
      </trkpt>
      <trkpt lat="45.83218" lon="3.58346">
        <ele>686</ele>
        <time>2021-02-21T09:36:04Z</time>
      </trkpt>
      <trkpt lat="45.83218" lon="3.5835">
        <ele>686</ele>
        <time>2021-02-21T09:36:06Z</time>
      </trkpt>
      <trkpt lat="45.83219" lon="3.58353">
        <ele>686</ele>
        <time>2021-02-21T09:36:08Z</time>
      </trkpt>
      <trkpt lat="45.8322" lon="3.58356">
        <ele>686</ele>
        <time>2021-02-21T09:36:11Z</time>
      </trkpt>
      <trkpt lat="45.83221" lon="3.58358">
        <ele>686</ele>
        <time>2021-02-21T09:36:13Z</time>
      </trkpt>
      <trkpt lat="45.83221" lon="3.58362">
        <ele>686</ele>
        <time>2021-02-21T09:36:15Z</time>
      </trkpt>
      <trkpt lat="45.83222" lon="3.58366">
        <ele>686</ele>
        <time>2021-02-21T09:36:18Z</time>
      </trkpt>
      <trkpt lat="45.83222" lon="3.58369">
        <ele>686</ele>
        <time>2021-02-21T09:36:20Z</time>
      </trkpt>
      <trkpt lat="45.83222" lon="3.58372">
        <ele>686</ele>
        <time>2021-02-21T09:36:22Z</time>
      </trkpt>
      <trkpt lat="45.83222" lon="3.58376">
        <ele>687</ele>
        <time>2021-02-21T09:36:25Z</time>
      </trkpt>
      <trkpt lat="45.83222" lon="3.58381">
        <ele>687</ele>
        <time>2021-02-21T09:36:28Z</time>
      </trkpt>
      <trkpt lat="45.83222" lon="3.58384">
        <ele>687</ele>
        <time>2021-02-21T09:36:30Z</time>
      </trkpt>
      <trkpt lat="45.83223" lon="3.58387">
        <ele>687</ele>
        <time>2021-02-21T09:36:32Z</time>
      </trkpt>
      <trkpt lat="45.83223" lon="3.5839">
        <ele>687</ele>
        <time>2021-02-21T09:36:34Z</time>
      </trkpt>
      <trkpt lat="45.83224" lon="3.58393">
        <ele>688</ele>
        <time>2021-02-21T09:36:36Z</time>
      </trkpt>
      <trkpt lat="45.83225" lon="3.58396">
        <ele>688</ele>
        <time>2021-02-21T09:36:38Z</time>
      </trkpt>
      <trkpt lat="45.83226" lon="3.58402">
        <ele>688</ele>
        <time>2021-02-21T09:36:42Z</time>
      </trkpt>
      <trkpt lat="45.83227" lon="3.58406">
        <ele>689</ele>
        <time>2021-02-21T09:36:44Z</time>
      </trkpt>
      <trkpt lat="45.83228" lon="3.58409">
        <ele>689</ele>
        <time>2021-02-21T09:36:46Z</time>
      </trkpt>
      <trkpt lat="45.83229" lon="3.58412">
        <ele>689</ele>
        <time>2021-02-21T09:36:48Z</time>
      </trkpt>
      <trkpt lat="45.83229" lon="3.58415">
        <ele>689</ele>
        <time>2021-02-21T09:36:50Z</time>
      </trkpt>
      <trkpt lat="45.83229" lon="3.58418">
        <ele>690</ele>
        <time>2021-02-21T09:36:52Z</time>
      </trkpt>
      <trkpt lat="45.8323" lon="3.58421">
        <ele>690</ele>
        <time>2021-02-21T09:36:54Z</time>
      </trkpt>
      <trkpt lat="45.8323" lon="3.58423">
        <ele>690</ele>
        <time>2021-02-21T09:36:56Z</time>
      </trkpt>
      <trkpt lat="45.8323" lon="3.58426">
        <ele>690</ele>
        <time>2021-02-21T09:36:58Z</time>
      </trkpt>
      <trkpt lat="45.83231" lon="3.5844">
        <ele>691</ele>
        <time>2021-02-21T09:37:05Z</time>
      </trkpt>
      <trkpt lat="45.83232" lon="3.58443">
        <ele>691</ele>
        <time>2021-02-21T09:37:07Z</time>
      </trkpt>
      <trkpt lat="45.83232" lon="3.58447">
        <ele>691</ele>
        <time>2021-02-21T09:37:09Z</time>
      </trkpt>
      <trkpt lat="45.83233" lon="3.5845">
        <ele>692</ele>
        <time>2021-02-21T09:37:11Z</time>
      </trkpt>
      <trkpt lat="45.83233" lon="3.58454">
        <ele>692</ele>
        <time>2021-02-21T09:37:13Z</time>
      </trkpt>
      <trkpt lat="45.83233" lon="3.58458">
        <ele>692</ele>
        <time>2021-02-21T09:37:15Z</time>
      </trkpt>
      <trkpt lat="45.83234" lon="3.58462">
        <ele>692</ele>
        <time>2021-02-21T09:37:17Z</time>
      </trkpt>
      <trkpt lat="45.83234" lon="3.58465">
        <ele>692</ele>
        <time>2021-02-21T09:37:19Z</time>
      </trkpt>
      <trkpt lat="45.83234" lon="3.58469">
        <ele>692</ele>
        <time>2021-02-21T09:37:21Z</time>
      </trkpt>
      <trkpt lat="45.83235" lon="3.58473">
        <ele>692</ele>
        <time>2021-02-21T09:37:23Z</time>
      </trkpt>
      <trkpt lat="45.83235" lon="3.58476">
        <ele>692</ele>
        <time>2021-02-21T09:37:25Z</time>
      </trkpt>
      <trkpt lat="45.83236" lon="3.5848">
        <ele>692</ele>
        <time>2021-02-21T09:37:27Z</time>
      </trkpt>
      <trkpt lat="45.83236" lon="3.58482">
        <ele>692</ele>
        <time>2021-02-21T09:37:29Z</time>
      </trkpt>
      <trkpt lat="45.83235" lon="3.58483">
        <ele>692</ele>
        <time>2021-02-21T09:37:37Z</time>
      </trkpt>
      <trkpt lat="45.83233" lon="3.58481">
        <ele>692</ele>
        <time>2021-02-21T09:37:44Z</time>
      </trkpt>
      <trkpt lat="45.83231" lon="3.58481">
        <ele>693</ele>
        <time>2021-02-21T09:37:47Z</time>
      </trkpt>
      <trkpt lat="45.83229" lon="3.58482">
        <ele>693</ele>
        <time>2021-02-21T09:38:05Z</time>
      </trkpt>
      <trkpt lat="45.83231" lon="3.58484">
        <ele>692</ele>
        <time>2021-02-21T09:38:25Z</time>
      </trkpt>
      <trkpt lat="45.83233" lon="3.58483">
        <ele>692</ele>
        <time>2021-02-21T09:38:49Z</time>
      </trkpt>
      <trkpt lat="45.83235" lon="3.58486">
        <ele>692</ele>
        <time>2021-02-21T09:38:59Z</time>
      </trkpt>
      <trkpt lat="45.83235" lon="3.58488">
        <ele>692</ele>
        <time>2021-02-21T09:39:00Z</time>
      </trkpt>
      <trkpt lat="45.83236" lon="3.58493">
        <ele>692</ele>
        <time>2021-02-21T09:39:02Z</time>
      </trkpt>
      <trkpt lat="45.83237" lon="3.58497">
        <ele>691</ele>
        <time>2021-02-21T09:39:04Z</time>
      </trkpt>
      <trkpt lat="45.83239" lon="3.585">
        <ele>691</ele>
        <time>2021-02-21T09:39:06Z</time>
      </trkpt>
      <trkpt lat="45.83241" lon="3.58503">
        <ele>691</ele>
        <time>2021-02-21T09:39:08Z</time>
      </trkpt>
      <trkpt lat="45.83244" lon="3.58505">
        <ele>691</ele>
        <time>2021-02-21T09:39:10Z</time>
      </trkpt>
      <trkpt lat="45.83246" lon="3.58508">
        <ele>690</ele>
        <time>2021-02-21T09:39:12Z</time>
      </trkpt>
      <trkpt lat="45.83248" lon="3.58511">
        <ele>690</ele>
        <time>2021-02-21T09:39:14Z</time>
      </trkpt>
      <trkpt lat="45.8325" lon="3.58513">
        <ele>690</ele>
        <time>2021-02-21T09:39:16Z</time>
      </trkpt>
      <trkpt lat="45.83252" lon="3.58516">
        <ele>690</ele>
        <time>2021-02-21T09:39:18Z</time>
      </trkpt>
      <trkpt lat="45.83254" lon="3.58519">
        <ele>690</ele>
        <time>2021-02-21T09:39:20Z</time>
      </trkpt>
      <trkpt lat="45.83257" lon="3.58521">
        <ele>690</ele>
        <time>2021-02-21T09:39:22Z</time>
      </trkpt>
      <trkpt lat="45.83258" lon="3.58524">
        <ele>690</ele>
        <time>2021-02-21T09:39:24Z</time>
      </trkpt>
      <trkpt lat="45.83259" lon="3.58528">
        <ele>690</ele>
        <time>2021-02-21T09:39:26Z</time>
      </trkpt>
      <trkpt lat="45.83259" lon="3.58532">
        <ele>690</ele>
        <time>2021-02-21T09:39:28Z</time>
      </trkpt>
      <trkpt lat="45.83261" lon="3.58535">
        <ele>689</ele>
        <time>2021-02-21T09:39:30Z</time>
      </trkpt>
      <trkpt lat="45.83262" lon="3.58539">
        <ele>689</ele>
        <time>2021-02-21T09:39:32Z</time>
      </trkpt>
      <trkpt lat="45.83264" lon="3.58542">
        <ele>689</ele>
        <time>2021-02-21T09:39:34Z</time>
      </trkpt>
      <trkpt lat="45.83265" lon="3.58545">
        <ele>689</ele>
        <time>2021-02-21T09:39:36Z</time>
      </trkpt>
      <trkpt lat="45.83266" lon="3.58549">
        <ele>689</ele>
        <time>2021-02-21T09:39:38Z</time>
      </trkpt>
      <trkpt lat="45.83267" lon="3.58552">
        <ele>689</ele>
        <time>2021-02-21T09:39:40Z</time>
      </trkpt>
      <trkpt lat="45.83268" lon="3.58556">
        <ele>689</ele>
        <time>2021-02-21T09:39:42Z</time>
      </trkpt>
      <trkpt lat="45.83269" lon="3.58559">
        <ele>689</ele>
        <time>2021-02-21T09:39:44Z</time>
      </trkpt>
      <trkpt lat="45.83271" lon="3.58563">
        <ele>689</ele>
        <time>2021-02-21T09:39:46Z</time>
      </trkpt>
      <trkpt lat="45.83272" lon="3.58566">
        <ele>688</ele>
        <time>2021-02-21T09:39:48Z</time>
      </trkpt>
      <trkpt lat="45.83274" lon="3.58569">
        <ele>688</ele>
        <time>2021-02-21T09:39:50Z</time>
      </trkpt>
      <trkpt lat="45.83275" lon="3.58573">
        <ele>687</ele>
        <time>2021-02-21T09:39:52Z</time>
      </trkpt>
      <trkpt lat="45.83277" lon="3.58577">
        <ele>687</ele>
        <time>2021-02-21T09:39:54Z</time>
      </trkpt>
      <trkpt lat="45.8328" lon="3.58581">
        <ele>687</ele>
        <time>2021-02-21T09:39:56Z</time>
      </trkpt>
      <trkpt lat="45.83282" lon="3.58584">
        <ele>686</ele>
        <time>2021-02-21T09:39:58Z</time>
      </trkpt>
      <trkpt lat="45.83283" lon="3.58588">
        <ele>686</ele>
        <time>2021-02-21T09:40:00Z</time>
      </trkpt>
      <trkpt lat="45.83284" lon="3.58591">
        <ele>686</ele>
        <time>2021-02-21T09:40:02Z</time>
      </trkpt>
      <trkpt lat="45.83286" lon="3.58595">
        <ele>686</ele>
        <time>2021-02-21T09:40:04Z</time>
      </trkpt>
      <trkpt lat="45.83287" lon="3.58598">
        <ele>687</ele>
        <time>2021-02-21T09:40:06Z</time>
      </trkpt>
      <trkpt lat="45.83288" lon="3.58602">
        <ele>687</ele>
        <time>2021-02-21T09:40:08Z</time>
      </trkpt>
      <trkpt lat="45.83289" lon="3.58605">
        <ele>687</ele>
        <time>2021-02-21T09:40:10Z</time>
      </trkpt>
      <trkpt lat="45.83291" lon="3.58608">
        <ele>687</ele>
        <time>2021-02-21T09:40:12Z</time>
      </trkpt>
      <trkpt lat="45.83292" lon="3.5861">
        <ele>686</ele>
        <time>2021-02-21T09:40:14Z</time>
      </trkpt>
      <trkpt lat="45.83293" lon="3.58612">
        <ele>686</ele>
        <time>2021-02-21T09:40:16Z</time>
      </trkpt>
      <trkpt lat="45.83295" lon="3.58614">
        <ele>686</ele>
        <time>2021-02-21T09:40:18Z</time>
      </trkpt>
      <trkpt lat="45.83297" lon="3.58615">
        <ele>686</ele>
        <time>2021-02-21T09:40:20Z</time>
      </trkpt>
      <trkpt lat="45.83299" lon="3.58618">
        <ele>686</ele>
        <time>2021-02-21T09:40:22Z</time>
      </trkpt>
      <trkpt lat="45.83302" lon="3.5862">
        <ele>687</ele>
        <time>2021-02-21T09:40:24Z</time>
      </trkpt>
      <trkpt lat="45.83304" lon="3.58623">
        <ele>687</ele>
        <time>2021-02-21T09:40:26Z</time>
      </trkpt>
      <trkpt lat="45.83306" lon="3.58625">
        <ele>687</ele>
        <time>2021-02-21T09:40:28Z</time>
      </trkpt>
      <trkpt lat="45.83307" lon="3.58627">
        <ele>687</ele>
        <time>2021-02-21T09:40:30Z</time>
      </trkpt>
      <trkpt lat="45.83309" lon="3.5863">
        <ele>688</ele>
        <time>2021-02-21T09:40:32Z</time>
      </trkpt>
      <trkpt lat="45.83311" lon="3.58632">
        <ele>688</ele>
        <time>2021-02-21T09:40:34Z</time>
      </trkpt>
      <trkpt lat="45.83313" lon="3.58635">
        <ele>689</ele>
        <time>2021-02-21T09:40:36Z</time>
      </trkpt>
      <trkpt lat="45.83314" lon="3.58639">
        <ele>689</ele>
        <time>2021-02-21T09:40:38Z</time>
      </trkpt>
      <trkpt lat="45.83313" lon="3.58642">
        <ele>689</ele>
        <time>2021-02-21T09:40:40Z</time>
      </trkpt>
      <trkpt lat="45.83313" lon="3.58645">
        <ele>690</ele>
        <time>2021-02-21T09:40:42Z</time>
      </trkpt>
      <trkpt lat="45.83314" lon="3.58648">
        <ele>690</ele>
        <time>2021-02-21T09:40:44Z</time>
      </trkpt>
      <trkpt lat="45.83314" lon="3.58652">
        <ele>690</ele>
        <time>2021-02-21T09:40:46Z</time>
      </trkpt>
      <trkpt lat="45.83316" lon="3.58664">
        <ele>691</ele>
        <time>2021-02-21T09:40:52Z</time>
      </trkpt>
      <trkpt lat="45.83318" lon="3.58673">
        <ele>692</ele>
        <time>2021-02-21T09:40:56Z</time>
      </trkpt>
      <trkpt lat="45.83317" lon="3.5868">
        <ele>692</ele>
        <time>2021-02-21T09:41:00Z</time>
      </trkpt>
      <trkpt lat="45.83317" lon="3.58683">
        <ele>692</ele>
        <time>2021-02-21T09:41:02Z</time>
      </trkpt>
      <trkpt lat="45.83317" lon="3.58687">
        <ele>692</ele>
        <time>2021-02-21T09:41:04Z</time>
      </trkpt>
      <trkpt lat="45.83316" lon="3.58689">
        <ele>692</ele>
        <time>2021-02-21T09:41:05Z</time>
      </trkpt>
      <trkpt lat="45.83315" lon="3.58693">
        <ele>692</ele>
        <time>2021-02-21T09:41:07Z</time>
      </trkpt>
      <trkpt lat="45.83314" lon="3.58696">
        <ele>692</ele>
        <time>2021-02-21T09:41:09Z</time>
      </trkpt>
      <trkpt lat="45.83312" lon="3.58698">
        <ele>693</ele>
        <time>2021-02-21T09:41:10Z</time>
      </trkpt>
      <trkpt lat="45.83311" lon="3.58702">
        <ele>693</ele>
        <time>2021-02-21T09:41:12Z</time>
      </trkpt>
      <trkpt lat="45.83306" lon="3.58704">
        <ele>693</ele>
        <time>2021-02-21T09:41:15Z</time>
      </trkpt>
      <trkpt lat="45.83303" lon="3.58704">
        <ele>693</ele>
        <time>2021-02-21T09:41:16Z</time>
      </trkpt>
      <trkpt lat="45.83301" lon="3.58705">
        <ele>693</ele>
        <time>2021-02-21T09:41:17Z</time>
      </trkpt>
      <trkpt lat="45.83299" lon="3.58706">
        <ele>693</ele>
        <time>2021-02-21T09:41:18Z</time>
      </trkpt>
      <trkpt lat="45.83297" lon="3.58708">
        <ele>694</ele>
        <time>2021-02-21T09:41:20Z</time>
      </trkpt>
      <trkpt lat="45.83295" lon="3.5871">
        <ele>694</ele>
        <time>2021-02-21T09:41:23Z</time>
      </trkpt>
      <trkpt lat="45.83294" lon="3.58712">
        <ele>694</ele>
        <time>2021-02-21T09:41:26Z</time>
      </trkpt>
      <trkpt lat="45.83296" lon="3.58711">
        <ele>694</ele>
        <time>2021-02-21T09:41:31Z</time>
      </trkpt>
      <trkpt lat="45.83298" lon="3.58709">
        <ele>694</ele>
        <time>2021-02-21T09:41:33Z</time>
      </trkpt>
      <trkpt lat="45.83299" lon="3.58708">
        <ele>694</ele>
        <time>2021-02-21T09:41:35Z</time>
      </trkpt>
      <trkpt lat="45.83301" lon="3.58706">
        <ele>693</ele>
        <time>2021-02-21T09:41:37Z</time>
      </trkpt>
      <trkpt lat="45.83303" lon="3.58704">
        <ele>693</ele>
        <time>2021-02-21T09:41:39Z</time>
      </trkpt>
      <trkpt lat="45.83306" lon="3.58703">
        <ele>693</ele>
        <time>2021-02-21T09:41:41Z</time>
      </trkpt>
      <trkpt lat="45.83308" lon="3.58702">
        <ele>693</ele>
        <time>2021-02-21T09:41:43Z</time>
      </trkpt>
      <trkpt lat="45.8331" lon="3.58706">
        <ele>693</ele>
        <time>2021-02-21T09:41:45Z</time>
      </trkpt>
      <trkpt lat="45.83312" lon="3.58708">
        <ele>693</ele>
        <time>2021-02-21T09:41:46Z</time>
      </trkpt>
      <trkpt lat="45.83313" lon="3.58711">
        <ele>693</ele>
        <time>2021-02-21T09:41:47Z</time>
      </trkpt>
      <trkpt lat="45.83314" lon="3.58716">
        <ele>694</ele>
        <time>2021-02-21T09:41:49Z</time>
      </trkpt>
      <trkpt lat="45.83314" lon="3.5872">
        <ele>694</ele>
        <time>2021-02-21T09:41:51Z</time>
      </trkpt>
      <trkpt lat="45.83313" lon="3.58724">
        <ele>694</ele>
        <time>2021-02-21T09:41:53Z</time>
      </trkpt>
      <trkpt lat="45.83312" lon="3.58726">
        <ele>695</ele>
        <time>2021-02-21T09:41:55Z</time>
      </trkpt>
      <trkpt lat="45.83311" lon="3.58729">
        <ele>695</ele>
        <time>2021-02-21T09:41:57Z</time>
      </trkpt>
      <trkpt lat="45.83309" lon="3.58732">
        <ele>695</ele>
        <time>2021-02-21T09:41:59Z</time>
      </trkpt>
      <trkpt lat="45.83307" lon="3.58734">
        <ele>696</ele>
        <time>2021-02-21T09:42:01Z</time>
      </trkpt>
      <trkpt lat="45.83305" lon="3.58736">
        <ele>696</ele>
        <time>2021-02-21T09:42:03Z</time>
      </trkpt>
      <trkpt lat="45.83304" lon="3.58739">
        <ele>696</ele>
        <time>2021-02-21T09:42:06Z</time>
      </trkpt>
      <trkpt lat="45.83297" lon="3.58748">
        <ele>697</ele>
        <time>2021-02-21T09:42:17Z</time>
      </trkpt>
      <trkpt lat="45.8329" lon="3.58756">
        <ele>698</ele>
        <time>2021-02-21T09:42:24Z</time>
      </trkpt>
      <trkpt lat="45.83281" lon="3.58761">
        <ele>699</ele>
        <time>2021-02-21T09:42:30Z</time>
      </trkpt>
      <trkpt lat="45.83278" lon="3.58764">
        <ele>699</ele>
        <time>2021-02-21T09:42:32Z</time>
      </trkpt>
      <trkpt lat="45.83276" lon="3.58768">
        <ele>700</ele>
        <time>2021-02-21T09:42:35Z</time>
      </trkpt>
      <trkpt lat="45.83275" lon="3.58771">
        <ele>700</ele>
        <time>2021-02-21T09:42:37Z</time>
      </trkpt>
      <trkpt lat="45.83269" lon="3.58783">
        <ele>701</ele>
        <time>2021-02-21T09:42:45Z</time>
      </trkpt>
      <trkpt lat="45.83265" lon="3.5879">
        <ele>702</ele>
        <time>2021-02-21T09:42:50Z</time>
      </trkpt>
      <trkpt lat="45.83265" lon="3.58804">
        <ele>704</ele>
        <time>2021-02-21T09:43:00Z</time>
      </trkpt>
      <trkpt lat="45.83261" lon="3.58816">
        <ele>706</ele>
        <time>2021-02-21T09:43:07Z</time>
      </trkpt>
      <trkpt lat="45.83262" lon="3.58819">
        <ele>706</ele>
        <time>2021-02-21T09:43:09Z</time>
      </trkpt>
      <trkpt lat="45.83261" lon="3.58832">
        <ele>708</ele>
        <time>2021-02-21T09:43:17Z</time>
      </trkpt>
      <trkpt lat="45.8326" lon="3.58835">
        <ele>709</ele>
        <time>2021-02-21T09:43:20Z</time>
      </trkpt>
      <trkpt lat="45.83259" lon="3.58838">
        <ele>710</ele>
        <time>2021-02-21T09:43:22Z</time>
      </trkpt>
      <trkpt lat="45.83258" lon="3.5884">
        <ele>711</ele>
        <time>2021-02-21T09:43:24Z</time>
      </trkpt>
      <trkpt lat="45.83257" lon="3.58845">
        <ele>712</ele>
        <time>2021-02-21T09:43:28Z</time>
      </trkpt>
      <trkpt lat="45.83258" lon="3.58848">
        <ele>713</ele>
        <time>2021-02-21T09:43:31Z</time>
      </trkpt>
      <trkpt lat="45.83257" lon="3.5885">
        <ele>713</ele>
        <time>2021-02-21T09:43:33Z</time>
      </trkpt>
      <trkpt lat="45.83258" lon="3.58852">
        <ele>713</ele>
        <time>2021-02-21T09:43:35Z</time>
      </trkpt>
      <trkpt lat="45.8326" lon="3.58854">
        <ele>713</ele>
        <time>2021-02-21T09:43:37Z</time>
      </trkpt>
      <trkpt lat="45.83261" lon="3.58857">
        <ele>714</ele>
        <time>2021-02-21T09:43:40Z</time>
      </trkpt>
      <trkpt lat="45.83261" lon="3.58861">
        <ele>714</ele>
        <time>2021-02-21T09:43:43Z</time>
      </trkpt>
      <trkpt lat="45.83262" lon="3.58865">
        <ele>715</ele>
        <time>2021-02-21T09:43:46Z</time>
      </trkpt>
      <trkpt lat="45.83262" lon="3.58867">
        <ele>716</ele>
        <time>2021-02-21T09:43:48Z</time>
      </trkpt>
      <trkpt lat="45.83263" lon="3.5887">
        <ele>716</ele>
        <time>2021-02-21T09:43:50Z</time>
      </trkpt>
      <trkpt lat="45.83264" lon="3.58873">
        <ele>717</ele>
        <time>2021-02-21T09:43:52Z</time>
      </trkpt>
      <trkpt lat="45.83268" lon="3.58885">
        <ele>719</ele>
        <time>2021-02-21T09:44:03Z</time>
      </trkpt>
      <trkpt lat="45.83269" lon="3.58889">
        <ele>720</ele>
        <time>2021-02-21T09:44:06Z</time>
      </trkpt>
      <trkpt lat="45.83271" lon="3.58893">
        <ele>720</ele>
        <time>2021-02-21T09:44:09Z</time>
      </trkpt>
      <trkpt lat="45.83272" lon="3.58895">
        <ele>720</ele>
        <time>2021-02-21T09:44:11Z</time>
      </trkpt>
      <trkpt lat="45.83273" lon="3.58899">
        <ele>721</ele>
        <time>2021-02-21T09:44:13Z</time>
      </trkpt>
      <trkpt lat="45.83275" lon="3.58901">
        <ele>721</ele>
        <time>2021-02-21T09:44:14Z</time>
      </trkpt>
      <trkpt lat="45.83276" lon="3.58904">
        <ele>722</ele>
        <time>2021-02-21T09:44:16Z</time>
      </trkpt>
      <trkpt lat="45.83278" lon="3.58906">
        <ele>722</ele>
        <time>2021-02-21T09:44:18Z</time>
      </trkpt>
      <trkpt lat="45.83279" lon="3.58909">
        <ele>722</ele>
        <time>2021-02-21T09:44:21Z</time>
      </trkpt>
      <trkpt lat="45.8328" lon="3.58912">
        <ele>723</ele>
        <time>2021-02-21T09:44:23Z</time>
      </trkpt>
      <trkpt lat="45.83281" lon="3.58915">
        <ele>723</ele>
        <time>2021-02-21T09:44:25Z</time>
      </trkpt>
      <trkpt lat="45.83282" lon="3.58917">
        <ele>723</ele>
        <time>2021-02-21T09:44:27Z</time>
      </trkpt>
      <trkpt lat="45.83284" lon="3.5892">
        <ele>724</ele>
        <time>2021-02-21T09:44:30Z</time>
      </trkpt>
      <trkpt lat="45.83285" lon="3.58923">
        <ele>724</ele>
        <time>2021-02-21T09:44:33Z</time>
      </trkpt>
      <trkpt lat="45.83286" lon="3.58926">
        <ele>725</ele>
        <time>2021-02-21T09:44:35Z</time>
      </trkpt>
      <trkpt lat="45.83288" lon="3.58929">
        <ele>725</ele>
        <time>2021-02-21T09:44:37Z</time>
      </trkpt>
      <trkpt lat="45.8329" lon="3.5893">
        <ele>725</ele>
        <time>2021-02-21T09:44:38Z</time>
      </trkpt>
      <trkpt lat="45.83292" lon="3.58932">
        <ele>725</ele>
        <time>2021-02-21T09:44:40Z</time>
      </trkpt>
      <trkpt lat="45.83293" lon="3.58935">
        <ele>725</ele>
        <time>2021-02-21T09:44:43Z</time>
      </trkpt>
      <trkpt lat="45.83295" lon="3.58937">
        <ele>725</ele>
        <time>2021-02-21T09:44:45Z</time>
      </trkpt>
      <trkpt lat="45.83298" lon="3.58938">
        <ele>725</ele>
        <time>2021-02-21T09:44:47Z</time>
      </trkpt>
      <trkpt lat="45.83301" lon="3.5894">
        <ele>725</ele>
        <time>2021-02-21T09:44:49Z</time>
      </trkpt>
      <trkpt lat="45.83303" lon="3.58941">
        <ele>724</ele>
        <time>2021-02-21T09:44:51Z</time>
      </trkpt>
      <trkpt lat="45.83305" lon="3.58943">
        <ele>724</ele>
        <time>2021-02-21T09:44:53Z</time>
      </trkpt>
      <trkpt lat="45.83308" lon="3.58946">
        <ele>724</ele>
        <time>2021-02-21T09:44:55Z</time>
      </trkpt>
      <trkpt lat="45.8331" lon="3.58948">
        <ele>725</ele>
        <time>2021-02-21T09:44:57Z</time>
      </trkpt>
      <trkpt lat="45.83312" lon="3.58949">
        <ele>725</ele>
        <time>2021-02-21T09:44:59Z</time>
      </trkpt>
      <trkpt lat="45.83314" lon="3.58951">
        <ele>725</ele>
        <time>2021-02-21T09:45:01Z</time>
      </trkpt>
      <trkpt lat="45.83316" lon="3.58953">
        <ele>725</ele>
        <time>2021-02-21T09:45:03Z</time>
      </trkpt>
      <trkpt lat="45.83318" lon="3.58955">
        <ele>725</ele>
        <time>2021-02-21T09:45:05Z</time>
      </trkpt>
      <trkpt lat="45.83319" lon="3.58956">
        <ele>725</ele>
        <time>2021-02-21T09:45:07Z</time>
      </trkpt>
      <trkpt lat="45.83321" lon="3.58959">
        <ele>726</ele>
        <time>2021-02-21T09:45:09Z</time>
      </trkpt>
      <trkpt lat="45.83323" lon="3.58961">
        <ele>726</ele>
        <time>2021-02-21T09:45:11Z</time>
      </trkpt>
      <trkpt lat="45.83326" lon="3.58963">
        <ele>726</ele>
        <time>2021-02-21T09:45:13Z</time>
      </trkpt>
      <trkpt lat="45.83328" lon="3.58966">
        <ele>726</ele>
        <time>2021-02-21T09:45:15Z</time>
      </trkpt>
      <trkpt lat="45.83331" lon="3.58968">
        <ele>726</ele>
        <time>2021-02-21T09:45:17Z</time>
      </trkpt>
      <trkpt lat="45.83332" lon="3.58971">
        <ele>726</ele>
        <time>2021-02-21T09:45:19Z</time>
      </trkpt>
      <trkpt lat="45.83335" lon="3.58974">
        <ele>727</ele>
        <time>2021-02-21T09:45:21Z</time>
      </trkpt>
      <trkpt lat="45.83337" lon="3.58975">
        <ele>727</ele>
        <time>2021-02-21T09:45:22Z</time>
      </trkpt>
      <trkpt lat="45.8334" lon="3.58979">
        <ele>728</ele>
        <time>2021-02-21T09:45:24Z</time>
      </trkpt>
      <trkpt lat="45.83342" lon="3.58981">
        <ele>728</ele>
        <time>2021-02-21T09:45:26Z</time>
      </trkpt>
      <trkpt lat="45.83343" lon="3.58984">
        <ele>729</ele>
        <time>2021-02-21T09:45:28Z</time>
      </trkpt>
      <trkpt lat="45.83344" lon="3.58987">
        <ele>729</ele>
        <time>2021-02-21T09:45:30Z</time>
      </trkpt>
      <trkpt lat="45.83345" lon="3.5899">
        <ele>730</ele>
        <time>2021-02-21T09:45:32Z</time>
      </trkpt>
      <trkpt lat="45.83345" lon="3.58993">
        <ele>730</ele>
        <time>2021-02-21T09:45:34Z</time>
      </trkpt>
      <trkpt lat="45.83346" lon="3.58995">
        <ele>731</ele>
        <time>2021-02-21T09:45:36Z</time>
      </trkpt>
      <trkpt lat="45.83347" lon="3.58999">
        <ele>731</ele>
        <time>2021-02-21T09:45:38Z</time>
      </trkpt>
      <trkpt lat="45.8335" lon="3.59001">
        <ele>731</ele>
        <time>2021-02-21T09:45:40Z</time>
      </trkpt>
      <trkpt lat="45.83352" lon="3.59004">
        <ele>731</ele>
        <time>2021-02-21T09:45:42Z</time>
      </trkpt>
      <trkpt lat="45.83353" lon="3.59007">
        <ele>732</ele>
        <time>2021-02-21T09:45:44Z</time>
      </trkpt>
      <trkpt lat="45.83353" lon="3.5901">
        <ele>732</ele>
        <time>2021-02-21T09:45:46Z</time>
      </trkpt>
      <trkpt lat="45.83354" lon="3.59014">
        <ele>733</ele>
        <time>2021-02-21T09:45:48Z</time>
      </trkpt>
      <trkpt lat="45.83355" lon="3.59017">
        <ele>733</ele>
        <time>2021-02-21T09:45:50Z</time>
      </trkpt>
      <trkpt lat="45.83356" lon="3.5902">
        <ele>734</ele>
        <time>2021-02-21T09:45:52Z</time>
      </trkpt>
      <trkpt lat="45.83357" lon="3.59024">
        <ele>735</ele>
        <time>2021-02-21T09:45:55Z</time>
      </trkpt>
      <trkpt lat="45.83358" lon="3.59027">
        <ele>735</ele>
        <time>2021-02-21T09:45:58Z</time>
      </trkpt>
      <trkpt lat="45.83358" lon="3.5903">
        <ele>735</ele>
        <time>2021-02-21T09:46:00Z</time>
      </trkpt>
      <trkpt lat="45.8336" lon="3.59033">
        <ele>735</ele>
        <time>2021-02-21T09:46:02Z</time>
      </trkpt>
      <trkpt lat="45.8336" lon="3.59037">
        <ele>736</ele>
        <time>2021-02-21T09:46:04Z</time>
      </trkpt>
      <trkpt lat="45.83362" lon="3.5904">
        <ele>736</ele>
        <time>2021-02-21T09:46:06Z</time>
      </trkpt>
      <trkpt lat="45.83363" lon="3.59043">
        <ele>736</ele>
        <time>2021-02-21T09:46:08Z</time>
      </trkpt>
      <trkpt lat="45.83362" lon="3.59046">
        <ele>736</ele>
        <time>2021-02-21T09:46:10Z</time>
      </trkpt>
      <trkpt lat="45.83363" lon="3.59049">
        <ele>736</ele>
        <time>2021-02-21T09:46:12Z</time>
      </trkpt>
      <trkpt lat="45.83363" lon="3.59052">
        <ele>737</ele>
        <time>2021-02-21T09:46:14Z</time>
      </trkpt>
      <trkpt lat="45.83364" lon="3.59056">
        <ele>737</ele>
        <time>2021-02-21T09:46:16Z</time>
      </trkpt>
      <trkpt lat="45.83365" lon="3.59059">
        <ele>737</ele>
        <time>2021-02-21T09:46:18Z</time>
      </trkpt>
      <trkpt lat="45.83365" lon="3.59062">
        <ele>737</ele>
        <time>2021-02-21T09:46:20Z</time>
      </trkpt>
      <trkpt lat="45.83365" lon="3.59066">
        <ele>737</ele>
        <time>2021-02-21T09:46:22Z</time>
      </trkpt>
      <trkpt lat="45.83365" lon="3.59068">
        <ele>737</ele>
        <time>2021-02-21T09:46:27Z</time>
      </trkpt>
      <trkpt lat="45.83366" lon="3.59073">
        <ele>737</ele>
        <time>2021-02-21T09:46:29Z</time>
      </trkpt>
      <trkpt lat="45.83366" lon="3.59077">
        <ele>737</ele>
        <time>2021-02-21T09:46:31Z</time>
      </trkpt>
      <trkpt lat="45.83367" lon="3.5908">
        <ele>738</ele>
        <time>2021-02-21T09:46:33Z</time>
      </trkpt>
      <trkpt lat="45.83367" lon="3.59084">
        <ele>738</ele>
        <time>2021-02-21T09:46:35Z</time>
      </trkpt>
      <trkpt lat="45.83367" lon="3.59089">
        <ele>738</ele>
        <time>2021-02-21T09:46:37Z</time>
      </trkpt>
      <trkpt lat="45.83366" lon="3.59091">
        <ele>738</ele>
        <time>2021-02-21T09:46:40Z</time>
      </trkpt>
      <trkpt lat="45.83366" lon="3.59093">
        <ele>738</ele>
        <time>2021-02-21T09:46:44Z</time>
      </trkpt>
      <trkpt lat="45.83365" lon="3.59096">
        <ele>738</ele>
        <time>2021-02-21T09:46:46Z</time>
      </trkpt>
      <trkpt lat="45.83364" lon="3.591">
        <ele>738</ele>
        <time>2021-02-21T09:46:48Z</time>
      </trkpt>
      <trkpt lat="45.83363" lon="3.59105">
        <ele>738</ele>
        <time>2021-02-21T09:46:50Z</time>
      </trkpt>
      <trkpt lat="45.83363" lon="3.59108">
        <ele>738</ele>
        <time>2021-02-21T09:46:52Z</time>
      </trkpt>
      <trkpt lat="45.83363" lon="3.59112">
        <ele>738</ele>
        <time>2021-02-21T09:46:54Z</time>
      </trkpt>
      <trkpt lat="45.83365" lon="3.59113">
        <ele>738</ele>
        <time>2021-02-21T09:46:58Z</time>
      </trkpt>
      <trkpt lat="45.83364" lon="3.59116">
        <ele>738</ele>
        <time>2021-02-21T09:47:01Z</time>
      </trkpt>
      <trkpt lat="45.83363" lon="3.59119">
        <ele>738</ele>
        <time>2021-02-21T09:47:04Z</time>
      </trkpt>
      <trkpt lat="45.83363" lon="3.59122">
        <ele>738</ele>
        <time>2021-02-21T09:47:06Z</time>
      </trkpt>
      <trkpt lat="45.83362" lon="3.59125">
        <ele>738</ele>
        <time>2021-02-21T09:47:08Z</time>
      </trkpt>
      <trkpt lat="45.83362" lon="3.59128">
        <ele>738</ele>
        <time>2021-02-21T09:47:10Z</time>
      </trkpt>
      <trkpt lat="45.83361" lon="3.59132">
        <ele>739</ele>
        <time>2021-02-21T09:47:12Z</time>
      </trkpt>
      <trkpt lat="45.83361" lon="3.59135">
        <ele>739</ele>
        <time>2021-02-21T09:47:14Z</time>
      </trkpt>
      <trkpt lat="45.83361" lon="3.59139">
        <ele>739</ele>
        <time>2021-02-21T09:47:16Z</time>
      </trkpt>
      <trkpt lat="45.83361" lon="3.59144">
        <ele>739</ele>
        <time>2021-02-21T09:47:18Z</time>
      </trkpt>
      <trkpt lat="45.83359" lon="3.59146">
        <ele>739</ele>
        <time>2021-02-21T09:47:20Z</time>
      </trkpt>
      <trkpt lat="45.83358" lon="3.59149">
        <ele>739</ele>
        <time>2021-02-21T09:47:22Z</time>
      </trkpt>
      <trkpt lat="45.83358" lon="3.59153">
        <ele>739</ele>
        <time>2021-02-21T09:47:24Z</time>
      </trkpt>
      <trkpt lat="45.83358" lon="3.59157">
        <ele>739</ele>
        <time>2021-02-21T09:47:26Z</time>
      </trkpt>
      <trkpt lat="45.83357" lon="3.5916">
        <ele>739</ele>
        <time>2021-02-21T09:47:28Z</time>
      </trkpt>
      <trkpt lat="45.83355" lon="3.59163">
        <ele>739</ele>
        <time>2021-02-21T09:47:30Z</time>
      </trkpt>
      <trkpt lat="45.83354" lon="3.59167">
        <ele>740</ele>
        <time>2021-02-21T09:47:32Z</time>
      </trkpt>
      <trkpt lat="45.83353" lon="3.5917">
        <ele>739</ele>
        <time>2021-02-21T09:47:34Z</time>
      </trkpt>
      <trkpt lat="45.83352" lon="3.59173">
        <ele>739</ele>
        <time>2021-02-21T09:47:36Z</time>
      </trkpt>
      <trkpt lat="45.83352" lon="3.59176">
        <ele>739</ele>
        <time>2021-02-21T09:47:38Z</time>
      </trkpt>
      <trkpt lat="45.83351" lon="3.5918">
        <ele>739</ele>
        <time>2021-02-21T09:47:40Z</time>
      </trkpt>
      <trkpt lat="45.83351" lon="3.59184">
        <ele>739</ele>
        <time>2021-02-21T09:47:42Z</time>
      </trkpt>
      <trkpt lat="45.83352" lon="3.59187">
        <ele>738</ele>
        <time>2021-02-21T09:47:44Z</time>
      </trkpt>
      <trkpt lat="45.83354" lon="3.5919">
        <ele>738</ele>
        <time>2021-02-21T09:47:47Z</time>
      </trkpt>
      <trkpt lat="45.83355" lon="3.59193">
        <ele>738</ele>
        <time>2021-02-21T09:47:49Z</time>
      </trkpt>
      <trkpt lat="45.83355" lon="3.59196">
        <ele>737</ele>
        <time>2021-02-21T09:47:51Z</time>
      </trkpt>
      <trkpt lat="45.83355" lon="3.592">
        <ele>737</ele>
        <time>2021-02-21T09:47:53Z</time>
      </trkpt>
      <trkpt lat="45.83355" lon="3.59204">
        <ele>737</ele>
        <time>2021-02-21T09:47:55Z</time>
      </trkpt>
      <trkpt lat="45.83355" lon="3.59207">
        <ele>736</ele>
        <time>2021-02-21T09:47:57Z</time>
      </trkpt>
      <trkpt lat="45.83355" lon="3.59211">
        <ele>736</ele>
        <time>2021-02-21T09:47:59Z</time>
      </trkpt>
      <trkpt lat="45.83355" lon="3.59214">
        <ele>735</ele>
        <time>2021-02-21T09:48:01Z</time>
      </trkpt>
      <trkpt lat="45.83354" lon="3.59218">
        <ele>735</ele>
        <time>2021-02-21T09:48:03Z</time>
      </trkpt>
      <trkpt lat="45.83352" lon="3.59222">
        <ele>735</ele>
        <time>2021-02-21T09:48:05Z</time>
      </trkpt>
      <trkpt lat="45.83351" lon="3.59225">
        <ele>735</ele>
        <time>2021-02-21T09:48:07Z</time>
      </trkpt>
      <trkpt lat="45.8335" lon="3.59229">
        <ele>734</ele>
        <time>2021-02-21T09:48:09Z</time>
      </trkpt>
      <trkpt lat="45.83351" lon="3.59231">
        <ele>734</ele>
        <time>2021-02-21T09:48:11Z</time>
      </trkpt>
      <trkpt lat="45.83352" lon="3.59233">
        <ele>734</ele>
        <time>2021-02-21T09:48:13Z</time>
      </trkpt>
      <trkpt lat="45.83355" lon="3.59235">
        <ele>733</ele>
        <time>2021-02-21T09:48:15Z</time>
      </trkpt>
      <trkpt lat="45.83356" lon="3.59237">
        <ele>733</ele>
        <time>2021-02-21T09:48:17Z</time>
      </trkpt>
      <trkpt lat="45.83358" lon="3.59237">
        <ele>733</ele>
        <time>2021-02-21T09:48:19Z</time>
      </trkpt>
      <trkpt lat="45.8336" lon="3.59239">
        <ele>733</ele>
        <time>2021-02-21T09:48:22Z</time>
      </trkpt>
      <trkpt lat="45.83362" lon="3.5924">
        <ele>733</ele>
        <time>2021-02-21T09:48:26Z</time>
      </trkpt>
      <trkpt lat="45.83365" lon="3.59241">
        <ele>734</ele>
        <time>2021-02-21T09:48:29Z</time>
      </trkpt>
      <trkpt lat="45.83367" lon="3.59241">
        <ele>734</ele>
        <time>2021-02-21T09:48:32Z</time>
      </trkpt>
      <trkpt lat="45.83369" lon="3.59243">
        <ele>734</ele>
        <time>2021-02-21T09:48:34Z</time>
      </trkpt>
      <trkpt lat="45.83371" lon="3.59245">
        <ele>734</ele>
        <time>2021-02-21T09:48:36Z</time>
      </trkpt>
      <trkpt lat="45.83373" lon="3.59245">
        <ele>734</ele>
        <time>2021-02-21T09:48:38Z</time>
      </trkpt>
      <trkpt lat="45.83376" lon="3.59247">
        <ele>735</ele>
        <time>2021-02-21T09:48:41Z</time>
      </trkpt>
      <trkpt lat="45.83378" lon="3.59248">
        <ele>735</ele>
        <time>2021-02-21T09:48:43Z</time>
      </trkpt>
      <trkpt lat="45.83381" lon="3.59249">
        <ele>735</ele>
        <time>2021-02-21T09:48:45Z</time>
      </trkpt>
      <trkpt lat="45.83383" lon="3.59249">
        <ele>736</ele>
        <time>2021-02-21T09:48:47Z</time>
      </trkpt>
      <trkpt lat="45.83384" lon="3.59251">
        <ele>736</ele>
        <time>2021-02-21T09:48:48Z</time>
      </trkpt>
      <trkpt lat="45.83386" lon="3.59252">
        <ele>736</ele>
        <time>2021-02-21T09:48:50Z</time>
      </trkpt>
      <trkpt lat="45.83388" lon="3.59254">
        <ele>736</ele>
        <time>2021-02-21T09:48:52Z</time>
      </trkpt>
      <trkpt lat="45.8339" lon="3.59254">
        <ele>736</ele>
        <time>2021-02-21T09:48:54Z</time>
      </trkpt>
      <trkpt lat="45.83392" lon="3.59254">
        <ele>737</ele>
        <time>2021-02-21T09:48:56Z</time>
      </trkpt>
      <trkpt lat="45.83395" lon="3.59255">
        <ele>737</ele>
        <time>2021-02-21T09:49:00Z</time>
      </trkpt>
      <trkpt lat="45.83398" lon="3.59256">
        <ele>737</ele>
        <time>2021-02-21T09:49:02Z</time>
      </trkpt>
      <trkpt lat="45.83399" lon="3.59257">
        <ele>737</ele>
        <time>2021-02-21T09:49:04Z</time>
      </trkpt>
      <trkpt lat="45.83401" lon="3.59257">
        <ele>737</ele>
        <time>2021-02-21T09:49:06Z</time>
      </trkpt>
      <trkpt lat="45.83404" lon="3.59259">
        <ele>737</ele>
        <time>2021-02-21T09:49:09Z</time>
      </trkpt>
      <trkpt lat="45.83406" lon="3.59259">
        <ele>738</ele>
        <time>2021-02-21T09:49:11Z</time>
      </trkpt>
      <trkpt lat="45.83408" lon="3.59259">
        <ele>738</ele>
        <time>2021-02-21T09:49:13Z</time>
      </trkpt>
      <trkpt lat="45.8341" lon="3.59259">
        <ele>738</ele>
        <time>2021-02-21T09:49:15Z</time>
      </trkpt>
      <trkpt lat="45.83412" lon="3.59259">
        <ele>738</ele>
        <time>2021-02-21T09:49:17Z</time>
      </trkpt>
      <trkpt lat="45.83414" lon="3.59259">
        <ele>738</ele>
        <time>2021-02-21T09:49:19Z</time>
      </trkpt>
      <trkpt lat="45.83416" lon="3.5926">
        <ele>738</ele>
        <time>2021-02-21T09:49:21Z</time>
      </trkpt>
      <trkpt lat="45.83419" lon="3.59261">
        <ele>739</ele>
        <time>2021-02-21T09:49:24Z</time>
      </trkpt>
      <trkpt lat="45.8342" lon="3.59264">
        <ele>739</ele>
        <time>2021-02-21T09:49:27Z</time>
      </trkpt>
      <trkpt lat="45.83422" lon="3.59266">
        <ele>739</ele>
        <time>2021-02-21T09:49:29Z</time>
      </trkpt>
      <trkpt lat="45.83423" lon="3.59268">
        <ele>739</ele>
        <time>2021-02-21T09:49:32Z</time>
      </trkpt>
      <trkpt lat="45.83425" lon="3.59269">
        <ele>739</ele>
        <time>2021-02-21T09:49:35Z</time>
      </trkpt>
      <trkpt lat="45.83427" lon="3.59271">
        <ele>739</ele>
        <time>2021-02-21T09:49:38Z</time>
      </trkpt>
      <trkpt lat="45.83429" lon="3.59273">
        <ele>739</ele>
        <time>2021-02-21T09:49:41Z</time>
      </trkpt>
      <trkpt lat="45.8343" lon="3.59275">
        <ele>739</ele>
        <time>2021-02-21T09:49:42Z</time>
      </trkpt>
      <trkpt lat="45.83432" lon="3.59277">
        <ele>739</ele>
        <time>2021-02-21T09:49:44Z</time>
      </trkpt>
      <trkpt lat="45.83433" lon="3.5928">
        <ele>739</ele>
        <time>2021-02-21T09:49:52Z</time>
      </trkpt>
      <trkpt lat="45.83435" lon="3.59283">
        <ele>740</ele>
        <time>2021-02-21T09:49:54Z</time>
      </trkpt>
      <trkpt lat="45.83437" lon="3.59286">
        <ele>740</ele>
        <time>2021-02-21T09:49:56Z</time>
      </trkpt>
      <trkpt lat="45.83439" lon="3.59289">
        <ele>740</ele>
        <time>2021-02-21T09:49:58Z</time>
      </trkpt>
      <trkpt lat="45.83442" lon="3.5929">
        <ele>741</ele>
        <time>2021-02-21T09:50:01Z</time>
      </trkpt>
      <trkpt lat="45.83444" lon="3.5929">
        <ele>741</ele>
        <time>2021-02-21T09:50:04Z</time>
      </trkpt>
      <trkpt lat="45.83447" lon="3.59289">
        <ele>741</ele>
        <time>2021-02-21T09:50:06Z</time>
      </trkpt>
      <trkpt lat="45.83449" lon="3.59288">
        <ele>741</ele>
        <time>2021-02-21T09:50:08Z</time>
      </trkpt>
      <trkpt lat="45.83451" lon="3.59287">
        <ele>741</ele>
        <time>2021-02-21T09:50:10Z</time>
      </trkpt>
      <trkpt lat="45.83454" lon="3.59289">
        <ele>741</ele>
        <time>2021-02-21T09:50:12Z</time>
      </trkpt>
      <trkpt lat="45.83456" lon="3.59288">
        <ele>741</ele>
        <time>2021-02-21T09:50:14Z</time>
      </trkpt>
      <trkpt lat="45.83458" lon="3.59288">
        <ele>741</ele>
        <time>2021-02-21T09:50:17Z</time>
      </trkpt>
      <trkpt lat="45.83461" lon="3.59289">
        <ele>741</ele>
        <time>2021-02-21T09:50:20Z</time>
      </trkpt>
      <trkpt lat="45.83463" lon="3.59288">
        <ele>741</ele>
        <time>2021-02-21T09:50:23Z</time>
      </trkpt>
      <trkpt lat="45.83465" lon="3.59288">
        <ele>742</ele>
        <time>2021-02-21T09:50:26Z</time>
      </trkpt>
      <trkpt lat="45.83468" lon="3.59289">
        <ele>742</ele>
        <time>2021-02-21T09:50:28Z</time>
      </trkpt>
      <trkpt lat="45.83471" lon="3.59289">
        <ele>742</ele>
        <time>2021-02-21T09:50:30Z</time>
      </trkpt>
      <trkpt lat="45.83473" lon="3.59289">
        <ele>742</ele>
        <time>2021-02-21T09:50:32Z</time>
      </trkpt>
      <trkpt lat="45.83476" lon="3.59288">
        <ele>742</ele>
        <time>2021-02-21T09:50:34Z</time>
      </trkpt>
      <trkpt lat="45.83478" lon="3.59288">
        <ele>743</ele>
        <time>2021-02-21T09:50:37Z</time>
      </trkpt>
      <trkpt lat="45.8348" lon="3.59291">
        <ele>743</ele>
        <time>2021-02-21T09:50:40Z</time>
      </trkpt>
      <trkpt lat="45.83483" lon="3.59292">
        <ele>744</ele>
        <time>2021-02-21T09:50:42Z</time>
      </trkpt>
      <trkpt lat="45.83485" lon="3.59292">
        <ele>744</ele>
        <time>2021-02-21T09:50:45Z</time>
      </trkpt>
      <trkpt lat="45.83486" lon="3.59294">
        <ele>744</ele>
        <time>2021-02-21T09:50:49Z</time>
      </trkpt>
      <trkpt lat="45.83488" lon="3.59296">
        <ele>745</ele>
        <time>2021-02-21T09:50:52Z</time>
      </trkpt>
      <trkpt lat="45.8349" lon="3.59296">
        <ele>745</ele>
        <time>2021-02-21T09:50:55Z</time>
      </trkpt>
      <trkpt lat="45.83492" lon="3.59297">
        <ele>745</ele>
        <time>2021-02-21T09:50:57Z</time>
      </trkpt>
      <trkpt lat="45.83494" lon="3.59297">
        <ele>745</ele>
        <time>2021-02-21T09:50:59Z</time>
      </trkpt>
      <trkpt lat="45.83497" lon="3.59298">
        <ele>746</ele>
        <time>2021-02-21T09:51:01Z</time>
      </trkpt>
      <trkpt lat="45.83499" lon="3.59299">
        <ele>746</ele>
        <time>2021-02-21T09:51:03Z</time>
      </trkpt>
      <trkpt lat="45.83501" lon="3.59301">
        <ele>747</ele>
        <time>2021-02-21T09:51:06Z</time>
      </trkpt>
      <trkpt lat="45.83503" lon="3.59301">
        <ele>747</ele>
        <time>2021-02-21T09:51:08Z</time>
      </trkpt>
      <trkpt lat="45.83505" lon="3.59302">
        <ele>747</ele>
        <time>2021-02-21T09:51:10Z</time>
      </trkpt>
      <trkpt lat="45.83507" lon="3.59303">
        <ele>748</ele>
        <time>2021-02-21T09:51:13Z</time>
      </trkpt>
      <trkpt lat="45.83509" lon="3.59303">
        <ele>748</ele>
        <time>2021-02-21T09:51:17Z</time>
      </trkpt>
      <trkpt lat="45.83512" lon="3.59303">
        <ele>748</ele>
        <time>2021-02-21T09:51:19Z</time>
      </trkpt>
      <trkpt lat="45.83514" lon="3.59303">
        <ele>749</ele>
        <time>2021-02-21T09:51:21Z</time>
      </trkpt>
      <trkpt lat="45.83517" lon="3.59304">
        <ele>749</ele>
        <time>2021-02-21T09:51:24Z</time>
      </trkpt>
      <trkpt lat="45.83519" lon="3.59303">
        <ele>749</ele>
        <time>2021-02-21T09:51:27Z</time>
      </trkpt>
      <trkpt lat="45.83521" lon="3.59305">
        <ele>750</ele>
        <time>2021-02-21T09:51:30Z</time>
      </trkpt>
      <trkpt lat="45.83524" lon="3.59306">
        <ele>750</ele>
        <time>2021-02-21T09:51:32Z</time>
      </trkpt>
      <trkpt lat="45.83526" lon="3.59306">
        <ele>750</ele>
        <time>2021-02-21T09:51:33Z</time>
      </trkpt>
      <trkpt lat="45.83528" lon="3.59307">
        <ele>751</ele>
        <time>2021-02-21T09:51:35Z</time>
      </trkpt>
      <trkpt lat="45.83531" lon="3.59309">
        <ele>751</ele>
        <time>2021-02-21T09:51:37Z</time>
      </trkpt>
      <trkpt lat="45.83534" lon="3.59311">
        <ele>752</ele>
        <time>2021-02-21T09:51:39Z</time>
      </trkpt>
      <trkpt lat="45.83537" lon="3.59312">
        <ele>753</ele>
        <time>2021-02-21T09:51:41Z</time>
      </trkpt>
      <trkpt lat="45.83539" lon="3.59313">
        <ele>753</ele>
        <time>2021-02-21T09:51:43Z</time>
      </trkpt>
      <trkpt lat="45.83542" lon="3.59315">
        <ele>754</ele>
        <time>2021-02-21T09:51:45Z</time>
      </trkpt>
      <trkpt lat="45.83543" lon="3.59316">
        <ele>754</ele>
        <time>2021-02-21T09:51:47Z</time>
      </trkpt>
      <trkpt lat="45.83545" lon="3.59317">
        <ele>755</ele>
        <time>2021-02-21T09:51:49Z</time>
      </trkpt>
      <trkpt lat="45.83548" lon="3.59318">
        <ele>755</ele>
        <time>2021-02-21T09:51:51Z</time>
      </trkpt>
      <trkpt lat="45.83549" lon="3.59319">
        <ele>755</ele>
        <time>2021-02-21T09:51:53Z</time>
      </trkpt>
      <trkpt lat="45.83551" lon="3.59322">
        <ele>756</ele>
        <time>2021-02-21T09:51:55Z</time>
      </trkpt>
      <trkpt lat="45.83553" lon="3.59325">
        <ele>756</ele>
        <time>2021-02-21T09:51:57Z</time>
      </trkpt>
      <trkpt lat="45.83554" lon="3.59327">
        <ele>757</ele>
        <time>2021-02-21T09:51:58Z</time>
      </trkpt>
      <trkpt lat="45.83556" lon="3.59329">
        <ele>757</ele>
        <time>2021-02-21T09:51:59Z</time>
      </trkpt>
      <trkpt lat="45.83558" lon="3.59332">
        <ele>757</ele>
        <time>2021-02-21T09:52:01Z</time>
      </trkpt>
      <trkpt lat="45.8356" lon="3.59335">
        <ele>758</ele>
        <time>2021-02-21T09:52:03Z</time>
      </trkpt>
      <trkpt lat="45.83562" lon="3.59337">
        <ele>758</ele>
        <time>2021-02-21T09:52:05Z</time>
      </trkpt>
      <trkpt lat="45.83564" lon="3.59339">
        <ele>758</ele>
        <time>2021-02-21T09:52:07Z</time>
      </trkpt>
      <trkpt lat="45.83565" lon="3.59342">
        <ele>758</ele>
        <time>2021-02-21T09:52:09Z</time>
      </trkpt>
      <trkpt lat="45.83567" lon="3.59344">
        <ele>758</ele>
        <time>2021-02-21T09:52:11Z</time>
      </trkpt>
      <trkpt lat="45.83568" lon="3.59347">
        <ele>759</ele>
        <time>2021-02-21T09:52:14Z</time>
      </trkpt>
      <trkpt lat="45.83569" lon="3.59349">
        <ele>759</ele>
        <time>2021-02-21T09:52:16Z</time>
      </trkpt>
      <trkpt lat="45.83571" lon="3.59351">
        <ele>759</ele>
        <time>2021-02-21T09:52:18Z</time>
      </trkpt>
      <trkpt lat="45.83572" lon="3.59354">
        <ele>759</ele>
        <time>2021-02-21T09:52:21Z</time>
      </trkpt>
      <trkpt lat="45.83574" lon="3.59356">
        <ele>760</ele>
        <time>2021-02-21T09:52:23Z</time>
      </trkpt>
      <trkpt lat="45.83572" lon="3.59357">
        <ele>760</ele>
        <time>2021-02-21T09:53:01Z</time>
      </trkpt>
      <trkpt lat="45.83569" lon="3.59356">
        <ele>759</ele>
        <time>2021-02-21T09:53:12Z</time>
      </trkpt>
      <trkpt lat="45.8357" lon="3.59359">
        <ele>759</ele>
        <time>2021-02-21T09:53:26Z</time>
      </trkpt>
      <trkpt lat="45.83568" lon="3.59359">
        <ele>759</ele>
        <time>2021-02-21T09:53:31Z</time>
      </trkpt>
      <trkpt lat="45.83566" lon="3.5936">
        <ele>759</ele>
        <time>2021-02-21T09:53:37Z</time>
      </trkpt>
      <trkpt lat="45.83564" lon="3.59359">
        <ele>759</ele>
        <time>2021-02-21T09:53:40Z</time>
      </trkpt>
      <trkpt lat="45.83563" lon="3.59362">
        <ele>759</ele>
        <time>2021-02-21T09:53:44Z</time>
      </trkpt>
      <trkpt lat="45.83561" lon="3.59361">
        <ele>758</ele>
        <time>2021-02-21T09:54:10Z</time>
      </trkpt>
      <trkpt lat="45.83563" lon="3.59362">
        <ele>759</ele>
        <time>2021-02-21T09:54:33Z</time>
      </trkpt>
      <trkpt lat="45.83564" lon="3.59364">
        <ele>759</ele>
        <time>2021-02-21T09:54:47Z</time>
      </trkpt>
      <trkpt lat="45.83567" lon="3.59364">
        <ele>759</ele>
        <time>2021-02-21T09:54:59Z</time>
      </trkpt>
      <trkpt lat="45.83565" lon="3.59363">
        <ele>759</ele>
        <time>2021-02-21T09:56:13Z</time>
      </trkpt>
      <trkpt lat="45.83563" lon="3.59361">
        <ele>758</ele>
        <time>2021-02-21T09:56:21Z</time>
      </trkpt>
      <trkpt lat="45.83565" lon="3.59362">
        <ele>759</ele>
        <time>2021-02-21T09:56:39Z</time>
      </trkpt>
      <trkpt lat="45.83566" lon="3.59364">
        <ele>759</ele>
        <time>2021-02-21T09:56:50Z</time>
      </trkpt>
      <trkpt lat="45.83564" lon="3.59362">
        <ele>759</ele>
        <time>2021-02-21T09:57:07Z</time>
      </trkpt>
      <trkpt lat="45.83566" lon="3.59363">
        <ele>759</ele>
        <time>2021-02-21T09:57:19Z</time>
      </trkpt>
      <trkpt lat="45.83568" lon="3.59366">
        <ele>759</ele>
        <time>2021-02-21T09:57:33Z</time>
      </trkpt>
      <trkpt lat="45.83569" lon="3.59368">
        <ele>759</ele>
        <time>2021-02-21T09:58:03Z</time>
      </trkpt>
      <trkpt lat="45.83571" lon="3.5937">
        <ele>760</ele>
        <time>2021-02-21T09:58:08Z</time>
      </trkpt>
      <trkpt lat="45.83572" lon="3.5937">
        <ele>760</ele>
        <time>2021-02-21T09:58:11Z</time>
      </trkpt>
      <trkpt lat="45.83574" lon="3.59371">
        <ele>760</ele>
        <time>2021-02-21T09:58:13Z</time>
      </trkpt>
      <trkpt lat="45.83576" lon="3.59372">
        <ele>760</ele>
        <time>2021-02-21T09:58:15Z</time>
      </trkpt>
      <trkpt lat="45.83577" lon="3.59375">
        <ele>761</ele>
        <time>2021-02-21T09:58:18Z</time>
      </trkpt>
      <trkpt lat="45.83578" lon="3.59375">
        <ele>761</ele>
        <time>2021-02-21T09:58:20Z</time>
      </trkpt>
      <trkpt lat="45.83581" lon="3.59377">
        <ele>761</ele>
        <time>2021-02-21T09:58:23Z</time>
      </trkpt>
      <trkpt lat="45.83582" lon="3.5938">
        <ele>761</ele>
        <time>2021-02-21T09:58:25Z</time>
      </trkpt>
      <trkpt lat="45.83584" lon="3.59382">
        <ele>762</ele>
        <time>2021-02-21T09:58:27Z</time>
      </trkpt>
      <trkpt lat="45.83586" lon="3.59384">
        <ele>762</ele>
        <time>2021-02-21T09:58:29Z</time>
      </trkpt>
      <trkpt lat="45.83588" lon="3.59386">
        <ele>762</ele>
        <time>2021-02-21T09:58:31Z</time>
      </trkpt>
      <trkpt lat="45.8359" lon="3.59388">
        <ele>762</ele>
        <time>2021-02-21T09:58:33Z</time>
      </trkpt>
      <trkpt lat="45.83592" lon="3.59391">
        <ele>762</ele>
        <time>2021-02-21T09:58:35Z</time>
      </trkpt>
      <trkpt lat="45.83594" lon="3.59392">
        <ele>763</ele>
        <time>2021-02-21T09:58:36Z</time>
      </trkpt>
      <trkpt lat="45.83596" lon="3.59395">
        <ele>763</ele>
        <time>2021-02-21T09:58:38Z</time>
      </trkpt>
      <trkpt lat="45.83599" lon="3.594">
        <ele>763</ele>
        <time>2021-02-21T09:58:40Z</time>
      </trkpt>
      <trkpt lat="45.83601" lon="3.59402">
        <ele>763</ele>
        <time>2021-02-21T09:58:41Z</time>
      </trkpt>
      <trkpt lat="45.83603" lon="3.59404">
        <ele>764</ele>
        <time>2021-02-21T09:58:42Z</time>
      </trkpt>
      <trkpt lat="45.83605" lon="3.59407">
        <ele>764</ele>
        <time>2021-02-21T09:58:44Z</time>
      </trkpt>
      <trkpt lat="45.83606" lon="3.59409">
        <ele>764</ele>
        <time>2021-02-21T09:58:45Z</time>
      </trkpt>
      <trkpt lat="45.83608" lon="3.59411">
        <ele>764</ele>
        <time>2021-02-21T09:58:46Z</time>
      </trkpt>
      <trkpt lat="45.83609" lon="3.59413">
        <ele>764</ele>
        <time>2021-02-21T09:58:48Z</time>
      </trkpt>
      <trkpt lat="45.83611" lon="3.59416">
        <ele>764</ele>
        <time>2021-02-21T09:58:50Z</time>
      </trkpt>
      <trkpt lat="45.83612" lon="3.59418">
        <ele>765</ele>
        <time>2021-02-21T09:58:52Z</time>
      </trkpt>
      <trkpt lat="45.83614" lon="3.59421">
        <ele>765</ele>
        <time>2021-02-21T09:58:54Z</time>
      </trkpt>
      <trkpt lat="45.83616" lon="3.59424">
        <ele>765</ele>
        <time>2021-02-21T09:58:56Z</time>
      </trkpt>
      <trkpt lat="45.83618" lon="3.59427">
        <ele>765</ele>
        <time>2021-02-21T09:58:58Z</time>
      </trkpt>
      <trkpt lat="45.83619" lon="3.59429">
        <ele>765</ele>
        <time>2021-02-21T09:58:59Z</time>
      </trkpt>
      <trkpt lat="45.8362" lon="3.59432">
        <ele>765</ele>
        <time>2021-02-21T09:59:02Z</time>
      </trkpt>
      <trkpt lat="45.83621" lon="3.59435">
        <ele>765</ele>
        <time>2021-02-21T09:59:05Z</time>
      </trkpt>
      <trkpt lat="45.83623" lon="3.59439">
        <ele>765</ele>
        <time>2021-02-21T09:59:07Z</time>
      </trkpt>
      <trkpt lat="45.83625" lon="3.59441">
        <ele>765</ele>
        <time>2021-02-21T09:59:09Z</time>
      </trkpt>
      <trkpt lat="45.83626" lon="3.59443">
        <ele>765</ele>
        <time>2021-02-21T09:59:10Z</time>
      </trkpt>
      <trkpt lat="45.83627" lon="3.59446">
        <ele>765</ele>
        <time>2021-02-21T09:59:12Z</time>
      </trkpt>
      <trkpt lat="45.83629" lon="3.59449">
        <ele>765</ele>
        <time>2021-02-21T09:59:14Z</time>
      </trkpt>
      <trkpt lat="45.8363" lon="3.59452">
        <ele>765</ele>
        <time>2021-02-21T09:59:16Z</time>
      </trkpt>
      <trkpt lat="45.83632" lon="3.59455">
        <ele>765</ele>
        <time>2021-02-21T09:59:19Z</time>
      </trkpt>
      <trkpt lat="45.83633" lon="3.59457">
        <ele>765</ele>
        <time>2021-02-21T09:59:21Z</time>
      </trkpt>
      <trkpt lat="45.83635" lon="3.59461">
        <ele>765</ele>
        <time>2021-02-21T09:59:23Z</time>
      </trkpt>
      <trkpt lat="45.83637" lon="3.59463">
        <ele>765</ele>
        <time>2021-02-21T09:59:25Z</time>
      </trkpt>
      <trkpt lat="45.83639" lon="3.59466">
        <ele>765</ele>
        <time>2021-02-21T09:59:27Z</time>
      </trkpt>
      <trkpt lat="45.8364" lon="3.59469">
        <ele>766</ele>
        <time>2021-02-21T09:59:30Z</time>
      </trkpt>
      <trkpt lat="45.83641" lon="3.59472">
        <ele>766</ele>
        <time>2021-02-21T09:59:33Z</time>
      </trkpt>
      <trkpt lat="45.83648" lon="3.5948">
        <ele>766</ele>
        <time>2021-02-21T09:59:40Z</time>
      </trkpt>
      <trkpt lat="45.83658" lon="3.59492">
        <ele>766</ele>
        <time>2021-02-21T09:59:46Z</time>
      </trkpt>
      <trkpt lat="45.83663" lon="3.59499">
        <ele>766</ele>
        <time>2021-02-21T09:59:51Z</time>
      </trkpt>
      <trkpt lat="45.83664" lon="3.59502">
        <ele>766</ele>
        <time>2021-02-21T09:59:55Z</time>
      </trkpt>
      <trkpt lat="45.83665" lon="3.59504">
        <ele>766</ele>
        <time>2021-02-21T09:59:58Z</time>
      </trkpt>
      <trkpt lat="45.83666" lon="3.59507">
        <ele>766</ele>
        <time>2021-02-21T10:00:00Z</time>
      </trkpt>
      <trkpt lat="45.83667" lon="3.5951">
        <ele>766</ele>
        <time>2021-02-21T10:00:02Z</time>
      </trkpt>
      <trkpt lat="45.83668" lon="3.59513">
        <ele>767</ele>
        <time>2021-02-21T10:00:06Z</time>
      </trkpt>
      <trkpt lat="45.8367" lon="3.59517">
        <ele>767</ele>
        <time>2021-02-21T10:00:08Z</time>
      </trkpt>
      <trkpt lat="45.83672" lon="3.59522">
        <ele>767</ele>
        <time>2021-02-21T10:00:10Z</time>
      </trkpt>
      <trkpt lat="45.83673" lon="3.59525">
        <ele>767</ele>
        <time>2021-02-21T10:00:11Z</time>
      </trkpt>
      <trkpt lat="45.83676" lon="3.59529">
        <ele>767</ele>
        <time>2021-02-21T10:00:12Z</time>
      </trkpt>
      <trkpt lat="45.83677" lon="3.59531">
        <ele>768</ele>
        <time>2021-02-21T10:00:13Z</time>
      </trkpt>
      <trkpt lat="45.83679" lon="3.59534">
        <ele>768</ele>
        <time>2021-02-21T10:00:15Z</time>
      </trkpt>
      <trkpt lat="45.8368" lon="3.59538">
        <ele>768</ele>
        <time>2021-02-21T10:00:17Z</time>
      </trkpt>
      <trkpt lat="45.83681" lon="3.5954">
        <ele>769</ele>
        <time>2021-02-21T10:00:19Z</time>
      </trkpt>
      <trkpt lat="45.83683" lon="3.59542">
        <ele>769</ele>
        <time>2021-02-21T10:00:21Z</time>
      </trkpt>
      <trkpt lat="45.83685" lon="3.59546">
        <ele>769</ele>
        <time>2021-02-21T10:00:23Z</time>
      </trkpt>
      <trkpt lat="45.83688" lon="3.59548">
        <ele>770</ele>
        <time>2021-02-21T10:00:25Z</time>
      </trkpt>
      <trkpt lat="45.8369" lon="3.59551">
        <ele>770</ele>
        <time>2021-02-21T10:00:27Z</time>
      </trkpt>
      <trkpt lat="45.83692" lon="3.59554">
        <ele>771</ele>
        <time>2021-02-21T10:00:29Z</time>
      </trkpt>
      <trkpt lat="45.83694" lon="3.59557">
        <ele>771</ele>
        <time>2021-02-21T10:00:31Z</time>
      </trkpt>
      <trkpt lat="45.83696" lon="3.59559">
        <ele>772</ele>
        <time>2021-02-21T10:00:32Z</time>
      </trkpt>
      <trkpt lat="45.83698" lon="3.59562">
        <ele>772</ele>
        <time>2021-02-21T10:00:34Z</time>
      </trkpt>
      <trkpt lat="45.83699" lon="3.59564">
        <ele>772</ele>
        <time>2021-02-21T10:00:35Z</time>
      </trkpt>
      <trkpt lat="45.83701" lon="3.59567">
        <ele>773</ele>
        <time>2021-02-21T10:00:37Z</time>
      </trkpt>
      <trkpt lat="45.83703" lon="3.59569">
        <ele>773</ele>
        <time>2021-02-21T10:00:39Z</time>
      </trkpt>
      <trkpt lat="45.83704" lon="3.59571">
        <ele>774</ele>
        <time>2021-02-21T10:00:40Z</time>
      </trkpt>
      <trkpt lat="45.83706" lon="3.59573">
        <ele>774</ele>
        <time>2021-02-21T10:00:41Z</time>
      </trkpt>
      <trkpt lat="45.83707" lon="3.59576">
        <ele>774</ele>
        <time>2021-02-21T10:00:42Z</time>
        <extensions>
          <visugpx:TrkExtension xmlns:visugpx="https://www.visugpx.com/editgpx/">
            <visugpx:node>1</visugpx:node>
            </visugpx:TrkExtension>
        </extensions>
      </trkpt>
      <trkpt lat="45.8371" lon="3.59611">
        <ele>776.7</ele>
      </trkpt>
      <trkpt lat="45.83758" lon="3.59692">
        <ele>787.2</ele>
      </trkpt>
      <trkpt lat="45.83775" lon="3.59728">
        <ele>790.5</ele>
      </trkpt>
      <trkpt lat="45.83782" lon="3.59751">
        <ele>792.4</ele>
      </trkpt>
      <trkpt lat="45.83772" lon="3.59772">
        <ele>791.6</ele>
      </trkpt>
      <trkpt lat="45.83762" lon="3.59799">
        <ele>790.4</ele>
      </trkpt>
      <trkpt lat="45.83758" lon="3.59842">
        <ele>789.9</ele>
      </trkpt>
      <trkpt lat="45.83765" lon="3.59882">
        <ele>790.8</ele>
      </trkpt>
      <trkpt lat="45.83787" lon="3.59951">
        <ele>793.4</ele>
      </trkpt>
      <trkpt lat="45.83814" lon="3.60003">
        <ele>794.5</ele>
      </trkpt>
      <trkpt lat="45.83841" lon="3.60047">
        <ele>791.6</ele>
      </trkpt>
      <trkpt lat="45.83863" lon="3.60095">
        <ele>788.9</ele>
      </trkpt>
      <trkpt lat="45.83886" lon="3.60147">
        <ele>786.5</ele>
      </trkpt>
      <trkpt lat="45.83895" lon="3.60199">
        <ele>784.2</ele>
      </trkpt>
      <trkpt lat="45.83894" lon="3.60224">
        <ele>782.6</ele>
      </trkpt>
      <trkpt lat="45.83901" lon="3.60268">
        <ele>781.3</ele>
      </trkpt>
      <trkpt lat="45.83902" lon="3.60326">
        <ele>775.1</ele>
      </trkpt>
      <trkpt lat="45.83907" lon="3.60363">
        <ele>770.9</ele>
      </trkpt>
      <trkpt lat="45.83923" lon="3.60404">
        <ele>769.7</ele>
      </trkpt>
      <trkpt lat="45.83944" lon="3.60448">
        <ele>770.9</ele>
      </trkpt>
      <trkpt lat="45.83966" lon="3.60498">
        <ele>771.5</ele>
      </trkpt>
      <trkpt lat="45.83941" lon="3.60458">
        <ele>768</ele>
      </trkpt>
      <trkpt lat="45.83915" lon="3.60431">
        <ele>762</ele>
      </trkpt>
      <trkpt lat="45.83903" lon="3.60422">
        <ele>759.6</ele>
        <extensions>
          <visugpx:TrkExtension xmlns:visugpx="https://www.visugpx.com/editgpx/">
            <visugpx:node>2</visugpx:node>
            </visugpx:TrkExtension>
        </extensions>
      </trkpt>
      <trkpt lat="45.83915" lon="3.60431">
        <ele>762</ele>
      </trkpt>
      <trkpt lat="45.83941" lon="3.60458">
        <ele>768</ele>
      </trkpt>
      <trkpt lat="45.83966" lon="3.60498">
        <ele>771.5</ele>
      </trkpt>
      <trkpt lat="45.8398" lon="3.6054">
        <ele>773</ele>
      </trkpt>
      <trkpt lat="45.83989" lon="3.60582">
        <ele>773.6</ele>
      </trkpt>
      <trkpt lat="45.84009" lon="3.60644">
        <ele>773.4</ele>
      </trkpt>
      <trkpt lat="45.84012" lon="3.60662">
        <ele>771.5</ele>
      </trkpt>
      <trkpt lat="45.84017" lon="3.60677">
        <ele>770.1</ele>
      </trkpt>
      <trkpt lat="45.84041" lon="3.60714">
        <ele>766.4</ele>
      </trkpt>
      <trkpt lat="45.84067" lon="3.60766">
        <ele>757.9</ele>
      </trkpt>
      <trkpt lat="45.84075" lon="3.60818">
        <ele>751</ele>
      </trkpt>
      <trkpt lat="45.84083" lon="3.60876">
        <ele>746</ele>
      </trkpt>
      <trkpt lat="45.84079" lon="3.60887">
        <ele>746.1</ele>
      </trkpt>
      <trkpt lat="45.84063" lon="3.61015">
        <ele>744.1</ele>
      </trkpt>
      <trkpt lat="45.84046" lon="3.61091">
        <ele>743.2</ele>
      </trkpt>
      <trkpt lat="45.84038" lon="3.61141">
        <ele>740.5</ele>
      </trkpt>
      <trkpt lat="45.84037" lon="3.61181">
        <ele>739.1</ele>
      </trkpt>
      <trkpt lat="45.84037" lon="3.61183">
        <ele>739.1</ele>
      </trkpt>
      <trkpt lat="45.84035" lon="3.61218">
        <ele>739.9</ele>
      </trkpt>
      <trkpt lat="45.84034" lon="3.61241">
        <ele>740.4</ele>
      </trkpt>
      <trkpt lat="45.84048" lon="3.61277">
        <ele>741.6</ele>
      </trkpt>
      <trkpt lat="45.84079" lon="3.61332">
        <ele>744.3</ele>
      </trkpt>
      <trkpt lat="45.8409" lon="3.61356">
        <ele>745.6</ele>
        <extensions>
          <visugpx:TrkExtension xmlns:visugpx="https://www.visugpx.com/editgpx/">
            <visugpx:node>3</visugpx:node>
            </visugpx:TrkExtension>
        </extensions>
      </trkpt>
      <trkpt lat="45.84099" lon="3.61376">
        <ele>745.8</ele>
      </trkpt>
      <trkpt lat="45.84108" lon="3.61413">
        <ele>747.9</ele>
      </trkpt>
      <trkpt lat="45.84114" lon="3.61455">
        <ele>747.7</ele>
      </trkpt>
      <trkpt lat="45.84114" lon="3.61459">
        <ele>747.9</ele>
      </trkpt>
      <trkpt lat="45.84098" lon="3.61512">
        <ele>754.4</ele>
      </trkpt>
      <trkpt lat="45.84083" lon="3.61566">
        <ele>756.9</ele>
      </trkpt>
      <trkpt lat="45.84041" lon="3.61643">
        <ele>760.5</ele>
      </trkpt>
      <trkpt lat="45.83994" lon="3.61696">
        <ele>765.4</ele>
      </trkpt>
      <trkpt lat="45.83969" lon="3.61713">
        <ele>764</ele>
      </trkpt>
      <trkpt lat="45.83937" lon="3.61724">
        <ele>762.7</ele>
      </trkpt>
      <trkpt lat="45.8391" lon="3.6173">
        <ele>761.4</ele>
      </trkpt>
      <trkpt lat="45.839" lon="3.61737">
        <ele>760.4</ele>
      </trkpt>
      <trkpt lat="45.83872" lon="3.61741">
        <ele>758.3</ele>
      </trkpt>
      <trkpt lat="45.83849" lon="3.61748">
        <ele>756.9</ele>
      </trkpt>
      <trkpt lat="45.8379" lon="3.618">
        <ele>756.9</ele>
      </trkpt>
      <trkpt lat="45.83772" lon="3.61811">
        <ele>756</ele>
      </trkpt>
      <trkpt lat="45.83751" lon="3.61821">
        <ele>754.6</ele>
      </trkpt>
      <trkpt lat="45.83733" lon="3.6182">
        <ele>753.2</ele>
      </trkpt>
      <trkpt lat="45.837" lon="3.61822">
        <ele>750.6</ele>
      </trkpt>
      <trkpt lat="45.83702" lon="3.61825">
        <ele>750.8</ele>
        <extensions>
          <visugpx:TrkExtension xmlns:visugpx="https://www.visugpx.com/editgpx/">
            <visugpx:node>5</visugpx:node>
            </visugpx:TrkExtension>
        </extensions>
      </trkpt>
      <trkpt lat="45.837" lon="3.61822">
        <ele>750.6</ele>
      </trkpt>
      <trkpt lat="45.8369" lon="3.61812">
        <ele>749.7</ele>
      </trkpt>
      <trkpt lat="45.83668" lon="3.61802">
        <ele>748.1</ele>
      </trkpt>
      <trkpt lat="45.83652" lon="3.61802">
        <ele>746.9</ele>
      </trkpt>
      <trkpt lat="45.83617" lon="3.61791">
        <ele>743.8</ele>
      </trkpt>
      <trkpt lat="45.8359" lon="3.6178">
        <ele>741</ele>
      </trkpt>
      <trkpt lat="45.83578" lon="3.61762">
        <ele>739.3</ele>
      </trkpt>
      <trkpt lat="45.83557" lon="3.61743">
        <ele>736.7</ele>
      </trkpt>
      <trkpt lat="45.83541" lon="3.61725">
        <ele>734.2</ele>
      </trkpt>
      <trkpt lat="45.83526" lon="3.61697">
        <ele>731.4</ele>
      </trkpt>
      <trkpt lat="45.83508" lon="3.6167">
        <ele>729.2</ele>
      </trkpt>
      <trkpt lat="45.83485" lon="3.61641">
        <ele>724.9</ele>
      </trkpt>
      <trkpt lat="45.83456" lon="3.61627">
        <ele>721.8</ele>
        <extensions>
          <visugpx:TrkExtension xmlns:visugpx="https://www.visugpx.com/editgpx/">
            <visugpx:node>6</visugpx:node>
            </visugpx:TrkExtension>
        </extensions>
      </trkpt>
      <trkpt lat="45.83442" lon="3.6162">
        <ele>720.5</ele>
      </trkpt>
      <trkpt lat="45.83379" lon="3.61584">
        <ele>713.9</ele>
      </trkpt>
      <trkpt lat="45.83325" lon="3.61539">
        <ele>706.3</ele>
      </trkpt>
      <trkpt lat="45.83308" lon="3.6153">
        <ele>703.7</ele>
      </trkpt>
      <trkpt lat="45.83289" lon="3.61537">
        <ele>701.7</ele>
      </trkpt>
      <trkpt lat="45.83282" lon="3.61515">
        <ele>700</ele>
      </trkpt>
      <trkpt lat="45.8328" lon="3.61512">
        <ele>699.7</ele>
      </trkpt>
      <trkpt lat="45.83277" lon="3.61492">
        <ele>698.4</ele>
      </trkpt>
      <trkpt lat="45.83278" lon="3.61475">
        <ele>697.5</ele>
      </trkpt>
      <trkpt lat="45.83265" lon="3.61455">
        <ele>695.2</ele>
        <extensions>
          <visugpx:TrkExtension xmlns:visugpx="https://www.visugpx.com/editgpx/">
            <visugpx:node>7</visugpx:node>
            </visugpx:TrkExtension>
        </extensions>
      </trkpt>
      <trkpt lat="45.83263" lon="3.61444">
        <ele>696</ele>
        <time>2021-02-21T11:21:33Z</time>
      </trkpt>
      <trkpt lat="45.83262" lon="3.61441">
        <ele>696</ele>
        <time>2021-02-21T11:21:35Z</time>
      </trkpt>
      <trkpt lat="45.8326" lon="3.61437">
        <ele>695</ele>
        <time>2021-02-21T11:21:37Z</time>
      </trkpt>
      <trkpt lat="45.83259" lon="3.61434">
        <ele>695</ele>
        <time>2021-02-21T11:21:39Z</time>
      </trkpt>
      <trkpt lat="45.83258" lon="3.6143">
        <ele>695</ele>
        <time>2021-02-21T11:21:41Z</time>
      </trkpt>
      <trkpt lat="45.83257" lon="3.61426">
        <ele>695</ele>
        <time>2021-02-21T11:21:43Z</time>
      </trkpt>
      <trkpt lat="45.83256" lon="3.61422">
        <ele>694</ele>
        <time>2021-02-21T11:21:45Z</time>
      </trkpt>
      <trkpt lat="45.83255" lon="3.61419">
        <ele>694</ele>
        <time>2021-02-21T11:21:47Z</time>
      </trkpt>
      <trkpt lat="45.83253" lon="3.61415">
        <ele>694</ele>
        <time>2021-02-21T11:21:49Z</time>
      </trkpt>
      <trkpt lat="45.83252" lon="3.61411">
        <ele>694</ele>
        <time>2021-02-21T11:21:51Z</time>
      </trkpt>
      <trkpt lat="45.83251" lon="3.61408">
        <ele>693</ele>
        <time>2021-02-21T11:21:53Z</time>
      </trkpt>
      <trkpt lat="45.83249" lon="3.61404">
        <ele>693</ele>
        <time>2021-02-21T11:21:55Z</time>
      </trkpt>
      <trkpt lat="45.83248" lon="3.61401">
        <ele>693</ele>
        <time>2021-02-21T11:21:57Z</time>
      </trkpt>
      <trkpt lat="45.83247" lon="3.61397">
        <ele>692</ele>
        <time>2021-02-21T11:21:59Z</time>
      </trkpt>
      <trkpt lat="45.83246" lon="3.61393">
        <ele>692</ele>
        <time>2021-02-21T11:22:01Z</time>
      </trkpt>
      <trkpt lat="45.83245" lon="3.61388">
        <ele>692</ele>
        <time>2021-02-21T11:22:03Z</time>
      </trkpt>
      <trkpt lat="45.83244" lon="3.61384">
        <ele>692</ele>
        <time>2021-02-21T11:22:05Z</time>
      </trkpt>
      <trkpt lat="45.83243" lon="3.61381">
        <ele>692</ele>
        <time>2021-02-21T11:22:07Z</time>
      </trkpt>
      <trkpt lat="45.83242" lon="3.61377">
        <ele>692</ele>
        <time>2021-02-21T11:22:09Z</time>
      </trkpt>
      <trkpt lat="45.83241" lon="3.61374">
        <ele>692</ele>
        <time>2021-02-21T11:22:11Z</time>
      </trkpt>
      <trkpt lat="45.83239" lon="3.6137">
        <ele>692</ele>
        <time>2021-02-21T11:22:13Z</time>
      </trkpt>
      <trkpt lat="45.83238" lon="3.61367">
        <ele>692</ele>
        <time>2021-02-21T11:22:15Z</time>
      </trkpt>
      <trkpt lat="45.83237" lon="3.61364">
        <ele>692</ele>
        <time>2021-02-21T11:22:17Z</time>
      </trkpt>
      <trkpt lat="45.83236" lon="3.61361">
        <ele>692</ele>
        <time>2021-02-21T11:22:19Z</time>
      </trkpt>
      <trkpt lat="45.83234" lon="3.61357">
        <ele>692</ele>
        <time>2021-02-21T11:22:21Z</time>
      </trkpt>
      <trkpt lat="45.83233" lon="3.61354">
        <ele>692</ele>
        <time>2021-02-21T11:22:23Z</time>
      </trkpt>
      <trkpt lat="45.83231" lon="3.61351">
        <ele>692</ele>
        <time>2021-02-21T11:22:25Z</time>
      </trkpt>
      <trkpt lat="45.83229" lon="3.61347">
        <ele>692</ele>
        <time>2021-02-21T11:22:27Z</time>
      </trkpt>
      <trkpt lat="45.83228" lon="3.61344">
        <ele>693</ele>
        <time>2021-02-21T11:22:29Z</time>
      </trkpt>
      <trkpt lat="45.83226" lon="3.61341">
        <ele>693</ele>
        <time>2021-02-21T11:22:31Z</time>
      </trkpt>
      <trkpt lat="45.83224" lon="3.61338">
        <ele>693</ele>
        <time>2021-02-21T11:22:33Z</time>
      </trkpt>
      <trkpt lat="45.83222" lon="3.61335">
        <ele>693</ele>
        <time>2021-02-21T11:22:35Z</time>
      </trkpt>
      <trkpt lat="45.8322" lon="3.61334">
        <ele>693</ele>
        <time>2021-02-21T11:22:37Z</time>
      </trkpt>
      <trkpt lat="45.83218" lon="3.61332">
        <ele>693</ele>
        <time>2021-02-21T11:22:39Z</time>
      </trkpt>
      <trkpt lat="45.83216" lon="3.61331">
        <ele>693</ele>
        <time>2021-02-21T11:22:41Z</time>
      </trkpt>
      <trkpt lat="45.83213" lon="3.61329">
        <ele>693</ele>
        <time>2021-02-21T11:22:43Z</time>
      </trkpt>
      <trkpt lat="45.83211" lon="3.61327">
        <ele>693</ele>
        <time>2021-02-21T11:22:45Z</time>
      </trkpt>
      <trkpt lat="45.83208" lon="3.61326">
        <ele>693</ele>
        <time>2021-02-21T11:22:47Z</time>
      </trkpt>
      <trkpt lat="45.83206" lon="3.61325">
        <ele>693</ele>
        <time>2021-02-21T11:22:49Z</time>
      </trkpt>
      <trkpt lat="45.83203" lon="3.61323">
        <ele>693</ele>
        <time>2021-02-21T11:22:51Z</time>
      </trkpt>
      <trkpt lat="45.83201" lon="3.61323">
        <ele>693</ele>
        <time>2021-02-21T11:22:53Z</time>
      </trkpt>
      <trkpt lat="45.83198" lon="3.61322">
        <ele>692</ele>
        <time>2021-02-21T11:22:55Z</time>
      </trkpt>
      <trkpt lat="45.83196" lon="3.61322">
        <ele>692</ele>
        <time>2021-02-21T11:22:57Z</time>
      </trkpt>
      <trkpt lat="45.83194" lon="3.61322">
        <ele>692</ele>
        <time>2021-02-21T11:22:59Z</time>
      </trkpt>
      <trkpt lat="45.83191" lon="3.61321">
        <ele>692</ele>
        <time>2021-02-21T11:23:01Z</time>
      </trkpt>
      <trkpt lat="45.83188" lon="3.6132">
        <ele>692</ele>
        <time>2021-02-21T11:23:03Z</time>
      </trkpt>
      <trkpt lat="45.83186" lon="3.61319">
        <ele>692</ele>
        <time>2021-02-21T11:23:05Z</time>
      </trkpt>
      <trkpt lat="45.83183" lon="3.61319">
        <ele>691</ele>
        <time>2021-02-21T11:23:07Z</time>
      </trkpt>
      <trkpt lat="45.8318" lon="3.61319">
        <ele>691</ele>
        <time>2021-02-21T11:23:09Z</time>
      </trkpt>
      <trkpt lat="45.83177" lon="3.61318">
        <ele>691</ele>
        <time>2021-02-21T11:23:11Z</time>
      </trkpt>
      <trkpt lat="45.83174" lon="3.61317">
        <ele>691</ele>
        <time>2021-02-21T11:23:13Z</time>
      </trkpt>
      <trkpt lat="45.83172" lon="3.61316">
        <ele>691</ele>
        <time>2021-02-21T11:23:15Z</time>
      </trkpt>
      <trkpt lat="45.83169" lon="3.61316">
        <ele>691</ele>
        <time>2021-02-21T11:23:17Z</time>
      </trkpt>
      <trkpt lat="45.83167" lon="3.61315">
        <ele>690</ele>
        <time>2021-02-21T11:23:19Z</time>
      </trkpt>
      <trkpt lat="45.83164" lon="3.61315">
        <ele>691</ele>
        <time>2021-02-21T11:23:21Z</time>
      </trkpt>
      <trkpt lat="45.83161" lon="3.61316">
        <ele>691</ele>
        <time>2021-02-21T11:23:23Z</time>
      </trkpt>
      <trkpt lat="45.83158" lon="3.61317">
        <ele>691</ele>
        <time>2021-02-21T11:23:25Z</time>
      </trkpt>
      <trkpt lat="45.83156" lon="3.61318">
        <ele>691</ele>
        <time>2021-02-21T11:23:27Z</time>
      </trkpt>
      <trkpt lat="45.83153" lon="3.61319">
        <ele>691</ele>
        <time>2021-02-21T11:23:29Z</time>
      </trkpt>
      <trkpt lat="45.83151" lon="3.6132">
        <ele>691</ele>
        <time>2021-02-21T11:23:31Z</time>
      </trkpt>
      <trkpt lat="45.83148" lon="3.6132">
        <ele>691</ele>
        <time>2021-02-21T11:23:33Z</time>
      </trkpt>
      <trkpt lat="45.83146" lon="3.61321">
        <ele>691</ele>
        <time>2021-02-21T11:23:35Z</time>
      </trkpt>
      <trkpt lat="45.83144" lon="3.61321">
        <ele>691</ele>
        <time>2021-02-21T11:23:37Z</time>
      </trkpt>
      <trkpt lat="45.83141" lon="3.61322">
        <ele>691</ele>
        <time>2021-02-21T11:23:39Z</time>
      </trkpt>
      <trkpt lat="45.83139" lon="3.61323">
        <ele>691</ele>
        <time>2021-02-21T11:23:41Z</time>
      </trkpt>
      <trkpt lat="45.83137" lon="3.61323">
        <ele>691</ele>
        <time>2021-02-21T11:23:43Z</time>
      </trkpt>
      <trkpt lat="45.83134" lon="3.61325">
        <ele>691</ele>
        <time>2021-02-21T11:23:45Z</time>
      </trkpt>
      <trkpt lat="45.83132" lon="3.61325">
        <ele>691</ele>
        <time>2021-02-21T11:23:47Z</time>
      </trkpt>
      <trkpt lat="45.83129" lon="3.61325">
        <ele>692</ele>
        <time>2021-02-21T11:23:49Z</time>
      </trkpt>
      <trkpt lat="45.83127" lon="3.61325">
        <ele>692</ele>
        <time>2021-02-21T11:23:51Z</time>
      </trkpt>
      <trkpt lat="45.83124" lon="3.61325">
        <ele>692</ele>
        <time>2021-02-21T11:23:53Z</time>
      </trkpt>
      <trkpt lat="45.83122" lon="3.61325">
        <ele>692</ele>
        <time>2021-02-21T11:23:55Z</time>
      </trkpt>
      <trkpt lat="45.83119" lon="3.61325">
        <ele>693</ele>
        <time>2021-02-21T11:23:57Z</time>
      </trkpt>
      <trkpt lat="45.83117" lon="3.61325">
        <ele>693</ele>
        <time>2021-02-21T11:23:59Z</time>
      </trkpt>
      <trkpt lat="45.83114" lon="3.61325">
        <ele>693</ele>
        <time>2021-02-21T11:24:01Z</time>
      </trkpt>
      <trkpt lat="45.83111" lon="3.61325">
        <ele>694</ele>
        <time>2021-02-21T11:24:03Z</time>
      </trkpt>
      <trkpt lat="45.83108" lon="3.61326">
        <ele>694</ele>
        <time>2021-02-21T11:24:05Z</time>
      </trkpt>
      <trkpt lat="45.83106" lon="3.61326">
        <ele>694</ele>
        <time>2021-02-21T11:24:07Z</time>
      </trkpt>
      <trkpt lat="45.83103" lon="3.61327">
        <ele>694</ele>
        <time>2021-02-21T11:24:09Z</time>
      </trkpt>
      <trkpt lat="45.831" lon="3.61327">
        <ele>694</ele>
        <time>2021-02-21T11:24:11Z</time>
      </trkpt>
      <trkpt lat="45.83098" lon="3.61328">
        <ele>694</ele>
        <time>2021-02-21T11:24:13Z</time>
      </trkpt>
      <trkpt lat="45.83095" lon="3.61328">
        <ele>694</ele>
        <time>2021-02-21T11:24:15Z</time>
      </trkpt>
      <trkpt lat="45.83092" lon="3.61328">
        <ele>694</ele>
        <time>2021-02-21T11:24:17Z</time>
      </trkpt>
      <trkpt lat="45.8309" lon="3.61328">
        <ele>694</ele>
        <time>2021-02-21T11:24:19Z</time>
      </trkpt>
      <trkpt lat="45.83087" lon="3.61329">
        <ele>694</ele>
        <time>2021-02-21T11:24:21Z</time>
      </trkpt>
      <trkpt lat="45.83084" lon="3.61328">
        <ele>694</ele>
        <time>2021-02-21T11:24:23Z</time>
      </trkpt>
      <trkpt lat="45.83081" lon="3.61328">
        <ele>694</ele>
        <time>2021-02-21T11:24:25Z</time>
      </trkpt>
      <trkpt lat="45.83078" lon="3.61327">
        <ele>695</ele>
        <time>2021-02-21T11:24:27Z</time>
      </trkpt>
      <trkpt lat="45.83076" lon="3.61327">
        <ele>695</ele>
        <time>2021-02-21T11:24:29Z</time>
      </trkpt>
      <trkpt lat="45.83073" lon="3.61326">
        <ele>695</ele>
        <time>2021-02-21T11:24:31Z</time>
      </trkpt>
      <trkpt lat="45.8307" lon="3.61326">
        <ele>695</ele>
        <time>2021-02-21T11:24:33Z</time>
      </trkpt>
      <trkpt lat="45.83067" lon="3.61325">
        <ele>695</ele>
        <time>2021-02-21T11:24:35Z</time>
      </trkpt>
      <trkpt lat="45.83065" lon="3.61324">
        <ele>696</ele>
        <time>2021-02-21T11:24:37Z</time>
      </trkpt>
      <trkpt lat="45.83062" lon="3.61324">
        <ele>696</ele>
        <time>2021-02-21T11:24:39Z</time>
      </trkpt>
      <trkpt lat="45.83059" lon="3.61323">
        <ele>696</ele>
        <time>2021-02-21T11:24:41Z</time>
      </trkpt>
      <trkpt lat="45.83057" lon="3.61322">
        <ele>696</ele>
        <time>2021-02-21T11:24:43Z</time>
      </trkpt>
      <trkpt lat="45.83054" lon="3.61321">
        <ele>696</ele>
        <time>2021-02-21T11:24:45Z</time>
      </trkpt>
      <trkpt lat="45.83052" lon="3.6132">
        <ele>696</ele>
        <time>2021-02-21T11:24:47Z</time>
      </trkpt>
      <trkpt lat="45.83049" lon="3.61319">
        <ele>696</ele>
        <time>2021-02-21T11:24:49Z</time>
      </trkpt>
      <trkpt lat="45.83046" lon="3.61318">
        <ele>696</ele>
        <time>2021-02-21T11:24:51Z</time>
      </trkpt>
      <trkpt lat="45.83044" lon="3.61317">
        <ele>696</ele>
        <time>2021-02-21T11:24:53Z</time>
      </trkpt>
      <trkpt lat="45.83041" lon="3.61315">
        <ele>697</ele>
        <time>2021-02-21T11:24:55Z</time>
      </trkpt>
      <trkpt lat="45.83039" lon="3.61314">
        <ele>697</ele>
        <time>2021-02-21T11:24:57Z</time>
      </trkpt>
      <trkpt lat="45.83036" lon="3.61312">
        <ele>697</ele>
        <time>2021-02-21T11:24:59Z</time>
      </trkpt>
      <trkpt lat="45.83034" lon="3.6131">
        <ele>697</ele>
        <time>2021-02-21T11:25:01Z</time>
      </trkpt>
      <trkpt lat="45.83031" lon="3.61309">
        <ele>697</ele>
        <time>2021-02-21T11:25:03Z</time>
      </trkpt>
      <trkpt lat="45.83029" lon="3.61307">
        <ele>697</ele>
        <time>2021-02-21T11:25:05Z</time>
      </trkpt>
      <trkpt lat="45.83026" lon="3.61305">
        <ele>697</ele>
        <time>2021-02-21T11:25:07Z</time>
      </trkpt>
      <trkpt lat="45.83024" lon="3.61303">
        <ele>697</ele>
        <time>2021-02-21T11:25:09Z</time>
      </trkpt>
      <trkpt lat="45.83022" lon="3.61301">
        <ele>697</ele>
        <time>2021-02-21T11:25:11Z</time>
      </trkpt>
      <trkpt lat="45.83021" lon="3.61298">
        <ele>697</ele>
        <time>2021-02-21T11:25:13Z</time>
      </trkpt>
      <trkpt lat="45.83018" lon="3.61296">
        <ele>697</ele>
        <time>2021-02-21T11:25:15Z</time>
      </trkpt>
      <trkpt lat="45.83016" lon="3.61293">
        <ele>698</ele>
        <time>2021-02-21T11:25:17Z</time>
      </trkpt>
      <trkpt lat="45.83014" lon="3.6129">
        <ele>698</ele>
        <time>2021-02-21T11:25:19Z</time>
      </trkpt>
      <trkpt lat="45.83013" lon="3.61288">
        <ele>698</ele>
        <time>2021-02-21T11:25:21Z</time>
      </trkpt>
      <trkpt lat="45.8301" lon="3.61287">
        <ele>698</ele>
        <time>2021-02-21T11:25:23Z</time>
      </trkpt>
      <trkpt lat="45.83008" lon="3.61284">
        <ele>698</ele>
        <time>2021-02-21T11:25:25Z</time>
      </trkpt>
      <trkpt lat="45.83006" lon="3.61282">
        <ele>698</ele>
        <time>2021-02-21T11:25:27Z</time>
      </trkpt>
      <trkpt lat="45.83004" lon="3.61278">
        <ele>698</ele>
        <time>2021-02-21T11:25:29Z</time>
      </trkpt>
      <trkpt lat="45.83002" lon="3.61276">
        <ele>698</ele>
        <time>2021-02-21T11:25:31Z</time>
      </trkpt>
      <trkpt lat="45.82999" lon="3.61275">
        <ele>698</ele>
        <time>2021-02-21T11:25:33Z</time>
      </trkpt>
      <trkpt lat="45.82997" lon="3.61274">
        <ele>697</ele>
        <time>2021-02-21T11:25:35Z</time>
      </trkpt>
      <trkpt lat="45.82996" lon="3.61271">
        <ele>698</ele>
        <time>2021-02-21T11:25:43Z</time>
      </trkpt>
      <trkpt lat="45.82995" lon="3.61269">
        <ele>698</ele>
        <time>2021-02-21T11:25:45Z</time>
      </trkpt>
      <trkpt lat="45.82992" lon="3.61267">
        <ele>698</ele>
        <time>2021-02-21T11:25:47Z</time>
      </trkpt>
      <trkpt lat="45.82988" lon="3.61265">
        <ele>697</ele>
        <time>2021-02-21T11:25:50Z</time>
      </trkpt>
      <trkpt lat="45.82986" lon="3.61263">
        <ele>697</ele>
        <time>2021-02-21T11:25:52Z</time>
      </trkpt>
      <trkpt lat="45.82983" lon="3.61262">
        <ele>697</ele>
        <time>2021-02-21T11:25:54Z</time>
      </trkpt>
      <trkpt lat="45.82979" lon="3.61261">
        <ele>696</ele>
        <time>2021-02-21T11:25:56Z</time>
      </trkpt>
      <trkpt lat="45.82976" lon="3.61259">
        <ele>696</ele>
        <time>2021-02-21T11:25:58Z</time>
      </trkpt>
      <trkpt lat="45.82974" lon="3.61257">
        <ele>696</ele>
        <time>2021-02-21T11:26:00Z</time>
      </trkpt>
      <trkpt lat="45.82972" lon="3.61255">
        <ele>696</ele>
        <time>2021-02-21T11:26:02Z</time>
      </trkpt>
      <trkpt lat="45.82969" lon="3.61252">
        <ele>696</ele>
        <time>2021-02-21T11:26:04Z</time>
      </trkpt>
      <trkpt lat="45.82967" lon="3.6125">
        <ele>696</ele>
        <time>2021-02-21T11:26:06Z</time>
      </trkpt>
      <trkpt lat="45.82964" lon="3.61249">
        <ele>696</ele>
        <time>2021-02-21T11:26:08Z</time>
      </trkpt>
      <trkpt lat="45.82962" lon="3.61247">
        <ele>695</ele>
        <time>2021-02-21T11:26:10Z</time>
      </trkpt>
      <trkpt lat="45.8296" lon="3.61246">
        <ele>695</ele>
        <time>2021-02-21T11:26:12Z</time>
      </trkpt>
      <trkpt lat="45.82957" lon="3.61246">
        <ele>694</ele>
        <time>2021-02-21T11:26:14Z</time>
      </trkpt>
      <trkpt lat="45.82954" lon="3.61245">
        <ele>694</ele>
        <time>2021-02-21T11:26:16Z</time>
      </trkpt>
      <trkpt lat="45.82952" lon="3.61243">
        <ele>693</ele>
        <time>2021-02-21T11:26:18Z</time>
      </trkpt>
      <trkpt lat="45.82949" lon="3.61241">
        <ele>693</ele>
        <time>2021-02-21T11:26:20Z</time>
      </trkpt>
      <trkpt lat="45.82947" lon="3.6124">
        <ele>692</ele>
        <time>2021-02-21T11:26:22Z</time>
      </trkpt>
      <trkpt lat="45.82944" lon="3.61238">
        <ele>692</ele>
        <time>2021-02-21T11:26:24Z</time>
      </trkpt>
      <trkpt lat="45.82942" lon="3.61237">
        <ele>691</ele>
        <time>2021-02-21T11:26:26Z</time>
      </trkpt>
      <trkpt lat="45.8294" lon="3.61235">
        <ele>691</ele>
        <time>2021-02-21T11:26:28Z</time>
      </trkpt>
      <trkpt lat="45.82937" lon="3.61234">
        <ele>690</ele>
        <time>2021-02-21T11:26:30Z</time>
      </trkpt>
      <trkpt lat="45.82934" lon="3.61232">
        <ele>689</ele>
        <time>2021-02-21T11:26:32Z</time>
      </trkpt>
      <trkpt lat="45.82932" lon="3.6123">
        <ele>688</ele>
        <time>2021-02-21T11:26:34Z</time>
      </trkpt>
      <trkpt lat="45.82929" lon="3.61228">
        <ele>688</ele>
        <time>2021-02-21T11:26:36Z</time>
      </trkpt>
      <trkpt lat="45.82928" lon="3.61225">
        <ele>688</ele>
        <time>2021-02-21T11:26:38Z</time>
      </trkpt>
      <trkpt lat="45.82926" lon="3.61222">
        <ele>688</ele>
        <time>2021-02-21T11:26:40Z</time>
      </trkpt>
      <trkpt lat="45.82924" lon="3.6122">
        <ele>687</ele>
        <time>2021-02-21T11:26:42Z</time>
      </trkpt>
      <trkpt lat="45.82921" lon="3.61219">
        <ele>686</ele>
        <time>2021-02-21T11:26:44Z</time>
      </trkpt>
      <trkpt lat="45.82919" lon="3.61217">
        <ele>686</ele>
        <time>2021-02-21T11:26:46Z</time>
      </trkpt>
      <trkpt lat="45.82916" lon="3.61214">
        <ele>685</ele>
        <time>2021-02-21T11:26:48Z</time>
      </trkpt>
      <trkpt lat="45.82913" lon="3.61212">
        <ele>685</ele>
        <time>2021-02-21T11:26:50Z</time>
      </trkpt>
      <trkpt lat="45.82911" lon="3.6121">
        <ele>684</ele>
        <time>2021-02-21T11:26:52Z</time>
      </trkpt>
      <trkpt lat="45.82908" lon="3.61207">
        <ele>684</ele>
        <time>2021-02-21T11:26:54Z</time>
      </trkpt>
      <trkpt lat="45.82906" lon="3.61205">
        <ele>684</ele>
        <time>2021-02-21T11:26:56Z</time>
      </trkpt>
      <trkpt lat="45.82905" lon="3.61203">
        <ele>684</ele>
        <time>2021-02-21T11:26:58Z</time>
      </trkpt>
      <trkpt lat="45.82902" lon="3.612">
        <ele>683</ele>
        <time>2021-02-21T11:27:00Z</time>
      </trkpt>
      <trkpt lat="45.829" lon="3.61196">
        <ele>683</ele>
        <time>2021-02-21T11:27:02Z</time>
      </trkpt>
      <trkpt lat="45.82899" lon="3.61193">
        <ele>683</ele>
        <time>2021-02-21T11:27:04Z</time>
      </trkpt>
      <trkpt lat="45.82897" lon="3.61191">
        <ele>683</ele>
        <time>2021-02-21T11:27:06Z</time>
      </trkpt>
      <trkpt lat="45.82896" lon="3.61188">
        <ele>683</ele>
        <time>2021-02-21T11:27:08Z</time>
      </trkpt>
      <trkpt lat="45.82893" lon="3.61185">
        <ele>682</ele>
        <time>2021-02-21T11:27:10Z</time>
      </trkpt>
      <trkpt lat="45.82891" lon="3.61181">
        <ele>682</ele>
        <time>2021-02-21T11:27:12Z</time>
      </trkpt>
      <trkpt lat="45.82889" lon="3.61178">
        <ele>682</ele>
        <time>2021-02-21T11:27:14Z</time>
      </trkpt>
      <trkpt lat="45.82888" lon="3.61174">
        <ele>682</ele>
        <time>2021-02-21T11:27:16Z</time>
      </trkpt>
      <trkpt lat="45.82887" lon="3.61171">
        <ele>682</ele>
        <time>2021-02-21T11:27:18Z</time>
      </trkpt>
      <trkpt lat="45.82884" lon="3.61167">
        <ele>681</ele>
        <time>2021-02-21T11:27:20Z</time>
      </trkpt>
      <trkpt lat="45.82883" lon="3.61163">
        <ele>681</ele>
        <time>2021-02-21T11:27:22Z</time>
      </trkpt>
      <trkpt lat="45.82881" lon="3.61161">
        <ele>681</ele>
        <time>2021-02-21T11:27:23Z</time>
      </trkpt>
      <trkpt lat="45.82881" lon="3.61158">
        <ele>681</ele>
        <time>2021-02-21T11:27:24Z</time>
      </trkpt>
      <trkpt lat="45.82879" lon="3.61154">
        <ele>681</ele>
        <time>2021-02-21T11:27:26Z</time>
      </trkpt>
      <trkpt lat="45.82877" lon="3.6115">
        <ele>681</ele>
        <time>2021-02-21T11:27:28Z</time>
      </trkpt>
      <trkpt lat="45.82876" lon="3.61146">
        <ele>681</ele>
        <time>2021-02-21T11:27:30Z</time>
      </trkpt>
      <trkpt lat="45.82875" lon="3.61143">
        <ele>681</ele>
        <time>2021-02-21T11:27:32Z</time>
      </trkpt>
      <trkpt lat="45.82875" lon="3.6114">
        <ele>681</ele>
        <time>2021-02-21T11:27:34Z</time>
      </trkpt>
      <trkpt lat="45.82874" lon="3.61137">
        <ele>681</ele>
        <time>2021-02-21T11:27:36Z</time>
      </trkpt>
      <trkpt lat="45.82872" lon="3.61133">
        <ele>680</ele>
        <time>2021-02-21T11:27:38Z</time>
      </trkpt>
      <trkpt lat="45.8287" lon="3.61129">
        <ele>679</ele>
        <time>2021-02-21T11:27:40Z</time>
      </trkpt>
      <trkpt lat="45.82868" lon="3.61126">
        <ele>679</ele>
        <time>2021-02-21T11:27:41Z</time>
      </trkpt>
      <trkpt lat="45.82866" lon="3.61124">
        <ele>678</ele>
        <time>2021-02-21T11:27:42Z</time>
      </trkpt>
      <trkpt lat="45.82865" lon="3.61123">
        <ele>678</ele>
        <time>2021-02-21T11:27:43Z</time>
      </trkpt>
      <trkpt lat="45.82862" lon="3.61119">
        <ele>677</ele>
        <time>2021-02-21T11:27:45Z</time>
      </trkpt>
      <trkpt lat="45.82861" lon="3.61117">
        <ele>676</ele>
        <time>2021-02-21T11:27:46Z</time>
      </trkpt>
      <trkpt lat="45.82859" lon="3.61115">
        <ele>676</ele>
        <time>2021-02-21T11:27:47Z</time>
      </trkpt>
      <trkpt lat="45.82857" lon="3.61112">
        <ele>675</ele>
        <time>2021-02-21T11:27:49Z</time>
      </trkpt>
      <trkpt lat="45.82856" lon="3.61108">
        <ele>675</ele>
        <time>2021-02-21T11:27:51Z</time>
      </trkpt>
      <trkpt lat="45.82855" lon="3.61105">
        <ele>675</ele>
        <time>2021-02-21T11:27:53Z</time>
      </trkpt>
      <trkpt lat="45.82855" lon="3.61102">
        <ele>675</ele>
        <time>2021-02-21T11:27:55Z</time>
      </trkpt>
      <trkpt lat="45.82854" lon="3.61099">
        <ele>675</ele>
        <time>2021-02-21T11:27:57Z</time>
      </trkpt>
      <trkpt lat="45.82852" lon="3.61095">
        <ele>674</ele>
        <time>2021-02-21T11:27:59Z</time>
      </trkpt>
      <trkpt lat="45.82851" lon="3.61091">
        <ele>674</ele>
        <time>2021-02-21T11:28:01Z</time>
      </trkpt>
      <trkpt lat="45.8285" lon="3.61088">
        <ele>674</ele>
        <time>2021-02-21T11:28:03Z</time>
      </trkpt>
      <trkpt lat="45.8285" lon="3.61085">
        <ele>674</ele>
        <time>2021-02-21T11:28:05Z</time>
      </trkpt>
      <trkpt lat="45.82849" lon="3.61082">
        <ele>673</ele>
        <time>2021-02-21T11:28:07Z</time>
      </trkpt>
      <trkpt lat="45.82849" lon="3.61079">
        <ele>673</ele>
        <time>2021-02-21T11:28:09Z</time>
      </trkpt>
      <trkpt lat="45.82848" lon="3.61075">
        <ele>673</ele>
        <time>2021-02-21T11:28:11Z</time>
      </trkpt>
      <trkpt lat="45.82848" lon="3.61071">
        <ele>673</ele>
        <time>2021-02-21T11:28:13Z</time>
      </trkpt>
      <trkpt lat="45.82847" lon="3.61067">
        <ele>673</ele>
        <time>2021-02-21T11:28:15Z</time>
      </trkpt>
      <trkpt lat="45.82847" lon="3.61063">
        <ele>673</ele>
        <time>2021-02-21T11:28:17Z</time>
      </trkpt>
      <trkpt lat="45.82846" lon="3.61059">
        <ele>673</ele>
        <time>2021-02-21T11:28:19Z</time>
      </trkpt>
      <trkpt lat="45.82846" lon="3.61056">
        <ele>673</ele>
        <time>2021-02-21T11:28:21Z</time>
      </trkpt>
      <trkpt lat="45.82845" lon="3.61053">
        <ele>673</ele>
        <time>2021-02-21T11:28:23Z</time>
      </trkpt>
      <trkpt lat="45.82844" lon="3.6105">
        <ele>673</ele>
        <time>2021-02-21T11:28:25Z</time>
      </trkpt>
      <trkpt lat="45.82844" lon="3.61046">
        <ele>673</ele>
        <time>2021-02-21T11:28:27Z</time>
      </trkpt>
      <trkpt lat="45.82842" lon="3.61044">
        <ele>673</ele>
        <time>2021-02-21T11:28:29Z</time>
      </trkpt>
      <trkpt lat="45.82841" lon="3.61041">
        <ele>673</ele>
        <time>2021-02-21T11:28:31Z</time>
      </trkpt>
      <trkpt lat="45.8284" lon="3.61038">
        <ele>673</ele>
        <time>2021-02-21T11:28:33Z</time>
      </trkpt>
      <trkpt lat="45.82839" lon="3.61034">
        <ele>673</ele>
        <time>2021-02-21T11:28:35Z</time>
      </trkpt>
      <trkpt lat="45.82837" lon="3.6103">
        <ele>672</ele>
        <time>2021-02-21T11:28:37Z</time>
      </trkpt>
      <trkpt lat="45.82836" lon="3.61027">
        <ele>672</ele>
        <time>2021-02-21T11:28:38Z</time>
      </trkpt>
      <trkpt lat="45.82835" lon="3.61024">
        <ele>673</ele>
        <time>2021-02-21T11:28:40Z</time>
      </trkpt>
      <trkpt lat="45.82835" lon="3.61019">
        <ele>674</ele>
        <time>2021-02-21T11:28:42Z</time>
      </trkpt>
      <trkpt lat="45.82833" lon="3.61015">
        <ele>674</ele>
        <time>2021-02-21T11:28:44Z</time>
      </trkpt>
      <trkpt lat="45.82831" lon="3.61012">
        <ele>675</ele>
        <time>2021-02-21T11:28:45Z</time>
      </trkpt>
      <trkpt lat="45.8283" lon="3.61009">
        <ele>675</ele>
        <time>2021-02-21T11:28:46Z</time>
      </trkpt>
      <trkpt lat="45.82828" lon="3.61007">
        <ele>675</ele>
        <time>2021-02-21T11:28:47Z</time>
      </trkpt>
      <trkpt lat="45.82827" lon="3.61004">
        <ele>676</ele>
        <time>2021-02-21T11:28:48Z</time>
      </trkpt>
      <trkpt lat="45.82825" lon="3.61001">
        <ele>676</ele>
        <time>2021-02-21T11:28:50Z</time>
      </trkpt>
      <trkpt lat="45.82824" lon="3.60997">
        <ele>677</ele>
        <time>2021-02-21T11:28:52Z</time>
      </trkpt>
      <trkpt lat="45.82822" lon="3.60994">
        <ele>678</ele>
        <time>2021-02-21T11:28:54Z</time>
      </trkpt>
      <trkpt lat="45.82821" lon="3.60991">
        <ele>678</ele>
        <time>2021-02-21T11:28:56Z</time>
      </trkpt>
      <trkpt lat="45.82819" lon="3.60988">
        <ele>679</ele>
        <time>2021-02-21T11:28:58Z</time>
      </trkpt>
      <trkpt lat="45.82817" lon="3.60985">
        <ele>679</ele>
        <time>2021-02-21T11:29:00Z</time>
      </trkpt>
      <trkpt lat="45.82816" lon="3.60982">
        <ele>680</ele>
        <time>2021-02-21T11:29:02Z</time>
      </trkpt>
      <trkpt lat="45.82814" lon="3.60979">
        <ele>680</ele>
        <time>2021-02-21T11:29:04Z</time>
      </trkpt>
      <trkpt lat="45.82812" lon="3.60976">
        <ele>680</ele>
        <time>2021-02-21T11:29:06Z</time>
      </trkpt>
      <trkpt lat="45.8281" lon="3.60974">
        <ele>680</ele>
        <time>2021-02-21T11:29:08Z</time>
      </trkpt>
      <trkpt lat="45.82808" lon="3.60971">
        <ele>680</ele>
        <time>2021-02-21T11:29:10Z</time>
      </trkpt>
      <trkpt lat="45.82806" lon="3.60969">
        <ele>680</ele>
        <time>2021-02-21T11:29:11Z</time>
      </trkpt>
      <trkpt lat="45.82804" lon="3.60966">
        <ele>680</ele>
        <time>2021-02-21T11:29:13Z</time>
      </trkpt>
      <trkpt lat="45.82802" lon="3.60964">
        <ele>680</ele>
        <time>2021-02-21T11:29:15Z</time>
      </trkpt>
      <trkpt lat="45.828" lon="3.60962">
        <ele>680</ele>
        <time>2021-02-21T11:29:17Z</time>
      </trkpt>
      <trkpt lat="45.82797" lon="3.6096">
        <ele>680</ele>
        <time>2021-02-21T11:29:19Z</time>
      </trkpt>
      <trkpt lat="45.82795" lon="3.60958">
        <ele>679</ele>
        <time>2021-02-21T11:29:21Z</time>
      </trkpt>
      <trkpt lat="45.82793" lon="3.60957">
        <ele>679</ele>
        <time>2021-02-21T11:29:23Z</time>
      </trkpt>
      <trkpt lat="45.82791" lon="3.60955">
        <ele>679</ele>
        <time>2021-02-21T11:29:25Z</time>
      </trkpt>
      <trkpt lat="45.82789" lon="3.60953">
        <ele>679</ele>
        <time>2021-02-21T11:29:27Z</time>
      </trkpt>
      <trkpt lat="45.82787" lon="3.60951">
        <ele>679</ele>
        <time>2021-02-21T11:29:29Z</time>
      </trkpt>
      <trkpt lat="45.82786" lon="3.60949">
        <ele>679</ele>
        <time>2021-02-21T11:29:30Z</time>
      </trkpt>
      <trkpt lat="45.82783" lon="3.60947">
        <ele>678</ele>
        <time>2021-02-21T11:29:32Z</time>
      </trkpt>
      <trkpt lat="45.8278" lon="3.60944">
        <ele>678</ele>
        <time>2021-02-21T11:29:34Z</time>
      </trkpt>
      <trkpt lat="45.82778" lon="3.60943">
        <ele>678</ele>
        <time>2021-02-21T11:29:35Z</time>
      </trkpt>
      <trkpt lat="45.82777" lon="3.60942">
        <ele>678</ele>
        <time>2021-02-21T11:29:36Z</time>
      </trkpt>
      <trkpt lat="45.82774" lon="3.60939">
        <ele>678</ele>
        <time>2021-02-21T11:29:38Z</time>
      </trkpt>
      <trkpt lat="45.82773" lon="3.60937">
        <ele>677</ele>
        <time>2021-02-21T11:29:40Z</time>
      </trkpt>
      <trkpt lat="45.82771" lon="3.60934">
        <ele>677</ele>
        <time>2021-02-21T11:29:42Z</time>
      </trkpt>
      <trkpt lat="45.82769" lon="3.60932">
        <ele>677</ele>
        <time>2021-02-21T11:29:44Z</time>
      </trkpt>
      <trkpt lat="45.82767" lon="3.6093">
        <ele>677</ele>
        <time>2021-02-21T11:29:46Z</time>
      </trkpt>
      <trkpt lat="45.82765" lon="3.60928">
        <ele>677</ele>
        <time>2021-02-21T11:29:48Z</time>
      </trkpt>
      <trkpt lat="45.82764" lon="3.60925">
        <ele>676</ele>
        <time>2021-02-21T11:29:50Z</time>
      </trkpt>
      <trkpt lat="45.82762" lon="3.60922">
        <ele>676</ele>
        <time>2021-02-21T11:29:52Z</time>
      </trkpt>
      <trkpt lat="45.8276" lon="3.60919">
        <ele>676</ele>
        <time>2021-02-21T11:29:54Z</time>
      </trkpt>
      <trkpt lat="45.82757" lon="3.60916">
        <ele>675</ele>
        <time>2021-02-21T11:29:56Z</time>
      </trkpt>
      <trkpt lat="45.82755" lon="3.60912">
        <ele>675</ele>
        <time>2021-02-21T11:29:58Z</time>
      </trkpt>
      <trkpt lat="45.82753" lon="3.60908">
        <ele>675</ele>
        <time>2021-02-21T11:30:00Z</time>
      </trkpt>
      <trkpt lat="45.82752" lon="3.60905">
        <ele>674</ele>
        <time>2021-02-21T11:30:02Z</time>
      </trkpt>
      <trkpt lat="45.82751" lon="3.60902">
        <ele>674</ele>
        <time>2021-02-21T11:30:04Z</time>
      </trkpt>
      <trkpt lat="45.82749" lon="3.60899">
        <ele>674</ele>
        <time>2021-02-21T11:30:06Z</time>
      </trkpt>
      <trkpt lat="45.82748" lon="3.60894">
        <ele>674</ele>
        <time>2021-02-21T11:30:08Z</time>
      </trkpt>
      <trkpt lat="45.82746" lon="3.60891">
        <ele>674</ele>
        <time>2021-02-21T11:30:10Z</time>
      </trkpt>
      <trkpt lat="45.82745" lon="3.60887">
        <ele>674</ele>
        <time>2021-02-21T11:30:12Z</time>
      </trkpt>
      <trkpt lat="45.82744" lon="3.60884">
        <ele>674</ele>
        <time>2021-02-21T11:30:14Z</time>
      </trkpt>
      <trkpt lat="45.82742" lon="3.60881">
        <ele>673</ele>
        <time>2021-02-21T11:30:16Z</time>
      </trkpt>
      <trkpt lat="45.82741" lon="3.60879">
        <ele>673</ele>
        <time>2021-02-21T11:30:18Z</time>
      </trkpt>
      <trkpt lat="45.82739" lon="3.60876">
        <ele>673</ele>
        <time>2021-02-21T11:30:20Z</time>
      </trkpt>
      <trkpt lat="45.82737" lon="3.60873">
        <ele>672</ele>
        <time>2021-02-21T11:30:22Z</time>
      </trkpt>
      <trkpt lat="45.82736" lon="3.6087">
        <ele>672</ele>
        <time>2021-02-21T11:30:24Z</time>
      </trkpt>
      <trkpt lat="45.82735" lon="3.60867">
        <ele>672</ele>
        <time>2021-02-21T11:30:26Z</time>
      </trkpt>
      <trkpt lat="45.82733" lon="3.60864">
        <ele>672</ele>
        <time>2021-02-21T11:30:28Z</time>
      </trkpt>
      <trkpt lat="45.82732" lon="3.60862">
        <ele>672</ele>
        <time>2021-02-21T11:30:30Z</time>
      </trkpt>
      <trkpt lat="45.82732" lon="3.60858">
        <ele>672</ele>
        <time>2021-02-21T11:30:32Z</time>
      </trkpt>
      <trkpt lat="45.82732" lon="3.60854">
        <ele>672</ele>
        <time>2021-02-21T11:30:34Z</time>
      </trkpt>
      <trkpt lat="45.8273" lon="3.6085">
        <ele>672</ele>
        <time>2021-02-21T11:30:36Z</time>
      </trkpt>
      <trkpt lat="45.82728" lon="3.60846">
        <ele>672</ele>
        <time>2021-02-21T11:30:38Z</time>
      </trkpt>
      <trkpt lat="45.82728" lon="3.60843">
        <ele>672</ele>
        <time>2021-02-21T11:30:39Z</time>
      </trkpt>
      <trkpt lat="45.82727" lon="3.60839">
        <ele>672</ele>
        <time>2021-02-21T11:30:41Z</time>
      </trkpt>
      <trkpt lat="45.82726" lon="3.60834">
        <ele>672</ele>
        <time>2021-02-21T11:30:43Z</time>
      </trkpt>
      <trkpt lat="45.82725" lon="3.60832">
        <ele>672</ele>
        <time>2021-02-21T11:30:44Z</time>
      </trkpt>
      <trkpt lat="45.82724" lon="3.60828">
        <ele>672</ele>
        <time>2021-02-21T11:30:46Z</time>
      </trkpt>
      <trkpt lat="45.82723" lon="3.60826">
        <ele>672</ele>
        <time>2021-02-21T11:30:48Z</time>
      </trkpt>
      <trkpt lat="45.82721" lon="3.60823">
        <ele>671</ele>
        <time>2021-02-21T11:30:50Z</time>
      </trkpt>
      <trkpt lat="45.8272" lon="3.60821">
        <ele>671</ele>
        <time>2021-02-21T11:30:52Z</time>
      </trkpt>
      <trkpt lat="45.82717" lon="3.60818">
        <ele>671</ele>
        <time>2021-02-21T11:30:54Z</time>
      </trkpt>
      <trkpt lat="45.82715" lon="3.60815">
        <ele>671</ele>
        <time>2021-02-21T11:30:56Z</time>
      </trkpt>
      <trkpt lat="45.82713" lon="3.60813">
        <ele>671</ele>
        <time>2021-02-21T11:30:58Z</time>
      </trkpt>
      <trkpt lat="45.82711" lon="3.60809">
        <ele>672</ele>
        <time>2021-02-21T11:31:00Z</time>
      </trkpt>
      <trkpt lat="45.82708" lon="3.60806">
        <ele>672</ele>
        <time>2021-02-21T11:31:02Z</time>
      </trkpt>
      <trkpt lat="45.82706" lon="3.60804">
        <ele>672</ele>
        <time>2021-02-21T11:31:04Z</time>
      </trkpt>
      <trkpt lat="45.82707" lon="3.60799">
        <ele>673</ele>
        <time>2021-02-21T11:31:06Z</time>
      </trkpt>
      <trkpt lat="45.82708" lon="3.60795">
        <ele>675</ele>
        <time>2021-02-21T11:31:08Z</time>
      </trkpt>
      <trkpt lat="45.82709" lon="3.60792">
        <ele>676</ele>
        <time>2021-02-21T11:31:10Z</time>
      </trkpt>
      <trkpt lat="45.8271" lon="3.60788">
        <ele>677</ele>
        <time>2021-02-21T11:31:12Z</time>
      </trkpt>
      <trkpt lat="45.82711" lon="3.60786">
        <ele>678</ele>
        <time>2021-02-21T11:31:14Z</time>
      </trkpt>
      <trkpt lat="45.82712" lon="3.60784">
        <ele>678</ele>
        <time>2021-02-21T11:31:16Z</time>
      </trkpt>
      <trkpt lat="45.82714" lon="3.60783">
        <ele>679</ele>
        <time>2021-02-21T11:31:26Z</time>
      </trkpt>
      <trkpt lat="45.82716" lon="3.60783">
        <ele>679</ele>
        <time>2021-02-21T11:31:50Z</time>
      </trkpt>
      <trkpt lat="45.82715" lon="3.60786">
        <ele>678</ele>
        <time>2021-02-21T11:32:45Z</time>
      </trkpt>
      <trkpt lat="45.82714" lon="3.60789">
        <ele>677</ele>
        <time>2021-02-21T11:32:47Z</time>
      </trkpt>
      <trkpt lat="45.82713" lon="3.60793">
        <ele>676</ele>
        <time>2021-02-21T11:32:49Z</time>
      </trkpt>
      <trkpt lat="45.82712" lon="3.60796">
        <ele>675</ele>
        <time>2021-02-21T11:32:51Z</time>
      </trkpt>
      <trkpt lat="45.82709" lon="3.60798">
        <ele>674</ele>
        <time>2021-02-21T11:32:54Z</time>
      </trkpt>
      <trkpt lat="45.82706" lon="3.60798">
        <ele>674</ele>
        <time>2021-02-21T11:32:56Z</time>
      </trkpt>
      <trkpt lat="45.82703" lon="3.60799">
        <ele>673</ele>
        <time>2021-02-21T11:32:58Z</time>
      </trkpt>
      <trkpt lat="45.827" lon="3.608">
        <ele>673</ele>
        <time>2021-02-21T11:33:00Z</time>
      </trkpt>
      <trkpt lat="45.82697" lon="3.60801">
        <ele>672</ele>
        <time>2021-02-21T11:33:02Z</time>
      </trkpt>
      <trkpt lat="45.82695" lon="3.60803">
        <ele>671</ele>
        <time>2021-02-21T11:33:05Z</time>
      </trkpt>
      <trkpt lat="45.82693" lon="3.60805">
        <ele>670</ele>
        <time>2021-02-21T11:33:07Z</time>
      </trkpt>
      <trkpt lat="45.8269" lon="3.60805">
        <ele>670</ele>
        <time>2021-02-21T11:33:09Z</time>
      </trkpt>
      <trkpt lat="45.82688" lon="3.60806">
        <ele>669</ele>
        <time>2021-02-21T11:33:11Z</time>
      </trkpt>
      <trkpt lat="45.82686" lon="3.60808">
        <ele>668</ele>
        <time>2021-02-21T11:33:14Z</time>
      </trkpt>
      <trkpt lat="45.82683" lon="3.60809">
        <ele>667</ele>
        <time>2021-02-21T11:33:16Z</time>
      </trkpt>
      <trkpt lat="45.82681" lon="3.60811">
        <ele>667</ele>
        <time>2021-02-21T11:33:18Z</time>
      </trkpt>
      <trkpt lat="45.82679" lon="3.60812">
        <ele>666</ele>
        <time>2021-02-21T11:33:20Z</time>
      </trkpt>
      <trkpt lat="45.82676" lon="3.60814">
        <ele>665</ele>
        <time>2021-02-21T11:33:22Z</time>
      </trkpt>
      <trkpt lat="45.82675" lon="3.60815">
        <ele>665</ele>
        <time>2021-02-21T11:33:23Z</time>
      </trkpt>
      <trkpt lat="45.82672" lon="3.60818">
        <ele>664</ele>
        <time>2021-02-21T11:33:25Z</time>
      </trkpt>
      <trkpt lat="45.82668" lon="3.60819">
        <ele>663</ele>
        <time>2021-02-21T11:33:27Z</time>
      </trkpt>
      <trkpt lat="45.82666" lon="3.60819">
        <ele>663</ele>
        <time>2021-02-21T11:33:29Z</time>
      </trkpt>
      <trkpt lat="45.82664" lon="3.60818">
        <ele>662</ele>
        <time>2021-02-21T11:33:31Z</time>
      </trkpt>
      <trkpt lat="45.82661" lon="3.60818">
        <ele>662</ele>
        <time>2021-02-21T11:33:33Z</time>
      </trkpt>
      <trkpt lat="45.82657" lon="3.60817">
        <ele>662</ele>
        <time>2021-02-21T11:33:35Z</time>
      </trkpt>
      <trkpt lat="45.82655" lon="3.60816">
        <ele>662</ele>
        <time>2021-02-21T11:33:37Z</time>
      </trkpt>
      <trkpt lat="45.82651" lon="3.60816">
        <ele>662</ele>
        <time>2021-02-21T11:33:39Z</time>
      </trkpt>
      <trkpt lat="45.82649" lon="3.60817">
        <ele>661</ele>
        <time>2021-02-21T11:33:40Z</time>
      </trkpt>
      <trkpt lat="45.82648" lon="3.60817">
        <ele>661</ele>
        <time>2021-02-21T11:33:41Z</time>
      </trkpt>
      <trkpt lat="45.82645" lon="3.60818">
        <ele>661</ele>
        <time>2021-02-21T11:33:42Z</time>
      </trkpt>
      <trkpt lat="45.82643" lon="3.60818">
        <ele>661</ele>
        <time>2021-02-21T11:33:43Z</time>
      </trkpt>
      <trkpt lat="45.8264" lon="3.60819">
        <ele>660</ele>
        <time>2021-02-21T11:33:45Z</time>
      </trkpt>
      <trkpt lat="45.82637" lon="3.6082">
        <ele>660</ele>
        <time>2021-02-21T11:33:47Z</time>
      </trkpt>
      <trkpt lat="45.82634" lon="3.60822">
        <ele>660</ele>
        <time>2021-02-21T11:33:49Z</time>
      </trkpt>
      <trkpt lat="45.82632" lon="3.60821">
        <ele>659</ele>
        <time>2021-02-21T11:33:51Z</time>
      </trkpt>
      <trkpt lat="45.8263" lon="3.6082">
        <ele>659</ele>
        <time>2021-02-21T11:33:59Z</time>
      </trkpt>
      <trkpt lat="45.82628" lon="3.60819">
        <ele>659</ele>
        <time>2021-02-21T11:34:02Z</time>
      </trkpt>
      <trkpt lat="45.82627" lon="3.60817">
        <ele>660</ele>
        <time>2021-02-21T11:34:12Z</time>
      </trkpt>
      <trkpt lat="45.82629" lon="3.60815">
        <ele>660</ele>
        <time>2021-02-21T11:34:15Z</time>
      </trkpt>
      <trkpt lat="45.82628" lon="3.60817">
        <ele>660</ele>
        <time>2021-02-21T11:34:41Z</time>
      </trkpt>
      <trkpt lat="45.82626" lon="3.60819">
        <ele>659</ele>
        <time>2021-02-21T11:34:49Z</time>
      </trkpt>
      <trkpt lat="45.82624" lon="3.60819">
        <ele>659</ele>
        <time>2021-02-21T11:34:51Z</time>
      </trkpt>
      <trkpt lat="45.82622" lon="3.60819">
        <ele>659</ele>
        <time>2021-02-21T11:34:53Z</time>
      </trkpt>
      <trkpt lat="45.82619" lon="3.60819">
        <ele>659</ele>
        <time>2021-02-21T11:34:55Z</time>
      </trkpt>
      <trkpt lat="45.82616" lon="3.60818">
        <ele>659</ele>
        <time>2021-02-21T11:34:57Z</time>
      </trkpt>
      <trkpt lat="45.82613" lon="3.60817">
        <ele>659</ele>
        <time>2021-02-21T11:34:59Z</time>
      </trkpt>
      <trkpt lat="45.82611" lon="3.60815">
        <ele>659</ele>
        <time>2021-02-21T11:35:01Z</time>
      </trkpt>
      <trkpt lat="45.8261" lon="3.60815">
        <ele>659</ele>
        <time>2021-02-21T11:35:03Z</time>
      </trkpt>
      <trkpt lat="45.82608" lon="3.60813">
        <ele>659</ele>
        <time>2021-02-21T11:35:05Z</time>
      </trkpt>
      <trkpt lat="45.82605" lon="3.60811">
        <ele>658</ele>
        <time>2021-02-21T11:35:07Z</time>
      </trkpt>
      <trkpt lat="45.82603" lon="3.60807">
        <ele>658</ele>
        <time>2021-02-21T11:35:09Z</time>
      </trkpt>
      <trkpt lat="45.826" lon="3.60804">
        <ele>658</ele>
        <time>2021-02-21T11:35:11Z</time>
      </trkpt>
      <trkpt lat="45.82597" lon="3.60802">
        <ele>658</ele>
        <time>2021-02-21T11:35:13Z</time>
      </trkpt>
      <trkpt lat="45.82595" lon="3.60798">
        <ele>658</ele>
        <time>2021-02-21T11:35:15Z</time>
      </trkpt>
      <trkpt lat="45.82594" lon="3.60794">
        <ele>658</ele>
        <time>2021-02-21T11:35:17Z</time>
      </trkpt>
      <trkpt lat="45.82593" lon="3.60791">
        <ele>658</ele>
        <time>2021-02-21T11:35:19Z</time>
      </trkpt>
      <trkpt lat="45.82593" lon="3.60788">
        <ele>658</ele>
        <time>2021-02-21T11:35:21Z</time>
      </trkpt>
      <trkpt lat="45.82592" lon="3.60784">
        <ele>658</ele>
        <time>2021-02-21T11:35:23Z</time>
      </trkpt>
      <trkpt lat="45.82591" lon="3.6078">
        <ele>658</ele>
        <time>2021-02-21T11:35:25Z</time>
      </trkpt>
      <trkpt lat="45.8259" lon="3.60776">
        <ele>658</ele>
        <time>2021-02-21T11:35:27Z</time>
      </trkpt>
      <trkpt lat="45.82589" lon="3.60772">
        <ele>658</ele>
        <time>2021-02-21T11:35:29Z</time>
      </trkpt>
      <trkpt lat="45.82589" lon="3.60768">
        <ele>658</ele>
        <time>2021-02-21T11:35:31Z</time>
      </trkpt>
      <trkpt lat="45.82588" lon="3.60764">
        <ele>658</ele>
        <time>2021-02-21T11:35:33Z</time>
      </trkpt>
      <trkpt lat="45.82588" lon="3.60759">
        <ele>658</ele>
        <time>2021-02-21T11:35:35Z</time>
      </trkpt>
      <trkpt lat="45.82588" lon="3.60755">
        <ele>658</ele>
        <time>2021-02-21T11:35:37Z</time>
      </trkpt>
      <trkpt lat="45.82588" lon="3.60751">
        <ele>658</ele>
        <time>2021-02-21T11:35:39Z</time>
      </trkpt>
      <trkpt lat="45.82587" lon="3.60747">
        <ele>659</ele>
        <time>2021-02-21T11:35:41Z</time>
      </trkpt>
      <trkpt lat="45.82587" lon="3.60743">
        <ele>659</ele>
        <time>2021-02-21T11:35:43Z</time>
      </trkpt>
      <trkpt lat="45.82586" lon="3.60739">
        <ele>659</ele>
        <time>2021-02-21T11:35:45Z</time>
      </trkpt>
      <trkpt lat="45.82584" lon="3.60735">
        <ele>658</ele>
        <time>2021-02-21T11:35:47Z</time>
      </trkpt>
      <trkpt lat="45.82583" lon="3.60733">
        <ele>658</ele>
        <time>2021-02-21T11:35:48Z</time>
      </trkpt>
      <trkpt lat="45.82582" lon="3.60728">
        <ele>658</ele>
        <time>2021-02-21T11:35:50Z</time>
      </trkpt>
      <trkpt lat="45.82582" lon="3.60724">
        <ele>658</ele>
        <time>2021-02-21T11:35:52Z</time>
      </trkpt>
      <trkpt lat="45.82581" lon="3.6072">
        <ele>658</ele>
        <time>2021-02-21T11:35:54Z</time>
      </trkpt>
      <trkpt lat="45.8258" lon="3.60717">
        <ele>658</ele>
        <time>2021-02-21T11:35:56Z</time>
      </trkpt>
      <trkpt lat="45.8258" lon="3.60714">
        <ele>658</ele>
        <time>2021-02-21T11:35:58Z</time>
      </trkpt>
      <trkpt lat="45.8258" lon="3.6071">
        <ele>658</ele>
        <time>2021-02-21T11:36:00Z</time>
      </trkpt>
      <trkpt lat="45.8258" lon="3.60706">
        <ele>658</ele>
        <time>2021-02-21T11:36:02Z</time>
      </trkpt>
      <trkpt lat="45.8258" lon="3.60703">
        <ele>658</ele>
        <time>2021-02-21T11:36:04Z</time>
      </trkpt>
      <trkpt lat="45.82579" lon="3.60701">
        <ele>658</ele>
        <time>2021-02-21T11:36:06Z</time>
      </trkpt>
      <trkpt lat="45.82577" lon="3.60697">
        <ele>658</ele>
        <time>2021-02-21T11:36:08Z</time>
      </trkpt>
      <trkpt lat="45.82576" lon="3.60694">
        <ele>658</ele>
        <time>2021-02-21T11:36:10Z</time>
      </trkpt>
      <trkpt lat="45.82574" lon="3.60692">
        <ele>658</ele>
        <time>2021-02-21T11:36:12Z</time>
      </trkpt>
      <trkpt lat="45.82572" lon="3.60689">
        <ele>658</ele>
        <time>2021-02-21T11:36:14Z</time>
      </trkpt>
      <trkpt lat="45.8257" lon="3.60687">
        <ele>658</ele>
        <time>2021-02-21T11:36:16Z</time>
      </trkpt>
      <trkpt lat="45.82569" lon="3.60685">
        <ele>657</ele>
        <time>2021-02-21T11:36:18Z</time>
      </trkpt>
      <trkpt lat="45.82568" lon="3.60683">
        <ele>657</ele>
        <time>2021-02-21T11:36:20Z</time>
      </trkpt>
      <trkpt lat="45.82566" lon="3.6068">
        <ele>657</ele>
        <time>2021-02-21T11:36:22Z</time>
      </trkpt>
      <trkpt lat="45.82563" lon="3.60678">
        <ele>657</ele>
        <time>2021-02-21T11:36:24Z</time>
      </trkpt>
      <trkpt lat="45.82561" lon="3.60677">
        <ele>656</ele>
        <time>2021-02-21T11:36:26Z</time>
      </trkpt>
      <trkpt lat="45.82559" lon="3.60676">
        <ele>656</ele>
        <time>2021-02-21T11:36:28Z</time>
      </trkpt>
      <trkpt lat="45.82556" lon="3.60675">
        <ele>656</ele>
        <time>2021-02-21T11:36:30Z</time>
      </trkpt>
      <trkpt lat="45.82553" lon="3.60675">
        <ele>655</ele>
        <time>2021-02-21T11:36:32Z</time>
      </trkpt>
      <trkpt lat="45.8255" lon="3.60674">
        <ele>655</ele>
        <time>2021-02-21T11:36:34Z</time>
      </trkpt>
      <trkpt lat="45.82548" lon="3.60673">
        <ele>655</ele>
        <time>2021-02-21T11:36:36Z</time>
      </trkpt>
      <trkpt lat="45.82545" lon="3.60672">
        <ele>654</ele>
        <time>2021-02-21T11:36:38Z</time>
      </trkpt>
      <trkpt lat="45.82543" lon="3.60673">
        <ele>654</ele>
        <time>2021-02-21T11:36:40Z</time>
      </trkpt>
      <trkpt lat="45.8254" lon="3.60673">
        <ele>654</ele>
        <time>2021-02-21T11:36:42Z</time>
      </trkpt>
      <trkpt lat="45.82538" lon="3.60673">
        <ele>653</ele>
        <time>2021-02-21T11:36:44Z</time>
      </trkpt>
      <trkpt lat="45.82536" lon="3.60673">
        <ele>653</ele>
        <time>2021-02-21T11:36:46Z</time>
      </trkpt>
      <trkpt lat="45.82533" lon="3.60673">
        <ele>653</ele>
        <time>2021-02-21T11:36:49Z</time>
      </trkpt>
      <trkpt lat="45.82531" lon="3.60673">
        <ele>652</ele>
        <time>2021-02-21T11:36:52Z</time>
      </trkpt>
      <trkpt lat="45.82529" lon="3.60673">
        <ele>652</ele>
        <time>2021-02-21T11:36:54Z</time>
      </trkpt>
      <trkpt lat="45.82527" lon="3.60674">
        <ele>652</ele>
        <time>2021-02-21T11:36:56Z</time>
      </trkpt>
      <trkpt lat="45.82524" lon="3.60676">
        <ele>651</ele>
        <time>2021-02-21T11:36:58Z</time>
      </trkpt>
      <trkpt lat="45.82522" lon="3.60678">
        <ele>651</ele>
        <time>2021-02-21T11:37:00Z</time>
      </trkpt>
      <trkpt lat="45.82519" lon="3.6068">
        <ele>651</ele>
        <time>2021-02-21T11:37:02Z</time>
      </trkpt>
      <trkpt lat="45.82517" lon="3.60682">
        <ele>650</ele>
        <time>2021-02-21T11:37:04Z</time>
      </trkpt>
      <trkpt lat="45.82515" lon="3.60685">
        <ele>650</ele>
        <time>2021-02-21T11:37:06Z</time>
      </trkpt>
      <trkpt lat="45.82513" lon="3.60687">
        <ele>650</ele>
        <time>2021-02-21T11:37:08Z</time>
      </trkpt>
      <trkpt lat="45.82511" lon="3.60689">
        <ele>649</ele>
        <time>2021-02-21T11:37:10Z</time>
      </trkpt>
      <trkpt lat="45.8251" lon="3.60691">
        <ele>649</ele>
        <time>2021-02-21T11:37:12Z</time>
      </trkpt>
      <trkpt lat="45.82508" lon="3.60693">
        <ele>649</ele>
        <time>2021-02-21T11:37:14Z</time>
      </trkpt>
      <trkpt lat="45.82507" lon="3.60695">
        <ele>649</ele>
        <time>2021-02-21T11:37:16Z</time>
      </trkpt>
      <trkpt lat="45.82504" lon="3.60697">
        <ele>648</ele>
        <time>2021-02-21T11:37:18Z</time>
      </trkpt>
      <trkpt lat="45.82502" lon="3.607">
        <ele>648</ele>
        <time>2021-02-21T11:37:20Z</time>
      </trkpt>
      <trkpt lat="45.825" lon="3.60702">
        <ele>648</ele>
        <time>2021-02-21T11:37:22Z</time>
      </trkpt>
      <trkpt lat="45.82498" lon="3.60704">
        <ele>648</ele>
        <time>2021-02-21T11:37:24Z</time>
      </trkpt>
      <trkpt lat="45.82496" lon="3.60706">
        <ele>648</ele>
        <time>2021-02-21T11:37:26Z</time>
      </trkpt>
      <trkpt lat="45.82494" lon="3.60708">
        <ele>647</ele>
        <time>2021-02-21T11:37:28Z</time>
      </trkpt>
      <trkpt lat="45.82492" lon="3.6071">
        <ele>647</ele>
        <time>2021-02-21T11:37:29Z</time>
      </trkpt>
      <trkpt lat="45.8249" lon="3.60713">
        <ele>647</ele>
        <time>2021-02-21T11:37:31Z</time>
      </trkpt>
      <trkpt lat="45.82487" lon="3.60715">
        <ele>647</ele>
        <time>2021-02-21T11:37:33Z</time>
      </trkpt>
      <trkpt lat="45.82485" lon="3.60717">
        <ele>647</ele>
        <time>2021-02-21T11:37:35Z</time>
      </trkpt>
      <trkpt lat="45.82483" lon="3.60719">
        <ele>647</ele>
        <time>2021-02-21T11:37:37Z</time>
      </trkpt>
      <trkpt lat="45.8248" lon="3.60721">
        <ele>647</ele>
        <time>2021-02-21T11:37:39Z</time>
      </trkpt>
      <trkpt lat="45.82478" lon="3.60722">
        <ele>647</ele>
        <time>2021-02-21T11:37:41Z</time>
      </trkpt>
      <trkpt lat="45.82475" lon="3.60725">
        <ele>647</ele>
        <time>2021-02-21T11:37:43Z</time>
      </trkpt>
      <trkpt lat="45.82474" lon="3.60726">
        <ele>647</ele>
        <time>2021-02-21T11:37:44Z</time>
      </trkpt>
      <trkpt lat="45.82472" lon="3.60728">
        <ele>647</ele>
        <time>2021-02-21T11:37:46Z</time>
      </trkpt>
      <trkpt lat="45.8247" lon="3.6073">
        <ele>646</ele>
        <time>2021-02-21T11:37:48Z</time>
      </trkpt>
      <trkpt lat="45.82467" lon="3.60732">
        <ele>646</ele>
        <time>2021-02-21T11:37:50Z</time>
      </trkpt>
      <trkpt lat="45.82465" lon="3.60734">
        <ele>646</ele>
        <time>2021-02-21T11:37:52Z</time>
      </trkpt>
      <trkpt lat="45.82463" lon="3.60735">
        <ele>646</ele>
        <time>2021-02-21T11:37:53Z</time>
      </trkpt>
      <trkpt lat="45.82461" lon="3.60737">
        <ele>646</ele>
        <time>2021-02-21T11:37:54Z</time>
      </trkpt>
      <trkpt lat="45.82459" lon="3.60738">
        <ele>645</ele>
        <time>2021-02-21T11:37:55Z</time>
      </trkpt>
      <trkpt lat="45.82457" lon="3.60739">
        <ele>645</ele>
        <time>2021-02-21T11:37:56Z</time>
      </trkpt>
      <trkpt lat="45.82454" lon="3.6074">
        <ele>645</ele>
        <time>2021-02-21T11:37:58Z</time>
      </trkpt>
      <trkpt lat="45.82451" lon="3.6074">
        <ele>645</ele>
        <time>2021-02-21T11:38:00Z</time>
      </trkpt>
      <trkpt lat="45.82448" lon="3.60739">
        <ele>645</ele>
        <time>2021-02-21T11:38:02Z</time>
      </trkpt>
      <trkpt lat="45.82445" lon="3.60738">
        <ele>646</ele>
        <time>2021-02-21T11:38:04Z</time>
      </trkpt>
      <trkpt lat="45.82442" lon="3.60737">
        <ele>645</ele>
        <time>2021-02-21T11:38:06Z</time>
      </trkpt>
      <trkpt lat="45.82439" lon="3.60737">
        <ele>645</ele>
        <time>2021-02-21T11:38:08Z</time>
      </trkpt>
      <trkpt lat="45.82436" lon="3.60737">
        <ele>645</ele>
        <time>2021-02-21T11:38:10Z</time>
      </trkpt>
      <trkpt lat="45.82433" lon="3.60737">
        <ele>644</ele>
        <time>2021-02-21T11:38:12Z</time>
      </trkpt>
      <trkpt lat="45.8243" lon="3.60736">
        <ele>644</ele>
        <time>2021-02-21T11:38:14Z</time>
      </trkpt>
      <trkpt lat="45.82427" lon="3.60736">
        <ele>644</ele>
        <time>2021-02-21T11:38:16Z</time>
      </trkpt>
      <trkpt lat="45.82424" lon="3.60736">
        <ele>643</ele>
        <time>2021-02-21T11:38:18Z</time>
      </trkpt>
      <trkpt lat="45.82421" lon="3.60735">
        <ele>643</ele>
        <time>2021-02-21T11:38:20Z</time>
      </trkpt>
      <trkpt lat="45.82419" lon="3.60735">
        <ele>643</ele>
        <time>2021-02-21T11:38:22Z</time>
      </trkpt>
      <trkpt lat="45.82416" lon="3.60735">
        <ele>642</ele>
        <time>2021-02-21T11:38:24Z</time>
      </trkpt>
      <trkpt lat="45.82413" lon="3.60736">
        <ele>642</ele>
        <time>2021-02-21T11:38:26Z</time>
      </trkpt>
      <trkpt lat="45.8241" lon="3.60737">
        <ele>641</ele>
        <time>2021-02-21T11:38:28Z</time>
      </trkpt>
      <trkpt lat="45.82408" lon="3.60738">
        <ele>641</ele>
        <time>2021-02-21T11:38:30Z</time>
      </trkpt>
      <trkpt lat="45.82406" lon="3.60739">
        <ele>640</ele>
        <time>2021-02-21T11:38:32Z</time>
      </trkpt>
      <trkpt lat="45.82403" lon="3.60741">
        <ele>639</ele>
        <time>2021-02-21T11:38:34Z</time>
      </trkpt>
      <trkpt lat="45.824" lon="3.60742">
        <ele>639</ele>
        <time>2021-02-21T11:38:36Z</time>
      </trkpt>
      <trkpt lat="45.82397" lon="3.60743">
        <ele>638</ele>
        <time>2021-02-21T11:38:38Z</time>
      </trkpt>
      <trkpt lat="45.82395" lon="3.60744">
        <ele>637</ele>
        <time>2021-02-21T11:38:40Z</time>
      </trkpt>
      <trkpt lat="45.82392" lon="3.60746">
        <ele>637</ele>
        <time>2021-02-21T11:38:42Z</time>
      </trkpt>
      <trkpt lat="45.8239" lon="3.60747">
        <ele>636</ele>
        <time>2021-02-21T11:38:44Z</time>
      </trkpt>
      <trkpt lat="45.82387" lon="3.60748">
        <ele>636</ele>
        <time>2021-02-21T11:38:46Z</time>
      </trkpt>
      <trkpt lat="45.82385" lon="3.6075">
        <ele>635</ele>
        <time>2021-02-21T11:38:48Z</time>
      </trkpt>
      <trkpt lat="45.82383" lon="3.60752">
        <ele>635</ele>
        <time>2021-02-21T11:38:50Z</time>
      </trkpt>
      <trkpt lat="45.82381" lon="3.60755">
        <ele>634</ele>
        <time>2021-02-21T11:38:52Z</time>
      </trkpt>
      <trkpt lat="45.82379" lon="3.60757">
        <ele>634</ele>
        <time>2021-02-21T11:38:54Z</time>
      </trkpt>
      <trkpt lat="45.82376" lon="3.6076">
        <ele>634</ele>
        <time>2021-02-21T11:38:56Z</time>
      </trkpt>
      <trkpt lat="45.82374" lon="3.60762">
        <ele>633</ele>
        <time>2021-02-21T11:38:58Z</time>
      </trkpt>
      <trkpt lat="45.82371" lon="3.60764">
        <ele>633</ele>
        <time>2021-02-21T11:39:00Z</time>
      </trkpt>
      <trkpt lat="45.82369" lon="3.60766">
        <ele>633</ele>
        <time>2021-02-21T11:39:02Z</time>
      </trkpt>
      <trkpt lat="45.82366" lon="3.60768">
        <ele>632</ele>
        <time>2021-02-21T11:39:04Z</time>
      </trkpt>
      <trkpt lat="45.82364" lon="3.60769">
        <ele>632</ele>
        <time>2021-02-21T11:39:06Z</time>
      </trkpt>
      <trkpt lat="45.82361" lon="3.6077">
        <ele>632</ele>
        <time>2021-02-21T11:39:08Z</time>
      </trkpt>
      <trkpt lat="45.82358" lon="3.60772">
        <ele>632</ele>
        <time>2021-02-21T11:39:10Z</time>
      </trkpt>
      <trkpt lat="45.82356" lon="3.60774">
        <ele>632</ele>
        <time>2021-02-21T11:39:12Z</time>
      </trkpt>
      <trkpt lat="45.82353" lon="3.60776">
        <ele>631</ele>
        <time>2021-02-21T11:39:14Z</time>
      </trkpt>
      <trkpt lat="45.8235" lon="3.60777">
        <ele>631</ele>
        <time>2021-02-21T11:39:16Z</time>
      </trkpt>
      <trkpt lat="45.82348" lon="3.60777">
        <ele>631</ele>
        <time>2021-02-21T11:39:18Z</time>
      </trkpt>
      <trkpt lat="45.82345" lon="3.60778">
        <ele>631</ele>
        <time>2021-02-21T11:39:20Z</time>
      </trkpt>
      <trkpt lat="45.82342" lon="3.60778">
        <ele>631</ele>
        <time>2021-02-21T11:39:22Z</time>
      </trkpt>
      <trkpt lat="45.8234" lon="3.60778">
        <ele>631</ele>
        <time>2021-02-21T11:39:24Z</time>
      </trkpt>
      <trkpt lat="45.82337" lon="3.60777">
        <ele>631</ele>
        <time>2021-02-21T11:39:26Z</time>
      </trkpt>
      <trkpt lat="45.82334" lon="3.60776">
        <ele>631</ele>
        <time>2021-02-21T11:39:28Z</time>
      </trkpt>
      <trkpt lat="45.82331" lon="3.60774">
        <ele>630</ele>
        <time>2021-02-21T11:39:30Z</time>
      </trkpt>
      <trkpt lat="45.82328" lon="3.60772">
        <ele>630</ele>
        <time>2021-02-21T11:39:32Z</time>
      </trkpt>
      <trkpt lat="45.82327" lon="3.60769">
        <ele>630</ele>
        <time>2021-02-21T11:39:34Z</time>
      </trkpt>
      <trkpt lat="45.82325" lon="3.60765">
        <ele>630</ele>
        <time>2021-02-21T11:39:36Z</time>
      </trkpt>
      <trkpt lat="45.82322" lon="3.60762">
        <ele>630</ele>
        <time>2021-02-21T11:39:38Z</time>
      </trkpt>
      <trkpt lat="45.8232" lon="3.6076">
        <ele>630</ele>
        <time>2021-02-21T11:39:40Z</time>
      </trkpt>
      <trkpt lat="45.82317" lon="3.60758">
        <ele>630</ele>
        <time>2021-02-21T11:39:42Z</time>
      </trkpt>
      <trkpt lat="45.82315" lon="3.60755">
        <ele>630</ele>
        <time>2021-02-21T11:39:44Z</time>
      </trkpt>
      <trkpt lat="45.82312" lon="3.60753">
        <ele>630</ele>
        <time>2021-02-21T11:39:46Z</time>
      </trkpt>
      <trkpt lat="45.8231" lon="3.6075">
        <ele>630</ele>
        <time>2021-02-21T11:39:48Z</time>
      </trkpt>
      <trkpt lat="45.82308" lon="3.60747">
        <ele>630</ele>
        <time>2021-02-21T11:39:50Z</time>
      </trkpt>
      <trkpt lat="45.82306" lon="3.60744">
        <ele>630</ele>
        <time>2021-02-21T11:39:52Z</time>
      </trkpt>
      <trkpt lat="45.82304" lon="3.60743">
        <ele>630</ele>
        <time>2021-02-21T11:39:54Z</time>
      </trkpt>
      <trkpt lat="45.82302" lon="3.6074">
        <ele>630</ele>
        <time>2021-02-21T11:39:56Z</time>
      </trkpt>
      <trkpt lat="45.82299" lon="3.60736">
        <ele>630</ele>
        <time>2021-02-21T11:39:58Z</time>
      </trkpt>
      <trkpt lat="45.82297" lon="3.60734">
        <ele>629</ele>
        <time>2021-02-21T11:40:00Z</time>
      </trkpt>
      <trkpt lat="45.82294" lon="3.60733">
        <ele>629</ele>
        <time>2021-02-21T11:40:02Z</time>
      </trkpt>
      <trkpt lat="45.82291" lon="3.60733">
        <ele>629</ele>
        <time>2021-02-21T11:40:04Z</time>
      </trkpt>
      <trkpt lat="45.82288" lon="3.60733">
        <ele>629</ele>
        <time>2021-02-21T11:40:06Z</time>
      </trkpt>
      <trkpt lat="45.82289" lon="3.6073">
        <ele>629</ele>
        <time>2021-02-21T11:40:11Z</time>
      </trkpt>
      <trkpt lat="45.8229" lon="3.60729">
        <ele>629</ele>
        <time>2021-02-21T11:41:10Z</time>
      </trkpt>
      <trkpt lat="45.8229" lon="3.60725">
        <ele>629</ele>
        <time>2021-02-21T11:41:15Z</time>
      </trkpt>
      <trkpt lat="45.82288" lon="3.60721">
        <ele>629</ele>
        <time>2021-02-21T11:41:17Z</time>
      </trkpt>
      <trkpt lat="45.82286" lon="3.60718">
        <ele>629</ele>
        <time>2021-02-21T11:41:19Z</time>
      </trkpt>
      <trkpt lat="45.82285" lon="3.60714">
        <ele>629</ele>
        <time>2021-02-21T11:41:21Z</time>
      </trkpt>
      <trkpt lat="45.82284" lon="3.60711">
        <ele>629</ele>
        <time>2021-02-21T11:41:23Z</time>
      </trkpt>
      <trkpt lat="45.82282" lon="3.60706">
        <ele>629</ele>
        <time>2021-02-21T11:41:25Z</time>
      </trkpt>
      <trkpt lat="45.82281" lon="3.60702">
        <ele>629</ele>
        <time>2021-02-21T11:41:27Z</time>
      </trkpt>
      <trkpt lat="45.8228" lon="3.60698">
        <ele>629</ele>
        <time>2021-02-21T11:41:29Z</time>
      </trkpt>
      <trkpt lat="45.82278" lon="3.60694">
        <ele>629</ele>
        <time>2021-02-21T11:41:31Z</time>
      </trkpt>
      <trkpt lat="45.82277" lon="3.6069">
        <ele>629</ele>
        <time>2021-02-21T11:41:33Z</time>
      </trkpt>
      <trkpt lat="45.82276" lon="3.60686">
        <ele>629</ele>
        <time>2021-02-21T11:41:35Z</time>
      </trkpt>
      <trkpt lat="45.82275" lon="3.60682">
        <ele>628</ele>
        <time>2021-02-21T11:41:37Z</time>
      </trkpt>
      <trkpt lat="45.82273" lon="3.60678">
        <ele>628</ele>
        <time>2021-02-21T11:41:39Z</time>
      </trkpt>
      <trkpt lat="45.82272" lon="3.60675">
        <ele>628</ele>
        <time>2021-02-21T11:41:41Z</time>
      </trkpt>
      <trkpt lat="45.82271" lon="3.60673">
        <ele>627</ele>
        <time>2021-02-21T11:41:43Z</time>
      </trkpt>
      <trkpt lat="45.82268" lon="3.60671">
        <ele>627</ele>
        <time>2021-02-21T11:41:45Z</time>
      </trkpt>
      <trkpt lat="45.82266" lon="3.60669">
        <ele>627</ele>
        <time>2021-02-21T11:41:47Z</time>
      </trkpt>
      <trkpt lat="45.82263" lon="3.60668">
        <ele>626</ele>
        <time>2021-02-21T11:41:49Z</time>
      </trkpt>
      <trkpt lat="45.82261" lon="3.60667">
        <ele>626</ele>
        <time>2021-02-21T11:41:51Z</time>
      </trkpt>
      <trkpt lat="45.82259" lon="3.60666">
        <ele>626</ele>
        <time>2021-02-21T11:41:53Z</time>
      </trkpt>
      <trkpt lat="45.82257" lon="3.60666">
        <ele>626</ele>
        <time>2021-02-21T11:41:55Z</time>
      </trkpt>
      <trkpt lat="45.82254" lon="3.60665">
        <ele>626</ele>
        <time>2021-02-21T11:41:57Z</time>
      </trkpt>
      <trkpt lat="45.82252" lon="3.60665">
        <ele>626</ele>
        <time>2021-02-21T11:41:59Z</time>
      </trkpt>
      <trkpt lat="45.82248" lon="3.60664">
        <ele>626</ele>
        <time>2021-02-21T11:42:01Z</time>
      </trkpt>
      <trkpt lat="45.82246" lon="3.60664">
        <ele>626</ele>
        <time>2021-02-21T11:42:02Z</time>
      </trkpt>
      <trkpt lat="45.82244" lon="3.60665">
        <ele>626</ele>
        <time>2021-02-21T11:42:04Z</time>
      </trkpt>
      <trkpt lat="45.82241" lon="3.60666">
        <ele>626</ele>
        <time>2021-02-21T11:42:06Z</time>
      </trkpt>
      <trkpt lat="45.82238" lon="3.60666">
        <ele>626</ele>
        <time>2021-02-21T11:42:08Z</time>
      </trkpt>
      <trkpt lat="45.82237" lon="3.60666">
        <ele>626</ele>
        <time>2021-02-21T11:42:09Z</time>
      </trkpt>
      <trkpt lat="45.82233" lon="3.60665">
        <ele>626</ele>
        <time>2021-02-21T11:42:11Z</time>
      </trkpt>
      <trkpt lat="45.8223" lon="3.60665">
        <ele>626</ele>
        <time>2021-02-21T11:42:13Z</time>
      </trkpt>
      <trkpt lat="45.82227" lon="3.60664">
        <ele>626</ele>
        <time>2021-02-21T11:42:15Z</time>
      </trkpt>
      <trkpt lat="45.82224" lon="3.60664">
        <ele>626</ele>
        <time>2021-02-21T11:42:17Z</time>
      </trkpt>
      <trkpt lat="45.82221" lon="3.60664">
        <ele>625</ele>
        <time>2021-02-21T11:42:19Z</time>
      </trkpt>
      <trkpt lat="45.82218" lon="3.60664">
        <ele>625</ele>
        <time>2021-02-21T11:42:21Z</time>
      </trkpt>
      <trkpt lat="45.82215" lon="3.60664">
        <ele>625</ele>
        <time>2021-02-21T11:42:23Z</time>
      </trkpt>
      <trkpt lat="45.82212" lon="3.60663">
        <ele>625</ele>
        <time>2021-02-21T11:42:25Z</time>
      </trkpt>
      <trkpt lat="45.82209" lon="3.60662">
        <ele>625</ele>
        <time>2021-02-21T11:42:27Z</time>
      </trkpt>
      <trkpt lat="45.82207" lon="3.60661">
        <ele>625</ele>
        <time>2021-02-21T11:42:29Z</time>
      </trkpt>
      <trkpt lat="45.82204" lon="3.6066">
        <ele>625</ele>
        <time>2021-02-21T11:42:31Z</time>
      </trkpt>
      <trkpt lat="45.82201" lon="3.60659">
        <ele>625</ele>
        <time>2021-02-21T11:42:33Z</time>
      </trkpt>
      <trkpt lat="45.82198" lon="3.60658">
        <ele>625</ele>
        <time>2021-02-21T11:42:35Z</time>
      </trkpt>
      <trkpt lat="45.82194" lon="3.60657">
        <ele>625</ele>
        <time>2021-02-21T11:42:37Z</time>
      </trkpt>
      <trkpt lat="45.82192" lon="3.60656">
        <ele>624</ele>
        <time>2021-02-21T11:42:39Z</time>
      </trkpt>
      <trkpt lat="45.82189" lon="3.60656">
        <ele>624</ele>
        <time>2021-02-21T11:42:41Z</time>
      </trkpt>
      <trkpt lat="45.82186" lon="3.60656">
        <ele>624</ele>
        <time>2021-02-21T11:42:43Z</time>
      </trkpt>
      <trkpt lat="45.82183" lon="3.60657">
        <ele>624</ele>
        <time>2021-02-21T11:42:45Z</time>
      </trkpt>
      <trkpt lat="45.82181" lon="3.60656">
        <ele>624</ele>
        <time>2021-02-21T11:42:47Z</time>
      </trkpt>
      <trkpt lat="45.82178" lon="3.60655">
        <ele>624</ele>
        <time>2021-02-21T11:42:49Z</time>
      </trkpt>
      <trkpt lat="45.82175" lon="3.60653">
        <ele>624</ele>
        <time>2021-02-21T11:42:51Z</time>
      </trkpt>
      <trkpt lat="45.82174" lon="3.60651">
        <ele>624</ele>
        <time>2021-02-21T11:42:53Z</time>
      </trkpt>
      <trkpt lat="45.82175" lon="3.60653">
        <ele>624</ele>
        <time>2021-02-21T11:42:59Z</time>
      </trkpt>
      <trkpt lat="45.82172" lon="3.60651">
        <ele>624</ele>
        <time>2021-02-21T11:43:03Z</time>
      </trkpt>
      <trkpt lat="45.82171" lon="3.60647">
        <ele>624</ele>
        <time>2021-02-21T11:43:05Z</time>
      </trkpt>
      <trkpt lat="45.8217" lon="3.60642">
        <ele>624</ele>
        <time>2021-02-21T11:43:07Z</time>
      </trkpt>
      <trkpt lat="45.82168" lon="3.60638">
        <ele>623</ele>
        <time>2021-02-21T11:43:09Z</time>
      </trkpt>
      <trkpt lat="45.82167" lon="3.60634">
        <ele>623</ele>
        <time>2021-02-21T11:43:11Z</time>
      </trkpt>
      <trkpt lat="45.82165" lon="3.60631">
        <ele>623</ele>
        <time>2021-02-21T11:43:13Z</time>
      </trkpt>
      <trkpt lat="45.82164" lon="3.60628">
        <ele>623</ele>
        <time>2021-02-21T11:43:15Z</time>
      </trkpt>
      <trkpt lat="45.82162" lon="3.60624">
        <ele>622</ele>
        <time>2021-02-21T11:43:17Z</time>
      </trkpt>
      <trkpt lat="45.8216" lon="3.6062">
        <ele>622</ele>
        <time>2021-02-21T11:43:19Z</time>
      </trkpt>
      <trkpt lat="45.82159" lon="3.60617">
        <ele>622</ele>
        <time>2021-02-21T11:43:21Z</time>
      </trkpt>
      <trkpt lat="45.82158" lon="3.60612">
        <ele>621</ele>
        <time>2021-02-21T11:43:23Z</time>
      </trkpt>
      <trkpt lat="45.82157" lon="3.60609">
        <ele>621</ele>
        <time>2021-02-21T11:43:25Z</time>
      </trkpt>
      <trkpt lat="45.82156" lon="3.60605">
        <ele>620</ele>
        <time>2021-02-21T11:43:27Z</time>
      </trkpt>
      <trkpt lat="45.82156" lon="3.60601">
        <ele>620</ele>
        <time>2021-02-21T11:43:29Z</time>
      </trkpt>
      <trkpt lat="45.82155" lon="3.60597">
        <ele>620</ele>
        <time>2021-02-21T11:43:31Z</time>
      </trkpt>
      <trkpt lat="45.82152" lon="3.60593">
        <ele>619</ele>
        <time>2021-02-21T11:43:33Z</time>
      </trkpt>
      <trkpt lat="45.8215" lon="3.60591">
        <ele>619</ele>
        <time>2021-02-21T11:43:35Z</time>
      </trkpt>
      <trkpt lat="45.82148" lon="3.60589">
        <ele>618</ele>
        <time>2021-02-21T11:43:37Z</time>
      </trkpt>
      <trkpt lat="45.82146" lon="3.60588">
        <ele>618</ele>
        <time>2021-02-21T11:43:39Z</time>
      </trkpt>
      <trkpt lat="45.82144" lon="3.60586">
        <ele>618</ele>
        <time>2021-02-21T11:43:41Z</time>
      </trkpt>
      <trkpt lat="45.82142" lon="3.60584">
        <ele>618</ele>
        <time>2021-02-21T11:43:43Z</time>
      </trkpt>
      <trkpt lat="45.82141" lon="3.60582">
        <ele>617</ele>
        <time>2021-02-21T11:43:45Z</time>
      </trkpt>
      <trkpt lat="45.82139" lon="3.6058">
        <ele>617</ele>
        <time>2021-02-21T11:43:47Z</time>
      </trkpt>
      <trkpt lat="45.82137" lon="3.60578">
        <ele>617</ele>
        <time>2021-02-21T11:43:49Z</time>
      </trkpt>
      <trkpt lat="45.82135" lon="3.60576">
        <ele>617</ele>
        <time>2021-02-21T11:43:51Z</time>
      </trkpt>
      <trkpt lat="45.82133" lon="3.60574">
        <ele>616</ele>
        <time>2021-02-21T11:43:53Z</time>
      </trkpt>
      <trkpt lat="45.82131" lon="3.60573">
        <ele>616</ele>
        <time>2021-02-21T11:43:55Z</time>
      </trkpt>
      <trkpt lat="45.82129" lon="3.60571">
        <ele>616</ele>
        <time>2021-02-21T11:43:56Z</time>
      </trkpt>
      <trkpt lat="45.82126" lon="3.6057">
        <ele>616</ele>
        <time>2021-02-21T11:43:58Z</time>
      </trkpt>
      <trkpt lat="45.82125" lon="3.60568">
        <ele>616</ele>
        <time>2021-02-21T11:43:59Z</time>
      </trkpt>
      <trkpt lat="45.82122" lon="3.60566">
        <ele>616</ele>
        <time>2021-02-21T11:44:01Z</time>
      </trkpt>
      <trkpt lat="45.82119" lon="3.60565">
        <ele>616</ele>
        <time>2021-02-21T11:44:03Z</time>
      </trkpt>
      <trkpt lat="45.82117" lon="3.60564">
        <ele>616</ele>
        <time>2021-02-21T11:44:05Z</time>
      </trkpt>
      <trkpt lat="45.82115" lon="3.60562">
        <ele>615</ele>
        <time>2021-02-21T11:44:07Z</time>
      </trkpt>
      <trkpt lat="45.82113" lon="3.60561">
        <ele>615</ele>
        <time>2021-02-21T11:44:09Z</time>
      </trkpt>
      <trkpt lat="45.8211" lon="3.6056">
        <ele>615</ele>
        <time>2021-02-21T11:44:11Z</time>
      </trkpt>
      <trkpt lat="45.82107" lon="3.6056">
        <ele>615</ele>
        <time>2021-02-21T11:44:13Z</time>
      </trkpt>
      <trkpt lat="45.82104" lon="3.60558">
        <ele>615</ele>
        <time>2021-02-21T11:44:15Z</time>
      </trkpt>
      <trkpt lat="45.82101" lon="3.60558">
        <ele>615</ele>
        <time>2021-02-21T11:44:17Z</time>
      </trkpt>
      <trkpt lat="45.82098" lon="3.60558">
        <ele>615</ele>
        <time>2021-02-21T11:44:19Z</time>
      </trkpt>
      <trkpt lat="45.82095" lon="3.60558">
        <ele>615</ele>
        <time>2021-02-21T11:44:21Z</time>
      </trkpt>
      <trkpt lat="45.82093" lon="3.60558">
        <ele>615</ele>
        <time>2021-02-21T11:44:23Z</time>
      </trkpt>
      <trkpt lat="45.82091" lon="3.60558">
        <ele>615</ele>
        <time>2021-02-21T11:44:26Z</time>
      </trkpt>
      <trkpt lat="45.82089" lon="3.60559">
        <ele>615</ele>
        <time>2021-02-21T11:44:28Z</time>
      </trkpt>
      <trkpt lat="45.82087" lon="3.60561">
        <ele>615</ele>
        <time>2021-02-21T11:44:30Z</time>
      </trkpt>
      <trkpt lat="45.82085" lon="3.60562">
        <ele>615</ele>
        <time>2021-02-21T11:44:32Z</time>
      </trkpt>
      <trkpt lat="45.82082" lon="3.60564">
        <ele>615</ele>
        <time>2021-02-21T11:44:34Z</time>
      </trkpt>
      <trkpt lat="45.8208" lon="3.60565">
        <ele>615</ele>
        <time>2021-02-21T11:44:36Z</time>
      </trkpt>
      <trkpt lat="45.82078" lon="3.60567">
        <ele>614</ele>
        <time>2021-02-21T11:44:38Z</time>
      </trkpt>
      <trkpt lat="45.82076" lon="3.60569">
        <ele>614</ele>
        <time>2021-02-21T11:44:40Z</time>
      </trkpt>
      <trkpt lat="45.82073" lon="3.6057">
        <ele>614</ele>
        <time>2021-02-21T11:44:42Z</time>
      </trkpt>
      <trkpt lat="45.82071" lon="3.6057">
        <ele>614</ele>
        <time>2021-02-21T11:44:44Z</time>
      </trkpt>
      <trkpt lat="45.82068" lon="3.6057">
        <ele>613</ele>
        <time>2021-02-21T11:44:46Z</time>
      </trkpt>
      <trkpt lat="45.82066" lon="3.60571">
        <ele>613</ele>
        <time>2021-02-21T11:44:47Z</time>
      </trkpt>
      <trkpt lat="45.82062" lon="3.60572">
        <ele>613</ele>
        <time>2021-02-21T11:44:49Z</time>
      </trkpt>
      <trkpt lat="45.8206" lon="3.60573">
        <ele>612</ele>
        <time>2021-02-21T11:44:51Z</time>
      </trkpt>
      <trkpt lat="45.82057" lon="3.60573">
        <ele>612</ele>
        <time>2021-02-21T11:44:53Z</time>
      </trkpt>
      <trkpt lat="45.82053" lon="3.60573">
        <ele>611</ele>
        <time>2021-02-21T11:44:55Z</time>
      </trkpt>
      <trkpt lat="45.82051" lon="3.60572">
        <ele>611</ele>
        <time>2021-02-21T11:44:57Z</time>
      </trkpt>
      <trkpt lat="45.82048" lon="3.60572">
        <ele>611</ele>
        <time>2021-02-21T11:44:59Z</time>
      </trkpt>
      <trkpt lat="45.82045" lon="3.6057">
        <ele>610</ele>
        <time>2021-02-21T11:45:01Z</time>
      </trkpt>
      <trkpt lat="45.82042" lon="3.60569">
        <ele>610</ele>
        <time>2021-02-21T11:45:03Z</time>
      </trkpt>
      <trkpt lat="45.82039" lon="3.60567">
        <ele>609</ele>
        <time>2021-02-21T11:45:05Z</time>
      </trkpt>
      <trkpt lat="45.82036" lon="3.60566">
        <ele>609</ele>
        <time>2021-02-21T11:45:07Z</time>
      </trkpt>
      <trkpt lat="45.82033" lon="3.60565">
        <ele>609</ele>
        <time>2021-02-21T11:45:09Z</time>
      </trkpt>
      <trkpt lat="45.8203" lon="3.60564">
        <ele>608</ele>
        <time>2021-02-21T11:45:11Z</time>
      </trkpt>
      <trkpt lat="45.82027" lon="3.60564">
        <ele>608</ele>
        <time>2021-02-21T11:45:13Z</time>
      </trkpt>
      <trkpt lat="45.82024" lon="3.60563">
        <ele>607</ele>
        <time>2021-02-21T11:45:15Z</time>
      </trkpt>
      <trkpt lat="45.82022" lon="3.6056">
        <ele>607</ele>
        <time>2021-02-21T11:45:17Z</time>
      </trkpt>
      <trkpt lat="45.82019" lon="3.60559">
        <ele>607</ele>
        <time>2021-02-21T11:45:19Z</time>
      </trkpt>
      <trkpt lat="45.82017" lon="3.60557">
        <ele>607</ele>
        <time>2021-02-21T11:45:21Z</time>
      </trkpt>
      <trkpt lat="45.82015" lon="3.60555">
        <ele>607</ele>
        <time>2021-02-21T11:45:23Z</time>
      </trkpt>
      <trkpt lat="45.82013" lon="3.60553">
        <ele>606</ele>
        <time>2021-02-21T11:45:25Z</time>
      </trkpt>
      <trkpt lat="45.8201" lon="3.60551">
        <ele>606</ele>
        <time>2021-02-21T11:45:27Z</time>
      </trkpt>
      <trkpt lat="45.82008" lon="3.60549">
        <ele>606</ele>
        <time>2021-02-21T11:45:29Z</time>
      </trkpt>
      <trkpt lat="45.82005" lon="3.60547">
        <ele>605</ele>
        <time>2021-02-21T11:45:31Z</time>
      </trkpt>
      <trkpt lat="45.82004" lon="3.60545">
        <ele>605</ele>
        <time>2021-02-21T11:45:33Z</time>
      </trkpt>
      <trkpt lat="45.82001" lon="3.60542">
        <ele>605</ele>
        <time>2021-02-21T11:45:35Z</time>
      </trkpt>
      <trkpt lat="45.81999" lon="3.6054">
        <ele>604</ele>
        <time>2021-02-21T11:45:37Z</time>
      </trkpt>
      <trkpt lat="45.81997" lon="3.60538">
        <ele>604</ele>
        <time>2021-02-21T11:45:39Z</time>
      </trkpt>
      <trkpt lat="45.81994" lon="3.60537">
        <ele>604</ele>
        <time>2021-02-21T11:45:42Z</time>
      </trkpt>
      <trkpt lat="45.81992" lon="3.60536">
        <ele>603</ele>
        <time>2021-02-21T11:45:44Z</time>
      </trkpt>
      <trkpt lat="45.8199" lon="3.60535">
        <ele>603</ele>
        <time>2021-02-21T11:45:45Z</time>
      </trkpt>
      <trkpt lat="45.81987" lon="3.60534">
        <ele>602</ele>
        <time>2021-02-21T11:45:47Z</time>
      </trkpt>
      <trkpt lat="45.81984" lon="3.60533">
        <ele>602</ele>
        <time>2021-02-21T11:45:49Z</time>
      </trkpt>
      <trkpt lat="45.81982" lon="3.60532">
        <ele>602</ele>
        <time>2021-02-21T11:45:51Z</time>
      </trkpt>
      <trkpt lat="45.8198" lon="3.60531">
        <ele>602</ele>
        <time>2021-02-21T11:45:53Z</time>
      </trkpt>
      <trkpt lat="45.81978" lon="3.6053">
        <ele>601</ele>
        <time>2021-02-21T11:45:54Z</time>
      </trkpt>
      <trkpt lat="45.81976" lon="3.6053">
        <ele>601</ele>
        <time>2021-02-21T11:45:56Z</time>
      </trkpt>
      <trkpt lat="45.81972" lon="3.60528">
        <ele>601</ele>
        <time>2021-02-21T11:45:58Z</time>
      </trkpt>
      <trkpt lat="45.8197" lon="3.60527">
        <ele>600</ele>
        <time>2021-02-21T11:46:00Z</time>
      </trkpt>
      <trkpt lat="45.81967" lon="3.60527">
        <ele>600</ele>
        <time>2021-02-21T11:46:02Z</time>
      </trkpt>
      <trkpt lat="45.81965" lon="3.60526">
        <ele>599</ele>
        <time>2021-02-21T11:46:04Z</time>
      </trkpt>
      <trkpt lat="45.81962" lon="3.60526">
        <ele>599</ele>
        <time>2021-02-21T11:46:06Z</time>
      </trkpt>
      <trkpt lat="45.8196" lon="3.60526">
        <ele>599</ele>
        <time>2021-02-21T11:46:08Z</time>
      </trkpt>
      <trkpt lat="45.81957" lon="3.60526">
        <ele>598</ele>
        <time>2021-02-21T11:46:10Z</time>
      </trkpt>
      <trkpt lat="45.81954" lon="3.60525">
        <ele>598</ele>
        <time>2021-02-21T11:46:12Z</time>
      </trkpt>
      <trkpt lat="45.81952" lon="3.60525">
        <ele>598</ele>
        <time>2021-02-21T11:46:14Z</time>
      </trkpt>
      <trkpt lat="45.81949" lon="3.60525">
        <ele>597</ele>
        <time>2021-02-21T11:46:16Z</time>
      </trkpt>
      <trkpt lat="45.81946" lon="3.60525">
        <ele>597</ele>
        <time>2021-02-21T11:46:18Z</time>
      </trkpt>
      <trkpt lat="45.81944" lon="3.60525">
        <ele>596</ele>
        <time>2021-02-21T11:46:19Z</time>
      </trkpt>
      <trkpt lat="45.81941" lon="3.60525">
        <ele>596</ele>
        <time>2021-02-21T11:46:21Z</time>
      </trkpt>
      <trkpt lat="45.81939" lon="3.60526">
        <ele>596</ele>
        <time>2021-02-21T11:46:22Z</time>
      </trkpt>
      <trkpt lat="45.81937" lon="3.60526">
        <ele>596</ele>
        <time>2021-02-21T11:46:24Z</time>
      </trkpt>
      <trkpt lat="45.81934" lon="3.60525">
        <ele>596</ele>
        <time>2021-02-21T11:46:26Z</time>
      </trkpt>
      <trkpt lat="45.81932" lon="3.60523">
        <ele>596</ele>
        <time>2021-02-21T11:46:28Z</time>
      </trkpt>
      <trkpt lat="45.81931" lon="3.6052">
        <ele>596</ele>
        <time>2021-02-21T11:46:30Z</time>
      </trkpt>
      <trkpt lat="45.81928" lon="3.60516">
        <ele>596</ele>
        <time>2021-02-21T11:46:32Z</time>
      </trkpt>
      <trkpt lat="45.81927" lon="3.60512">
        <ele>595</ele>
        <time>2021-02-21T11:46:34Z</time>
      </trkpt>
      <trkpt lat="45.81926" lon="3.60507">
        <ele>595</ele>
        <time>2021-02-21T11:46:36Z</time>
      </trkpt>
      <trkpt lat="45.81925" lon="3.60502">
        <ele>595</ele>
        <time>2021-02-21T11:46:38Z</time>
      </trkpt>
      <trkpt lat="45.81924" lon="3.60498">
        <ele>595</ele>
        <time>2021-02-21T11:46:40Z</time>
      </trkpt>
      <trkpt lat="45.81924" lon="3.60493">
        <ele>595</ele>
        <time>2021-02-21T11:46:42Z</time>
      </trkpt>
      <trkpt lat="45.81923" lon="3.60488">
        <ele>595</ele>
        <time>2021-02-21T11:46:44Z</time>
      </trkpt>
      <trkpt lat="45.81922" lon="3.60484">
        <ele>595</ele>
        <time>2021-02-21T11:46:46Z</time>
      </trkpt>
      <trkpt lat="45.81921" lon="3.6048">
        <ele>595</ele>
        <time>2021-02-21T11:46:48Z</time>
      </trkpt>
      <trkpt lat="45.8192" lon="3.60476">
        <ele>595</ele>
        <time>2021-02-21T11:46:50Z</time>
      </trkpt>
      <trkpt lat="45.8192" lon="3.60472">
        <ele>595</ele>
        <time>2021-02-21T11:46:52Z</time>
      </trkpt>
      <trkpt lat="45.81919" lon="3.60468">
        <ele>595</ele>
        <time>2021-02-21T11:46:54Z</time>
      </trkpt>
      <trkpt lat="45.81918" lon="3.60464">
        <ele>595</ele>
        <time>2021-02-21T11:46:56Z</time>
      </trkpt>
      <trkpt lat="45.81917" lon="3.60459">
        <ele>595</ele>
        <time>2021-02-21T11:46:58Z</time>
      </trkpt>
      <trkpt lat="45.81917" lon="3.60455">
        <ele>595</ele>
        <time>2021-02-21T11:47:00Z</time>
      </trkpt>
      <trkpt lat="45.81917" lon="3.60451">
        <ele>595</ele>
        <time>2021-02-21T11:47:02Z</time>
      </trkpt>
      <trkpt lat="45.81917" lon="3.60448">
        <ele>595</ele>
        <time>2021-02-21T11:47:04Z</time>
      </trkpt>
      <trkpt lat="45.81918" lon="3.60444">
        <ele>595</ele>
        <time>2021-02-21T11:47:06Z</time>
      </trkpt>
      <trkpt lat="45.81917" lon="3.6044">
        <ele>595</ele>
        <time>2021-02-21T11:47:08Z</time>
      </trkpt>
      <trkpt lat="45.81917" lon="3.60435">
        <ele>595</ele>
        <time>2021-02-21T11:47:10Z</time>
      </trkpt>
      <trkpt lat="45.81917" lon="3.60431">
        <ele>595</ele>
        <time>2021-02-21T11:47:12Z</time>
      </trkpt>
      <trkpt lat="45.81917" lon="3.60427">
        <ele>595</ele>
        <time>2021-02-21T11:47:14Z</time>
      </trkpt>
      <trkpt lat="45.81917" lon="3.60423">
        <ele>595</ele>
        <time>2021-02-21T11:47:16Z</time>
      </trkpt>
      <trkpt lat="45.81917" lon="3.60419">
        <ele>595</ele>
        <time>2021-02-21T11:47:18Z</time>
      </trkpt>
      <trkpt lat="45.81917" lon="3.60415">
        <ele>595</ele>
        <time>2021-02-21T11:47:20Z</time>
      </trkpt>
      <trkpt lat="45.81917" lon="3.60411">
        <ele>595</ele>
        <time>2021-02-21T11:47:22Z</time>
      </trkpt>
      <trkpt lat="45.81917" lon="3.60407">
        <ele>595</ele>
        <time>2021-02-21T11:47:24Z</time>
      </trkpt>
      <trkpt lat="45.81917" lon="3.60403">
        <ele>594</ele>
        <time>2021-02-21T11:47:26Z</time>
      </trkpt>
      <trkpt lat="45.81917" lon="3.60399">
        <ele>594</ele>
        <time>2021-02-21T11:47:28Z</time>
      </trkpt>
      <trkpt lat="45.81917" lon="3.60395">
        <ele>594</ele>
        <time>2021-02-21T11:47:30Z</time>
      </trkpt>
      <trkpt lat="45.81917" lon="3.60391">
        <ele>593</ele>
        <time>2021-02-21T11:47:32Z</time>
      </trkpt>
      <trkpt lat="45.81918" lon="3.60387">
        <ele>593</ele>
        <time>2021-02-21T11:47:34Z</time>
      </trkpt>
      <trkpt lat="45.81918" lon="3.60383">
        <ele>593</ele>
        <time>2021-02-21T11:47:36Z</time>
      </trkpt>
      <trkpt lat="45.81918" lon="3.60379">
        <ele>593</ele>
        <time>2021-02-21T11:47:38Z</time>
      </trkpt>
      <trkpt lat="45.81919" lon="3.60375">
        <ele>593</ele>
        <time>2021-02-21T11:47:40Z</time>
      </trkpt>
      <trkpt lat="45.81919" lon="3.60371">
        <ele>592</ele>
        <time>2021-02-21T11:47:42Z</time>
      </trkpt>
      <trkpt lat="45.81919" lon="3.60367">
        <ele>592</ele>
        <time>2021-02-21T11:47:44Z</time>
      </trkpt>
      <trkpt lat="45.81919" lon="3.60363">
        <ele>592</ele>
        <time>2021-02-21T11:47:46Z</time>
      </trkpt>
      <trkpt lat="45.81919" lon="3.60359">
        <ele>592</ele>
        <time>2021-02-21T11:47:48Z</time>
      </trkpt>
      <trkpt lat="45.8192" lon="3.60355">
        <ele>592</ele>
        <time>2021-02-21T11:47:50Z</time>
      </trkpt>
      <trkpt lat="45.8192" lon="3.60351">
        <ele>592</ele>
        <time>2021-02-21T11:47:52Z</time>
      </trkpt>
      <trkpt lat="45.8192" lon="3.60347">
        <ele>591</ele>
        <time>2021-02-21T11:47:54Z</time>
      </trkpt>
      <trkpt lat="45.8192" lon="3.60343">
        <ele>591</ele>
        <time>2021-02-21T11:47:56Z</time>
      </trkpt>
      <trkpt lat="45.81921" lon="3.60339">
        <ele>591</ele>
        <time>2021-02-21T11:47:58Z</time>
      </trkpt>
      <trkpt lat="45.81921" lon="3.60335">
        <ele>591</ele>
        <time>2021-02-21T11:48:00Z</time>
      </trkpt>
      <trkpt lat="45.81921" lon="3.60331">
        <ele>590</ele>
        <time>2021-02-21T11:48:02Z</time>
      </trkpt>
      <trkpt lat="45.81922" lon="3.60327">
        <ele>590</ele>
        <time>2021-02-21T11:48:04Z</time>
      </trkpt>
      <trkpt lat="45.81922" lon="3.60323">
        <ele>589</ele>
        <time>2021-02-21T11:48:06Z</time>
      </trkpt>
      <trkpt lat="45.81922" lon="3.60319">
        <ele>589</ele>
        <time>2021-02-21T11:48:08Z</time>
      </trkpt>
      <trkpt lat="45.81923" lon="3.60316">
        <ele>588</ele>
        <time>2021-02-21T11:48:10Z</time>
      </trkpt>
      <trkpt lat="45.81922" lon="3.60312">
        <ele>588</ele>
        <time>2021-02-21T11:48:12Z</time>
      </trkpt>
      <trkpt lat="45.81922" lon="3.60308">
        <ele>588</ele>
        <time>2021-02-21T11:48:14Z</time>
      </trkpt>
      <trkpt lat="45.81922" lon="3.60304">
        <ele>587</ele>
        <time>2021-02-21T11:48:16Z</time>
      </trkpt>
      <trkpt lat="45.81921" lon="3.603">
        <ele>587</ele>
        <time>2021-02-21T11:48:18Z</time>
      </trkpt>
      <trkpt lat="45.81919" lon="3.60296">
        <ele>586</ele>
        <time>2021-02-21T11:48:20Z</time>
      </trkpt>
      <trkpt lat="45.81918" lon="3.60293">
        <ele>586</ele>
        <time>2021-02-21T11:48:22Z</time>
      </trkpt>
      <trkpt lat="45.81916" lon="3.60289">
        <ele>586</ele>
        <time>2021-02-21T11:48:24Z</time>
      </trkpt>
      <trkpt lat="45.81915" lon="3.60286">
        <ele>585</ele>
        <time>2021-02-21T11:48:26Z</time>
      </trkpt>
      <trkpt lat="45.81913" lon="3.60283">
        <ele>585</ele>
        <time>2021-02-21T11:48:28Z</time>
      </trkpt>
      <trkpt lat="45.81911" lon="3.6028">
        <ele>584</ele>
        <time>2021-02-21T11:48:30Z</time>
      </trkpt>
      <trkpt lat="45.81909" lon="3.60277">
        <ele>584</ele>
        <time>2021-02-21T11:48:32Z</time>
      </trkpt>
      <trkpt lat="45.81907" lon="3.60274">
        <ele>584</ele>
        <time>2021-02-21T11:48:34Z</time>
      </trkpt>
      <trkpt lat="45.81905" lon="3.60271">
        <ele>584</ele>
        <time>2021-02-21T11:48:36Z</time>
      </trkpt>
      <trkpt lat="45.81903" lon="3.60268">
        <ele>584</ele>
        <time>2021-02-21T11:48:38Z</time>
      </trkpt>
      <trkpt lat="45.81902" lon="3.60265">
        <ele>584</ele>
        <time>2021-02-21T11:48:40Z</time>
      </trkpt>
      <trkpt lat="45.819" lon="3.60262">
        <ele>584</ele>
        <time>2021-02-21T11:48:42Z</time>
      </trkpt>
      <trkpt lat="45.81898" lon="3.60259">
        <ele>584</ele>
        <time>2021-02-21T11:48:44Z</time>
      </trkpt>
      <trkpt lat="45.81896" lon="3.60257">
        <ele>583</ele>
        <time>2021-02-21T11:48:46Z</time>
      </trkpt>
      <trkpt lat="45.81894" lon="3.60254">
        <ele>583</ele>
        <time>2021-02-21T11:48:48Z</time>
      </trkpt>
      <trkpt lat="45.81892" lon="3.60252">
        <ele>583</ele>
        <time>2021-02-21T11:48:50Z</time>
      </trkpt>
      <trkpt lat="45.81889" lon="3.60249">
        <ele>583</ele>
        <time>2021-02-21T11:48:52Z</time>
      </trkpt>
      <trkpt lat="45.81887" lon="3.60246">
        <ele>583</ele>
        <time>2021-02-21T11:48:54Z</time>
      </trkpt>
      <trkpt lat="45.81885" lon="3.60243">
        <ele>583</ele>
        <time>2021-02-21T11:48:56Z</time>
      </trkpt>
      <trkpt lat="45.81883" lon="3.60241">
        <ele>583</ele>
        <time>2021-02-21T11:48:58Z</time>
      </trkpt>
      <trkpt lat="45.81881" lon="3.60238">
        <ele>583</ele>
        <time>2021-02-21T11:49:00Z</time>
      </trkpt>
      <trkpt lat="45.81879" lon="3.60234">
        <ele>583</ele>
        <time>2021-02-21T11:49:02Z</time>
      </trkpt>
      <trkpt lat="45.81877" lon="3.60231">
        <ele>583</ele>
        <time>2021-02-21T11:49:04Z</time>
      </trkpt>
      <trkpt lat="45.81875" lon="3.60228">
        <ele>583</ele>
        <time>2021-02-21T11:49:06Z</time>
      </trkpt>
      <trkpt lat="45.81874" lon="3.60225">
        <ele>583</ele>
        <time>2021-02-21T11:49:08Z</time>
      </trkpt>
      <trkpt lat="45.81872" lon="3.60222">
        <ele>582</ele>
        <time>2021-02-21T11:49:10Z</time>
      </trkpt>
      <trkpt lat="45.81871" lon="3.60219">
        <ele>582</ele>
        <time>2021-02-21T11:49:12Z</time>
      </trkpt>
      <trkpt lat="45.81869" lon="3.60216">
        <ele>582</ele>
        <time>2021-02-21T11:49:14Z</time>
      </trkpt>
      <trkpt lat="45.81868" lon="3.60212">
        <ele>582</ele>
        <time>2021-02-21T11:49:16Z</time>
      </trkpt>
      <trkpt lat="45.81867" lon="3.60209">
        <ele>582</ele>
        <time>2021-02-21T11:49:18Z</time>
      </trkpt>
      <trkpt lat="45.81864" lon="3.60206">
        <ele>582</ele>
        <time>2021-02-21T11:49:20Z</time>
      </trkpt>
      <trkpt lat="45.81862" lon="3.60204">
        <ele>582</ele>
        <time>2021-02-21T11:49:22Z</time>
      </trkpt>
      <trkpt lat="45.8186" lon="3.60203">
        <ele>582</ele>
        <time>2021-02-21T11:49:24Z</time>
      </trkpt>
      <trkpt lat="45.81858" lon="3.60204">
        <ele>582</ele>
        <time>2021-02-21T11:49:26Z</time>
      </trkpt>
      <trkpt lat="45.81857" lon="3.60206">
        <ele>582</ele>
        <time>2021-02-21T11:49:28Z</time>
      </trkpt>
      <trkpt lat="45.81855" lon="3.60209">
        <ele>582</ele>
        <time>2021-02-21T11:49:30Z</time>
      </trkpt>
      <trkpt lat="45.81853" lon="3.60211">
        <ele>581</ele>
        <time>2021-02-21T11:49:32Z</time>
      </trkpt>
      <trkpt lat="45.81852" lon="3.60214">
        <ele>581</ele>
        <time>2021-02-21T11:49:34Z</time>
      </trkpt>
      <trkpt lat="45.81851" lon="3.60217">
        <ele>581</ele>
        <time>2021-02-21T11:49:36Z</time>
      </trkpt>
      <trkpt lat="45.81849" lon="3.6022">
        <ele>581</ele>
        <time>2021-02-21T11:49:38Z</time>
      </trkpt>
      <trkpt lat="45.81848" lon="3.60223">
        <ele>581</ele>
        <time>2021-02-21T11:49:40Z</time>
      </trkpt>
      <trkpt lat="45.81847" lon="3.60227">
        <ele>580</ele>
        <time>2021-02-21T11:49:42Z</time>
      </trkpt>
      <trkpt lat="45.81846" lon="3.60231">
        <ele>580</ele>
        <time>2021-02-21T11:49:44Z</time>
      </trkpt>
      <trkpt lat="45.81845" lon="3.60234">
        <ele>580</ele>
        <time>2021-02-21T11:49:46Z</time>
      </trkpt>
      <trkpt lat="45.81844" lon="3.60237">
        <ele>580</ele>
        <time>2021-02-21T11:49:48Z</time>
      </trkpt>
      <trkpt lat="45.81843" lon="3.6024">
        <ele>580</ele>
        <time>2021-02-21T11:49:50Z</time>
      </trkpt>
      <trkpt lat="45.81843" lon="3.60243">
        <ele>579</ele>
        <time>2021-02-21T11:49:52Z</time>
      </trkpt>
      <trkpt lat="45.81843" lon="3.60247">
        <ele>579</ele>
        <time>2021-02-21T11:49:54Z</time>
      </trkpt>
      <trkpt lat="45.81843" lon="3.60252">
        <ele>579</ele>
        <time>2021-02-21T11:49:56Z</time>
      </trkpt>
      <trkpt lat="45.81843" lon="3.60256">
        <ele>579</ele>
        <time>2021-02-21T11:49:58Z</time>
      </trkpt>
      <trkpt lat="45.81843" lon="3.60259">
        <ele>580</ele>
        <time>2021-02-21T11:50:00Z</time>
      </trkpt>
      <trkpt lat="45.81842" lon="3.60263">
        <ele>580</ele>
        <time>2021-02-21T11:50:02Z</time>
      </trkpt>
      <trkpt lat="45.81841" lon="3.60267">
        <ele>580</ele>
        <time>2021-02-21T11:50:04Z</time>
      </trkpt>
      <trkpt lat="45.81841" lon="3.60271">
        <ele>580</ele>
        <time>2021-02-21T11:50:06Z</time>
      </trkpt>
      <trkpt lat="45.81841" lon="3.60274">
        <ele>580</ele>
        <time>2021-02-21T11:50:08Z</time>
      </trkpt>
      <trkpt lat="45.81841" lon="3.60278">
        <ele>580</ele>
        <time>2021-02-21T11:50:10Z</time>
      </trkpt>
      <trkpt lat="45.81841" lon="3.60282">
        <ele>581</ele>
        <time>2021-02-21T11:50:12Z</time>
      </trkpt>
      <trkpt lat="45.81841" lon="3.60285">
        <ele>581</ele>
        <time>2021-02-21T11:50:14Z</time>
      </trkpt>
      <trkpt lat="45.81841" lon="3.60288">
        <ele>582</ele>
        <time>2021-02-21T11:50:16Z</time>
      </trkpt>
      <trkpt lat="45.81841" lon="3.60291">
        <ele>582</ele>
        <time>2021-02-21T11:50:18Z</time>
      </trkpt>
      <trkpt lat="45.81841" lon="3.60295">
        <ele>583</ele>
        <time>2021-02-21T11:50:20Z</time>
      </trkpt>
      <trkpt lat="45.81842" lon="3.60297">
        <ele>584</ele>
        <time>2021-02-21T11:50:22Z</time>
      </trkpt>
      <trkpt lat="45.81842" lon="3.603">
        <ele>584</ele>
        <time>2021-02-21T11:50:25Z</time>
      </trkpt>
      <trkpt lat="45.81842" lon="3.60304">
        <ele>585</ele>
        <time>2021-02-21T11:50:27Z</time>
      </trkpt>
      <trkpt lat="45.81842" lon="3.60308">
        <ele>585</ele>
        <time>2021-02-21T11:50:29Z</time>
      </trkpt>
      <trkpt lat="45.81843" lon="3.60312">
        <ele>586</ele>
        <time>2021-02-21T11:50:31Z</time>
      </trkpt>
      <trkpt lat="45.81843" lon="3.60316">
        <ele>587</ele>
        <time>2021-02-21T11:50:33Z</time>
      </trkpt>
      <trkpt lat="45.81844" lon="3.60318">
        <ele>587</ele>
        <time>2021-02-21T11:50:35Z</time>
      </trkpt>
      <trkpt lat="45.81844" lon="3.60322">
        <ele>588</ele>
        <time>2021-02-21T11:50:37Z</time>
      </trkpt>
      <trkpt lat="45.81845" lon="3.60326">
        <ele>588</ele>
        <time>2021-02-21T11:50:39Z</time>
      </trkpt>
      <trkpt lat="45.81845" lon="3.6033">
        <ele>589</ele>
        <time>2021-02-21T11:50:41Z</time>
      </trkpt>
      <trkpt lat="45.81845" lon="3.60335">
        <ele>590</ele>
        <time>2021-02-21T11:50:43Z</time>
      </trkpt>
      <trkpt lat="45.81845" lon="3.60338">
        <ele>590</ele>
        <time>2021-02-21T11:50:44Z</time>
      </trkpt>
      <trkpt lat="45.81846" lon="3.60343">
        <ele>590</ele>
        <time>2021-02-21T11:50:46Z</time>
      </trkpt>
      <trkpt lat="45.81846" lon="3.60348">
        <ele>591</ele>
        <time>2021-02-21T11:50:48Z</time>
      </trkpt>
      <trkpt lat="45.81846" lon="3.60352">
        <ele>591</ele>
        <time>2021-02-21T11:50:50Z</time>
      </trkpt>
      <trkpt lat="45.81846" lon="3.60357">
        <ele>591</ele>
        <time>2021-02-21T11:50:52Z</time>
      </trkpt>
      <trkpt lat="45.81847" lon="3.60361">
        <ele>592</ele>
        <time>2021-02-21T11:50:54Z</time>
      </trkpt>
      <trkpt lat="45.81847" lon="3.60365">
        <ele>592</ele>
        <time>2021-02-21T11:50:56Z</time>
      </trkpt>
      <trkpt lat="45.81847" lon="3.60369">
        <ele>592</ele>
        <time>2021-02-21T11:50:58Z</time>
      </trkpt>
      <trkpt lat="45.81848" lon="3.60372">
        <ele>592</ele>
        <time>2021-02-21T11:51:00Z</time>
      </trkpt>
      <trkpt lat="45.81847" lon="3.60375">
        <ele>592</ele>
        <time>2021-02-21T11:51:02Z</time>
      </trkpt>
      <trkpt lat="45.81847" lon="3.60379">
        <ele>592</ele>
        <time>2021-02-21T11:51:04Z</time>
      </trkpt>
      <trkpt lat="45.81847" lon="3.60383">
        <ele>592</ele>
        <time>2021-02-21T11:51:06Z</time>
      </trkpt>
      <trkpt lat="45.81847" lon="3.60386">
        <ele>592</ele>
        <time>2021-02-21T11:51:08Z</time>
      </trkpt>
      <trkpt lat="45.81846" lon="3.60389">
        <ele>592</ele>
        <time>2021-02-21T11:51:10Z</time>
      </trkpt>
      <trkpt lat="45.81846" lon="3.60392">
        <ele>592</ele>
        <time>2021-02-21T11:51:12Z</time>
      </trkpt>
      <trkpt lat="45.81846" lon="3.60396">
        <ele>591</ele>
        <time>2021-02-21T11:51:14Z</time>
      </trkpt>
      <trkpt lat="45.81845" lon="3.60399">
        <ele>591</ele>
        <time>2021-02-21T11:51:16Z</time>
      </trkpt>
      <trkpt lat="45.81844" lon="3.60401">
        <ele>590</ele>
        <time>2021-02-21T11:51:17Z</time>
      </trkpt>
      <trkpt lat="45.81843" lon="3.60404">
        <ele>590</ele>
        <time>2021-02-21T11:51:18Z</time>
      </trkpt>
      <trkpt lat="45.81842" lon="3.60408">
        <ele>590</ele>
        <time>2021-02-21T11:51:20Z</time>
      </trkpt>
      <trkpt lat="45.81841" lon="3.60411">
        <ele>589</ele>
        <time>2021-02-21T11:51:22Z</time>
      </trkpt>
      <trkpt lat="45.81841" lon="3.60414">
        <ele>589</ele>
        <time>2021-02-21T11:51:24Z</time>
      </trkpt>
      <trkpt lat="45.8184" lon="3.60416">
        <ele>588</ele>
        <time>2021-02-21T11:51:26Z</time>
      </trkpt>
      <trkpt lat="45.8184" lon="3.6042">
        <ele>588</ele>
        <time>2021-02-21T11:51:29Z</time>
      </trkpt>
      <trkpt lat="45.81839" lon="3.60423">
        <ele>588</ele>
        <time>2021-02-21T11:51:31Z</time>
      </trkpt>
      <trkpt lat="45.81837" lon="3.60425">
        <ele>587</ele>
        <time>2021-02-21T11:51:33Z</time>
      </trkpt>
      <trkpt lat="45.81836" lon="3.60428">
        <ele>587</ele>
        <time>2021-02-21T11:51:35Z</time>
      </trkpt>
      <trkpt lat="45.81835" lon="3.60431">
        <ele>586</ele>
        <time>2021-02-21T11:51:37Z</time>
      </trkpt>
      <trkpt lat="45.81834" lon="3.60434">
        <ele>585</ele>
        <time>2021-02-21T11:51:39Z</time>
      </trkpt>
      <trkpt lat="45.81832" lon="3.60438">
        <ele>585</ele>
        <time>2021-02-21T11:51:41Z</time>
      </trkpt>
      <trkpt lat="45.81831" lon="3.60442">
        <ele>584</ele>
        <time>2021-02-21T11:51:43Z</time>
      </trkpt>
      <trkpt lat="45.81829" lon="3.60446">
        <ele>583</ele>
        <time>2021-02-21T11:51:45Z</time>
      </trkpt>
      <trkpt lat="45.81827" lon="3.60449">
        <ele>583</ele>
        <time>2021-02-21T11:51:47Z</time>
      </trkpt>
      <trkpt lat="45.81825" lon="3.60451">
        <ele>582</ele>
        <time>2021-02-21T11:51:48Z</time>
      </trkpt>
      <trkpt lat="45.81824" lon="3.60453">
        <ele>582</ele>
        <time>2021-02-21T11:51:49Z</time>
      </trkpt>
      <trkpt lat="45.81822" lon="3.60455">
        <ele>582</ele>
        <time>2021-02-21T11:51:50Z</time>
      </trkpt>
      <trkpt lat="45.8182" lon="3.60457">
        <ele>581</ele>
        <time>2021-02-21T11:51:51Z</time>
      </trkpt>
      <trkpt lat="45.81819" lon="3.60459">
        <ele>581</ele>
        <time>2021-02-21T11:51:52Z</time>
      </trkpt>
      <trkpt lat="45.81817" lon="3.60461">
        <ele>581</ele>
        <time>2021-02-21T11:51:53Z</time>
      </trkpt>
      <trkpt lat="45.81815" lon="3.60462">
        <ele>581</ele>
        <time>2021-02-21T11:51:54Z</time>
      </trkpt>
      <trkpt lat="45.81814" lon="3.60464">
        <ele>580</ele>
        <time>2021-02-21T11:51:55Z</time>
      </trkpt>
      <trkpt lat="45.81811" lon="3.60466">
        <ele>580</ele>
        <time>2021-02-21T11:51:57Z</time>
      </trkpt>
      <trkpt lat="45.81808" lon="3.60467">
        <ele>580</ele>
        <time>2021-02-21T11:51:59Z</time>
      </trkpt>
      <trkpt lat="45.81805" lon="3.60468">
        <ele>579</ele>
        <time>2021-02-21T11:52:01Z</time>
      </trkpt>
      <trkpt lat="45.81802" lon="3.60469">
        <ele>579</ele>
        <time>2021-02-21T11:52:03Z</time>
      </trkpt>
      <trkpt lat="45.81799" lon="3.60468">
        <ele>579</ele>
        <time>2021-02-21T11:52:05Z</time>
      </trkpt>
      <trkpt lat="45.81797" lon="3.60469">
        <ele>579</ele>
        <time>2021-02-21T11:52:07Z</time>
      </trkpt>
      <trkpt lat="45.81794" lon="3.60468">
        <ele>579</ele>
        <time>2021-02-21T11:52:09Z</time>
      </trkpt>
      <trkpt lat="45.81792" lon="3.60467">
        <ele>579</ele>
        <time>2021-02-21T11:52:11Z</time>
      </trkpt>
      <trkpt lat="45.81789" lon="3.60467">
        <ele>579</ele>
        <time>2021-02-21T11:52:13Z</time>
      </trkpt>
      <trkpt lat="45.81786" lon="3.60467">
        <ele>579</ele>
        <time>2021-02-21T11:52:15Z</time>
      </trkpt>
      <trkpt lat="45.81784" lon="3.60466">
        <ele>579</ele>
        <time>2021-02-21T11:52:17Z</time>
      </trkpt>
      <trkpt lat="45.81781" lon="3.60466">
        <ele>578</ele>
        <time>2021-02-21T11:52:19Z</time>
      </trkpt>
      <trkpt lat="45.81778" lon="3.60464">
        <ele>578</ele>
        <time>2021-02-21T11:52:21Z</time>
      </trkpt>
      <trkpt lat="45.81775" lon="3.60463">
        <ele>578</ele>
        <time>2021-02-21T11:52:23Z</time>
      </trkpt>
      <trkpt lat="45.81772" lon="3.60462">
        <ele>578</ele>
        <time>2021-02-21T11:52:25Z</time>
      </trkpt>
      <trkpt lat="45.8177" lon="3.60461">
        <ele>578</ele>
        <time>2021-02-21T11:52:27Z</time>
      </trkpt>
      <trkpt lat="45.81768" lon="3.60461">
        <ele>578</ele>
        <time>2021-02-21T11:52:29Z</time>
      </trkpt>
      <trkpt lat="45.81766" lon="3.6046">
        <ele>578</ele>
        <time>2021-02-21T11:52:31Z</time>
      </trkpt>
      <trkpt lat="45.81764" lon="3.6046">
        <ele>578</ele>
        <time>2021-02-21T11:52:33Z</time>
      </trkpt>
      <trkpt lat="45.81761" lon="3.60461">
        <ele>578</ele>
        <time>2021-02-21T11:52:35Z</time>
      </trkpt>
      <trkpt lat="45.81759" lon="3.60461">
        <ele>578</ele>
        <time>2021-02-21T11:52:37Z</time>
      </trkpt>
      <trkpt lat="45.81757" lon="3.60462">
        <ele>579</ele>
        <time>2021-02-21T11:52:39Z</time>
      </trkpt>
      <trkpt lat="45.81755" lon="3.60464">
        <ele>579</ele>
        <time>2021-02-21T11:52:41Z</time>
      </trkpt>
      <trkpt lat="45.81753" lon="3.60465">
        <ele>579</ele>
        <time>2021-02-21T11:52:43Z</time>
      </trkpt>
      <trkpt lat="45.81751" lon="3.60467">
        <ele>579</ele>
        <time>2021-02-21T11:52:45Z</time>
      </trkpt>
      <trkpt lat="45.81749" lon="3.60468">
        <ele>579</ele>
        <time>2021-02-21T11:52:47Z</time>
      </trkpt>
      <trkpt lat="45.81747" lon="3.60468">
        <ele>579</ele>
        <time>2021-02-21T11:52:49Z</time>
      </trkpt>
      <trkpt lat="45.81745" lon="3.60469">
        <ele>579</ele>
        <time>2021-02-21T11:52:51Z</time>
      </trkpt>
      <trkpt lat="45.81743" lon="3.6047">
        <ele>579</ele>
        <time>2021-02-21T11:52:53Z</time>
      </trkpt>
      <trkpt lat="45.8174" lon="3.60472">
        <ele>579</ele>
        <time>2021-02-21T11:52:55Z</time>
      </trkpt>
      <trkpt lat="45.81738" lon="3.60474">
        <ele>579</ele>
        <time>2021-02-21T11:52:57Z</time>
      </trkpt>
      <trkpt lat="45.81736" lon="3.60475">
        <ele>579</ele>
        <time>2021-02-21T11:52:59Z</time>
      </trkpt>
      <trkpt lat="45.81734" lon="3.60477">
        <ele>579</ele>
        <time>2021-02-21T11:53:01Z</time>
      </trkpt>
      <trkpt lat="45.81733" lon="3.60479">
        <ele>579</ele>
        <time>2021-02-21T11:53:03Z</time>
      </trkpt>
      <trkpt lat="45.81731" lon="3.60481">
        <ele>579</ele>
        <time>2021-02-21T11:53:05Z</time>
      </trkpt>
      <trkpt lat="45.8173" lon="3.60484">
        <ele>579</ele>
        <time>2021-02-21T11:53:07Z</time>
      </trkpt>
      <trkpt lat="45.81729" lon="3.60487">
        <ele>579</ele>
        <time>2021-02-21T11:53:10Z</time>
      </trkpt>
      <trkpt lat="45.81728" lon="3.6049">
        <ele>579</ele>
        <time>2021-02-21T11:53:12Z</time>
      </trkpt>
      <trkpt lat="45.81727" lon="3.60493">
        <ele>579</ele>
        <time>2021-02-21T11:53:14Z</time>
      </trkpt>
      <trkpt lat="45.81725" lon="3.60497">
        <ele>579</ele>
        <time>2021-02-21T11:53:16Z</time>
      </trkpt>
      <trkpt lat="45.81724" lon="3.605">
        <ele>580</ele>
        <time>2021-02-21T11:53:18Z</time>
      </trkpt>
      <trkpt lat="45.81723" lon="3.60503">
        <ele>580</ele>
        <time>2021-02-21T11:53:20Z</time>
      </trkpt>
      <trkpt lat="45.81723" lon="3.60507">
        <ele>580</ele>
        <time>2021-02-21T11:53:22Z</time>
      </trkpt>
      <trkpt lat="45.81722" lon="3.6051">
        <ele>580</ele>
        <time>2021-02-21T11:53:24Z</time>
      </trkpt>
      <trkpt lat="45.81721" lon="3.60514">
        <ele>580</ele>
        <time>2021-02-21T11:53:26Z</time>
      </trkpt>
      <trkpt lat="45.8172" lon="3.60518">
        <ele>580</ele>
        <time>2021-02-21T11:53:28Z</time>
      </trkpt>
      <trkpt lat="45.8172" lon="3.60521">
        <ele>580</ele>
        <time>2021-02-21T11:53:30Z</time>
      </trkpt>
      <trkpt lat="45.81719" lon="3.60525">
        <ele>580</ele>
        <time>2021-02-21T11:53:32Z</time>
      </trkpt>
      <trkpt lat="45.81719" lon="3.60528">
        <ele>580</ele>
        <time>2021-02-21T11:53:34Z</time>
      </trkpt>
      <trkpt lat="45.81719" lon="3.60532">
        <ele>580</ele>
        <time>2021-02-21T11:53:36Z</time>
      </trkpt>
      <trkpt lat="45.81718" lon="3.60536">
        <ele>580</ele>
        <time>2021-02-21T11:53:38Z</time>
      </trkpt>
      <trkpt lat="45.81718" lon="3.6054">
        <ele>580</ele>
        <time>2021-02-21T11:53:40Z</time>
      </trkpt>
      <trkpt lat="45.81717" lon="3.60544">
        <ele>580</ele>
        <time>2021-02-21T11:53:42Z</time>
      </trkpt>
      <trkpt lat="45.81716" lon="3.60547">
        <ele>580</ele>
        <time>2021-02-21T11:53:44Z</time>
      </trkpt>
      <trkpt lat="45.81715" lon="3.6055">
        <ele>580</ele>
        <time>2021-02-21T11:53:46Z</time>
      </trkpt>
      <trkpt lat="45.81714" lon="3.60553">
        <ele>580</ele>
        <time>2021-02-21T11:53:48Z</time>
      </trkpt>
      <trkpt lat="45.81713" lon="3.60558">
        <ele>580</ele>
        <time>2021-02-21T11:53:50Z</time>
      </trkpt>
      <trkpt lat="45.81712" lon="3.60562">
        <ele>580</ele>
        <time>2021-02-21T11:53:52Z</time>
      </trkpt>
      <trkpt lat="45.81711" lon="3.60565">
        <ele>580</ele>
        <time>2021-02-21T11:53:54Z</time>
      </trkpt>
      <trkpt lat="45.8171" lon="3.60569">
        <ele>580</ele>
        <time>2021-02-21T11:53:56Z</time>
      </trkpt>
      <trkpt lat="45.81709" lon="3.60572">
        <ele>580</ele>
        <time>2021-02-21T11:53:58Z</time>
      </trkpt>
      <trkpt lat="45.81707" lon="3.60575">
        <ele>580</ele>
        <time>2021-02-21T11:54:00Z</time>
      </trkpt>
      <trkpt lat="45.81706" lon="3.60577">
        <ele>580</ele>
        <time>2021-02-21T11:54:02Z</time>
      </trkpt>
      <trkpt lat="45.81705" lon="3.60581">
        <ele>580</ele>
        <time>2021-02-21T11:54:04Z</time>
      </trkpt>
      <trkpt lat="45.81704" lon="3.60584">
        <ele>580</ele>
        <time>2021-02-21T11:54:06Z</time>
      </trkpt>
      <trkpt lat="45.81703" lon="3.60587">
        <ele>580</ele>
        <time>2021-02-21T11:54:08Z</time>
      </trkpt>
      <trkpt lat="45.81703" lon="3.6059">
        <ele>581</ele>
        <time>2021-02-21T11:54:11Z</time>
      </trkpt>
      <trkpt lat="45.81701" lon="3.60594">
        <ele>581</ele>
        <time>2021-02-21T11:54:13Z</time>
      </trkpt>
      <trkpt lat="45.817" lon="3.60597">
        <ele>581</ele>
        <time>2021-02-21T11:54:15Z</time>
      </trkpt>
      <trkpt lat="45.81699" lon="3.606">
        <ele>581</ele>
        <time>2021-02-21T11:54:17Z</time>
      </trkpt>
      <trkpt lat="45.81697" lon="3.60604">
        <ele>581</ele>
        <time>2021-02-21T11:54:19Z</time>
      </trkpt>
      <trkpt lat="45.81695" lon="3.60607">
        <ele>581</ele>
        <time>2021-02-21T11:54:21Z</time>
      </trkpt>
      <trkpt lat="45.81694" lon="3.6061">
        <ele>581</ele>
        <time>2021-02-21T11:54:23Z</time>
      </trkpt>
      <trkpt lat="45.81693" lon="3.60613">
        <ele>581</ele>
        <time>2021-02-21T11:54:26Z</time>
      </trkpt>
      <trkpt lat="45.81692" lon="3.60617">
        <ele>582</ele>
        <time>2021-02-21T11:54:28Z</time>
      </trkpt>
      <trkpt lat="45.81691" lon="3.6062">
        <ele>582</ele>
        <time>2021-02-21T11:54:30Z</time>
      </trkpt>
      <trkpt lat="45.81689" lon="3.60623">
        <ele>582</ele>
        <time>2021-02-21T11:54:32Z</time>
      </trkpt>
      <trkpt lat="45.81688" lon="3.60626">
        <ele>582</ele>
        <time>2021-02-21T11:54:34Z</time>
      </trkpt>
      <trkpt lat="45.81687" lon="3.6063">
        <ele>582</ele>
        <time>2021-02-21T11:54:36Z</time>
      </trkpt>
      <trkpt lat="45.81687" lon="3.60635">
        <ele>582</ele>
        <time>2021-02-21T11:54:38Z</time>
      </trkpt>
      <trkpt lat="45.81687" lon="3.6064">
        <ele>582</ele>
        <time>2021-02-21T11:54:40Z</time>
      </trkpt>
      <trkpt lat="45.81686" lon="3.60642">
        <ele>582</ele>
        <time>2021-02-21T11:54:41Z</time>
      </trkpt>
      <trkpt lat="45.81685" lon="3.60647">
        <ele>583</ele>
        <time>2021-02-21T11:54:43Z</time>
      </trkpt>
      <trkpt lat="45.81685" lon="3.6065">
        <ele>583</ele>
        <time>2021-02-21T11:54:45Z</time>
      </trkpt>
      <trkpt lat="45.81684" lon="3.60654">
        <ele>583</ele>
        <time>2021-02-21T11:54:47Z</time>
      </trkpt>
      <trkpt lat="45.81683" lon="3.60658">
        <ele>583</ele>
        <time>2021-02-21T11:54:49Z</time>
      </trkpt>
      <trkpt lat="45.81683" lon="3.60662">
        <ele>583</ele>
        <time>2021-02-21T11:54:51Z</time>
      </trkpt>
      <trkpt lat="45.81683" lon="3.60666">
        <ele>583</ele>
        <time>2021-02-21T11:54:53Z</time>
      </trkpt>
      <trkpt lat="45.81683" lon="3.60669">
        <ele>583</ele>
        <time>2021-02-21T11:54:55Z</time>
      </trkpt>
      <trkpt lat="45.81683" lon="3.60672">
        <ele>583</ele>
        <time>2021-02-21T11:54:57Z</time>
      </trkpt>
      <trkpt lat="45.81683" lon="3.60675">
        <ele>584</ele>
        <time>2021-02-21T11:54:59Z</time>
      </trkpt>
      <trkpt lat="45.81683" lon="3.60679">
        <ele>584</ele>
        <time>2021-02-21T11:55:01Z</time>
      </trkpt>
      <trkpt lat="45.81683" lon="3.60683">
        <ele>584</ele>
        <time>2021-02-21T11:55:03Z</time>
      </trkpt>
      <trkpt lat="45.81683" lon="3.60687">
        <ele>584</ele>
        <time>2021-02-21T11:55:05Z</time>
      </trkpt>
      <trkpt lat="45.81683" lon="3.60692">
        <ele>584</ele>
        <time>2021-02-21T11:55:07Z</time>
      </trkpt>
      <trkpt lat="45.81683" lon="3.60696">
        <ele>584</ele>
        <time>2021-02-21T11:55:09Z</time>
      </trkpt>
      <trkpt lat="45.81683" lon="3.607">
        <ele>584</ele>
        <time>2021-02-21T11:55:11Z</time>
      </trkpt>
      <trkpt lat="45.81683" lon="3.60705">
        <ele>583</ele>
        <time>2021-02-21T11:55:13Z</time>
      </trkpt>
      <trkpt lat="45.81684" lon="3.60709">
        <ele>583</ele>
        <time>2021-02-21T11:55:15Z</time>
      </trkpt>
      <trkpt lat="45.81684" lon="3.60713">
        <ele>583</ele>
        <time>2021-02-21T11:55:17Z</time>
      </trkpt>
      <trkpt lat="45.81683" lon="3.60718">
        <ele>583</ele>
        <time>2021-02-21T11:55:19Z</time>
      </trkpt>
      <trkpt lat="45.81683" lon="3.60721">
        <ele>582</ele>
        <time>2021-02-21T11:55:20Z</time>
      </trkpt>
      <trkpt lat="45.81682" lon="3.60725">
        <ele>582</ele>
        <time>2021-02-21T11:55:22Z</time>
      </trkpt>
      <trkpt lat="45.8168" lon="3.60728">
        <ele>582</ele>
        <time>2021-02-21T11:55:24Z</time>
      </trkpt>
      <trkpt lat="45.81677" lon="3.60732">
        <ele>582</ele>
        <time>2021-02-21T11:55:26Z</time>
      </trkpt>
      <trkpt lat="45.81675" lon="3.60734">
        <ele>581</ele>
        <time>2021-02-21T11:55:28Z</time>
      </trkpt>
      <trkpt lat="45.81673" lon="3.60736">
        <ele>581</ele>
        <time>2021-02-21T11:55:29Z</time>
      </trkpt>
      <trkpt lat="45.8167" lon="3.60737">
        <ele>581</ele>
        <time>2021-02-21T11:55:31Z</time>
      </trkpt>
      <trkpt lat="45.81667" lon="3.60738">
        <ele>581</ele>
        <time>2021-02-21T11:55:32Z</time>
      </trkpt>
      <trkpt lat="45.81664" lon="3.60739">
        <ele>581</ele>
        <time>2021-02-21T11:55:34Z</time>
      </trkpt>
      <trkpt lat="45.81662" lon="3.6074">
        <ele>581</ele>
        <time>2021-02-21T11:55:35Z</time>
      </trkpt>
      <trkpt lat="45.81659" lon="3.6074">
        <ele>581</ele>
        <time>2021-02-21T11:55:37Z</time>
      </trkpt>
      <trkpt lat="45.81657" lon="3.6074">
        <ele>581</ele>
        <time>2021-02-21T11:55:38Z</time>
      </trkpt>
      <trkpt lat="45.81654" lon="3.6074">
        <ele>581</ele>
        <time>2021-02-21T11:55:40Z</time>
      </trkpt>
      <trkpt lat="45.81652" lon="3.60741">
        <ele>581</ele>
        <time>2021-02-21T11:55:41Z</time>
      </trkpt>
      <trkpt lat="45.81651" lon="3.60741">
        <ele>581</ele>
        <time>2021-02-21T11:55:42Z</time>
      </trkpt>
      <trkpt lat="45.81648" lon="3.60742">
        <ele>581</ele>
        <time>2021-02-21T11:55:44Z</time>
      </trkpt>
      <trkpt lat="45.81646" lon="3.60741">
        <ele>581</ele>
        <time>2021-02-21T11:55:46Z</time>
      </trkpt>
      <trkpt lat="45.81643" lon="3.6074">
        <ele>581</ele>
        <time>2021-02-21T11:55:48Z</time>
      </trkpt>
      <trkpt lat="45.8164" lon="3.60739">
        <ele>581</ele>
        <time>2021-02-21T11:55:50Z</time>
      </trkpt>
      <trkpt lat="45.81637" lon="3.60739">
        <ele>581</ele>
        <time>2021-02-21T11:55:52Z</time>
      </trkpt>
      <trkpt lat="45.81635" lon="3.60737">
        <ele>581</ele>
        <time>2021-02-21T11:55:54Z</time>
      </trkpt>
      <trkpt lat="45.81633" lon="3.60737">
        <ele>581</ele>
        <time>2021-02-21T11:55:56Z</time>
      </trkpt>
      <trkpt lat="45.8163" lon="3.60736">
        <ele>581</ele>
        <time>2021-02-21T11:55:58Z</time>
      </trkpt>
      <trkpt lat="45.81628" lon="3.60735">
        <ele>581</ele>
        <time>2021-02-21T11:56:00Z</time>
      </trkpt>
      <trkpt lat="45.81626" lon="3.60734">
        <ele>581</ele>
        <time>2021-02-21T11:56:02Z</time>
      </trkpt>
      <trkpt lat="45.81624" lon="3.60734">
        <ele>581</ele>
        <time>2021-02-21T11:56:04Z</time>
      </trkpt>
      <trkpt lat="45.81622" lon="3.60733">
        <ele>581</ele>
        <time>2021-02-21T11:56:07Z</time>
      </trkpt>
      <trkpt lat="45.81621" lon="3.6073">
        <ele>581</ele>
        <time>2021-02-21T11:56:18Z</time>
      </trkpt>
      <trkpt lat="45.8162" lon="3.60727">
        <ele>581</ele>
        <time>2021-02-21T11:56:20Z</time>
      </trkpt>
      <trkpt lat="45.81618" lon="3.60725">
        <ele>580</ele>
        <time>2021-02-21T11:56:22Z</time>
      </trkpt>
      <trkpt lat="45.81616" lon="3.60725">
        <ele>581</ele>
        <time>2021-02-21T11:56:24Z</time>
      </trkpt>
      <trkpt lat="45.81614" lon="3.60725">
        <ele>581</ele>
        <time>2021-02-21T11:56:26Z</time>
      </trkpt>
      <trkpt lat="45.81611" lon="3.60725">
        <ele>581</ele>
        <time>2021-02-21T11:56:28Z</time>
      </trkpt>
      <trkpt lat="45.81609" lon="3.60725">
        <ele>581</ele>
        <time>2021-02-21T11:56:30Z</time>
      </trkpt>
      <trkpt lat="45.81606" lon="3.60725">
        <ele>581</ele>
        <time>2021-02-21T11:56:32Z</time>
      </trkpt>
      <trkpt lat="45.81604" lon="3.60724">
        <ele>581</ele>
        <time>2021-02-21T11:56:34Z</time>
      </trkpt>
      <trkpt lat="45.81602" lon="3.60724">
        <ele>581</ele>
        <time>2021-02-21T11:56:37Z</time>
      </trkpt>
      <trkpt lat="45.81599" lon="3.60723">
        <ele>581</ele>
        <time>2021-02-21T11:56:40Z</time>
      </trkpt>
      <trkpt lat="45.81597" lon="3.60722">
        <ele>582</ele>
        <time>2021-02-21T11:56:42Z</time>
      </trkpt>
      <trkpt lat="45.81595" lon="3.60722">
        <ele>582</ele>
        <time>2021-02-21T11:56:44Z</time>
      </trkpt>
      <trkpt lat="45.81593" lon="3.60722">
        <ele>582</ele>
        <time>2021-02-21T11:56:46Z</time>
      </trkpt>
      <trkpt lat="45.81591" lon="3.60721">
        <ele>582</ele>
        <time>2021-02-21T11:56:48Z</time>
      </trkpt>
      <trkpt lat="45.81589" lon="3.6072">
        <ele>582</ele>
        <time>2021-02-21T11:56:50Z</time>
      </trkpt>
      <trkpt lat="45.81587" lon="3.60719">
        <ele>582</ele>
        <time>2021-02-21T11:56:52Z</time>
      </trkpt>
      <trkpt lat="45.81584" lon="3.60717">
        <ele>582</ele>
        <time>2021-02-21T11:56:54Z</time>
      </trkpt>
      <trkpt lat="45.81582" lon="3.60716">
        <ele>582</ele>
        <time>2021-02-21T11:56:56Z</time>
      </trkpt>
      <trkpt lat="45.81579" lon="3.60716">
        <ele>582</ele>
        <time>2021-02-21T11:56:58Z</time>
      </trkpt>
      <trkpt lat="45.81577" lon="3.60715">
        <ele>582</ele>
        <time>2021-02-21T11:57:00Z</time>
      </trkpt>
      <trkpt lat="45.81574" lon="3.60714">
        <ele>582</ele>
        <time>2021-02-21T11:57:02Z</time>
      </trkpt>
      <trkpt lat="45.81572" lon="3.60713">
        <ele>582</ele>
        <time>2021-02-21T11:57:04Z</time>
      </trkpt>
      <trkpt lat="45.81569" lon="3.60712">
        <ele>582</ele>
        <time>2021-02-21T11:57:06Z</time>
      </trkpt>
      <trkpt lat="45.81567" lon="3.60711">
        <ele>582</ele>
        <time>2021-02-21T11:57:08Z</time>
      </trkpt>
      <trkpt lat="45.81565" lon="3.6071">
        <ele>582</ele>
        <time>2021-02-21T11:57:10Z</time>
      </trkpt>
      <trkpt lat="45.81562" lon="3.60709">
        <ele>582</ele>
        <time>2021-02-21T11:57:12Z</time>
      </trkpt>
      <trkpt lat="45.8156" lon="3.60708">
        <ele>582</ele>
        <time>2021-02-21T11:57:14Z</time>
      </trkpt>
      <trkpt lat="45.81557" lon="3.60707">
        <ele>582</ele>
        <time>2021-02-21T11:57:16Z</time>
      </trkpt>
      <trkpt lat="45.81554" lon="3.60707">
        <ele>581</ele>
        <time>2021-02-21T11:57:18Z</time>
      </trkpt>
      <trkpt lat="45.81552" lon="3.60706">
        <ele>581</ele>
        <time>2021-02-21T11:57:20Z</time>
      </trkpt>
      <trkpt lat="45.81549" lon="3.60705">
        <ele>581</ele>
        <time>2021-02-21T11:57:22Z</time>
      </trkpt>
      <trkpt lat="45.81547" lon="3.60703">
        <ele>581</ele>
        <time>2021-02-21T11:57:24Z</time>
      </trkpt>
      <trkpt lat="45.81544" lon="3.60701">
        <ele>581</ele>
        <time>2021-02-21T11:57:26Z</time>
      </trkpt>
      <trkpt lat="45.81542" lon="3.607">
        <ele>581</ele>
        <time>2021-02-21T11:57:28Z</time>
      </trkpt>
      <trkpt lat="45.81539" lon="3.60698">
        <ele>581</ele>
        <time>2021-02-21T11:57:30Z</time>
      </trkpt>
      <trkpt lat="45.81537" lon="3.60696">
        <ele>581</ele>
        <time>2021-02-21T11:57:32Z</time>
      </trkpt>
      <trkpt lat="45.81534" lon="3.60694">
        <ele>581</ele>
        <time>2021-02-21T11:57:34Z</time>
      </trkpt>
      <trkpt lat="45.81532" lon="3.60692">
        <ele>581</ele>
        <time>2021-02-21T11:57:36Z</time>
      </trkpt>
      <trkpt lat="45.8153" lon="3.60689">
        <ele>581</ele>
        <time>2021-02-21T11:57:38Z</time>
      </trkpt>
      <trkpt lat="45.81528" lon="3.60687">
        <ele>581</ele>
        <time>2021-02-21T11:57:40Z</time>
      </trkpt>
      <trkpt lat="45.81526" lon="3.60683">
        <ele>581</ele>
        <time>2021-02-21T11:57:42Z</time>
      </trkpt>
      <trkpt lat="45.81525" lon="3.60679">
        <ele>581</ele>
        <time>2021-02-21T11:57:44Z</time>
      </trkpt>
      <trkpt lat="45.81523" lon="3.60676">
        <ele>581</ele>
        <time>2021-02-21T11:57:46Z</time>
      </trkpt>
      <trkpt lat="45.81522" lon="3.60673">
        <ele>581</ele>
        <time>2021-02-21T11:57:48Z</time>
      </trkpt>
      <trkpt lat="45.81521" lon="3.6067">
        <ele>581</ele>
        <time>2021-02-21T11:57:50Z</time>
      </trkpt>
      <trkpt lat="45.81518" lon="3.60668">
        <ele>581</ele>
        <time>2021-02-21T11:57:52Z</time>
      </trkpt>
      <trkpt lat="45.81515" lon="3.60666">
        <ele>581</ele>
        <time>2021-02-21T11:57:54Z</time>
      </trkpt>
      <trkpt lat="45.81513" lon="3.60664">
        <ele>580</ele>
        <time>2021-02-21T11:57:56Z</time>
      </trkpt>
      <trkpt lat="45.81511" lon="3.60661">
        <ele>580</ele>
        <time>2021-02-21T11:57:58Z</time>
      </trkpt>
      <trkpt lat="45.81509" lon="3.60659">
        <ele>580</ele>
        <time>2021-02-21T11:58:00Z</time>
      </trkpt>
      <trkpt lat="45.81507" lon="3.60657">
        <ele>580</ele>
        <time>2021-02-21T11:58:02Z</time>
      </trkpt>
      <trkpt lat="45.81505" lon="3.60655">
        <ele>580</ele>
        <time>2021-02-21T11:58:04Z</time>
      </trkpt>
      <trkpt lat="45.81502" lon="3.60654">
        <ele>580</ele>
        <time>2021-02-21T11:58:06Z</time>
      </trkpt>
      <trkpt lat="45.81499" lon="3.60652">
        <ele>580</ele>
        <time>2021-02-21T11:58:08Z</time>
      </trkpt>
      <trkpt lat="45.81497" lon="3.60652">
        <ele>580</ele>
        <time>2021-02-21T11:58:09Z</time>
      </trkpt>
      <trkpt lat="45.81494" lon="3.60651">
        <ele>580</ele>
        <time>2021-02-21T11:58:11Z</time>
      </trkpt>
      <trkpt lat="45.81491" lon="3.6065">
        <ele>580</ele>
        <time>2021-02-21T11:58:13Z</time>
      </trkpt>
      <trkpt lat="45.81489" lon="3.60649">
        <ele>580</ele>
        <time>2021-02-21T11:58:15Z</time>
      </trkpt>
      <trkpt lat="45.81487" lon="3.60648">
        <ele>580</ele>
        <time>2021-02-21T11:58:17Z</time>
      </trkpt>
      <trkpt lat="45.81484" lon="3.60648">
        <ele>580</ele>
        <time>2021-02-21T11:58:19Z</time>
      </trkpt>
      <trkpt lat="45.81481" lon="3.60647">
        <ele>580</ele>
        <time>2021-02-21T11:58:21Z</time>
      </trkpt>
      <trkpt lat="45.81478" lon="3.60646">
        <ele>580</ele>
        <time>2021-02-21T11:58:23Z</time>
      </trkpt>
      <trkpt lat="45.81475" lon="3.60646">
        <ele>580</ele>
        <time>2021-02-21T11:58:25Z</time>
      </trkpt>
      <trkpt lat="45.81472" lon="3.60646">
        <ele>580</ele>
        <time>2021-02-21T11:58:27Z</time>
      </trkpt>
      <trkpt lat="45.8147" lon="3.60645">
        <ele>581</ele>
        <time>2021-02-21T11:58:29Z</time>
      </trkpt>
      <trkpt lat="45.81467" lon="3.60644">
        <ele>581</ele>
        <time>2021-02-21T11:58:31Z</time>
      </trkpt>
      <trkpt lat="45.81463" lon="3.60643">
        <ele>581</ele>
        <time>2021-02-21T11:58:33Z</time>
      </trkpt>
      <trkpt lat="45.8146" lon="3.60642">
        <ele>582</ele>
        <time>2021-02-21T11:58:35Z</time>
      </trkpt>
      <trkpt lat="45.81457" lon="3.60642">
        <ele>582</ele>
        <time>2021-02-21T11:58:37Z</time>
      </trkpt>
      <trkpt lat="45.81454" lon="3.60642">
        <ele>582</ele>
        <time>2021-02-21T11:58:39Z</time>
      </trkpt>
      <trkpt lat="45.81451" lon="3.60641">
        <ele>583</ele>
        <time>2021-02-21T11:58:41Z</time>
      </trkpt>
      <trkpt lat="45.81449" lon="3.60641">
        <ele>583</ele>
        <time>2021-02-21T11:58:43Z</time>
      </trkpt>
      <trkpt lat="45.81446" lon="3.6064">
        <ele>583</ele>
        <time>2021-02-21T11:58:45Z</time>
      </trkpt>
      <trkpt lat="45.81443" lon="3.60639">
        <ele>583</ele>
        <time>2021-02-21T11:58:47Z</time>
      </trkpt>
      <trkpt lat="45.81441" lon="3.60637">
        <ele>583</ele>
        <time>2021-02-21T11:58:49Z</time>
      </trkpt>
      <trkpt lat="45.81439" lon="3.60634">
        <ele>583</ele>
        <time>2021-02-21T11:58:51Z</time>
      </trkpt>
      <trkpt lat="45.81436" lon="3.60631">
        <ele>583</ele>
        <time>2021-02-21T11:58:53Z</time>
      </trkpt>
      <trkpt lat="45.81435" lon="3.60627">
        <ele>583</ele>
        <time>2021-02-21T11:58:55Z</time>
      </trkpt>
      <trkpt lat="45.81434" lon="3.60623">
        <ele>583</ele>
        <time>2021-02-21T11:58:57Z</time>
      </trkpt>
      <trkpt lat="45.81432" lon="3.6062">
        <ele>583</ele>
        <time>2021-02-21T11:58:59Z</time>
      </trkpt>
      <trkpt lat="45.81431" lon="3.60617">
        <ele>583</ele>
        <time>2021-02-21T11:59:01Z</time>
      </trkpt>
      <trkpt lat="45.81429" lon="3.60613">
        <ele>583</ele>
        <time>2021-02-21T11:59:03Z</time>
      </trkpt>
      <trkpt lat="45.81428" lon="3.60609">
        <ele>583</ele>
        <time>2021-02-21T11:59:05Z</time>
      </trkpt>
      <trkpt lat="45.81428" lon="3.60606">
        <ele>583</ele>
        <time>2021-02-21T11:59:07Z</time>
      </trkpt>
      <trkpt lat="45.81427" lon="3.60602">
        <ele>583</ele>
        <time>2021-02-21T11:59:09Z</time>
      </trkpt>
      <trkpt lat="45.81427" lon="3.60597">
        <ele>583</ele>
        <time>2021-02-21T11:59:11Z</time>
      </trkpt>
      <trkpt lat="45.81426" lon="3.60592">
        <ele>583</ele>
        <time>2021-02-21T11:59:13Z</time>
      </trkpt>
      <trkpt lat="45.81427" lon="3.60588">
        <ele>582</ele>
        <time>2021-02-21T11:59:15Z</time>
      </trkpt>
      <trkpt lat="45.81426" lon="3.60584">
        <ele>582</ele>
        <time>2021-02-21T11:59:17Z</time>
      </trkpt>
      <trkpt lat="45.81426" lon="3.6058">
        <ele>583</ele>
        <time>2021-02-21T11:59:19Z</time>
      </trkpt>
      <trkpt lat="45.81426" lon="3.60576">
        <ele>583</ele>
        <time>2021-02-21T11:59:21Z</time>
      </trkpt>
      <trkpt lat="45.81427" lon="3.60571">
        <ele>583</ele>
        <time>2021-02-21T11:59:23Z</time>
      </trkpt>
      <trkpt lat="45.81426" lon="3.60568">
        <ele>583</ele>
        <time>2021-02-21T11:59:24Z</time>
      </trkpt>
      <trkpt lat="45.81426" lon="3.60564">
        <ele>584</ele>
        <time>2021-02-21T11:59:26Z</time>
      </trkpt>
      <trkpt lat="45.81426" lon="3.6056">
        <ele>584</ele>
        <time>2021-02-21T11:59:28Z</time>
      </trkpt>
      <trkpt lat="45.81426" lon="3.60557">
        <ele>584</ele>
        <time>2021-02-21T11:59:30Z</time>
      </trkpt>
      <trkpt lat="45.81425" lon="3.60554">
        <ele>585</ele>
        <time>2021-02-21T11:59:32Z</time>
      </trkpt>
      <trkpt lat="45.81425" lon="3.6055">
        <ele>585</ele>
        <time>2021-02-21T11:59:34Z</time>
      </trkpt>
      <trkpt lat="45.81425" lon="3.60546">
        <ele>586</ele>
        <time>2021-02-21T11:59:36Z</time>
      </trkpt>
      <trkpt lat="45.81425" lon="3.60542">
        <ele>586</ele>
        <time>2021-02-21T11:59:38Z</time>
      </trkpt>
      <trkpt lat="45.81425" lon="3.60538">
        <ele>587</ele>
        <time>2021-02-21T11:59:40Z</time>
      </trkpt>
      <trkpt lat="45.81426" lon="3.60534">
        <ele>587</ele>
        <time>2021-02-21T11:59:42Z</time>
      </trkpt>
      <trkpt lat="45.81427" lon="3.6053">
        <ele>588</ele>
        <time>2021-02-21T11:59:44Z</time>
      </trkpt>
      <trkpt lat="45.81428" lon="3.60525">
        <ele>588</ele>
        <time>2021-02-21T11:59:46Z</time>
      </trkpt>
      <trkpt lat="45.8143" lon="3.6052">
        <ele>589</ele>
        <time>2021-02-21T11:59:48Z</time>
      </trkpt>
      <trkpt lat="45.8143" lon="3.60516">
        <ele>589</ele>
        <time>2021-02-21T11:59:49Z</time>
      </trkpt>
      <trkpt lat="45.81431" lon="3.60514">
        <ele>589</ele>
        <time>2021-02-21T11:59:50Z</time>
      </trkpt>
      <trkpt lat="45.81432" lon="3.60509">
        <ele>590</ele>
        <time>2021-02-21T11:59:52Z</time>
      </trkpt>
      <trkpt lat="45.81432" lon="3.60505">
        <ele>591</ele>
        <time>2021-02-21T11:59:54Z</time>
      </trkpt>
      <trkpt lat="45.81433" lon="3.60501">
        <ele>591</ele>
        <time>2021-02-21T11:59:56Z</time>
      </trkpt>
      <trkpt lat="45.81434" lon="3.60497">
        <ele>591</ele>
        <time>2021-02-21T11:59:58Z</time>
      </trkpt>
      <trkpt lat="45.81436" lon="3.60493">
        <ele>591</ele>
        <time>2021-02-21T12:00:00Z</time>
      </trkpt>
      <trkpt lat="45.81437" lon="3.6049">
        <ele>591</ele>
        <time>2021-02-21T12:00:02Z</time>
      </trkpt>
      <trkpt lat="45.81437" lon="3.60486">
        <ele>592</ele>
        <time>2021-02-21T12:00:04Z</time>
      </trkpt>
      <trkpt lat="45.81438" lon="3.60482">
        <ele>592</ele>
        <time>2021-02-21T12:00:06Z</time>
      </trkpt>
      <trkpt lat="45.81438" lon="3.60478">
        <ele>592</ele>
        <time>2021-02-21T12:00:08Z</time>
      </trkpt>
      <trkpt lat="45.81439" lon="3.60475">
        <ele>592</ele>
        <time>2021-02-21T12:00:10Z</time>
      </trkpt>
      <trkpt lat="45.81439" lon="3.60471">
        <ele>593</ele>
        <time>2021-02-21T12:00:12Z</time>
      </trkpt>
      <trkpt lat="45.8144" lon="3.60468">
        <ele>592</ele>
        <time>2021-02-21T12:00:14Z</time>
      </trkpt>
      <trkpt lat="45.81441" lon="3.60465">
        <ele>592</ele>
        <time>2021-02-21T12:00:16Z</time>
      </trkpt>
      <trkpt lat="45.81441" lon="3.60463">
        <ele>592</ele>
        <time>2021-02-21T12:00:18Z</time>
      </trkpt>
      <trkpt lat="45.81443" lon="3.6046">
        <ele>591</ele>
        <time>2021-02-21T12:00:20Z</time>
      </trkpt>
      <trkpt lat="45.81444" lon="3.60457">
        <ele>590</ele>
        <time>2021-02-21T12:00:22Z</time>
      </trkpt>
      <trkpt lat="45.81446" lon="3.60453">
        <ele>589</ele>
        <time>2021-02-21T12:00:24Z</time>
      </trkpt>
      <trkpt lat="45.81446" lon="3.6045">
        <ele>589</ele>
        <time>2021-02-21T12:00:26Z</time>
      </trkpt>
      <trkpt lat="45.81447" lon="3.60447">
        <ele>589</ele>
        <time>2021-02-21T12:00:28Z</time>
      </trkpt>
      <trkpt lat="45.81449" lon="3.60444">
        <ele>588</ele>
        <time>2021-02-21T12:00:30Z</time>
      </trkpt>
      <trkpt lat="45.8145" lon="3.6044">
        <ele>587</ele>
        <time>2021-02-21T12:00:32Z</time>
      </trkpt>
      <trkpt lat="45.8145" lon="3.60437">
        <ele>587</ele>
        <time>2021-02-21T12:00:34Z</time>
      </trkpt>
      <trkpt lat="45.8145" lon="3.60433">
        <ele>587</ele>
        <time>2021-02-21T12:00:36Z</time>
      </trkpt>
      <trkpt lat="45.81451" lon="3.6043">
        <ele>586</ele>
        <time>2021-02-21T12:00:38Z</time>
      </trkpt>
      <trkpt lat="45.81451" lon="3.60428">
        <ele>586</ele>
        <time>2021-02-21T12:00:40Z</time>
      </trkpt>
      <trkpt lat="45.81452" lon="3.60425">
        <ele>586</ele>
        <time>2021-02-21T12:00:42Z</time>
      </trkpt>
      <trkpt lat="45.81452" lon="3.60421">
        <ele>585</ele>
        <time>2021-02-21T12:00:45Z</time>
      </trkpt>
      <trkpt lat="45.81452" lon="3.60416">
        <ele>585</ele>
        <time>2021-02-21T12:00:47Z</time>
      </trkpt>
      <trkpt lat="45.81452" lon="3.60411">
        <ele>585</ele>
        <time>2021-02-21T12:00:49Z</time>
      </trkpt>
      <trkpt lat="45.81452" lon="3.60408">
        <ele>585</ele>
        <time>2021-02-21T12:00:51Z</time>
      </trkpt>
      <trkpt lat="45.81449" lon="3.60405">
        <ele>586</ele>
        <time>2021-02-21T12:00:53Z</time>
      </trkpt>
      <trkpt lat="45.81447" lon="3.604">
        <ele>586</ele>
        <time>2021-02-21T12:00:55Z</time>
      </trkpt>
      <trkpt lat="45.81447" lon="3.60397">
        <ele>586</ele>
        <time>2021-02-21T12:00:57Z</time>
      </trkpt>
      <trkpt lat="45.81445" lon="3.60393">
        <ele>586</ele>
        <time>2021-02-21T12:00:59Z</time>
      </trkpt>
      <trkpt lat="45.81444" lon="3.6039">
        <ele>587</ele>
        <time>2021-02-21T12:01:00Z</time>
      </trkpt>
      <trkpt lat="45.81442" lon="3.60387">
        <ele>588</ele>
        <time>2021-02-21T12:01:02Z</time>
      </trkpt>
      <trkpt lat="45.81441" lon="3.60383">
        <ele>588</ele>
        <time>2021-02-21T12:01:04Z</time>
      </trkpt>
      <trkpt lat="45.81439" lon="3.60379">
        <ele>589</ele>
        <time>2021-02-21T12:01:06Z</time>
      </trkpt>
      <trkpt lat="45.81438" lon="3.60376">
        <ele>589</ele>
        <time>2021-02-21T12:01:08Z</time>
      </trkpt>
      <trkpt lat="45.81437" lon="3.60372">
        <ele>589</ele>
        <time>2021-02-21T12:01:10Z</time>
      </trkpt>
      <trkpt lat="45.81434" lon="3.60362">
        <ele>590</ele>
        <time>2021-02-21T12:01:15Z</time>
      </trkpt>
      <trkpt lat="45.81429" lon="3.60349">
        <ele>591</ele>
        <time>2021-02-21T12:01:22Z</time>
      </trkpt>
      <trkpt lat="45.81425" lon="3.60337">
        <ele>592</ele>
        <time>2021-02-21T12:01:29Z</time>
      </trkpt>
      <trkpt lat="45.81423" lon="3.60334">
        <ele>592</ele>
        <time>2021-02-21T12:01:31Z</time>
      </trkpt>
      <trkpt lat="45.81422" lon="3.60331">
        <ele>592</ele>
        <time>2021-02-21T12:01:33Z</time>
      </trkpt>
      <trkpt lat="45.81421" lon="3.60328">
        <ele>592</ele>
        <time>2021-02-21T12:01:35Z</time>
      </trkpt>
      <trkpt lat="45.81419" lon="3.60325">
        <ele>592</ele>
        <time>2021-02-21T12:01:40Z</time>
      </trkpt>
      <trkpt lat="45.81418" lon="3.60321">
        <ele>592</ele>
        <time>2021-02-21T12:01:42Z</time>
      </trkpt>
      <trkpt lat="45.81411" lon="3.60313">
        <ele>593</ele>
        <time>2021-02-21T12:01:47Z</time>
      </trkpt>
      <trkpt lat="45.81408" lon="3.6031">
        <ele>593</ele>
        <time>2021-02-21T12:01:49Z</time>
      </trkpt>
      <trkpt lat="45.81406" lon="3.60308">
        <ele>594</ele>
        <time>2021-02-21T12:01:51Z</time>
      </trkpt>
      <trkpt lat="45.81405" lon="3.60306">
        <ele>593</ele>
        <time>2021-02-21T12:01:53Z</time>
      </trkpt>
      <trkpt lat="45.81398" lon="3.60295">
        <ele>593</ele>
        <time>2021-02-21T12:02:00Z</time>
      </trkpt>
      <trkpt lat="45.81394" lon="3.60289">
        <ele>592</ele>
        <time>2021-02-21T12:02:04Z</time>
      </trkpt>
      <trkpt lat="45.81389" lon="3.60282">
        <ele>591</ele>
        <time>2021-02-21T12:02:09Z</time>
      </trkpt>
      <trkpt lat="45.81388" lon="3.60278">
        <ele>591</ele>
        <time>2021-02-21T12:02:11Z</time>
      </trkpt>
      <trkpt lat="45.81386" lon="3.60276">
        <ele>591</ele>
        <time>2021-02-21T12:02:13Z</time>
      </trkpt>
      <trkpt lat="45.81383" lon="3.60275">
        <ele>592</ele>
        <time>2021-02-21T12:02:15Z</time>
      </trkpt>
      <trkpt lat="45.8138" lon="3.60275">
        <ele>593</ele>
        <time>2021-02-21T12:02:17Z</time>
      </trkpt>
      <trkpt lat="45.81378" lon="3.60273">
        <ele>593</ele>
        <time>2021-02-21T12:02:19Z</time>
      </trkpt>
      <trkpt lat="45.81376" lon="3.60272">
        <ele>594</ele>
        <time>2021-02-21T12:02:21Z</time>
      </trkpt>
      <trkpt lat="45.81373" lon="3.60271">
        <ele>594</ele>
        <time>2021-02-21T12:02:23Z</time>
      </trkpt>
      <trkpt lat="45.81371" lon="3.60271">
        <ele>595</ele>
        <time>2021-02-21T12:02:24Z</time>
      </trkpt>
      <trkpt lat="45.81368" lon="3.6027">
        <ele>596</ele>
        <time>2021-02-21T12:02:26Z</time>
      </trkpt>
      <trkpt lat="45.81366" lon="3.60268">
        <ele>596</ele>
        <time>2021-02-21T12:02:28Z</time>
      </trkpt>
      <trkpt lat="45.81363" lon="3.60267">
        <ele>597</ele>
        <time>2021-02-21T12:02:30Z</time>
      </trkpt>
      <trkpt lat="45.81361" lon="3.60266">
        <ele>598</ele>
        <time>2021-02-21T12:02:32Z</time>
      </trkpt>
      <trkpt lat="45.81358" lon="3.60265">
        <ele>598</ele>
        <time>2021-02-21T12:02:35Z</time>
      </trkpt>
      <trkpt lat="45.8135" lon="3.60259">
        <ele>599</ele>
        <time>2021-02-21T12:02:46Z</time>
      </trkpt>
      <trkpt lat="45.81345" lon="3.60256">
        <ele>599</ele>
        <time>2021-02-21T12:02:51Z</time>
      </trkpt>
      <trkpt lat="45.81338" lon="3.60254">
        <ele>600</ele>
        <time>2021-02-21T12:02:57Z</time>
      </trkpt>
      <trkpt lat="45.81336" lon="3.60252">
        <ele>600</ele>
        <time>2021-02-21T12:03:00Z</time>
      </trkpt>
      <trkpt lat="45.81334" lon="3.60251">
        <ele>601</ele>
        <time>2021-02-21T12:03:01Z</time>
      </trkpt>
      <trkpt lat="45.81332" lon="3.6025">
        <ele>601</ele>
        <time>2021-02-21T12:03:02Z</time>
      </trkpt>
      <trkpt lat="45.81329" lon="3.60249">
        <ele>601</ele>
        <time>2021-02-21T12:03:04Z</time>
      </trkpt>
      <trkpt lat="45.81327" lon="3.60248">
        <ele>601</ele>
        <time>2021-02-21T12:03:06Z</time>
      </trkpt>
      <trkpt lat="45.81325" lon="3.60248">
        <ele>601</ele>
        <time>2021-02-21T12:03:08Z</time>
      </trkpt>
      <trkpt lat="45.81322" lon="3.60247">
        <ele>601</ele>
        <time>2021-02-21T12:03:10Z</time>
      </trkpt>
      <trkpt lat="45.81319" lon="3.60246">
        <ele>601</ele>
        <time>2021-02-21T12:03:12Z</time>
      </trkpt>
      <trkpt lat="45.81316" lon="3.60246">
        <ele>601</ele>
        <time>2021-02-21T12:03:13Z</time>
      </trkpt>
      <trkpt lat="45.81314" lon="3.60245">
        <ele>602</ele>
        <time>2021-02-21T12:03:15Z</time>
      </trkpt>
      <trkpt lat="45.81311" lon="3.60244">
        <ele>601</ele>
        <time>2021-02-21T12:03:17Z</time>
      </trkpt>
      <trkpt lat="45.81308" lon="3.60242">
        <ele>601</ele>
        <time>2021-02-21T12:03:19Z</time>
      </trkpt>
      <trkpt lat="45.81306" lon="3.6024">
        <ele>601</ele>
        <time>2021-02-21T12:03:21Z</time>
      </trkpt>
      <trkpt lat="45.81304" lon="3.60238">
        <ele>600</ele>
        <time>2021-02-21T12:03:24Z</time>
      </trkpt>
      <trkpt lat="45.81304" lon="3.60236">
        <ele>600</ele>
        <time>2021-02-21T12:03:26Z</time>
      </trkpt>
      <trkpt lat="45.81302" lon="3.60233">
        <ele>599</ele>
        <time>2021-02-21T12:03:28Z</time>
      </trkpt>
      <trkpt lat="45.81295" lon="3.60223">
        <ele>597</ele>
        <time>2021-02-21T12:03:36Z</time>
      </trkpt>
      <trkpt lat="45.81287" lon="3.60213">
        <ele>595</ele>
        <time>2021-02-21T12:03:44Z</time>
      </trkpt>
      <trkpt lat="45.81279" lon="3.60205">
        <ele>596</ele>
        <time>2021-02-21T12:03:49Z</time>
      </trkpt>
      <trkpt lat="45.81271" lon="3.60196">
        <ele>596</ele>
        <time>2021-02-21T12:03:55Z</time>
      </trkpt>
      <trkpt lat="45.81268" lon="3.60194">
        <ele>596</ele>
        <time>2021-02-21T12:03:57Z</time>
      </trkpt>
      <trkpt lat="45.81266" lon="3.60192">
        <ele>596</ele>
        <time>2021-02-21T12:03:58Z</time>
      </trkpt>
      <trkpt lat="45.81263" lon="3.6019">
        <ele>596</ele>
        <time>2021-02-21T12:04:00Z</time>
      </trkpt>
      <trkpt lat="45.8126" lon="3.60187">
        <ele>596</ele>
        <time>2021-02-21T12:04:02Z</time>
      </trkpt>
      <trkpt lat="45.81259" lon="3.60186">
        <ele>596</ele>
        <time>2021-02-21T12:04:03Z</time>
      </trkpt>
      <trkpt lat="45.81257" lon="3.60184">
        <ele>596</ele>
        <time>2021-02-21T12:04:04Z</time>
      </trkpt>
      <trkpt lat="45.81256" lon="3.60182">
        <ele>595</ele>
        <time>2021-02-21T12:04:05Z</time>
      </trkpt>
      <trkpt lat="45.81254" lon="3.60179">
        <ele>595</ele>
        <time>2021-02-21T12:04:07Z</time>
      </trkpt>
      <trkpt lat="45.81252" lon="3.60178">
        <ele>595</ele>
        <time>2021-02-21T12:04:09Z</time>
      </trkpt>
      <trkpt lat="45.81249" lon="3.60175">
        <ele>595</ele>
        <time>2021-02-21T12:04:11Z</time>
      </trkpt>
      <trkpt lat="45.81247" lon="3.60174">
        <ele>595</ele>
        <time>2021-02-21T12:04:13Z</time>
      </trkpt>
      <trkpt lat="45.81244" lon="3.60172">
        <ele>594</ele>
        <time>2021-02-21T12:04:15Z</time>
      </trkpt>
      <trkpt lat="45.81242" lon="3.6017">
        <ele>594</ele>
        <time>2021-02-21T12:04:17Z</time>
      </trkpt>
      <trkpt lat="45.81239" lon="3.60169">
        <ele>594</ele>
        <time>2021-02-21T12:04:19Z</time>
      </trkpt>
      <trkpt lat="45.81237" lon="3.60168">
        <ele>594</ele>
        <time>2021-02-21T12:04:21Z</time>
      </trkpt>
      <trkpt lat="45.81235" lon="3.60167">
        <ele>593</ele>
        <time>2021-02-21T12:04:23Z</time>
      </trkpt>
      <trkpt lat="45.81232" lon="3.60165">
        <ele>593</ele>
        <time>2021-02-21T12:04:25Z</time>
      </trkpt>
      <trkpt lat="45.81229" lon="3.60164">
        <ele>593</ele>
        <time>2021-02-21T12:04:27Z</time>
      </trkpt>
      <trkpt lat="45.81227" lon="3.60163">
        <ele>593</ele>
        <time>2021-02-21T12:04:29Z</time>
      </trkpt>
      <trkpt lat="45.81225" lon="3.6016">
        <ele>593</ele>
        <time>2021-02-21T12:04:31Z</time>
      </trkpt>
      <trkpt lat="45.81222" lon="3.60159">
        <ele>592</ele>
        <time>2021-02-21T12:04:33Z</time>
      </trkpt>
      <trkpt lat="45.81219" lon="3.60158">
        <ele>592</ele>
        <time>2021-02-21T12:04:35Z</time>
      </trkpt>
      <trkpt lat="45.81216" lon="3.60157">
        <ele>592</ele>
        <time>2021-02-21T12:04:37Z</time>
      </trkpt>
      <trkpt lat="45.81214" lon="3.60155">
        <ele>592</ele>
        <time>2021-02-21T12:04:39Z</time>
      </trkpt>
      <trkpt lat="45.81211" lon="3.60154">
        <ele>591</ele>
        <time>2021-02-21T12:04:41Z</time>
      </trkpt>
      <trkpt lat="45.81208" lon="3.60154">
        <ele>591</ele>
        <time>2021-02-21T12:04:43Z</time>
      </trkpt>
      <trkpt lat="45.81206" lon="3.60153">
        <ele>591</ele>
        <time>2021-02-21T12:04:45Z</time>
      </trkpt>
      <trkpt lat="45.81203" lon="3.60153">
        <ele>591</ele>
        <time>2021-02-21T12:04:47Z</time>
      </trkpt>
      <trkpt lat="45.812" lon="3.60152">
        <ele>591</ele>
        <time>2021-02-21T12:04:49Z</time>
      </trkpt>
      <trkpt lat="45.81197" lon="3.60152">
        <ele>590</ele>
        <time>2021-02-21T12:04:51Z</time>
      </trkpt>
      <trkpt lat="45.81194" lon="3.60152">
        <ele>590</ele>
        <time>2021-02-21T12:04:53Z</time>
      </trkpt>
      <trkpt lat="45.81192" lon="3.60152">
        <ele>590</ele>
        <time>2021-02-21T12:04:55Z</time>
      </trkpt>
      <trkpt lat="45.8119" lon="3.60151">
        <ele>590</ele>
        <time>2021-02-21T12:04:57Z</time>
      </trkpt>
      <trkpt lat="45.81187" lon="3.6015">
        <ele>590</ele>
        <time>2021-02-21T12:04:59Z</time>
      </trkpt>
      <trkpt lat="45.81185" lon="3.60149">
        <ele>589</ele>
        <time>2021-02-21T12:05:01Z</time>
      </trkpt>
      <trkpt lat="45.81183" lon="3.60149">
        <ele>589</ele>
        <time>2021-02-21T12:05:03Z</time>
      </trkpt>
      <trkpt lat="45.81181" lon="3.60148">
        <ele>589</ele>
        <time>2021-02-21T12:05:06Z</time>
      </trkpt>
      <trkpt lat="45.81178" lon="3.60147">
        <ele>589</ele>
        <time>2021-02-21T12:05:09Z</time>
      </trkpt>
      <trkpt lat="45.81176" lon="3.60146">
        <ele>589</ele>
        <time>2021-02-21T12:05:11Z</time>
      </trkpt>
      <trkpt lat="45.81173" lon="3.60146">
        <ele>589</ele>
        <time>2021-02-21T12:05:13Z</time>
      </trkpt>
      <trkpt lat="45.8117" lon="3.60147">
        <ele>589</ele>
        <time>2021-02-21T12:05:15Z</time>
      </trkpt>
      <trkpt lat="45.81168" lon="3.60147">
        <ele>589</ele>
        <time>2021-02-21T12:05:16Z</time>
      </trkpt>
      <trkpt lat="45.81166" lon="3.60147">
        <ele>589</ele>
        <time>2021-02-21T12:05:17Z</time>
      </trkpt>
      <trkpt lat="45.81164" lon="3.60147">
        <ele>589</ele>
        <time>2021-02-21T12:05:18Z</time>
      </trkpt>
      <trkpt lat="45.81162" lon="3.60147">
        <ele>589</ele>
        <time>2021-02-21T12:05:19Z</time>
      </trkpt>
      <trkpt lat="45.81159" lon="3.60145">
        <ele>588</ele>
        <time>2021-02-21T12:05:21Z</time>
      </trkpt>
      <trkpt lat="45.81157" lon="3.60143">
        <ele>588</ele>
        <time>2021-02-21T12:05:23Z</time>
      </trkpt>
      <trkpt lat="45.81154" lon="3.60142">
        <ele>588</ele>
        <time>2021-02-21T12:05:25Z</time>
      </trkpt>
      <trkpt lat="45.81152" lon="3.6014">
        <ele>588</ele>
        <time>2021-02-21T12:05:27Z</time>
      </trkpt>
      <trkpt lat="45.81149" lon="3.60138">
        <ele>587</ele>
        <time>2021-02-21T12:05:29Z</time>
      </trkpt>
      <trkpt lat="45.81146" lon="3.60136">
        <ele>587</ele>
        <time>2021-02-21T12:05:31Z</time>
      </trkpt>
      <trkpt lat="45.81144" lon="3.60133">
        <ele>587</ele>
        <time>2021-02-21T12:05:33Z</time>
      </trkpt>
      <trkpt lat="45.81142" lon="3.6013">
        <ele>586</ele>
        <time>2021-02-21T12:05:35Z</time>
      </trkpt>
      <trkpt lat="45.81141" lon="3.60129">
        <ele>586</ele>
        <time>2021-02-21T12:05:36Z</time>
      </trkpt>
      <trkpt lat="45.81139" lon="3.60126">
        <ele>586</ele>
        <time>2021-02-21T12:05:38Z</time>
      </trkpt>
      <trkpt lat="45.81137" lon="3.60123">
        <ele>585</ele>
        <time>2021-02-21T12:05:40Z</time>
      </trkpt>
      <trkpt lat="45.81134" lon="3.60121">
        <ele>585</ele>
        <time>2021-02-21T12:05:42Z</time>
      </trkpt>
      <trkpt lat="45.81132" lon="3.60119">
        <ele>584</ele>
        <time>2021-02-21T12:05:44Z</time>
      </trkpt>
      <trkpt lat="45.8113" lon="3.60118">
        <ele>584</ele>
        <time>2021-02-21T12:05:46Z</time>
      </trkpt>
      <trkpt lat="45.81127" lon="3.60118">
        <ele>584</ele>
        <time>2021-02-21T12:05:48Z</time>
      </trkpt>
      <trkpt lat="45.81125" lon="3.60118">
        <ele>584</ele>
        <time>2021-02-21T12:05:50Z</time>
      </trkpt>
      <trkpt lat="45.81123" lon="3.60119">
        <ele>584</ele>
        <time>2021-02-21T12:05:51Z</time>
      </trkpt>
      <trkpt lat="45.8112" lon="3.60118">
        <ele>583</ele>
        <time>2021-02-21T12:05:53Z</time>
      </trkpt>
      <trkpt lat="45.81117" lon="3.60118">
        <ele>583</ele>
        <time>2021-02-21T12:05:56Z</time>
      </trkpt>
      <trkpt lat="45.81115" lon="3.60118">
        <ele>583</ele>
        <time>2021-02-21T12:05:58Z</time>
      </trkpt>
      <trkpt lat="45.81113" lon="3.60114">
        <ele>582</ele>
        <time>2021-02-21T12:06:01Z</time>
      </trkpt>
      <trkpt lat="45.81111" lon="3.60112">
        <ele>582</ele>
        <time>2021-02-21T12:06:03Z</time>
      </trkpt>
      <trkpt lat="45.81109" lon="3.6011">
        <ele>581</ele>
        <time>2021-02-21T12:06:05Z</time>
      </trkpt>
      <trkpt lat="45.81107" lon="3.60109">
        <ele>581</ele>
        <time>2021-02-21T12:06:06Z</time>
      </trkpt>
      <trkpt lat="45.81105" lon="3.60107">
        <ele>580</ele>
        <time>2021-02-21T12:06:08Z</time>
      </trkpt>
      <trkpt lat="45.81102" lon="3.60104">
        <ele>580</ele>
        <time>2021-02-21T12:06:10Z</time>
      </trkpt>
      <trkpt lat="45.811" lon="3.60103">
        <ele>579</ele>
        <time>2021-02-21T12:06:12Z</time>
      </trkpt>
      <trkpt lat="45.81098" lon="3.60103">
        <ele>579</ele>
        <time>2021-02-21T12:06:14Z</time>
      </trkpt>
      <trkpt lat="45.81096" lon="3.60103">
        <ele>580</ele>
        <time>2021-02-21T12:06:16Z</time>
      </trkpt>
      <trkpt lat="45.81094" lon="3.60104">
        <ele>580</ele>
        <time>2021-02-21T12:06:18Z</time>
      </trkpt>
      <trkpt lat="45.81091" lon="3.60103">
        <ele>579</ele>
        <time>2021-02-21T12:06:20Z</time>
      </trkpt>
      <trkpt lat="45.81089" lon="3.60103">
        <ele>579</ele>
        <time>2021-02-21T12:06:21Z</time>
      </trkpt>
      <trkpt lat="45.81087" lon="3.60103">
        <ele>579</ele>
        <time>2021-02-21T12:06:22Z</time>
      </trkpt>
      <trkpt lat="45.81083" lon="3.60104">
        <ele>580</ele>
        <time>2021-02-21T12:06:24Z</time>
      </trkpt>
      <trkpt lat="45.81082" lon="3.60105">
        <ele>580</ele>
        <time>2021-02-21T12:06:25Z</time>
      </trkpt>
      <trkpt lat="45.81079" lon="3.60106">
        <ele>580</ele>
        <time>2021-02-21T12:06:27Z</time>
      </trkpt>
      <trkpt lat="45.81077" lon="3.60106">
        <ele>580</ele>
        <time>2021-02-21T12:06:28Z</time>
      </trkpt>
      <trkpt lat="45.81074" lon="3.60107">
        <ele>580</ele>
        <time>2021-02-21T12:06:30Z</time>
      </trkpt>
      <trkpt lat="45.81071" lon="3.60106">
        <ele>580</ele>
        <time>2021-02-21T12:06:32Z</time>
      </trkpt>
      <trkpt lat="45.81068" lon="3.60104">
        <ele>580</ele>
        <time>2021-02-21T12:06:34Z</time>
      </trkpt>
      <trkpt lat="45.81065" lon="3.60104">
        <ele>580</ele>
        <time>2021-02-21T12:06:36Z</time>
      </trkpt>
      <trkpt lat="45.81063" lon="3.60102">
        <ele>580</ele>
        <time>2021-02-21T12:06:38Z</time>
      </trkpt>
      <trkpt lat="45.81059" lon="3.60102">
        <ele>580</ele>
        <time>2021-02-21T12:06:40Z</time>
      </trkpt>
      <trkpt lat="45.81056" lon="3.60099">
        <ele>579</ele>
        <time>2021-02-21T12:06:42Z</time>
      </trkpt>
      <trkpt lat="45.81054" lon="3.60097">
        <ele>579</ele>
        <time>2021-02-21T12:06:43Z</time>
      </trkpt>
      <trkpt lat="45.81052" lon="3.60095">
        <ele>578</ele>
        <time>2021-02-21T12:06:45Z</time>
      </trkpt>
      <trkpt lat="45.81052" lon="3.60092">
        <ele>578</ele>
        <time>2021-02-21T12:07:05Z</time>
      </trkpt>
      <trkpt lat="45.8105" lon="3.6009">
        <ele>577</ele>
        <time>2021-02-21T12:07:12Z</time>
      </trkpt>
      <trkpt lat="45.81047" lon="3.60089">
        <ele>576</ele>
        <time>2021-02-21T12:07:14Z</time>
      </trkpt>
      <trkpt lat="45.81044" lon="3.60088">
        <ele>576</ele>
        <time>2021-02-21T12:07:16Z</time>
      </trkpt>
      <trkpt lat="45.81041" lon="3.60087">
        <ele>575</ele>
        <time>2021-02-21T12:07:18Z</time>
      </trkpt>
      <trkpt lat="45.81038" lon="3.60085">
        <ele>575</ele>
        <time>2021-02-21T12:07:20Z</time>
      </trkpt>
      <trkpt lat="45.81035" lon="3.60084">
        <ele>574</ele>
        <time>2021-02-21T12:07:22Z</time>
      </trkpt>
      <trkpt lat="45.81032" lon="3.60082">
        <ele>574</ele>
        <time>2021-02-21T12:07:24Z</time>
      </trkpt>
      <trkpt lat="45.8103" lon="3.6008">
        <ele>573</ele>
        <time>2021-02-21T12:07:26Z</time>
      </trkpt>
      <trkpt lat="45.81027" lon="3.60079">
        <ele>573</ele>
        <time>2021-02-21T12:07:28Z</time>
      </trkpt>
      <trkpt lat="45.81024" lon="3.60077">
        <ele>573</ele>
        <time>2021-02-21T12:07:30Z</time>
      </trkpt>
      <trkpt lat="45.81022" lon="3.60075">
        <ele>572</ele>
        <time>2021-02-21T12:07:32Z</time>
      </trkpt>
      <trkpt lat="45.81019" lon="3.60072">
        <ele>572</ele>
        <time>2021-02-21T12:07:34Z</time>
      </trkpt>
      <trkpt lat="45.81017" lon="3.6007">
        <ele>572</ele>
        <time>2021-02-21T12:07:36Z</time>
      </trkpt>
      <trkpt lat="45.81014" lon="3.60068">
        <ele>572</ele>
        <time>2021-02-21T12:07:38Z</time>
      </trkpt>
      <trkpt lat="45.81012" lon="3.60067">
        <ele>572</ele>
        <time>2021-02-21T12:07:40Z</time>
      </trkpt>
      <trkpt lat="45.81009" lon="3.60065">
        <ele>572</ele>
        <time>2021-02-21T12:07:42Z</time>
      </trkpt>
      <trkpt lat="45.81007" lon="3.60063">
        <ele>572</ele>
        <time>2021-02-21T12:07:44Z</time>
      </trkpt>
      <trkpt lat="45.81005" lon="3.60061">
        <ele>572</ele>
        <time>2021-02-21T12:07:46Z</time>
      </trkpt>
      <trkpt lat="45.81002" lon="3.60059">
        <ele>572</ele>
        <time>2021-02-21T12:07:48Z</time>
      </trkpt>
      <trkpt lat="45.81" lon="3.60059">
        <ele>573</ele>
        <time>2021-02-21T12:07:50Z</time>
      </trkpt>
      <trkpt lat="45.80998" lon="3.60058">
        <ele>573</ele>
        <time>2021-02-21T12:07:52Z</time>
      </trkpt>
      <trkpt lat="45.80995" lon="3.60057">
        <ele>573</ele>
        <time>2021-02-21T12:07:54Z</time>
      </trkpt>
      <trkpt lat="45.80993" lon="3.60055">
        <ele>573</ele>
        <time>2021-02-21T12:07:56Z</time>
      </trkpt>
      <trkpt lat="45.80991" lon="3.60054">
        <ele>573</ele>
        <time>2021-02-21T12:07:58Z</time>
      </trkpt>
      <trkpt lat="45.80989" lon="3.60053">
        <ele>574</ele>
        <time>2021-02-21T12:08:00Z</time>
      </trkpt>
      <trkpt lat="45.80986" lon="3.60052">
        <ele>574</ele>
        <time>2021-02-21T12:08:02Z</time>
      </trkpt>
      <trkpt lat="45.80983" lon="3.6005">
        <ele>574</ele>
        <time>2021-02-21T12:08:04Z</time>
      </trkpt>
      <trkpt lat="45.80981" lon="3.60049">
        <ele>574</ele>
        <time>2021-02-21T12:08:06Z</time>
      </trkpt>
      <trkpt lat="45.80978" lon="3.60047">
        <ele>574</ele>
        <time>2021-02-21T12:08:08Z</time>
      </trkpt>
      <trkpt lat="45.80976" lon="3.60045">
        <ele>574</ele>
        <time>2021-02-21T12:08:10Z</time>
      </trkpt>
      <trkpt lat="45.80974" lon="3.60044">
        <ele>574</ele>
        <time>2021-02-21T12:08:12Z</time>
      </trkpt>
      <trkpt lat="45.80971" lon="3.60041">
        <ele>574</ele>
        <time>2021-02-21T12:08:14Z</time>
      </trkpt>
      <trkpt lat="45.80969" lon="3.60039">
        <ele>574</ele>
        <time>2021-02-21T12:08:16Z</time>
      </trkpt>
      <trkpt lat="45.80966" lon="3.60037">
        <ele>574</ele>
        <time>2021-02-21T12:08:18Z</time>
      </trkpt>
      <trkpt lat="45.80963" lon="3.60035">
        <ele>574</ele>
        <time>2021-02-21T12:08:20Z</time>
      </trkpt>
      <trkpt lat="45.8096" lon="3.60031">
        <ele>574</ele>
        <time>2021-02-21T12:08:22Z</time>
      </trkpt>
      <trkpt lat="45.80959" lon="3.60029">
        <ele>574</ele>
        <time>2021-02-21T12:08:24Z</time>
      </trkpt>
      <trkpt lat="45.80956" lon="3.60028">
        <ele>574</ele>
        <time>2021-02-21T12:08:26Z</time>
      </trkpt>
      <trkpt lat="45.80954" lon="3.60026">
        <ele>574</ele>
        <time>2021-02-21T12:08:28Z</time>
      </trkpt>
      <trkpt lat="45.80952" lon="3.60025">
        <ele>574</ele>
        <time>2021-02-21T12:08:30Z</time>
      </trkpt>
      <trkpt lat="45.8095" lon="3.60023">
        <ele>574</ele>
        <time>2021-02-21T12:08:32Z</time>
      </trkpt>
      <trkpt lat="45.80947" lon="3.60021">
        <ele>574</ele>
        <time>2021-02-21T12:08:34Z</time>
      </trkpt>
      <trkpt lat="45.80945" lon="3.6002">
        <ele>574</ele>
        <time>2021-02-21T12:08:36Z</time>
      </trkpt>
      <trkpt lat="45.80943" lon="3.6002">
        <ele>574</ele>
        <time>2021-02-21T12:08:38Z</time>
      </trkpt>
      <trkpt lat="45.8094" lon="3.60018">
        <ele>574</ele>
        <time>2021-02-21T12:08:40Z</time>
      </trkpt>
      <trkpt lat="45.80938" lon="3.60017">
        <ele>574</ele>
        <time>2021-02-21T12:08:42Z</time>
      </trkpt>
      <trkpt lat="45.80936" lon="3.60015">
        <ele>573</ele>
        <time>2021-02-21T12:08:44Z</time>
      </trkpt>
      <trkpt lat="45.80935" lon="3.60013">
        <ele>573</ele>
        <time>2021-02-21T12:08:45Z</time>
      </trkpt>
      <trkpt lat="45.80932" lon="3.60011">
        <ele>573</ele>
        <time>2021-02-21T12:08:47Z</time>
      </trkpt>
      <trkpt lat="45.8093" lon="3.60009">
        <ele>573</ele>
        <time>2021-02-21T12:08:49Z</time>
      </trkpt>
      <trkpt lat="45.80928" lon="3.60008">
        <ele>573</ele>
        <time>2021-02-21T12:08:51Z</time>
      </trkpt>
      <trkpt lat="45.80926" lon="3.60006">
        <ele>573</ele>
        <time>2021-02-21T12:08:53Z</time>
      </trkpt>
      <trkpt lat="45.80924" lon="3.60005">
        <ele>573</ele>
        <time>2021-02-21T12:08:55Z</time>
      </trkpt>
      <trkpt lat="45.80921" lon="3.60003">
        <ele>573</ele>
        <time>2021-02-21T12:08:57Z</time>
      </trkpt>
      <trkpt lat="45.80919" lon="3.60001">
        <ele>573</ele>
        <time>2021-02-21T12:08:59Z</time>
      </trkpt>
      <trkpt lat="45.80916" lon="3.59999">
        <ele>573</ele>
        <time>2021-02-21T12:09:01Z</time>
      </trkpt>
      <trkpt lat="45.80914" lon="3.59998">
        <ele>573</ele>
        <time>2021-02-21T12:09:03Z</time>
      </trkpt>
      <trkpt lat="45.80911" lon="3.59996">
        <ele>573</ele>
        <time>2021-02-21T12:09:05Z</time>
      </trkpt>
      <trkpt lat="45.80909" lon="3.59995">
        <ele>573</ele>
        <time>2021-02-21T12:09:07Z</time>
      </trkpt>
      <trkpt lat="45.80906" lon="3.59993">
        <ele>573</ele>
        <time>2021-02-21T12:09:09Z</time>
      </trkpt>
      <trkpt lat="45.80904" lon="3.59992">
        <ele>573</ele>
        <time>2021-02-21T12:09:11Z</time>
      </trkpt>
      <trkpt lat="45.80901" lon="3.59991">
        <ele>573</ele>
        <time>2021-02-21T12:09:13Z</time>
      </trkpt>
      <trkpt lat="45.80899" lon="3.5999">
        <ele>574</ele>
        <time>2021-02-21T12:09:15Z</time>
      </trkpt>
      <trkpt lat="45.80896" lon="3.59989">
        <ele>574</ele>
        <time>2021-02-21T12:09:17Z</time>
      </trkpt>
      <trkpt lat="45.80894" lon="3.59987">
        <ele>574</ele>
        <time>2021-02-21T12:09:19Z</time>
      </trkpt>
      <trkpt lat="45.80893" lon="3.59985">
        <ele>574</ele>
        <time>2021-02-21T12:09:26Z</time>
      </trkpt>
      <trkpt lat="45.80891" lon="3.59983">
        <ele>574</ele>
        <time>2021-02-21T12:09:28Z</time>
      </trkpt>
      <trkpt lat="45.80888" lon="3.59982">
        <ele>574</ele>
        <time>2021-02-21T12:09:30Z</time>
      </trkpt>
      <trkpt lat="45.80885" lon="3.59981">
        <ele>574</ele>
        <time>2021-02-21T12:09:32Z</time>
      </trkpt>
      <trkpt lat="45.80883" lon="3.59979">
        <ele>574</ele>
        <time>2021-02-21T12:09:34Z</time>
      </trkpt>
      <trkpt lat="45.8088" lon="3.59978">
        <ele>573</ele>
        <time>2021-02-21T12:09:36Z</time>
      </trkpt>
      <trkpt lat="45.80877" lon="3.59977">
        <ele>573</ele>
        <time>2021-02-21T12:09:38Z</time>
      </trkpt>
      <trkpt lat="45.80874" lon="3.59976">
        <ele>573</ele>
        <time>2021-02-21T12:09:40Z</time>
      </trkpt>
      <trkpt lat="45.80872" lon="3.59975">
        <ele>573</ele>
        <time>2021-02-21T12:09:42Z</time>
      </trkpt>
      <trkpt lat="45.80869" lon="3.59974">
        <ele>573</ele>
        <time>2021-02-21T12:09:44Z</time>
      </trkpt>
      <trkpt lat="45.80867" lon="3.59973">
        <ele>573</ele>
        <time>2021-02-21T12:09:46Z</time>
      </trkpt>
      <trkpt lat="45.80864" lon="3.59972">
        <ele>573</ele>
        <time>2021-02-21T12:09:48Z</time>
      </trkpt>
      <trkpt lat="45.80861" lon="3.59972">
        <ele>572</ele>
        <time>2021-02-21T12:09:50Z</time>
      </trkpt>
      <trkpt lat="45.80859" lon="3.59971">
        <ele>572</ele>
        <time>2021-02-21T12:09:52Z</time>
      </trkpt>
      <trkpt lat="45.80856" lon="3.59971">
        <ele>572</ele>
        <time>2021-02-21T12:09:54Z</time>
      </trkpt>
      <trkpt lat="45.80853" lon="3.59971">
        <ele>572</ele>
        <time>2021-02-21T12:09:56Z</time>
      </trkpt>
      <trkpt lat="45.8085" lon="3.59971">
        <ele>572</ele>
        <time>2021-02-21T12:09:58Z</time>
      </trkpt>
      <trkpt lat="45.80848" lon="3.59972">
        <ele>572</ele>
        <time>2021-02-21T12:10:00Z</time>
      </trkpt>
      <trkpt lat="45.80845" lon="3.59972">
        <ele>572</ele>
        <time>2021-02-21T12:10:02Z</time>
      </trkpt>
      <trkpt lat="45.80842" lon="3.59972">
        <ele>573</ele>
        <time>2021-02-21T12:10:04Z</time>
      </trkpt>
      <trkpt lat="45.80839" lon="3.59972">
        <ele>572</ele>
        <time>2021-02-21T12:10:06Z</time>
      </trkpt>
      <trkpt lat="45.80837" lon="3.59972">
        <ele>572</ele>
        <time>2021-02-21T12:10:08Z</time>
      </trkpt>
      <trkpt lat="45.80834" lon="3.59971">
        <ele>572</ele>
        <time>2021-02-21T12:10:10Z</time>
      </trkpt>
      <trkpt lat="45.80831" lon="3.59971">
        <ele>573</ele>
        <time>2021-02-21T12:10:12Z</time>
      </trkpt>
      <trkpt lat="45.80828" lon="3.59971">
        <ele>573</ele>
        <time>2021-02-21T12:10:14Z</time>
      </trkpt>
      <trkpt lat="45.80826" lon="3.5997">
        <ele>573</ele>
        <time>2021-02-21T12:10:16Z</time>
      </trkpt>
      <trkpt lat="45.80823" lon="3.5997">
        <ele>573</ele>
        <time>2021-02-21T12:10:18Z</time>
      </trkpt>
      <trkpt lat="45.8082" lon="3.59967">
        <ele>573</ele>
        <time>2021-02-21T12:10:20Z</time>
      </trkpt>
      <trkpt lat="45.80817" lon="3.59966">
        <ele>573</ele>
        <time>2021-02-21T12:10:22Z</time>
      </trkpt>
      <trkpt lat="45.80814" lon="3.59965">
        <ele>573</ele>
        <time>2021-02-21T12:10:24Z</time>
      </trkpt>
      <trkpt lat="45.80811" lon="3.59964">
        <ele>574</ele>
        <time>2021-02-21T12:10:26Z</time>
      </trkpt>
      <trkpt lat="45.80809" lon="3.59964">
        <ele>574</ele>
        <time>2021-02-21T12:10:28Z</time>
      </trkpt>
      <trkpt lat="45.80806" lon="3.59964">
        <ele>574</ele>
        <time>2021-02-21T12:10:30Z</time>
      </trkpt>
      <trkpt lat="45.80804" lon="3.59963">
        <ele>574</ele>
        <time>2021-02-21T12:10:32Z</time>
      </trkpt>
      <trkpt lat="45.80801" lon="3.59963">
        <ele>574</ele>
        <time>2021-02-21T12:10:34Z</time>
      </trkpt>
      <trkpt lat="45.80798" lon="3.59962">
        <ele>574</ele>
        <time>2021-02-21T12:10:36Z</time>
      </trkpt>
      <trkpt lat="45.80795" lon="3.59962">
        <ele>574</ele>
        <time>2021-02-21T12:10:38Z</time>
      </trkpt>
      <trkpt lat="45.80793" lon="3.59962">
        <ele>574</ele>
        <time>2021-02-21T12:10:40Z</time>
      </trkpt>
      <trkpt lat="45.8079" lon="3.59962">
        <ele>574</ele>
        <time>2021-02-21T12:10:42Z</time>
      </trkpt>
      <trkpt lat="45.80787" lon="3.59962">
        <ele>574</ele>
        <time>2021-02-21T12:10:44Z</time>
      </trkpt>
      <trkpt lat="45.80784" lon="3.59963">
        <ele>574</ele>
        <time>2021-02-21T12:10:46Z</time>
      </trkpt>
      <trkpt lat="45.80781" lon="3.59963">
        <ele>574</ele>
        <time>2021-02-21T12:10:48Z</time>
      </trkpt>
      <trkpt lat="45.80779" lon="3.59964">
        <ele>574</ele>
        <time>2021-02-21T12:10:50Z</time>
      </trkpt>
      <trkpt lat="45.80776" lon="3.59964">
        <ele>573</ele>
        <time>2021-02-21T12:10:52Z</time>
      </trkpt>
      <trkpt lat="45.80773" lon="3.59964">
        <ele>573</ele>
        <time>2021-02-21T12:10:54Z</time>
      </trkpt>
      <trkpt lat="45.8077" lon="3.59964">
        <ele>573</ele>
        <time>2021-02-21T12:10:56Z</time>
      </trkpt>
      <trkpt lat="45.80768" lon="3.59964">
        <ele>573</ele>
        <time>2021-02-21T12:10:58Z</time>
      </trkpt>
      <trkpt lat="45.80765" lon="3.59965">
        <ele>573</ele>
        <time>2021-02-21T12:11:00Z</time>
      </trkpt>
      <trkpt lat="45.80762" lon="3.59968">
        <ele>572</ele>
        <time>2021-02-21T12:11:02Z</time>
      </trkpt>
      <trkpt lat="45.80759" lon="3.5997">
        <ele>572</ele>
        <time>2021-02-21T12:11:04Z</time>
      </trkpt>
      <trkpt lat="45.80756" lon="3.59971">
        <ele>572</ele>
        <time>2021-02-21T12:11:06Z</time>
      </trkpt>
      <trkpt lat="45.80754" lon="3.59971">
        <ele>572</ele>
        <time>2021-02-21T12:11:08Z</time>
      </trkpt>
      <trkpt lat="45.80751" lon="3.59971">
        <ele>572</ele>
        <time>2021-02-21T12:11:10Z</time>
      </trkpt>
      <trkpt lat="45.80748" lon="3.59971">
        <ele>571</ele>
        <time>2021-02-21T12:11:12Z</time>
      </trkpt>
      <trkpt lat="45.80746" lon="3.59972">
        <ele>571</ele>
        <time>2021-02-21T12:11:14Z</time>
      </trkpt>
      <trkpt lat="45.80743" lon="3.59972">
        <ele>571</ele>
        <time>2021-02-21T12:11:16Z</time>
      </trkpt>
      <trkpt lat="45.80741" lon="3.59972">
        <ele>571</ele>
        <time>2021-02-21T12:11:18Z</time>
      </trkpt>
      <trkpt lat="45.80739" lon="3.59973">
        <ele>571</ele>
        <time>2021-02-21T12:11:20Z</time>
      </trkpt>
      <trkpt lat="45.80736" lon="3.59973">
        <ele>571</ele>
        <time>2021-02-21T12:11:22Z</time>
      </trkpt>
      <trkpt lat="45.80734" lon="3.59973">
        <ele>571</ele>
        <time>2021-02-21T12:11:24Z</time>
      </trkpt>
      <trkpt lat="45.80731" lon="3.59974">
        <ele>571</ele>
        <time>2021-02-21T12:11:26Z</time>
      </trkpt>
      <trkpt lat="45.80729" lon="3.59975">
        <ele>571</ele>
        <time>2021-02-21T12:11:28Z</time>
      </trkpt>
      <trkpt lat="45.80726" lon="3.59977">
        <ele>571</ele>
        <time>2021-02-21T12:11:30Z</time>
      </trkpt>
      <trkpt lat="45.80723" lon="3.59978">
        <ele>571</ele>
        <time>2021-02-21T12:11:32Z</time>
      </trkpt>
      <trkpt lat="45.80721" lon="3.59978">
        <ele>570</ele>
        <time>2021-02-21T12:11:34Z</time>
      </trkpt>
      <trkpt lat="45.80718" lon="3.59979">
        <ele>570</ele>
        <time>2021-02-21T12:11:36Z</time>
      </trkpt>
      <trkpt lat="45.80716" lon="3.59978">
        <ele>570</ele>
        <time>2021-02-21T12:11:38Z</time>
      </trkpt>
      <trkpt lat="45.80713" lon="3.59979">
        <ele>569</ele>
        <time>2021-02-21T12:11:40Z</time>
      </trkpt>
      <trkpt lat="45.80711" lon="3.5998">
        <ele>569</ele>
        <time>2021-02-21T12:11:42Z</time>
      </trkpt>
      <trkpt lat="45.80708" lon="3.5998">
        <ele>568</ele>
        <time>2021-02-21T12:11:44Z</time>
      </trkpt>
      <trkpt lat="45.80706" lon="3.59981">
        <ele>568</ele>
        <time>2021-02-21T12:11:46Z</time>
      </trkpt>
      <trkpt lat="45.80703" lon="3.59981">
        <ele>568</ele>
        <time>2021-02-21T12:11:48Z</time>
      </trkpt>
      <trkpt lat="45.80701" lon="3.59983">
        <ele>567</ele>
        <time>2021-02-21T12:11:50Z</time>
      </trkpt>
      <trkpt lat="45.80698" lon="3.59984">
        <ele>567</ele>
        <time>2021-02-21T12:11:52Z</time>
      </trkpt>
      <trkpt lat="45.80695" lon="3.59985">
        <ele>567</ele>
        <time>2021-02-21T12:11:54Z</time>
      </trkpt>
      <trkpt lat="45.80693" lon="3.59986">
        <ele>566</ele>
        <time>2021-02-21T12:11:56Z</time>
      </trkpt>
      <trkpt lat="45.8069" lon="3.59987">
        <ele>566</ele>
        <time>2021-02-21T12:11:58Z</time>
      </trkpt>
      <trkpt lat="45.80688" lon="3.59988">
        <ele>565</ele>
        <time>2021-02-21T12:12:00Z</time>
      </trkpt>
      <trkpt lat="45.80685" lon="3.59989">
        <ele>565</ele>
        <time>2021-02-21T12:12:02Z</time>
      </trkpt>
      <trkpt lat="45.80682" lon="3.59989">
        <ele>565</ele>
        <time>2021-02-21T12:12:04Z</time>
      </trkpt>
      <trkpt lat="45.80679" lon="3.59989">
        <ele>564</ele>
        <time>2021-02-21T12:12:06Z</time>
      </trkpt>
      <trkpt lat="45.80677" lon="3.5999">
        <ele>564</ele>
        <time>2021-02-21T12:12:08Z</time>
      </trkpt>
      <trkpt lat="45.80674" lon="3.5999">
        <ele>564</ele>
        <time>2021-02-21T12:12:10Z</time>
      </trkpt>
      <trkpt lat="45.80671" lon="3.5999">
        <ele>563</ele>
        <time>2021-02-21T12:12:12Z</time>
      </trkpt>
      <trkpt lat="45.80669" lon="3.59989">
        <ele>563</ele>
        <time>2021-02-21T12:12:14Z</time>
      </trkpt>
      <trkpt lat="45.80666" lon="3.59989">
        <ele>562</ele>
        <time>2021-02-21T12:12:16Z</time>
      </trkpt>
      <trkpt lat="45.80663" lon="3.59989">
        <ele>562</ele>
        <time>2021-02-21T12:12:18Z</time>
      </trkpt>
      <trkpt lat="45.8066" lon="3.59988">
        <ele>562</ele>
        <time>2021-02-21T12:12:20Z</time>
      </trkpt>
      <trkpt lat="45.80657" lon="3.59988">
        <ele>562</ele>
        <time>2021-02-21T12:12:22Z</time>
      </trkpt>
      <trkpt lat="45.80654" lon="3.59987">
        <ele>561</ele>
        <time>2021-02-21T12:12:24Z</time>
      </trkpt>
      <trkpt lat="45.80652" lon="3.59986">
        <ele>561</ele>
        <time>2021-02-21T12:12:26Z</time>
      </trkpt>
      <trkpt lat="45.80649" lon="3.59985">
        <ele>561</ele>
        <time>2021-02-21T12:12:28Z</time>
      </trkpt>
      <trkpt lat="45.80646" lon="3.59984">
        <ele>561</ele>
        <time>2021-02-21T12:12:30Z</time>
      </trkpt>
      <trkpt lat="45.80644" lon="3.59983">
        <ele>561</ele>
        <time>2021-02-21T12:12:32Z</time>
      </trkpt>
      <trkpt lat="45.80641" lon="3.59981">
        <ele>560</ele>
        <time>2021-02-21T12:12:34Z</time>
      </trkpt>
      <trkpt lat="45.80639" lon="3.59978">
        <ele>560</ele>
        <time>2021-02-21T12:12:36Z</time>
      </trkpt>
      <trkpt lat="45.80637" lon="3.59977">
        <ele>560</ele>
        <time>2021-02-21T12:12:38Z</time>
      </trkpt>
      <trkpt lat="45.80634" lon="3.59975">
        <ele>560</ele>
        <time>2021-02-21T12:12:40Z</time>
      </trkpt>
      <trkpt lat="45.80632" lon="3.59974">
        <ele>560</ele>
        <time>2021-02-21T12:12:42Z</time>
      </trkpt>
      <trkpt lat="45.80629" lon="3.59973">
        <ele>560</ele>
        <time>2021-02-21T12:12:44Z</time>
      </trkpt>
      <trkpt lat="45.80627" lon="3.59971">
        <ele>560</ele>
        <time>2021-02-21T12:12:46Z</time>
      </trkpt>
      <trkpt lat="45.80624" lon="3.59969">
        <ele>560</ele>
        <time>2021-02-21T12:12:48Z</time>
      </trkpt>
      <trkpt lat="45.80622" lon="3.59967">
        <ele>559</ele>
        <time>2021-02-21T12:12:50Z</time>
      </trkpt>
      <trkpt lat="45.8062" lon="3.59965">
        <ele>559</ele>
        <time>2021-02-21T12:12:52Z</time>
      </trkpt>
      <trkpt lat="45.80617" lon="3.59963">
        <ele>559</ele>
        <time>2021-02-21T12:12:54Z</time>
      </trkpt>
      <trkpt lat="45.80615" lon="3.59961">
        <ele>559</ele>
        <time>2021-02-21T12:12:56Z</time>
      </trkpt>
      <trkpt lat="45.80613" lon="3.59959">
        <ele>559</ele>
        <time>2021-02-21T12:12:58Z</time>
      </trkpt>
      <trkpt lat="45.8061" lon="3.59957">
        <ele>558</ele>
        <time>2021-02-21T12:13:00Z</time>
      </trkpt>
      <trkpt lat="45.80608" lon="3.59954">
        <ele>558</ele>
        <time>2021-02-21T12:13:02Z</time>
      </trkpt>
      <trkpt lat="45.80606" lon="3.59951">
        <ele>558</ele>
        <time>2021-02-21T12:13:04Z</time>
      </trkpt>
      <trkpt lat="45.80604" lon="3.59949">
        <ele>557</ele>
        <time>2021-02-21T12:13:06Z</time>
      </trkpt>
      <trkpt lat="45.80601" lon="3.59947">
        <ele>557</ele>
        <time>2021-02-21T12:13:08Z</time>
      </trkpt>
      <trkpt lat="45.80599" lon="3.59945">
        <ele>557</ele>
        <time>2021-02-21T12:13:10Z</time>
      </trkpt>
      <trkpt lat="45.80596" lon="3.59943">
        <ele>556</ele>
        <time>2021-02-21T12:13:12Z</time>
      </trkpt>
      <trkpt lat="45.80594" lon="3.59941">
        <ele>556</ele>
        <time>2021-02-21T12:13:14Z</time>
      </trkpt>
      <trkpt lat="45.80592" lon="3.59939">
        <ele>556</ele>
        <time>2021-02-21T12:13:16Z</time>
      </trkpt>
      <trkpt lat="45.8059" lon="3.59936">
        <ele>555</ele>
        <time>2021-02-21T12:13:18Z</time>
      </trkpt>
      <trkpt lat="45.80587" lon="3.59934">
        <ele>555</ele>
        <time>2021-02-21T12:13:20Z</time>
      </trkpt>
      <trkpt lat="45.80585" lon="3.59932">
        <ele>555</ele>
        <time>2021-02-21T12:13:22Z</time>
      </trkpt>
      <trkpt lat="45.80583" lon="3.5993">
        <ele>554</ele>
        <time>2021-02-21T12:13:24Z</time>
      </trkpt>
      <trkpt lat="45.8058" lon="3.59928">
        <ele>554</ele>
        <time>2021-02-21T12:13:26Z</time>
      </trkpt>
      <trkpt lat="45.80578" lon="3.59926">
        <ele>554</ele>
        <time>2021-02-21T12:13:28Z</time>
      </trkpt>
      <trkpt lat="45.80576" lon="3.59924">
        <ele>554</ele>
        <time>2021-02-21T12:13:30Z</time>
      </trkpt>
      <trkpt lat="45.80573" lon="3.59923">
        <ele>553</ele>
        <time>2021-02-21T12:13:32Z</time>
      </trkpt>
      <trkpt lat="45.8057" lon="3.59923">
        <ele>553</ele>
        <time>2021-02-21T12:13:34Z</time>
      </trkpt>
      <trkpt lat="45.80568" lon="3.59921">
        <ele>553</ele>
        <time>2021-02-21T12:13:36Z</time>
      </trkpt>
      <trkpt lat="45.80566" lon="3.59919">
        <ele>553</ele>
        <time>2021-02-21T12:13:38Z</time>
      </trkpt>
      <trkpt lat="45.80563" lon="3.59917">
        <ele>552</ele>
        <time>2021-02-21T12:13:40Z</time>
      </trkpt>
      <trkpt lat="45.80561" lon="3.59915">
        <ele>552</ele>
        <time>2021-02-21T12:13:42Z</time>
      </trkpt>
      <trkpt lat="45.80559" lon="3.59912">
        <ele>552</ele>
        <time>2021-02-21T12:13:44Z</time>
      </trkpt>
      <trkpt lat="45.80557" lon="3.5991">
        <ele>551</ele>
        <time>2021-02-21T12:13:46Z</time>
      </trkpt>
      <trkpt lat="45.80554" lon="3.59908">
        <ele>551</ele>
        <time>2021-02-21T12:13:48Z</time>
      </trkpt>
      <trkpt lat="45.80552" lon="3.59906">
        <ele>551</ele>
        <time>2021-02-21T12:13:50Z</time>
      </trkpt>
      <trkpt lat="45.80551" lon="3.59903">
        <ele>550</ele>
        <time>2021-02-21T12:13:52Z</time>
      </trkpt>
      <trkpt lat="45.80552" lon="3.59899">
        <ele>550</ele>
        <time>2021-02-21T12:13:54Z</time>
      </trkpt>
      <trkpt lat="45.80554" lon="3.59897">
        <ele>550</ele>
        <time>2021-02-21T12:13:56Z</time>
      </trkpt>
      <trkpt lat="45.80556" lon="3.59894">
        <ele>550</ele>
        <time>2021-02-21T12:13:58Z</time>
      </trkpt>
      <trkpt lat="45.80558" lon="3.59892">
        <ele>550</ele>
        <time>2021-02-21T12:14:00Z</time>
      </trkpt>
      <trkpt lat="45.80561" lon="3.5989">
        <ele>550</ele>
        <time>2021-02-21T12:14:02Z</time>
      </trkpt>
      <trkpt lat="45.80563" lon="3.59887">
        <ele>550</ele>
        <time>2021-02-21T12:14:04Z</time>
      </trkpt>
      <trkpt lat="45.80565" lon="3.59885">
        <ele>550</ele>
        <time>2021-02-21T12:14:06Z</time>
      </trkpt>
      <trkpt lat="45.80567" lon="3.59882">
        <ele>550</ele>
        <time>2021-02-21T12:14:08Z</time>
      </trkpt>
      <trkpt lat="45.8057" lon="3.59879">
        <ele>550</ele>
        <time>2021-02-21T12:14:10Z</time>
      </trkpt>
      <trkpt lat="45.80572" lon="3.59877">
        <ele>550</ele>
        <time>2021-02-21T12:14:12Z</time>
      </trkpt>
      <trkpt lat="45.80574" lon="3.59874">
        <ele>550</ele>
        <time>2021-02-21T12:14:14Z</time>
      </trkpt>
      <trkpt lat="45.80577" lon="3.59872">
        <ele>551</ele>
        <time>2021-02-21T12:14:16Z</time>
      </trkpt>
      <trkpt lat="45.80579" lon="3.59869">
        <ele>551</ele>
        <time>2021-02-21T12:14:18Z</time>
      </trkpt>
      <trkpt lat="45.80581" lon="3.59866">
        <ele>551</ele>
        <time>2021-02-21T12:14:20Z</time>
      </trkpt>
      <trkpt lat="45.80583" lon="3.59864">
        <ele>551</ele>
        <time>2021-02-21T12:14:22Z</time>
      </trkpt>
      <trkpt lat="45.80585" lon="3.59862">
        <ele>551</ele>
        <time>2021-02-21T12:14:24Z</time>
      </trkpt>
      <trkpt lat="45.80587" lon="3.59859">
        <ele>551</ele>
        <time>2021-02-21T12:14:26Z</time>
      </trkpt>
      <trkpt lat="45.8059" lon="3.59856">
        <ele>551</ele>
        <time>2021-02-21T12:14:28Z</time>
      </trkpt>
      <trkpt lat="45.80592" lon="3.59854">
        <ele>551</ele>
        <time>2021-02-21T12:14:30Z</time>
      </trkpt>
      <trkpt lat="45.80594" lon="3.59851">
        <ele>551</ele>
        <time>2021-02-21T12:14:32Z</time>
      </trkpt>
      <trkpt lat="45.80596" lon="3.59848">
        <ele>551</ele>
        <time>2021-02-21T12:14:34Z</time>
      </trkpt>
      <trkpt lat="45.80598" lon="3.59846">
        <ele>551</ele>
        <time>2021-02-21T12:14:36Z</time>
      </trkpt>
      <trkpt lat="45.806" lon="3.59843">
        <ele>551</ele>
        <time>2021-02-21T12:14:38Z</time>
      </trkpt>
      <trkpt lat="45.80602" lon="3.59841">
        <ele>552</ele>
        <time>2021-02-21T12:14:40Z</time>
      </trkpt>
      <trkpt lat="45.80604" lon="3.59838">
        <ele>552</ele>
        <time>2021-02-21T12:14:42Z</time>
      </trkpt>
      <trkpt lat="45.80606" lon="3.59835">
        <ele>552</ele>
        <time>2021-02-21T12:14:44Z</time>
      </trkpt>
      <trkpt lat="45.80608" lon="3.59833">
        <ele>552</ele>
        <time>2021-02-21T12:14:46Z</time>
      </trkpt>
      <trkpt lat="45.8061" lon="3.59831">
        <ele>552</ele>
        <time>2021-02-21T12:14:48Z</time>
      </trkpt>
      <trkpt lat="45.80612" lon="3.59828">
        <ele>552</ele>
        <time>2021-02-21T12:14:50Z</time>
      </trkpt>
      <trkpt lat="45.80614" lon="3.59825">
        <ele>552</ele>
        <time>2021-02-21T12:14:52Z</time>
      </trkpt>
      <trkpt lat="45.80616" lon="3.59822">
        <ele>552</ele>
        <time>2021-02-21T12:14:54Z</time>
      </trkpt>
      <trkpt lat="45.80618" lon="3.5982">
        <ele>552</ele>
        <time>2021-02-21T12:14:56Z</time>
      </trkpt>
      <trkpt lat="45.80619" lon="3.59817">
        <ele>552</ele>
        <time>2021-02-21T12:14:58Z</time>
      </trkpt>
      <trkpt lat="45.80621" lon="3.59814">
        <ele>553</ele>
        <time>2021-02-21T12:15:00Z</time>
      </trkpt>
      <trkpt lat="45.80623" lon="3.59811">
        <ele>552</ele>
        <time>2021-02-21T12:15:02Z</time>
      </trkpt>
      <trkpt lat="45.80624" lon="3.59808">
        <ele>552</ele>
        <time>2021-02-21T12:15:04Z</time>
      </trkpt>
      <trkpt lat="45.80625" lon="3.59805">
        <ele>552</ele>
        <time>2021-02-21T12:15:06Z</time>
      </trkpt>
      <trkpt lat="45.80627" lon="3.59802">
        <ele>553</ele>
        <time>2021-02-21T12:15:08Z</time>
      </trkpt>
      <trkpt lat="45.80628" lon="3.59801">
        <ele>553</ele>
        <time>2021-02-21T12:15:10Z</time>
      </trkpt>
      <trkpt lat="45.8063" lon="3.59799">
        <ele>553</ele>
        <time>2021-02-21T12:15:12Z</time>
      </trkpt>
      <trkpt lat="45.80632" lon="3.59797">
        <ele>553</ele>
        <time>2021-02-21T12:15:14Z</time>
      </trkpt>
      <trkpt lat="45.80634" lon="3.59795">
        <ele>554</ele>
        <time>2021-02-21T12:15:17Z</time>
      </trkpt>
      <trkpt lat="45.80635" lon="3.59792">
        <ele>554</ele>
        <time>2021-02-21T12:15:20Z</time>
      </trkpt>
      <trkpt lat="45.80637" lon="3.59789">
        <ele>553</ele>
        <time>2021-02-21T12:15:22Z</time>
      </trkpt>
      <trkpt lat="45.80638" lon="3.59785">
        <ele>553</ele>
        <time>2021-02-21T12:15:24Z</time>
      </trkpt>
      <trkpt lat="45.8064" lon="3.59783">
        <ele>553</ele>
        <time>2021-02-21T12:15:26Z</time>
      </trkpt>
      <trkpt lat="45.80641" lon="3.5978">
        <ele>553</ele>
        <time>2021-02-21T12:15:28Z</time>
      </trkpt>
      <trkpt lat="45.80643" lon="3.59777">
        <ele>553</ele>
        <time>2021-02-21T12:15:30Z</time>
      </trkpt>
      <trkpt lat="45.80645" lon="3.59774">
        <ele>553</ele>
        <time>2021-02-21T12:15:32Z</time>
      </trkpt>
      <trkpt lat="45.80647" lon="3.59771">
        <ele>553</ele>
        <time>2021-02-21T12:15:34Z</time>
      </trkpt>
      <trkpt lat="45.80648" lon="3.59768">
        <ele>553</ele>
        <time>2021-02-21T12:15:36Z</time>
      </trkpt>
      <trkpt lat="45.8065" lon="3.59766">
        <ele>553</ele>
        <time>2021-02-21T12:15:39Z</time>
      </trkpt>
      <trkpt lat="45.80651" lon="3.59764">
        <ele>553</ele>
        <time>2021-02-21T12:15:42Z</time>
      </trkpt>
      <trkpt lat="45.80653" lon="3.59761">
        <ele>553</ele>
        <time>2021-02-21T12:15:44Z</time>
      </trkpt>
      <trkpt lat="45.80655" lon="3.59757">
        <ele>553</ele>
        <time>2021-02-21T12:15:46Z</time>
      </trkpt>
      <trkpt lat="45.80657" lon="3.59754">
        <ele>553</ele>
        <time>2021-02-21T12:15:48Z</time>
      </trkpt>
      <trkpt lat="45.8066" lon="3.59752">
        <ele>553</ele>
        <time>2021-02-21T12:15:50Z</time>
      </trkpt>
      <trkpt lat="45.80662" lon="3.5975">
        <ele>553</ele>
        <time>2021-02-21T12:15:52Z</time>
      </trkpt>
      <trkpt lat="45.80664" lon="3.59747">
        <ele>553</ele>
        <time>2021-02-21T12:15:54Z</time>
      </trkpt>
      <trkpt lat="45.80665" lon="3.59744">
        <ele>553</ele>
        <time>2021-02-21T12:15:56Z</time>
      </trkpt>
      <trkpt lat="45.80667" lon="3.59741">
        <ele>553</ele>
        <time>2021-02-21T12:15:58Z</time>
      </trkpt>
      <trkpt lat="45.80669" lon="3.59738">
        <ele>553</ele>
        <time>2021-02-21T12:16:00Z</time>
      </trkpt>
      <trkpt lat="45.8067" lon="3.59734">
        <ele>554</ele>
        <time>2021-02-21T12:16:02Z</time>
      </trkpt>
      <trkpt lat="45.80672" lon="3.59731">
        <ele>554</ele>
        <time>2021-02-21T12:16:04Z</time>
      </trkpt>
      <trkpt lat="45.80674" lon="3.59727">
        <ele>554</ele>
        <time>2021-02-21T12:16:06Z</time>
      </trkpt>
      <trkpt lat="45.80675" lon="3.59724">
        <ele>554</ele>
        <time>2021-02-21T12:16:08Z</time>
      </trkpt>
      <trkpt lat="45.80677" lon="3.5972">
        <ele>554</ele>
        <time>2021-02-21T12:16:10Z</time>
      </trkpt>
      <trkpt lat="45.80678" lon="3.59717">
        <ele>554</ele>
        <time>2021-02-21T12:16:12Z</time>
      </trkpt>
      <trkpt lat="45.8068" lon="3.59714">
        <ele>554</ele>
        <time>2021-02-21T12:16:14Z</time>
      </trkpt>
      <trkpt lat="45.80681" lon="3.5971">
        <ele>553</ele>
        <time>2021-02-21T12:16:16Z</time>
      </trkpt>
      <trkpt lat="45.80683" lon="3.59706">
        <ele>553</ele>
        <time>2021-02-21T12:16:18Z</time>
      </trkpt>
      <trkpt lat="45.80684" lon="3.59703">
        <ele>553</ele>
        <time>2021-02-21T12:16:20Z</time>
      </trkpt>
      <trkpt lat="45.80686" lon="3.59699">
        <ele>553</ele>
        <time>2021-02-21T12:16:22Z</time>
      </trkpt>
      <trkpt lat="45.80687" lon="3.59696">
        <ele>553</ele>
        <time>2021-02-21T12:16:24Z</time>
      </trkpt>
      <trkpt lat="45.80689" lon="3.59693">
        <ele>553</ele>
        <time>2021-02-21T12:16:26Z</time>
      </trkpt>
      <trkpt lat="45.80691" lon="3.5969">
        <ele>553</ele>
        <time>2021-02-21T12:16:28Z</time>
      </trkpt>
      <trkpt lat="45.80692" lon="3.59687">
        <ele>552</ele>
        <time>2021-02-21T12:16:30Z</time>
      </trkpt>
      <trkpt lat="45.80694" lon="3.59684">
        <ele>552</ele>
        <time>2021-02-21T12:16:32Z</time>
      </trkpt>
      <trkpt lat="45.80696" lon="3.59681">
        <ele>552</ele>
        <time>2021-02-21T12:16:34Z</time>
      </trkpt>
      <trkpt lat="45.80698" lon="3.59678">
        <ele>552</ele>
        <time>2021-02-21T12:16:36Z</time>
      </trkpt>
      <trkpt lat="45.807" lon="3.59676">
        <ele>552</ele>
        <time>2021-02-21T12:16:38Z</time>
      </trkpt>
      <trkpt lat="45.80702" lon="3.59673">
        <ele>552</ele>
        <time>2021-02-21T12:16:40Z</time>
      </trkpt>
      <trkpt lat="45.80705" lon="3.59671">
        <ele>551</ele>
        <time>2021-02-21T12:16:42Z</time>
      </trkpt>
      <trkpt lat="45.80707" lon="3.59668">
        <ele>551</ele>
        <time>2021-02-21T12:16:44Z</time>
      </trkpt>
      <trkpt lat="45.80709" lon="3.59666">
        <ele>551</ele>
        <time>2021-02-21T12:16:46Z</time>
      </trkpt>
      <trkpt lat="45.80712" lon="3.59664">
        <ele>551</ele>
        <time>2021-02-21T12:16:48Z</time>
      </trkpt>
      <trkpt lat="45.80714" lon="3.59662">
        <ele>551</ele>
        <time>2021-02-21T12:16:50Z</time>
      </trkpt>
      <trkpt lat="45.80716" lon="3.5966">
        <ele>551</ele>
        <time>2021-02-21T12:16:52Z</time>
      </trkpt>
      <trkpt lat="45.80719" lon="3.59658">
        <ele>551</ele>
        <time>2021-02-21T12:16:54Z</time>
      </trkpt>
      <trkpt lat="45.80721" lon="3.59656">
        <ele>550</ele>
        <time>2021-02-21T12:16:56Z</time>
      </trkpt>
      <trkpt lat="45.80724" lon="3.59654">
        <ele>550</ele>
        <time>2021-02-21T12:16:58Z</time>
      </trkpt>
      <trkpt lat="45.80726" lon="3.59653">
        <ele>550</ele>
        <time>2021-02-21T12:17:00Z</time>
      </trkpt>
      <trkpt lat="45.80729" lon="3.59652">
        <ele>550</ele>
        <time>2021-02-21T12:17:02Z</time>
      </trkpt>
      <trkpt lat="45.80732" lon="3.59651">
        <ele>551</ele>
        <time>2021-02-21T12:17:04Z</time>
      </trkpt>
      <trkpt lat="45.80734" lon="3.59649">
        <ele>551</ele>
        <time>2021-02-21T12:17:06Z</time>
      </trkpt>
      <trkpt lat="45.80737" lon="3.59648">
        <ele>551</ele>
        <time>2021-02-21T12:17:08Z</time>
      </trkpt>
      <trkpt lat="45.8074" lon="3.59647">
        <ele>551</ele>
        <time>2021-02-21T12:17:10Z</time>
      </trkpt>
      <trkpt lat="45.80742" lon="3.59645">
        <ele>551</ele>
        <time>2021-02-21T12:17:12Z</time>
      </trkpt>
      <trkpt lat="45.80745" lon="3.59644">
        <ele>551</ele>
        <time>2021-02-21T12:17:14Z</time>
      </trkpt>
      <trkpt lat="45.80748" lon="3.59643">
        <ele>551</ele>
        <time>2021-02-21T12:17:16Z</time>
      </trkpt>
      <trkpt lat="45.80751" lon="3.59643">
        <ele>551</ele>
        <time>2021-02-21T12:17:18Z</time>
      </trkpt>
      <trkpt lat="45.80754" lon="3.59643">
        <ele>551</ele>
        <time>2021-02-21T12:17:20Z</time>
      </trkpt>
      <trkpt lat="45.80757" lon="3.59643">
        <ele>551</ele>
        <time>2021-02-21T12:17:22Z</time>
      </trkpt>
      <trkpt lat="45.8076" lon="3.59643">
        <ele>551</ele>
        <time>2021-02-21T12:17:24Z</time>
      </trkpt>
      <trkpt lat="45.80762" lon="3.59642">
        <ele>551</ele>
        <time>2021-02-21T12:17:26Z</time>
      </trkpt>
      <trkpt lat="45.80765" lon="3.59642">
        <ele>552</ele>
        <time>2021-02-21T12:17:28Z</time>
      </trkpt>
      <trkpt lat="45.80768" lon="3.59642">
        <ele>552</ele>
        <time>2021-02-21T12:17:30Z</time>
      </trkpt>
      <trkpt lat="45.80771" lon="3.59642">
        <ele>552</ele>
        <time>2021-02-21T12:17:32Z</time>
      </trkpt>
      <trkpt lat="45.80774" lon="3.59642">
        <ele>552</ele>
        <time>2021-02-21T12:17:34Z</time>
      </trkpt>
      <trkpt lat="45.80777" lon="3.59641">
        <ele>552</ele>
        <time>2021-02-21T12:17:36Z</time>
      </trkpt>
      <trkpt lat="45.8078" lon="3.59641">
        <ele>552</ele>
        <time>2021-02-21T12:17:38Z</time>
      </trkpt>
      <trkpt lat="45.80782" lon="3.59641">
        <ele>552</ele>
        <time>2021-02-21T12:17:40Z</time>
      </trkpt>
      <trkpt lat="45.80785" lon="3.5964">
        <ele>552</ele>
        <time>2021-02-21T12:17:42Z</time>
      </trkpt>
      <trkpt lat="45.80788" lon="3.5964">
        <ele>552</ele>
        <time>2021-02-21T12:17:44Z</time>
      </trkpt>
      <trkpt lat="45.8079" lon="3.5964">
        <ele>552</ele>
        <time>2021-02-21T12:17:46Z</time>
      </trkpt>
      <trkpt lat="45.80793" lon="3.59642">
        <ele>552</ele>
        <time>2021-02-21T12:17:48Z</time>
      </trkpt>
      <trkpt lat="45.80796" lon="3.5964">
        <ele>552</ele>
        <time>2021-02-21T12:17:50Z</time>
      </trkpt>
      <trkpt lat="45.80799" lon="3.59639">
        <ele>551</ele>
        <time>2021-02-21T12:17:52Z</time>
      </trkpt>
      <trkpt lat="45.80801" lon="3.59638">
        <ele>551</ele>
        <time>2021-02-21T12:17:54Z</time>
      </trkpt>
      <trkpt lat="45.80804" lon="3.59636">
        <ele>551</ele>
        <time>2021-02-21T12:17:56Z</time>
      </trkpt>
      <trkpt lat="45.80807" lon="3.59634">
        <ele>550</ele>
        <time>2021-02-21T12:17:58Z</time>
      </trkpt>
      <trkpt lat="45.80809" lon="3.59632">
        <ele>550</ele>
        <time>2021-02-21T12:18:00Z</time>
      </trkpt>
      <trkpt lat="45.80812" lon="3.5963">
        <ele>550</ele>
        <time>2021-02-21T12:18:02Z</time>
      </trkpt>
      <trkpt lat="45.80814" lon="3.59628">
        <ele>549</ele>
        <time>2021-02-21T12:18:04Z</time>
      </trkpt>
      <trkpt lat="45.80816" lon="3.59626">
        <ele>549</ele>
        <time>2021-02-21T12:18:06Z</time>
      </trkpt>
      <trkpt lat="45.80819" lon="3.59623">
        <ele>549</ele>
        <time>2021-02-21T12:18:08Z</time>
      </trkpt>
      <trkpt lat="45.80821" lon="3.59621">
        <ele>549</ele>
        <time>2021-02-21T12:18:10Z</time>
      </trkpt>
      <trkpt lat="45.80823" lon="3.59619">
        <ele>548</ele>
        <time>2021-02-21T12:18:12Z</time>
      </trkpt>
      <trkpt lat="45.80826" lon="3.59618">
        <ele>548</ele>
        <time>2021-02-21T12:18:14Z</time>
      </trkpt>
      <trkpt lat="45.80828" lon="3.59617">
        <ele>548</ele>
        <time>2021-02-21T12:18:16Z</time>
      </trkpt>
      <trkpt lat="45.8083" lon="3.59615">
        <ele>548</ele>
        <time>2021-02-21T12:18:18Z</time>
      </trkpt>
      <trkpt lat="45.80832" lon="3.59614">
        <ele>548</ele>
        <time>2021-02-21T12:18:20Z</time>
      </trkpt>
      <trkpt lat="45.80834" lon="3.59611">
        <ele>548</ele>
        <time>2021-02-21T12:18:22Z</time>
      </trkpt>
      <trkpt lat="45.80836" lon="3.59609">
        <ele>547</ele>
        <time>2021-02-21T12:18:24Z</time>
      </trkpt>
      <trkpt lat="45.80838" lon="3.59607">
        <ele>547</ele>
        <time>2021-02-21T12:18:26Z</time>
      </trkpt>
      <trkpt lat="45.8084" lon="3.59605">
        <ele>547</ele>
        <time>2021-02-21T12:18:28Z</time>
      </trkpt>
      <trkpt lat="45.80842" lon="3.59603">
        <ele>547</ele>
        <time>2021-02-21T12:18:30Z</time>
      </trkpt>
      <trkpt lat="45.80845" lon="3.59601">
        <ele>547</ele>
        <time>2021-02-21T12:18:32Z</time>
      </trkpt>
      <trkpt lat="45.80847" lon="3.59598">
        <ele>546</ele>
        <time>2021-02-21T12:18:34Z</time>
      </trkpt>
      <trkpt lat="45.8085" lon="3.59595">
        <ele>546</ele>
        <time>2021-02-21T12:18:36Z</time>
      </trkpt>
      <trkpt lat="45.80852" lon="3.59593">
        <ele>546</ele>
        <time>2021-02-21T12:18:38Z</time>
      </trkpt>
      <trkpt lat="45.80854" lon="3.59591">
        <ele>546</ele>
        <time>2021-02-21T12:18:40Z</time>
      </trkpt>
      <trkpt lat="45.80856" lon="3.59589">
        <ele>546</ele>
        <time>2021-02-21T12:18:42Z</time>
      </trkpt>
      <trkpt lat="45.80857" lon="3.59586">
        <ele>546</ele>
        <time>2021-02-21T12:18:44Z</time>
      </trkpt>
      <trkpt lat="45.80859" lon="3.59583">
        <ele>545</ele>
        <time>2021-02-21T12:18:46Z</time>
      </trkpt>
      <trkpt lat="45.80861" lon="3.5958">
        <ele>545</ele>
        <time>2021-02-21T12:18:48Z</time>
      </trkpt>
      <trkpt lat="45.80862" lon="3.59578">
        <ele>545</ele>
        <time>2021-02-21T12:18:50Z</time>
      </trkpt>
      <trkpt lat="45.80863" lon="3.59575">
        <ele>544</ele>
        <time>2021-02-21T12:18:52Z</time>
      </trkpt>
      <trkpt lat="45.80864" lon="3.59571">
        <ele>544</ele>
        <time>2021-02-21T12:18:54Z</time>
      </trkpt>
      <trkpt lat="45.80865" lon="3.59568">
        <ele>543</ele>
        <time>2021-02-21T12:18:56Z</time>
      </trkpt>
      <trkpt lat="45.80866" lon="3.59565">
        <ele>543</ele>
        <time>2021-02-21T12:18:58Z</time>
      </trkpt>
      <trkpt lat="45.80866" lon="3.59562">
        <ele>542</ele>
        <time>2021-02-21T12:19:07Z</time>
      </trkpt>
      <trkpt lat="45.80867" lon="3.59558">
        <ele>542</ele>
        <time>2021-02-21T12:19:09Z</time>
      </trkpt>
      <trkpt lat="45.80868" lon="3.59555">
        <ele>541</ele>
        <time>2021-02-21T12:19:11Z</time>
      </trkpt>
      <trkpt lat="45.80869" lon="3.59551">
        <ele>541</ele>
        <time>2021-02-21T12:19:13Z</time>
      </trkpt>
      <trkpt lat="45.8087" lon="3.59547">
        <ele>541</ele>
        <time>2021-02-21T12:19:15Z</time>
      </trkpt>
      <trkpt lat="45.8087" lon="3.59543">
        <ele>540</ele>
        <time>2021-02-21T12:19:17Z</time>
      </trkpt>
      <trkpt lat="45.80871" lon="3.5954">
        <ele>540</ele>
        <time>2021-02-21T12:19:19Z</time>
      </trkpt>
      <trkpt lat="45.80872" lon="3.59536">
        <ele>540</ele>
        <time>2021-02-21T12:19:21Z</time>
      </trkpt>
      <trkpt lat="45.80873" lon="3.59533">
        <ele>540</ele>
        <time>2021-02-21T12:19:23Z</time>
      </trkpt>
      <trkpt lat="45.80874" lon="3.59531">
        <ele>539</ele>
        <time>2021-02-21T12:19:25Z</time>
      </trkpt>
      <trkpt lat="45.80874" lon="3.59527">
        <ele>539</ele>
        <time>2021-02-21T12:19:27Z</time>
      </trkpt>
      <trkpt lat="45.80875" lon="3.59524">
        <ele>538</ele>
        <time>2021-02-21T12:19:29Z</time>
      </trkpt>
      <trkpt lat="45.80876" lon="3.59521">
        <ele>538</ele>
        <time>2021-02-21T12:19:31Z</time>
      </trkpt>
      <trkpt lat="45.80877" lon="3.59518">
        <ele>538</ele>
        <time>2021-02-21T12:19:33Z</time>
      </trkpt>
      <trkpt lat="45.80877" lon="3.59515">
        <ele>538</ele>
        <time>2021-02-21T12:19:35Z</time>
      </trkpt>
      <trkpt lat="45.80877" lon="3.59511">
        <ele>537</ele>
        <time>2021-02-21T12:19:37Z</time>
      </trkpt>
      <trkpt lat="45.80877" lon="3.59508">
        <ele>537</ele>
        <time>2021-02-21T12:19:39Z</time>
      </trkpt>
      <trkpt lat="45.80877" lon="3.59505">
        <ele>536</ele>
        <time>2021-02-21T12:19:41Z</time>
      </trkpt>
      <trkpt lat="45.80876" lon="3.59502">
        <ele>536</ele>
        <time>2021-02-21T12:19:43Z</time>
      </trkpt>
      <trkpt lat="45.80874" lon="3.595">
        <ele>535</ele>
        <time>2021-02-21T12:19:45Z</time>
      </trkpt>
      <trkpt lat="45.80872" lon="3.59497">
        <ele>535</ele>
        <time>2021-02-21T12:19:47Z</time>
      </trkpt>
      <trkpt lat="45.80869" lon="3.59494">
        <ele>534</ele>
        <time>2021-02-21T12:19:49Z</time>
      </trkpt>
      <trkpt lat="45.80867" lon="3.59492">
        <ele>533</ele>
        <time>2021-02-21T12:19:51Z</time>
      </trkpt>
      <trkpt lat="45.80865" lon="3.59492">
        <ele>533</ele>
        <time>2021-02-21T12:19:53Z</time>
      </trkpt>
      <trkpt lat="45.80862" lon="3.59491">
        <ele>532</ele>
        <time>2021-02-21T12:19:55Z</time>
      </trkpt>
      <trkpt lat="45.8086" lon="3.5949">
        <ele>532</ele>
        <time>2021-02-21T12:19:57Z</time>
      </trkpt>
      <trkpt lat="45.80858" lon="3.59488">
        <ele>531</ele>
        <time>2021-02-21T12:19:59Z</time>
      </trkpt>
      <trkpt lat="45.80856" lon="3.59486">
        <ele>531</ele>
        <time>2021-02-21T12:20:06Z</time>
      </trkpt>
      <trkpt lat="45.80854" lon="3.59486">
        <ele>531</ele>
        <time>2021-02-21T12:20:08Z</time>
      </trkpt>
      <trkpt lat="45.80852" lon="3.59484">
        <ele>530</ele>
        <time>2021-02-21T12:20:10Z</time>
      </trkpt>
      <trkpt lat="45.8085" lon="3.59483">
        <ele>530</ele>
        <time>2021-02-21T12:20:12Z</time>
      </trkpt>
      <trkpt lat="45.80847" lon="3.59481">
        <ele>530</ele>
        <time>2021-02-21T12:20:14Z</time>
      </trkpt>
      <trkpt lat="45.80846" lon="3.5948">
        <ele>529</ele>
        <time>2021-02-21T12:20:16Z</time>
      </trkpt>
      <trkpt lat="45.80843" lon="3.59478">
        <ele>529</ele>
        <time>2021-02-21T12:20:18Z</time>
      </trkpt>
      <trkpt lat="45.80841" lon="3.59476">
        <ele>528</ele>
        <time>2021-02-21T12:20:20Z</time>
      </trkpt>
      <trkpt lat="45.80839" lon="3.59473">
        <ele>528</ele>
        <time>2021-02-21T12:20:22Z</time>
      </trkpt>
      <trkpt lat="45.80837" lon="3.59472">
        <ele>528</ele>
        <time>2021-02-21T12:20:24Z</time>
      </trkpt>
      <trkpt lat="45.80835" lon="3.5947">
        <ele>527</ele>
        <time>2021-02-21T12:20:27Z</time>
      </trkpt>
      <trkpt lat="45.80831" lon="3.5947">
        <ele>527</ele>
        <time>2021-02-21T12:20:29Z</time>
      </trkpt>
      <trkpt lat="45.80828" lon="3.59469">
        <ele>526</ele>
        <time>2021-02-21T12:20:31Z</time>
      </trkpt>
      <trkpt lat="45.80825" lon="3.59469">
        <ele>526</ele>
        <time>2021-02-21T12:20:33Z</time>
      </trkpt>
      <trkpt lat="45.80822" lon="3.59468">
        <ele>525</ele>
        <time>2021-02-21T12:20:35Z</time>
      </trkpt>
      <trkpt lat="45.8082" lon="3.59468">
        <ele>525</ele>
        <time>2021-02-21T12:20:36Z</time>
      </trkpt>
      <trkpt lat="45.80817" lon="3.5947">
        <ele>524</ele>
        <time>2021-02-21T12:20:38Z</time>
      </trkpt>
      <trkpt lat="45.80814" lon="3.5947">
        <ele>524</ele>
        <time>2021-02-21T12:20:40Z</time>
      </trkpt>
      <trkpt lat="45.80811" lon="3.59471">
        <ele>523</ele>
        <time>2021-02-21T12:20:42Z</time>
      </trkpt>
      <trkpt lat="45.80809" lon="3.59471">
        <ele>523</ele>
        <time>2021-02-21T12:20:44Z</time>
      </trkpt>
      <trkpt lat="45.80806" lon="3.59472">
        <ele>523</ele>
        <time>2021-02-21T12:20:46Z</time>
      </trkpt>
      <trkpt lat="45.80803" lon="3.59472">
        <ele>522</ele>
        <time>2021-02-21T12:20:48Z</time>
      </trkpt>
      <trkpt lat="45.808" lon="3.59472">
        <ele>521</ele>
        <time>2021-02-21T12:20:50Z</time>
      </trkpt>
      <trkpt lat="45.80797" lon="3.59471">
        <ele>520</ele>
        <time>2021-02-21T12:20:52Z</time>
      </trkpt>
      <trkpt lat="45.80795" lon="3.59469">
        <ele>520</ele>
        <time>2021-02-21T12:20:54Z</time>
      </trkpt>
      <trkpt lat="45.80792" lon="3.59468">
        <ele>519</ele>
        <time>2021-02-21T12:20:56Z</time>
      </trkpt>
      <trkpt lat="45.8079" lon="3.59464">
        <ele>518</ele>
        <time>2021-02-21T12:20:58Z</time>
      </trkpt>
      <trkpt lat="45.80788" lon="3.59461">
        <ele>517</ele>
        <time>2021-02-21T12:21:00Z</time>
      </trkpt>
      <trkpt lat="45.80787" lon="3.59457">
        <ele>517</ele>
        <time>2021-02-21T12:21:02Z</time>
      </trkpt>
      <trkpt lat="45.80786" lon="3.59453">
        <ele>516</ele>
        <time>2021-02-21T12:21:04Z</time>
      </trkpt>
      <trkpt lat="45.80786" lon="3.59449">
        <ele>515</ele>
        <time>2021-02-21T12:21:06Z</time>
      </trkpt>
      <trkpt lat="45.80786" lon="3.59444">
        <ele>515</ele>
        <time>2021-02-21T12:21:08Z</time>
      </trkpt>
      <trkpt lat="45.80787" lon="3.5944">
        <ele>515</ele>
        <time>2021-02-21T12:21:10Z</time>
      </trkpt>
      <trkpt lat="45.80787" lon="3.59436">
        <ele>514</ele>
        <time>2021-02-21T12:21:12Z</time>
      </trkpt>
      <trkpt lat="45.80788" lon="3.59431">
        <ele>514</ele>
        <time>2021-02-21T12:21:14Z</time>
      </trkpt>
      <trkpt lat="45.80788" lon="3.59428">
        <ele>513</ele>
        <time>2021-02-21T12:21:16Z</time>
      </trkpt>
      <trkpt lat="45.80788" lon="3.59424">
        <ele>513</ele>
        <time>2021-02-21T12:21:18Z</time>
      </trkpt>
      <trkpt lat="45.80788" lon="3.5942">
        <ele>512</ele>
        <time>2021-02-21T12:21:20Z</time>
      </trkpt>
      <trkpt lat="45.80788" lon="3.59415">
        <ele>512</ele>
        <time>2021-02-21T12:21:22Z</time>
      </trkpt>
      <trkpt lat="45.80788" lon="3.5941">
        <ele>511</ele>
        <time>2021-02-21T12:21:24Z</time>
      </trkpt>
      <trkpt lat="45.80789" lon="3.59406">
        <ele>510</ele>
        <time>2021-02-21T12:21:26Z</time>
      </trkpt>
      <trkpt lat="45.80791" lon="3.59402">
        <ele>510</ele>
        <time>2021-02-21T12:21:28Z</time>
      </trkpt>
      <trkpt lat="45.80793" lon="3.59399">
        <ele>509</ele>
        <time>2021-02-21T12:21:30Z</time>
      </trkpt>
      <trkpt lat="45.80794" lon="3.59395">
        <ele>509</ele>
        <time>2021-02-21T12:21:32Z</time>
      </trkpt>
      <trkpt lat="45.80795" lon="3.59392">
        <ele>508</ele>
        <time>2021-02-21T12:21:34Z</time>
      </trkpt>
      <trkpt lat="45.80796" lon="3.59388">
        <ele>508</ele>
        <time>2021-02-21T12:21:36Z</time>
      </trkpt>
      <trkpt lat="45.80798" lon="3.59385">
        <ele>508</ele>
        <time>2021-02-21T12:21:38Z</time>
      </trkpt>
      <trkpt lat="45.80799" lon="3.59383">
        <ele>508</ele>
        <time>2021-02-21T12:21:40Z</time>
      </trkpt>
      <trkpt lat="45.80801" lon="3.5938">
        <ele>508</ele>
        <time>2021-02-21T12:21:42Z</time>
      </trkpt>
      <trkpt lat="45.80803" lon="3.59377">
        <ele>508</ele>
        <time>2021-02-21T12:21:44Z</time>
      </trkpt>
      <trkpt lat="45.80805" lon="3.59374">
        <ele>508</ele>
        <time>2021-02-21T12:21:46Z</time>
      </trkpt>
      <trkpt lat="45.80808" lon="3.59372">
        <ele>508</ele>
        <time>2021-02-21T12:21:48Z</time>
      </trkpt>
      <trkpt lat="45.8081" lon="3.59369">
        <ele>508</ele>
        <time>2021-02-21T12:21:50Z</time>
      </trkpt>
      <trkpt lat="45.80812" lon="3.59367">
        <ele>508</ele>
        <time>2021-02-21T12:21:52Z</time>
      </trkpt>
      <trkpt lat="45.80814" lon="3.59364">
        <ele>508</ele>
        <time>2021-02-21T12:21:54Z</time>
      </trkpt>
      <trkpt lat="45.80817" lon="3.59361">
        <ele>508</ele>
        <time>2021-02-21T12:21:56Z</time>
      </trkpt>
      <trkpt lat="45.80819" lon="3.59359">
        <ele>508</ele>
        <time>2021-02-21T12:21:58Z</time>
      </trkpt>
      <trkpt lat="45.80821" lon="3.59356">
        <ele>508</ele>
        <time>2021-02-21T12:22:00Z</time>
      </trkpt>
      <trkpt lat="45.80824" lon="3.59354">
        <ele>508</ele>
        <time>2021-02-21T12:22:02Z</time>
      </trkpt>
      <trkpt lat="45.80826" lon="3.59352">
        <ele>508</ele>
        <time>2021-02-21T12:22:04Z</time>
      </trkpt>
      <trkpt lat="45.80828" lon="3.5935">
        <ele>508</ele>
        <time>2021-02-21T12:22:06Z</time>
      </trkpt>
      <trkpt lat="45.8083" lon="3.59347">
        <ele>508</ele>
        <time>2021-02-21T12:22:08Z</time>
      </trkpt>
      <trkpt lat="45.80833" lon="3.59344">
        <ele>508</ele>
        <time>2021-02-21T12:22:10Z</time>
      </trkpt>
      <trkpt lat="45.80835" lon="3.59342">
        <ele>507</ele>
        <time>2021-02-21T12:22:12Z</time>
      </trkpt>
      <trkpt lat="45.80836" lon="3.59339">
        <ele>507</ele>
        <time>2021-02-21T12:22:14Z</time>
      </trkpt>
      <trkpt lat="45.80837" lon="3.59336">
        <ele>507</ele>
        <time>2021-02-21T12:22:16Z</time>
      </trkpt>
      <trkpt lat="45.80839" lon="3.59333">
        <ele>507</ele>
        <time>2021-02-21T12:22:18Z</time>
      </trkpt>
      <trkpt lat="45.8084" lon="3.59329">
        <ele>506</ele>
        <time>2021-02-21T12:22:20Z</time>
      </trkpt>
      <trkpt lat="45.80841" lon="3.59326">
        <ele>506</ele>
        <time>2021-02-21T12:22:22Z</time>
      </trkpt>
      <trkpt lat="45.80842" lon="3.59323">
        <ele>506</ele>
        <time>2021-02-21T12:22:24Z</time>
      </trkpt>
      <trkpt lat="45.80843" lon="3.5932">
        <ele>506</ele>
        <time>2021-02-21T12:22:26Z</time>
      </trkpt>
      <trkpt lat="45.80844" lon="3.59317">
        <ele>506</ele>
        <time>2021-02-21T12:22:28Z</time>
      </trkpt>
      <trkpt lat="45.80846" lon="3.59314">
        <ele>506</ele>
        <time>2021-02-21T12:22:30Z</time>
      </trkpt>
      <trkpt lat="45.80847" lon="3.59312">
        <ele>505</ele>
        <time>2021-02-21T12:22:32Z</time>
      </trkpt>
      <trkpt lat="45.8085" lon="3.59308">
        <ele>505</ele>
        <time>2021-02-21T12:22:34Z</time>
      </trkpt>
      <trkpt lat="45.80853" lon="3.59302">
        <ele>505</ele>
        <time>2021-02-21T12:22:38Z</time>
      </trkpt>
      <trkpt lat="45.80854" lon="3.593">
        <ele>505</ele>
        <time>2021-02-21T12:22:39Z</time>
      </trkpt>
      <trkpt lat="45.80855" lon="3.59298">
        <ele>504</ele>
        <time>2021-02-21T12:22:40Z</time>
      </trkpt>
      <trkpt lat="45.80856" lon="3.59296">
        <ele>504</ele>
        <time>2021-02-21T12:22:41Z</time>
      </trkpt>
      <trkpt lat="45.80859" lon="3.59291">
        <ele>504</ele>
        <time>2021-02-21T12:22:44Z</time>
      </trkpt>
      <trkpt lat="45.80859" lon="3.59288">
        <ele>504</ele>
        <time>2021-02-21T12:22:47Z</time>
      </trkpt>
      <trkpt lat="45.8086" lon="3.59284">
        <ele>503</ele>
        <time>2021-02-21T12:22:49Z</time>
      </trkpt>
      <trkpt lat="45.8086" lon="3.59281">
        <ele>503</ele>
        <time>2021-02-21T12:22:51Z</time>
      </trkpt>
      <trkpt lat="45.8086" lon="3.59268">
        <ele>500</ele>
        <time>2021-02-21T12:22:59Z</time>
      </trkpt>
      <trkpt lat="45.8086" lon="3.59263">
        <ele>499</ele>
        <time>2021-02-21T12:23:02Z</time>
      </trkpt>
      <trkpt lat="45.8086" lon="3.5926">
        <ele>499</ele>
        <time>2021-02-21T12:23:03Z</time>
      </trkpt>
      <trkpt lat="45.8086" lon="3.59257">
        <ele>498</ele>
        <time>2021-02-21T12:23:05Z</time>
      </trkpt>
      <trkpt lat="45.80858" lon="3.59257">
        <ele>498</ele>
        <time>2021-02-21T12:23:09Z</time>
      </trkpt>
      <trkpt lat="45.80857" lon="3.59254">
        <ele>497</ele>
        <time>2021-02-21T12:23:11Z</time>
      </trkpt>
      <trkpt lat="45.80857" lon="3.59251">
        <ele>497</ele>
        <time>2021-02-21T12:23:13Z</time>
      </trkpt>
      <trkpt lat="45.80857" lon="3.59248">
        <ele>496</ele>
        <time>2021-02-21T12:23:15Z</time>
      </trkpt>
      <trkpt lat="45.80856" lon="3.59246">
        <ele>495</ele>
        <time>2021-02-21T12:23:18Z</time>
      </trkpt>
      <trkpt lat="45.80855" lon="3.59243">
        <ele>493</ele>
        <time>2021-02-21T12:23:21Z</time>
      </trkpt>
      <trkpt lat="45.80856" lon="3.59237">
        <ele>491</ele>
        <time>2021-02-21T12:23:29Z</time>
      </trkpt>
      <trkpt lat="45.80854" lon="3.59236">
        <ele>491</ele>
        <time>2021-02-21T12:23:33Z</time>
      </trkpt>
      <trkpt lat="45.80852" lon="3.59236">
        <ele>491</ele>
        <time>2021-02-21T12:23:35Z</time>
      </trkpt>
      <trkpt lat="45.8085" lon="3.59235">
        <ele>490</ele>
        <time>2021-02-21T12:23:37Z</time>
      </trkpt>
      <trkpt lat="45.80847" lon="3.59235">
        <ele>490</ele>
        <time>2021-02-21T12:23:39Z</time>
      </trkpt>
      <trkpt lat="45.80845" lon="3.59235">
        <ele>490</ele>
        <time>2021-02-21T12:23:41Z</time>
      </trkpt>
      <trkpt lat="45.80842" lon="3.59234">
        <ele>490</ele>
        <time>2021-02-21T12:23:43Z</time>
      </trkpt>
      <trkpt lat="45.8084" lon="3.59234">
        <ele>490</ele>
        <time>2021-02-21T12:23:45Z</time>
      </trkpt>
      <trkpt lat="45.80839" lon="3.59234">
        <ele>490</ele>
        <time>2021-02-21T12:23:47Z</time>
      </trkpt>
      <trkpt lat="45.80837" lon="3.59233">
        <ele>490</ele>
        <time>2021-02-21T12:23:49Z</time>
      </trkpt>
      <trkpt lat="45.80834" lon="3.59233">
        <ele>489</ele>
        <time>2021-02-21T12:23:51Z</time>
      </trkpt>
      <trkpt lat="45.8083" lon="3.59233">
        <ele>489</ele>
        <time>2021-02-21T12:23:53Z</time>
      </trkpt>
      <trkpt lat="45.80828" lon="3.59234">
        <ele>489</ele>
        <time>2021-02-21T12:23:54Z</time>
      </trkpt>
      <trkpt lat="45.80825" lon="3.59235">
        <ele>489</ele>
        <time>2021-02-21T12:23:56Z</time>
      </trkpt>
      <trkpt lat="45.80822" lon="3.59235">
        <ele>488</ele>
        <time>2021-02-21T12:23:58Z</time>
      </trkpt>
      <trkpt lat="45.8082" lon="3.59236">
        <ele>488</ele>
        <time>2021-02-21T12:23:59Z</time>
      </trkpt>
      <trkpt lat="45.80817" lon="3.59237">
        <ele>488</ele>
        <time>2021-02-21T12:24:01Z</time>
      </trkpt>
      <trkpt lat="45.80814" lon="3.59235">
        <ele>487</ele>
        <time>2021-02-21T12:24:03Z</time>
      </trkpt>
      <trkpt lat="45.80812" lon="3.59235">
        <ele>486</ele>
        <time>2021-02-21T12:24:05Z</time>
      </trkpt>
      <trkpt lat="45.80809" lon="3.59235">
        <ele>486</ele>
        <time>2021-02-21T12:24:07Z</time>
      </trkpt>
      <trkpt lat="45.80805" lon="3.59235">
        <ele>485</ele>
        <time>2021-02-21T12:24:09Z</time>
      </trkpt>
      <trkpt lat="45.80802" lon="3.59235">
        <ele>484</ele>
        <time>2021-02-21T12:24:11Z</time>
      </trkpt>
      <trkpt lat="45.808" lon="3.59235">
        <ele>484</ele>
        <time>2021-02-21T12:24:13Z</time>
      </trkpt>
      <trkpt lat="45.80798" lon="3.59235">
        <ele>484</ele>
        <time>2021-02-21T12:24:14Z</time>
      </trkpt>
      <trkpt lat="45.80796" lon="3.59236">
        <ele>483</ele>
        <time>2021-02-21T12:24:15Z</time>
      </trkpt>
      <trkpt lat="45.80793" lon="3.59237">
        <ele>483</ele>
        <time>2021-02-21T12:24:17Z</time>
      </trkpt>
      <trkpt lat="45.80792" lon="3.59237">
        <ele>483</ele>
        <time>2021-02-21T12:24:19Z</time>
      </trkpt>
      <trkpt lat="45.80789" lon="3.59238">
        <ele>483</ele>
        <time>2021-02-21T12:24:22Z</time>
      </trkpt>
      <trkpt lat="45.80787" lon="3.59236">
        <ele>482</ele>
        <time>2021-02-21T12:24:25Z</time>
      </trkpt>
      <trkpt lat="45.80784" lon="3.59237">
        <ele>481</ele>
        <time>2021-02-21T12:24:51Z</time>
      </trkpt>
      <trkpt lat="45.80781" lon="3.59236">
        <ele>480</ele>
        <time>2021-02-21T12:24:53Z</time>
      </trkpt>
      <trkpt lat="45.80779" lon="3.59237">
        <ele>480</ele>
        <time>2021-02-21T12:24:55Z</time>
      </trkpt>
      <trkpt lat="45.80776" lon="3.59238">
        <ele>480</ele>
        <time>2021-02-21T12:24:57Z</time>
      </trkpt>
      <trkpt lat="45.80774" lon="3.5924">
        <ele>480</ele>
        <time>2021-02-21T12:24:59Z</time>
      </trkpt>
      <trkpt lat="45.80771" lon="3.59239">
        <ele>479</ele>
        <time>2021-02-21T12:25:01Z</time>
      </trkpt>
      <trkpt lat="45.80769" lon="3.59238">
        <ele>478</ele>
        <time>2021-02-21T12:25:03Z</time>
      </trkpt>
      <trkpt lat="45.80767" lon="3.59239">
        <ele>478</ele>
        <time>2021-02-21T12:25:05Z</time>
      </trkpt>
      <trkpt lat="45.80765" lon="3.59241">
        <ele>478</ele>
        <time>2021-02-21T12:25:07Z</time>
      </trkpt>
      <trkpt lat="45.80763" lon="3.59242">
        <ele>477</ele>
        <time>2021-02-21T12:25:09Z</time>
      </trkpt>
      <trkpt lat="45.8076" lon="3.59243">
        <ele>477</ele>
        <time>2021-02-21T12:25:11Z</time>
      </trkpt>
      <trkpt lat="45.80758" lon="3.59245">
        <ele>477</ele>
        <time>2021-02-21T12:25:13Z</time>
      </trkpt>
      <trkpt lat="45.80755" lon="3.59246">
        <ele>477</ele>
        <time>2021-02-21T12:25:15Z</time>
      </trkpt>
      <trkpt lat="45.80753" lon="3.59246">
        <ele>476</ele>
        <time>2021-02-21T12:25:17Z</time>
      </trkpt>
      <trkpt lat="45.8075" lon="3.59247">
        <ele>475</ele>
        <time>2021-02-21T12:25:19Z</time>
      </trkpt>
      <trkpt lat="45.80748" lon="3.59247">
        <ele>475</ele>
        <time>2021-02-21T12:25:21Z</time>
      </trkpt>
      <trkpt lat="45.80745" lon="3.59247">
        <ele>474</ele>
        <time>2021-02-21T12:25:23Z</time>
      </trkpt>
      <trkpt lat="45.80742" lon="3.59247">
        <ele>473</ele>
        <time>2021-02-21T12:25:25Z</time>
      </trkpt>
      <trkpt lat="45.8074" lon="3.59247">
        <ele>473</ele>
        <time>2021-02-21T12:25:27Z</time>
      </trkpt>
      <trkpt lat="45.80738" lon="3.59247">
        <ele>472</ele>
        <time>2021-02-21T12:25:30Z</time>
      </trkpt>
      <trkpt lat="45.80736" lon="3.59246">
        <ele>471</ele>
        <time>2021-02-21T12:25:33Z</time>
      </trkpt>
      <trkpt lat="45.80733" lon="3.59247">
        <ele>471</ele>
        <time>2021-02-21T12:25:35Z</time>
      </trkpt>
      <trkpt lat="45.80731" lon="3.59247">
        <ele>470</ele>
        <time>2021-02-21T12:25:37Z</time>
      </trkpt>
      <trkpt lat="45.80728" lon="3.59247">
        <ele>469</ele>
        <time>2021-02-21T12:25:39Z</time>
      </trkpt>
      <trkpt lat="45.80726" lon="3.59248">
        <ele>469</ele>
        <time>2021-02-21T12:25:41Z</time>
      </trkpt>
      <trkpt lat="45.80723" lon="3.59248">
        <ele>468</ele>
        <time>2021-02-21T12:25:43Z</time>
      </trkpt>
      <trkpt lat="45.80721" lon="3.59249">
        <ele>468</ele>
        <time>2021-02-21T12:25:45Z</time>
      </trkpt>
      <trkpt lat="45.80719" lon="3.59249">
        <ele>468</ele>
        <time>2021-02-21T12:25:48Z</time>
      </trkpt>
      <trkpt lat="45.80717" lon="3.59249">
        <ele>468</ele>
        <time>2021-02-21T12:25:50Z</time>
      </trkpt>
      <trkpt lat="45.80715" lon="3.59249">
        <ele>469</ele>
        <time>2021-02-21T12:25:54Z</time>
      </trkpt>
      <trkpt lat="45.80713" lon="3.59249">
        <ele>468</ele>
        <time>2021-02-21T12:25:57Z</time>
      </trkpt>
      <trkpt lat="45.80711" lon="3.59249">
        <ele>469</ele>
        <time>2021-02-21T12:26:02Z</time>
      </trkpt>
      <trkpt lat="45.80701" lon="3.59249">
        <ele>469</ele>
        <time>2021-02-21T12:26:12Z</time>
      </trkpt>
      <trkpt lat="45.80693" lon="3.5924">
        <ele>466</ele>
        <time>2021-02-21T12:26:16Z</time>
      </trkpt>
      <trkpt lat="45.80686" lon="3.59233">
        <ele>463</ele>
        <time>2021-02-21T12:26:23Z</time>
      </trkpt>
      <trkpt lat="45.8068" lon="3.59221">
        <ele>459</ele>
        <time>2021-02-21T12:26:28Z</time>
      </trkpt>
      <trkpt lat="45.80674" lon="3.59209">
        <ele>456</ele>
        <time>2021-02-21T12:26:35Z</time>
      </trkpt>
      <trkpt lat="45.80668" lon="3.592">
        <ele>453</ele>
        <time>2021-02-21T12:26:43Z</time>
      </trkpt>
      <trkpt lat="45.80659" lon="3.59197">
        <ele>454</ele>
        <time>2021-02-21T12:26:55Z</time>
      </trkpt>
      <trkpt lat="45.8065" lon="3.59193">
        <ele>454</ele>
        <time>2021-02-21T12:27:11Z</time>
      </trkpt>
      <trkpt lat="45.80649" lon="3.59182">
        <ele>451</ele>
        <time>2021-02-21T12:27:16Z</time>
      </trkpt>
      <trkpt lat="45.80646" lon="3.59181">
        <ele>451</ele>
        <time>2021-02-21T12:27:21Z</time>
      </trkpt>
      <trkpt lat="45.80645" lon="3.59177">
        <ele>451</ele>
        <time>2021-02-21T12:27:38Z</time>
      </trkpt>
      <trkpt lat="45.80643" lon="3.59175">
        <ele>450</ele>
        <time>2021-02-21T12:27:42Z</time>
      </trkpt>
      <trkpt lat="45.80642" lon="3.5917">
        <ele>449</ele>
        <time>2021-02-21T12:27:51Z</time>
      </trkpt>
      <trkpt lat="45.80644" lon="3.59173">
        <ele>449</ele>
        <time>2021-02-21T12:28:13Z</time>
      </trkpt>
      <trkpt lat="45.80639" lon="3.59176">
        <ele>451</ele>
        <time>2021-02-21T12:28:20Z</time>
      </trkpt>
      <trkpt lat="45.80638" lon="3.59177">
        <ele>452</ele>
        <time>2021-02-21T12:28:38Z</time>
      </trkpt>
      <trkpt lat="45.80636" lon="3.59176">
        <ele>453</ele>
        <time>2021-02-21T12:28:47Z</time>
      </trkpt>
      <trkpt lat="45.80634" lon="3.59164">
        <ele>450</ele>
        <time>2021-02-21T12:29:11Z</time>
      </trkpt>
      <trkpt lat="45.80639" lon="3.59151">
        <ele>447</ele>
        <time>2021-02-21T12:29:18Z</time>
      </trkpt>
      <trkpt lat="45.80646" lon="3.59139">
        <ele>444</ele>
        <time>2021-02-21T12:29:24Z</time>
      </trkpt>
      <trkpt lat="45.8064" lon="3.59141">
        <ele>445</ele>
        <time>2021-02-21T12:29:39Z</time>
      </trkpt>
      <trkpt lat="45.80637" lon="3.59145">
        <ele>447</ele>
        <time>2021-02-21T12:29:47Z</time>
      </trkpt>
      <trkpt lat="45.80635" lon="3.59146">
        <ele>448</ele>
        <time>2021-02-21T12:29:49Z</time>
      </trkpt>
      <trkpt lat="45.80627" lon="3.59149">
        <ele>451</ele>
        <time>2021-02-21T12:30:09Z</time>
      </trkpt>
      <trkpt lat="45.80626" lon="3.59152">
        <ele>452</ele>
        <time>2021-02-21T12:30:14Z</time>
      </trkpt>
      <trkpt lat="45.80625" lon="3.5915">
        <ele>452</ele>
        <time>2021-02-21T12:30:24Z</time>
      </trkpt>
      <trkpt lat="45.80622" lon="3.59148">
        <ele>453</ele>
        <time>2021-02-21T12:30:27Z</time>
      </trkpt>
      <trkpt lat="45.8062" lon="3.59146">
        <ele>453</ele>
        <time>2021-02-21T12:30:33Z</time>
      </trkpt>
      <trkpt lat="45.8062" lon="3.59144">
        <ele>453</ele>
        <time>2021-02-21T12:30:53Z</time>
      </trkpt>
      <trkpt lat="45.80621" lon="3.59139">
        <ele>451</ele>
        <time>2021-02-21T12:31:00Z</time>
      </trkpt>
      <trkpt lat="45.80622" lon="3.59136">
        <ele>450</ele>
        <time>2021-02-21T12:31:19Z</time>
      </trkpt>
      <trkpt lat="45.80626" lon="3.59135">
        <ele>449</ele>
        <time>2021-02-21T12:33:33Z</time>
      </trkpt>
      <trkpt lat="45.80627" lon="3.59133">
        <ele>448</ele>
        <time>2021-02-21T12:33:43Z</time>
      </trkpt>
      <trkpt lat="45.80626" lon="3.59135">
        <ele>449</ele>
        <time>2021-02-21T12:33:54Z</time>
      </trkpt>
      <trkpt lat="45.80625" lon="3.59136">
        <ele>450</ele>
        <time>2021-02-21T12:33:58Z</time>
      </trkpt>
      <trkpt lat="45.80623" lon="3.59138">
        <ele>451</ele>
        <time>2021-02-21T12:34:02Z</time>
      </trkpt>
      <trkpt lat="45.80621" lon="3.59138">
        <ele>451</ele>
        <time>2021-02-21T12:34:05Z</time>
      </trkpt>
      <trkpt lat="45.80618" lon="3.59139">
        <ele>452</ele>
        <time>2021-02-21T12:34:08Z</time>
      </trkpt>
      <trkpt lat="45.80614" lon="3.5914">
        <ele>454</ele>
        <time>2021-02-21T12:34:14Z</time>
      </trkpt>
      <trkpt lat="45.80612" lon="3.59141">
        <ele>455</ele>
        <time>2021-02-21T12:34:17Z</time>
      </trkpt>
      <trkpt lat="45.80603" lon="3.5914">
        <ele>459</ele>
        <time>2021-02-21T12:34:25Z</time>
      </trkpt>
      <trkpt lat="45.80597" lon="3.59139">
        <ele>461</ele>
        <time>2021-02-21T12:34:34Z</time>
      </trkpt>
      <trkpt lat="45.80595" lon="3.59139">
        <ele>462</ele>
        <time>2021-02-21T12:34:37Z</time>
      </trkpt>
      <trkpt lat="45.80593" lon="3.59138">
        <ele>463</ele>
        <time>2021-02-21T12:34:39Z</time>
      </trkpt>
      <trkpt lat="45.80591" lon="3.59139">
        <ele>464</ele>
        <time>2021-02-21T12:34:41Z</time>
      </trkpt>
      <trkpt lat="45.80588" lon="3.5914">
        <ele>466</ele>
        <time>2021-02-21T12:34:43Z</time>
      </trkpt>
      <trkpt lat="45.80585" lon="3.5914">
        <ele>467</ele>
        <time>2021-02-21T12:34:45Z</time>
      </trkpt>
      <trkpt lat="45.80582" lon="3.5914">
        <ele>468</ele>
        <time>2021-02-21T12:34:47Z</time>
      </trkpt>
      <trkpt lat="45.8058" lon="3.5914">
        <ele>469</ele>
        <time>2021-02-21T12:34:50Z</time>
      </trkpt>
      <trkpt lat="45.80577" lon="3.59132">
        <ele>469</ele>
        <time>2021-02-21T12:35:04Z</time>
      </trkpt>
      <trkpt lat="45.80576" lon="3.59136">
        <ele>470</ele>
        <time>2021-02-21T12:35:10Z</time>
      </trkpt>
      <trkpt lat="45.80573" lon="3.59136">
        <ele>472</ele>
        <time>2021-02-21T12:35:13Z</time>
      </trkpt>
      <trkpt lat="45.80571" lon="3.59137">
        <ele>473</ele>
        <time>2021-02-21T12:35:16Z</time>
      </trkpt>
      <trkpt lat="45.80573" lon="3.59134">
        <ele>471</ele>
        <time>2021-02-21T12:35:29Z</time>
      </trkpt>
      <trkpt lat="45.80574" lon="3.59133">
        <ele>470</ele>
        <time>2021-02-21T12:35:31Z</time>
      </trkpt>
      <trkpt lat="45.80576" lon="3.59132">
        <ele>469</ele>
        <time>2021-02-21T12:35:33Z</time>
      </trkpt>
      <trkpt lat="45.80578" lon="3.5913">
        <ele>468</ele>
        <time>2021-02-21T12:35:35Z</time>
      </trkpt>
      <trkpt lat="45.8058" lon="3.59128">
        <ele>466</ele>
        <time>2021-02-21T12:35:37Z</time>
      </trkpt>
      <trkpt lat="45.80579" lon="3.5913">
        <ele>467</ele>
        <time>2021-02-21T12:35:50Z</time>
      </trkpt>
      <trkpt lat="45.80576" lon="3.59132">
        <ele>469</ele>
        <time>2021-02-21T12:35:53Z</time>
      </trkpt>
      <trkpt lat="45.80567" lon="3.59136">
        <ele>474</ele>
        <time>2021-02-21T12:36:00Z</time>
      </trkpt>
      <trkpt lat="45.80565" lon="3.59135">
        <ele>475</ele>
        <time>2021-02-21T12:36:05Z</time>
      </trkpt>
      <trkpt lat="45.80563" lon="3.59136">
        <ele>476</ele>
        <time>2021-02-21T12:36:07Z</time>
      </trkpt>
      <trkpt lat="45.8056" lon="3.59137">
        <ele>478</ele>
        <time>2021-02-21T12:36:10Z</time>
      </trkpt>
      <trkpt lat="45.80557" lon="3.59139">
        <ele>480</ele>
        <time>2021-02-21T12:36:14Z</time>
      </trkpt>
      <trkpt lat="45.80554" lon="3.5914">
        <ele>481</ele>
        <time>2021-02-21T12:36:16Z</time>
      </trkpt>
      <trkpt lat="45.80556" lon="3.59139">
        <ele>480</ele>
        <time>2021-02-21T12:36:20Z</time>
      </trkpt>
      <trkpt lat="45.80557" lon="3.59142">
        <ele>481</ele>
        <time>2021-02-21T12:36:28Z</time>
      </trkpt>
      <trkpt lat="45.80557" lon="3.59145">
        <ele>481</ele>
        <time>2021-02-21T12:36:36Z</time>
      </trkpt>
      <trkpt lat="45.80558" lon="3.59147">
        <ele>481</ele>
        <time>2021-02-21T12:36:40Z</time>
      </trkpt>
      <trkpt lat="45.80559" lon="3.59149">
        <ele>481</ele>
        <time>2021-02-21T12:36:48Z</time>
      </trkpt>
      <trkpt lat="45.8056" lon="3.59152">
        <ele>481</ele>
        <time>2021-02-21T12:36:50Z</time>
      </trkpt>
      <trkpt lat="45.80561" lon="3.59154">
        <ele>481</ele>
        <time>2021-02-21T12:36:53Z</time>
      </trkpt>
      <trkpt lat="45.80563" lon="3.59155">
        <ele>481</ele>
        <time>2021-02-21T12:36:56Z</time>
      </trkpt>
      <trkpt lat="45.80565" lon="3.59157">
        <ele>480</ele>
        <time>2021-02-21T12:37:00Z</time>
      </trkpt>
      <trkpt lat="45.80566" lon="3.5916">
        <ele>480</ele>
        <time>2021-02-21T12:37:02Z</time>
      </trkpt>
      <trkpt lat="45.80567" lon="3.59162">
        <ele>480</ele>
        <time>2021-02-21T12:37:05Z</time>
      </trkpt>
      <trkpt lat="45.80569" lon="3.59164">
        <ele>480</ele>
        <time>2021-02-21T12:37:09Z</time>
      </trkpt>
      <trkpt lat="45.8057" lon="3.59166">
        <ele>480</ele>
        <time>2021-02-21T12:37:13Z</time>
      </trkpt>
      <trkpt lat="45.80571" lon="3.59168">
        <ele>479</ele>
        <time>2021-02-21T12:37:17Z</time>
      </trkpt>
      <trkpt lat="45.80573" lon="3.59171">
        <ele>479</ele>
        <time>2021-02-21T12:37:20Z</time>
      </trkpt>
      <trkpt lat="45.80574" lon="3.59173">
        <ele>479</ele>
        <time>2021-02-21T12:37:22Z</time>
      </trkpt>
      <trkpt lat="45.80575" lon="3.59177">
        <ele>479</ele>
        <time>2021-02-21T12:37:24Z</time>
      </trkpt>
      <trkpt lat="45.80575" lon="3.59179">
        <ele>480</ele>
        <time>2021-02-21T12:37:26Z</time>
      </trkpt>
      <trkpt lat="45.80574" lon="3.59182">
        <ele>480</ele>
        <time>2021-02-21T12:37:29Z</time>
      </trkpt>
      <trkpt lat="45.80573" lon="3.59185">
        <ele>481</ele>
        <time>2021-02-21T12:37:32Z</time>
      </trkpt>
      <trkpt lat="45.80572" lon="3.59187">
        <ele>482</ele>
        <time>2021-02-21T12:37:34Z</time>
      </trkpt>
      <trkpt lat="45.8057" lon="3.59188">
        <ele>483</ele>
        <time>2021-02-21T12:37:36Z</time>
      </trkpt>
      <trkpt lat="45.80568" lon="3.59188">
        <ele>484</ele>
        <time>2021-02-21T12:37:38Z</time>
      </trkpt>
      <trkpt lat="45.80566" lon="3.59189">
        <ele>485</ele>
        <time>2021-02-21T12:37:43Z</time>
      </trkpt>
      <trkpt lat="45.80563" lon="3.5919">
        <ele>486</ele>
        <time>2021-02-21T12:37:46Z</time>
      </trkpt>
      <trkpt lat="45.80561" lon="3.5919">
        <ele>488</ele>
        <time>2021-02-21T12:37:48Z</time>
      </trkpt>
      <trkpt lat="45.80558" lon="3.5919">
        <ele>489</ele>
        <time>2021-02-21T12:37:49Z</time>
      </trkpt>
      <trkpt lat="45.80554" lon="3.5919">
        <ele>490</ele>
        <time>2021-02-21T12:37:52Z</time>
      </trkpt>
      <trkpt lat="45.80552" lon="3.5919">
        <ele>491</ele>
        <time>2021-02-21T12:37:55Z</time>
      </trkpt>
      <trkpt lat="45.8055" lon="3.59191">
        <ele>492</ele>
        <time>2021-02-21T12:37:58Z</time>
      </trkpt>
      <trkpt lat="45.80548" lon="3.59192">
        <ele>493</ele>
        <time>2021-02-21T12:38:00Z</time>
      </trkpt>
      <trkpt lat="45.80545" lon="3.59192">
        <ele>493</ele>
        <time>2021-02-21T12:38:03Z</time>
      </trkpt>
      <trkpt lat="45.80537" lon="3.59193">
        <ele>496</ele>
        <time>2021-02-21T12:38:14Z</time>
      </trkpt>
      <trkpt lat="45.80534" lon="3.59193">
        <ele>497</ele>
        <time>2021-02-21T12:38:17Z</time>
      </trkpt>
      <trkpt lat="45.8053" lon="3.59193">
        <ele>499</ele>
        <time>2021-02-21T12:38:22Z</time>
      </trkpt>
      <trkpt lat="45.80528" lon="3.59192">
        <ele>499</ele>
        <time>2021-02-21T12:38:29Z</time>
      </trkpt>
      <trkpt lat="45.80525" lon="3.59194">
        <ele>500</ele>
        <time>2021-02-21T12:38:35Z</time>
      </trkpt>
      <trkpt lat="45.80515" lon="3.5919">
        <ele>501</ele>
        <time>2021-02-21T12:38:47Z</time>
      </trkpt>
      <trkpt lat="45.80513" lon="3.59188">
        <ele>502</ele>
        <time>2021-02-21T12:38:49Z</time>
      </trkpt>
      <trkpt lat="45.80512" lon="3.59187">
        <ele>502</ele>
        <time>2021-02-21T12:38:52Z</time>
      </trkpt>
      <trkpt lat="45.8051" lon="3.59187">
        <ele>502</ele>
        <time>2021-02-21T12:38:56Z</time>
      </trkpt>
      <trkpt lat="45.80508" lon="3.59188">
        <ele>503</ele>
        <time>2021-02-21T12:38:59Z</time>
      </trkpt>
      <trkpt lat="45.80507" lon="3.59191">
        <ele>504</ele>
        <time>2021-02-21T12:39:07Z</time>
      </trkpt>
      <trkpt lat="45.80505" lon="3.59193">
        <ele>504</ele>
        <time>2021-02-21T12:39:11Z</time>
      </trkpt>
      <trkpt lat="45.80506" lon="3.59196">
        <ele>505</ele>
        <time>2021-02-21T12:39:16Z</time>
      </trkpt>
      <trkpt lat="45.80505" lon="3.592">
        <ele>505</ele>
        <time>2021-02-21T12:39:21Z</time>
      </trkpt>
      <trkpt lat="45.80505" lon="3.59203">
        <ele>505</ele>
        <time>2021-02-21T12:39:24Z</time>
      </trkpt>
      <trkpt lat="45.80505" lon="3.59205">
        <ele>505</ele>
        <time>2021-02-21T12:39:27Z</time>
      </trkpt>
      <trkpt lat="45.80505" lon="3.59208">
        <ele>506</ele>
        <time>2021-02-21T12:39:30Z</time>
      </trkpt>
      <trkpt lat="45.80504" lon="3.59211">
        <ele>506</ele>
        <time>2021-02-21T12:39:34Z</time>
      </trkpt>
      <trkpt lat="45.80503" lon="3.59214">
        <ele>507</ele>
        <time>2021-02-21T12:39:37Z</time>
      </trkpt>
      <trkpt lat="45.80503" lon="3.59216">
        <ele>507</ele>
        <time>2021-02-21T12:39:40Z</time>
      </trkpt>
      <trkpt lat="45.80501" lon="3.59219">
        <ele>508</ele>
        <time>2021-02-21T12:39:43Z</time>
      </trkpt>
      <trkpt lat="45.80501" lon="3.59222">
        <ele>508</ele>
        <time>2021-02-21T12:39:46Z</time>
      </trkpt>
      <trkpt lat="45.805" lon="3.59224">
        <ele>508</ele>
        <time>2021-02-21T12:39:48Z</time>
      </trkpt>
      <trkpt lat="45.80499" lon="3.59227">
        <ele>509</ele>
        <time>2021-02-21T12:39:50Z</time>
      </trkpt>
      <trkpt lat="45.80499" lon="3.5923">
        <ele>509</ele>
        <time>2021-02-21T12:39:52Z</time>
      </trkpt>
      <trkpt lat="45.80499" lon="3.59232">
        <ele>509</ele>
        <time>2021-02-21T12:39:54Z</time>
      </trkpt>
      <trkpt lat="45.805" lon="3.59236">
        <ele>509</ele>
        <time>2021-02-21T12:39:57Z</time>
      </trkpt>
      <trkpt lat="45.805" lon="3.59239">
        <ele>508</ele>
        <time>2021-02-21T12:40:00Z</time>
      </trkpt>
      <trkpt lat="45.80499" lon="3.59242">
        <ele>509</ele>
        <time>2021-02-21T12:40:03Z</time>
      </trkpt>
      <trkpt lat="45.80498" lon="3.59244">
        <ele>509</ele>
        <time>2021-02-21T12:40:06Z</time>
      </trkpt>
      <trkpt lat="45.80495" lon="3.59246">
        <ele>510</ele>
        <time>2021-02-21T12:40:08Z</time>
      </trkpt>
      <trkpt lat="45.80494" lon="3.59247">
        <ele>510</ele>
        <time>2021-02-21T12:40:09Z</time>
      </trkpt>
      <trkpt lat="45.8049" lon="3.59251">
        <ele>511</ele>
        <time>2021-02-21T12:40:11Z</time>
      </trkpt>
      <trkpt lat="45.80488" lon="3.59253">
        <ele>511</ele>
        <time>2021-02-21T12:40:13Z</time>
      </trkpt>
      <trkpt lat="45.80485" lon="3.59254">
        <ele>512</ele>
        <time>2021-02-21T12:40:15Z</time>
      </trkpt>
      <trkpt lat="45.80483" lon="3.59256">
        <ele>512</ele>
        <time>2021-02-21T12:40:17Z</time>
      </trkpt>
      <trkpt lat="45.80481" lon="3.59257">
        <ele>513</ele>
        <time>2021-02-21T12:40:19Z</time>
      </trkpt>
      <trkpt lat="45.80479" lon="3.59258">
        <ele>514</ele>
        <time>2021-02-21T12:40:21Z</time>
      </trkpt>
      <trkpt lat="45.80476" lon="3.5926">
        <ele>514</ele>
        <time>2021-02-21T12:40:23Z</time>
      </trkpt>
      <trkpt lat="45.80474" lon="3.59262">
        <ele>515</ele>
        <time>2021-02-21T12:40:25Z</time>
      </trkpt>
      <trkpt lat="45.80472" lon="3.59264">
        <ele>516</ele>
        <time>2021-02-21T12:40:28Z</time>
      </trkpt>
      <trkpt lat="45.8047" lon="3.59265">
        <ele>516</ele>
        <time>2021-02-21T12:40:30Z</time>
      </trkpt>
      <trkpt lat="45.80468" lon="3.59266">
        <ele>516</ele>
        <time>2021-02-21T12:40:33Z</time>
      </trkpt>
      <trkpt lat="45.80466" lon="3.59268">
        <ele>517</ele>
        <time>2021-02-21T12:40:36Z</time>
      </trkpt>
      <trkpt lat="45.80463" lon="3.59269">
        <ele>517</ele>
        <time>2021-02-21T12:40:38Z</time>
      </trkpt>
      <trkpt lat="45.80461" lon="3.59271">
        <ele>518</ele>
        <time>2021-02-21T12:40:40Z</time>
      </trkpt>
      <trkpt lat="45.80459" lon="3.59273">
        <ele>519</ele>
        <time>2021-02-21T12:40:42Z</time>
      </trkpt>
      <trkpt lat="45.80457" lon="3.59274">
        <ele>519</ele>
        <time>2021-02-21T12:40:44Z</time>
      </trkpt>
      <trkpt lat="45.80455" lon="3.59277">
        <ele>520</ele>
        <time>2021-02-21T12:40:47Z</time>
      </trkpt>
      <trkpt lat="45.80453" lon="3.59279">
        <ele>520</ele>
        <time>2021-02-21T12:40:50Z</time>
      </trkpt>
      <trkpt lat="45.80451" lon="3.5928">
        <ele>520</ele>
        <time>2021-02-21T12:40:52Z</time>
      </trkpt>
      <trkpt lat="45.80449" lon="3.59281">
        <ele>521</ele>
        <time>2021-02-21T12:40:55Z</time>
      </trkpt>
      <trkpt lat="45.80447" lon="3.59283">
        <ele>521</ele>
        <time>2021-02-21T12:40:57Z</time>
      </trkpt>
      <trkpt lat="45.80446" lon="3.59284">
        <ele>522</ele>
        <time>2021-02-21T12:40:59Z</time>
      </trkpt>
      <trkpt lat="45.80444" lon="3.59286">
        <ele>522</ele>
        <time>2021-02-21T12:41:01Z</time>
      </trkpt>
      <trkpt lat="45.80442" lon="3.59288">
        <ele>522</ele>
        <time>2021-02-21T12:41:03Z</time>
      </trkpt>
      <trkpt lat="45.80439" lon="3.59292">
        <ele>522</ele>
        <time>2021-02-21T12:41:08Z</time>
      </trkpt>
      <trkpt lat="45.80437" lon="3.59293">
        <ele>522</ele>
        <time>2021-02-21T12:41:10Z</time>
      </trkpt>
      <trkpt lat="45.80432" lon="3.59298">
        <ele>523</ele>
        <time>2021-02-21T12:41:17Z</time>
      </trkpt>
      <trkpt lat="45.8043" lon="3.593">
        <ele>523</ele>
        <time>2021-02-21T12:41:21Z</time>
      </trkpt>
      <trkpt lat="45.80428" lon="3.59301">
        <ele>523</ele>
        <time>2021-02-21T12:41:24Z</time>
      </trkpt>
      <trkpt lat="45.80426" lon="3.59303">
        <ele>523</ele>
        <time>2021-02-21T12:41:26Z</time>
      </trkpt>
      <trkpt lat="45.80423" lon="3.59303">
        <ele>523</ele>
        <time>2021-02-21T12:41:28Z</time>
      </trkpt>
      <trkpt lat="45.8042" lon="3.59304">
        <ele>523</ele>
        <time>2021-02-21T12:41:30Z</time>
      </trkpt>
      <trkpt lat="45.80418" lon="3.59305">
        <ele>523</ele>
        <time>2021-02-21T12:41:32Z</time>
      </trkpt>
      <trkpt lat="45.80416" lon="3.59307">
        <ele>524</ele>
        <time>2021-02-21T12:41:34Z</time>
      </trkpt>
      <trkpt lat="45.80414" lon="3.59309">
        <ele>524</ele>
        <time>2021-02-21T12:41:36Z</time>
      </trkpt>
      <trkpt lat="45.80413" lon="3.59312">
        <ele>524</ele>
        <time>2021-02-21T12:41:38Z</time>
      </trkpt>
      <trkpt lat="45.80412" lon="3.59314">
        <ele>524</ele>
        <time>2021-02-21T12:41:40Z</time>
      </trkpt>
      <trkpt lat="45.8041" lon="3.59315">
        <ele>524</ele>
        <time>2021-02-21T12:41:41Z</time>
      </trkpt>
      <trkpt lat="45.80408" lon="3.59318">
        <ele>525</ele>
        <time>2021-02-21T12:41:43Z</time>
      </trkpt>
      <trkpt lat="45.80406" lon="3.59319">
        <ele>525</ele>
        <time>2021-02-21T12:41:45Z</time>
      </trkpt>
      <trkpt lat="45.80404" lon="3.5932">
        <ele>525</ele>
        <time>2021-02-21T12:41:47Z</time>
      </trkpt>
      <trkpt lat="45.80402" lon="3.5932">
        <ele>525</ele>
        <time>2021-02-21T12:41:49Z</time>
      </trkpt>
      <trkpt lat="45.804" lon="3.59322">
        <ele>525</ele>
        <time>2021-02-21T12:41:51Z</time>
      </trkpt>
      <trkpt lat="45.80398" lon="3.59324">
        <ele>525</ele>
        <time>2021-02-21T12:41:53Z</time>
      </trkpt>
      <trkpt lat="45.80396" lon="3.59325">
        <ele>525</ele>
        <time>2021-02-21T12:41:55Z</time>
      </trkpt>
      <trkpt lat="45.80394" lon="3.59326">
        <ele>526</ele>
        <time>2021-02-21T12:41:57Z</time>
      </trkpt>
      <trkpt lat="45.80392" lon="3.59328">
        <ele>526</ele>
        <time>2021-02-21T12:41:59Z</time>
      </trkpt>
      <trkpt lat="45.80391" lon="3.59328">
        <ele>526</ele>
        <time>2021-02-21T12:42:01Z</time>
      </trkpt>
      <trkpt lat="45.80386" lon="3.59329">
        <ele>526</ele>
        <time>2021-02-21T12:42:03Z</time>
      </trkpt>
      <trkpt lat="45.80383" lon="3.59331">
        <ele>527</ele>
        <time>2021-02-21T12:42:05Z</time>
      </trkpt>
      <trkpt lat="45.8038" lon="3.59332">
        <ele>528</ele>
        <time>2021-02-21T12:42:07Z</time>
      </trkpt>
      <trkpt lat="45.80378" lon="3.59333">
        <ele>528</ele>
        <time>2021-02-21T12:42:10Z</time>
      </trkpt>
      <trkpt lat="45.80376" lon="3.59334">
        <ele>528</ele>
        <time>2021-02-21T12:42:13Z</time>
      </trkpt>
      <trkpt lat="45.80374" lon="3.59335">
        <ele>529</ele>
        <time>2021-02-21T12:42:16Z</time>
      </trkpt>
      <trkpt lat="45.80372" lon="3.59337">
        <ele>529</ele>
        <time>2021-02-21T12:42:19Z</time>
      </trkpt>
      <trkpt lat="45.80369" lon="3.59338">
        <ele>530</ele>
        <time>2021-02-21T12:42:22Z</time>
      </trkpt>
      <trkpt lat="45.80367" lon="3.59338">
        <ele>530</ele>
        <time>2021-02-21T12:42:24Z</time>
      </trkpt>
      <trkpt lat="45.80365" lon="3.5934">
        <ele>531</ele>
        <time>2021-02-21T12:42:26Z</time>
      </trkpt>
      <trkpt lat="45.80363" lon="3.59341">
        <ele>531</ele>
        <time>2021-02-21T12:42:28Z</time>
      </trkpt>
      <trkpt lat="45.80362" lon="3.59343">
        <ele>531</ele>
        <time>2021-02-21T12:42:31Z</time>
      </trkpt>
      <trkpt lat="45.80359" lon="3.59343">
        <ele>532</ele>
        <time>2021-02-21T12:42:33Z</time>
      </trkpt>
      <trkpt lat="45.80356" lon="3.59344">
        <ele>532</ele>
        <time>2021-02-21T12:42:35Z</time>
      </trkpt>
      <trkpt lat="45.80354" lon="3.59345">
        <ele>532</ele>
        <time>2021-02-21T12:42:38Z</time>
      </trkpt>
      <trkpt lat="45.80352" lon="3.59345">
        <ele>533</ele>
        <time>2021-02-21T12:42:39Z</time>
      </trkpt>
      <trkpt lat="45.8035" lon="3.59346">
        <ele>533</ele>
        <time>2021-02-21T12:42:41Z</time>
      </trkpt>
      <trkpt lat="45.80348" lon="3.59347">
        <ele>533</ele>
        <time>2021-02-21T12:42:44Z</time>
      </trkpt>
      <trkpt lat="45.80346" lon="3.59349">
        <ele>534</ele>
        <time>2021-02-21T12:42:47Z</time>
      </trkpt>
      <trkpt lat="45.80344" lon="3.5935">
        <ele>534</ele>
        <time>2021-02-21T12:42:50Z</time>
      </trkpt>
      <trkpt lat="45.80342" lon="3.59352">
        <ele>534</ele>
        <time>2021-02-21T12:42:54Z</time>
      </trkpt>
      <trkpt lat="45.80341" lon="3.59354">
        <ele>535</ele>
        <time>2021-02-21T12:42:56Z</time>
      </trkpt>
      <trkpt lat="45.80339" lon="3.59356">
        <ele>535</ele>
        <time>2021-02-21T12:42:59Z</time>
      </trkpt>
      <trkpt lat="45.80337" lon="3.59358">
        <ele>536</ele>
        <time>2021-02-21T12:43:01Z</time>
      </trkpt>
      <trkpt lat="45.80336" lon="3.59361">
        <ele>536</ele>
        <time>2021-02-21T12:43:04Z</time>
      </trkpt>
      <trkpt lat="45.80334" lon="3.59363">
        <ele>536</ele>
        <time>2021-02-21T12:43:06Z</time>
      </trkpt>
      <trkpt lat="45.80333" lon="3.59366">
        <ele>536</ele>
        <time>2021-02-21T12:43:09Z</time>
      </trkpt>
      <trkpt lat="45.80332" lon="3.59368">
        <ele>536</ele>
        <time>2021-02-21T12:43:12Z</time>
      </trkpt>
      <trkpt lat="45.8033" lon="3.5937">
        <ele>536</ele>
        <time>2021-02-21T12:43:15Z</time>
      </trkpt>
      <trkpt lat="45.80328" lon="3.59371">
        <ele>536</ele>
        <time>2021-02-21T12:43:17Z</time>
      </trkpt>
      <trkpt lat="45.80326" lon="3.59374">
        <ele>536</ele>
        <time>2021-02-21T12:43:19Z</time>
      </trkpt>
      <trkpt lat="45.80325" lon="3.59376">
        <ele>537</ele>
        <time>2021-02-21T12:43:21Z</time>
      </trkpt>
      <trkpt lat="45.80323" lon="3.59379">
        <ele>537</ele>
        <time>2021-02-21T12:43:24Z</time>
      </trkpt>
      <trkpt lat="45.8032" lon="3.59381">
        <ele>537</ele>
        <time>2021-02-21T12:43:26Z</time>
      </trkpt>
      <trkpt lat="45.80318" lon="3.59383">
        <ele>537</ele>
        <time>2021-02-21T12:43:28Z</time>
      </trkpt>
      <trkpt lat="45.80318" lon="3.59386">
        <ele>537</ele>
        <time>2021-02-21T12:43:30Z</time>
      </trkpt>
      <trkpt lat="45.80316" lon="3.5939">
        <ele>537</ele>
        <time>2021-02-21T12:43:32Z</time>
      </trkpt>
      <trkpt lat="45.80314" lon="3.59391">
        <ele>537</ele>
        <time>2021-02-21T12:43:34Z</time>
      </trkpt>
      <trkpt lat="45.80312" lon="3.59393">
        <ele>537</ele>
        <time>2021-02-21T12:43:36Z</time>
      </trkpt>
      <trkpt lat="45.8031" lon="3.59395">
        <ele>537</ele>
        <time>2021-02-21T12:43:38Z</time>
      </trkpt>
      <trkpt lat="45.80308" lon="3.59398">
        <ele>537</ele>
        <time>2021-02-21T12:43:40Z</time>
      </trkpt>
      <trkpt lat="45.80307" lon="3.59401">
        <ele>537</ele>
        <time>2021-02-21T12:43:42Z</time>
      </trkpt>
      <trkpt lat="45.80306" lon="3.59404">
        <ele>537</ele>
        <time>2021-02-21T12:43:44Z</time>
      </trkpt>
      <trkpt lat="45.80304" lon="3.59407">
        <ele>538</ele>
        <time>2021-02-21T12:43:46Z</time>
      </trkpt>
      <trkpt lat="45.80302" lon="3.5941">
        <ele>538</ele>
        <time>2021-02-21T12:43:48Z</time>
      </trkpt>
      <trkpt lat="45.803" lon="3.59412">
        <ele>538</ele>
        <time>2021-02-21T12:43:50Z</time>
      </trkpt>
      <trkpt lat="45.80298" lon="3.59416">
        <ele>538</ele>
        <time>2021-02-21T12:43:52Z</time>
      </trkpt>
      <trkpt lat="45.80296" lon="3.59419">
        <ele>538</ele>
        <time>2021-02-21T12:43:54Z</time>
      </trkpt>
      <trkpt lat="45.80294" lon="3.59421">
        <ele>538</ele>
        <time>2021-02-21T12:43:56Z</time>
      </trkpt>
      <trkpt lat="45.80291" lon="3.59423">
        <ele>538</ele>
        <time>2021-02-21T12:43:58Z</time>
      </trkpt>
      <trkpt lat="45.80289" lon="3.59424">
        <ele>538</ele>
        <time>2021-02-21T12:44:00Z</time>
      </trkpt>
      <trkpt lat="45.80286" lon="3.59425">
        <ele>538</ele>
        <time>2021-02-21T12:44:02Z</time>
      </trkpt>
      <trkpt lat="45.80284" lon="3.59426">
        <ele>538</ele>
        <time>2021-02-21T12:44:04Z</time>
      </trkpt>
      <trkpt lat="45.80281" lon="3.59426">
        <ele>538</ele>
        <time>2021-02-21T12:44:06Z</time>
      </trkpt>
      <trkpt lat="45.80279" lon="3.59425">
        <ele>538</ele>
        <time>2021-02-21T12:44:08Z</time>
      </trkpt>
      <trkpt lat="45.80277" lon="3.59424">
        <ele>538</ele>
        <time>2021-02-21T12:44:10Z</time>
      </trkpt>
      <trkpt lat="45.80275" lon="3.59422">
        <ele>538</ele>
        <time>2021-02-21T12:44:12Z</time>
      </trkpt>
      <trkpt lat="45.80273" lon="3.5942">
        <ele>538</ele>
        <time>2021-02-21T12:44:14Z</time>
      </trkpt>
      <trkpt lat="45.80271" lon="3.59417">
        <ele>538</ele>
        <time>2021-02-21T12:44:16Z</time>
      </trkpt>
      <trkpt lat="45.8027" lon="3.59414">
        <ele>538</ele>
        <time>2021-02-21T12:44:18Z</time>
      </trkpt>
      <trkpt lat="45.80268" lon="3.59411">
        <ele>538</ele>
        <time>2021-02-21T12:44:20Z</time>
      </trkpt>
      <trkpt lat="45.80267" lon="3.59407">
        <ele>538</ele>
        <time>2021-02-21T12:44:22Z</time>
      </trkpt>
      <trkpt lat="45.80266" lon="3.59404">
        <ele>538</ele>
        <time>2021-02-21T12:44:24Z</time>
      </trkpt>
      <trkpt lat="45.80264" lon="3.59402">
        <ele>538</ele>
        <time>2021-02-21T12:44:26Z</time>
      </trkpt>
      <trkpt lat="45.80262" lon="3.59399">
        <ele>538</ele>
        <time>2021-02-21T12:44:28Z</time>
      </trkpt>
      <trkpt lat="45.8026" lon="3.59397">
        <ele>538</ele>
        <time>2021-02-21T12:44:30Z</time>
      </trkpt>
      <trkpt lat="45.80259" lon="3.59395">
        <ele>538</ele>
        <time>2021-02-21T12:44:32Z</time>
      </trkpt>
      <trkpt lat="45.80257" lon="3.59393">
        <ele>538</ele>
        <time>2021-02-21T12:44:34Z</time>
      </trkpt>
      <trkpt lat="45.80255" lon="3.59391">
        <ele>538</ele>
        <time>2021-02-21T12:44:36Z</time>
      </trkpt>
      <trkpt lat="45.80253" lon="3.59389">
        <ele>538</ele>
        <time>2021-02-21T12:44:38Z</time>
      </trkpt>
      <trkpt lat="45.80251" lon="3.59387">
        <ele>537</ele>
        <time>2021-02-21T12:44:40Z</time>
      </trkpt>
      <trkpt lat="45.80249" lon="3.59385">
        <ele>537</ele>
        <time>2021-02-21T12:44:42Z</time>
      </trkpt>
      <trkpt lat="45.80247" lon="3.59384">
        <ele>537</ele>
        <time>2021-02-21T12:44:44Z</time>
      </trkpt>
      <trkpt lat="45.80245" lon="3.59382">
        <ele>537</ele>
        <time>2021-02-21T12:44:46Z</time>
      </trkpt>
      <trkpt lat="45.80243" lon="3.5938">
        <ele>537</ele>
        <time>2021-02-21T12:44:48Z</time>
      </trkpt>
      <trkpt lat="45.80241" lon="3.59378">
        <ele>537</ele>
        <time>2021-02-21T12:44:50Z</time>
      </trkpt>
      <trkpt lat="45.80239" lon="3.59376">
        <ele>537</ele>
        <time>2021-02-21T12:44:52Z</time>
      </trkpt>
      <trkpt lat="45.80237" lon="3.59375">
        <ele>537</ele>
        <time>2021-02-21T12:44:54Z</time>
      </trkpt>
      <trkpt lat="45.80235" lon="3.59373">
        <ele>537</ele>
        <time>2021-02-21T12:44:56Z</time>
      </trkpt>
      <trkpt lat="45.80233" lon="3.59371">
        <ele>537</ele>
        <time>2021-02-21T12:44:58Z</time>
      </trkpt>
      <trkpt lat="45.80231" lon="3.59369">
        <ele>537</ele>
        <time>2021-02-21T12:45:00Z</time>
      </trkpt>
      <trkpt lat="45.80229" lon="3.59367">
        <ele>537</ele>
        <time>2021-02-21T12:45:02Z</time>
      </trkpt>
      <trkpt lat="45.80226" lon="3.59366">
        <ele>538</ele>
        <time>2021-02-21T12:45:04Z</time>
      </trkpt>
      <trkpt lat="45.80224" lon="3.59364">
        <ele>538</ele>
        <time>2021-02-21T12:45:06Z</time>
      </trkpt>
      <trkpt lat="45.80222" lon="3.59361">
        <ele>537</ele>
        <time>2021-02-21T12:45:08Z</time>
      </trkpt>
      <trkpt lat="45.8022" lon="3.59359">
        <ele>537</ele>
        <time>2021-02-21T12:45:10Z</time>
      </trkpt>
      <trkpt lat="45.80218" lon="3.59357">
        <ele>537</ele>
        <time>2021-02-21T12:45:12Z</time>
      </trkpt>
      <trkpt lat="45.80216" lon="3.59355">
        <ele>537</ele>
        <time>2021-02-21T12:45:14Z</time>
      </trkpt>
      <trkpt lat="45.80214" lon="3.59353">
        <ele>537</ele>
        <time>2021-02-21T12:45:16Z</time>
      </trkpt>
      <trkpt lat="45.80212" lon="3.59351">
        <ele>537</ele>
        <time>2021-02-21T12:45:21Z</time>
      </trkpt>
      <trkpt lat="45.80209" lon="3.59349">
        <ele>537</ele>
        <time>2021-02-21T12:45:23Z</time>
      </trkpt>
      <trkpt lat="45.80207" lon="3.59347">
        <ele>537</ele>
        <time>2021-02-21T12:45:25Z</time>
      </trkpt>
      <trkpt lat="45.80204" lon="3.59345">
        <ele>537</ele>
        <time>2021-02-21T12:45:29Z</time>
      </trkpt>
      <trkpt lat="45.80202" lon="3.59343">
        <ele>537</ele>
        <time>2021-02-21T12:45:31Z</time>
      </trkpt>
      <trkpt lat="45.80199" lon="3.59341">
        <ele>537</ele>
        <time>2021-02-21T12:45:33Z</time>
      </trkpt>
      <trkpt lat="45.80196" lon="3.59338">
        <ele>537</ele>
        <time>2021-02-21T12:45:35Z</time>
      </trkpt>
      <trkpt lat="45.80193" lon="3.59336">
        <ele>537</ele>
        <time>2021-02-21T12:45:37Z</time>
      </trkpt>
      <trkpt lat="45.80191" lon="3.59334">
        <ele>537</ele>
        <time>2021-02-21T12:45:39Z</time>
      </trkpt>
      <trkpt lat="45.80188" lon="3.59331">
        <ele>537</ele>
        <time>2021-02-21T12:45:41Z</time>
      </trkpt>
      <trkpt lat="45.80186" lon="3.59329">
        <ele>537</ele>
        <time>2021-02-21T12:45:43Z</time>
      </trkpt>
      <trkpt lat="45.80183" lon="3.59326">
        <ele>537</ele>
        <time>2021-02-21T12:45:45Z</time>
      </trkpt>
      <trkpt lat="45.80181" lon="3.59324">
        <ele>537</ele>
        <time>2021-02-21T12:45:47Z</time>
      </trkpt>
      <trkpt lat="45.80178" lon="3.59322">
        <ele>537</ele>
        <time>2021-02-21T12:45:49Z</time>
      </trkpt>
      <trkpt lat="45.80176" lon="3.59319">
        <ele>538</ele>
        <time>2021-02-21T12:45:51Z</time>
      </trkpt>
      <trkpt lat="45.80174" lon="3.59317">
        <ele>538</ele>
        <time>2021-02-21T12:45:53Z</time>
      </trkpt>
      <trkpt lat="45.80171" lon="3.59315">
        <ele>538</ele>
        <time>2021-02-21T12:45:55Z</time>
      </trkpt>
      <trkpt lat="45.80169" lon="3.59313">
        <ele>538</ele>
        <time>2021-02-21T12:45:57Z</time>
      </trkpt>
      <trkpt lat="45.80166" lon="3.59311">
        <ele>538</ele>
        <time>2021-02-21T12:45:59Z</time>
      </trkpt>
      <trkpt lat="45.80164" lon="3.59309">
        <ele>538</ele>
        <time>2021-02-21T12:46:01Z</time>
      </trkpt>
      <trkpt lat="45.80162" lon="3.59307">
        <ele>539</ele>
        <time>2021-02-21T12:46:03Z</time>
      </trkpt>
      <trkpt lat="45.8016" lon="3.59304">
        <ele>539</ele>
        <time>2021-02-21T12:46:05Z</time>
      </trkpt>
      <trkpt lat="45.80158" lon="3.59302">
        <ele>539</ele>
        <time>2021-02-21T12:46:07Z</time>
      </trkpt>
      <trkpt lat="45.80156" lon="3.593">
        <ele>539</ele>
        <time>2021-02-21T12:46:09Z</time>
      </trkpt>
      <trkpt lat="45.80153" lon="3.59299">
        <ele>539</ele>
        <time>2021-02-21T12:46:11Z</time>
      </trkpt>
      <trkpt lat="45.80151" lon="3.59296">
        <ele>539</ele>
        <time>2021-02-21T12:46:13Z</time>
      </trkpt>
      <trkpt lat="45.80148" lon="3.59295">
        <ele>539</ele>
        <time>2021-02-21T12:46:15Z</time>
      </trkpt>
      <trkpt lat="45.80146" lon="3.59296">
        <ele>539</ele>
        <time>2021-02-21T12:46:17Z</time>
      </trkpt>
      <trkpt lat="45.80143" lon="3.59296">
        <ele>539</ele>
        <time>2021-02-21T12:46:19Z</time>
      </trkpt>
      <trkpt lat="45.8014" lon="3.59296">
        <ele>539</ele>
        <time>2021-02-21T12:46:21Z</time>
      </trkpt>
      <trkpt lat="45.80137" lon="3.59295">
        <ele>539</ele>
        <time>2021-02-21T12:46:23Z</time>
      </trkpt>
      <trkpt lat="45.80135" lon="3.59295">
        <ele>539</ele>
        <time>2021-02-21T12:46:25Z</time>
      </trkpt>
      <trkpt lat="45.80133" lon="3.59296">
        <ele>539</ele>
        <time>2021-02-21T12:46:27Z</time>
      </trkpt>
      <trkpt lat="45.80131" lon="3.59296">
        <ele>540</ele>
        <time>2021-02-21T12:46:29Z</time>
      </trkpt>
      <trkpt lat="45.80129" lon="3.59298">
        <ele>540</ele>
        <time>2021-02-21T12:46:32Z</time>
      </trkpt>
      <trkpt lat="45.80128" lon="3.593">
        <ele>540</ele>
        <time>2021-02-21T12:46:34Z</time>
      </trkpt>
      <trkpt lat="45.80127" lon="3.59303">
        <ele>540</ele>
        <time>2021-02-21T12:46:36Z</time>
      </trkpt>
      <trkpt lat="45.80125" lon="3.59305">
        <ele>540</ele>
        <time>2021-02-21T12:46:38Z</time>
      </trkpt>
      <trkpt lat="45.80124" lon="3.59307">
        <ele>540</ele>
        <time>2021-02-21T12:46:40Z</time>
      </trkpt>
      <trkpt lat="45.80123" lon="3.5931">
        <ele>540</ele>
        <time>2021-02-21T12:46:42Z</time>
      </trkpt>
      <trkpt lat="45.80122" lon="3.59313">
        <ele>540</ele>
        <time>2021-02-21T12:46:44Z</time>
      </trkpt>
      <trkpt lat="45.80121" lon="3.59316">
        <ele>540</ele>
        <time>2021-02-21T12:46:46Z</time>
      </trkpt>
      <trkpt lat="45.8012" lon="3.59319">
        <ele>540</ele>
        <time>2021-02-21T12:46:48Z</time>
      </trkpt>
      <trkpt lat="45.80118" lon="3.59322">
        <ele>540</ele>
        <time>2021-02-21T12:46:50Z</time>
      </trkpt>
      <trkpt lat="45.80119" lon="3.59325">
        <ele>540</ele>
        <time>2021-02-21T12:47:01Z</time>
      </trkpt>
      <trkpt lat="45.80117" lon="3.59328">
        <ele>539</ele>
        <time>2021-02-21T12:47:38Z</time>
      </trkpt>
      <trkpt lat="45.80115" lon="3.5933">
        <ele>539</ele>
        <time>2021-02-21T12:47:40Z</time>
      </trkpt>
      <trkpt lat="45.80112" lon="3.59332">
        <ele>539</ele>
        <time>2021-02-21T12:47:42Z</time>
      </trkpt>
      <trkpt lat="45.80109" lon="3.59334">
        <ele>539</ele>
        <time>2021-02-21T12:47:44Z</time>
      </trkpt>
      <trkpt lat="45.80107" lon="3.59336">
        <ele>539</ele>
        <time>2021-02-21T12:47:46Z</time>
      </trkpt>
      <trkpt lat="45.80105" lon="3.59338">
        <ele>539</ele>
        <time>2021-02-21T12:47:48Z</time>
      </trkpt>
      <trkpt lat="45.80104" lon="3.59341">
        <ele>539</ele>
        <time>2021-02-21T12:47:50Z</time>
      </trkpt>
      <trkpt lat="45.80104" lon="3.59344">
        <ele>539</ele>
        <time>2021-02-21T12:47:52Z</time>
      </trkpt>
      <trkpt lat="45.80103" lon="3.59348">
        <ele>539</ele>
        <time>2021-02-21T12:47:54Z</time>
      </trkpt>
      <trkpt lat="45.80101" lon="3.59353">
        <ele>539</ele>
        <time>2021-02-21T12:47:56Z</time>
      </trkpt>
      <trkpt lat="45.801" lon="3.59357">
        <ele>539</ele>
        <time>2021-02-21T12:47:58Z</time>
      </trkpt>
      <trkpt lat="45.80099" lon="3.59361">
        <ele>539</ele>
        <time>2021-02-21T12:48:00Z</time>
      </trkpt>
      <trkpt lat="45.80099" lon="3.59364">
        <ele>538</ele>
        <time>2021-02-21T12:48:01Z</time>
      </trkpt>
      <trkpt lat="45.80098" lon="3.59369">
        <ele>538</ele>
        <time>2021-02-21T12:48:03Z</time>
      </trkpt>
      <trkpt lat="45.80097" lon="3.59373">
        <ele>538</ele>
        <time>2021-02-21T12:48:05Z</time>
      </trkpt>
      <trkpt lat="45.80095" lon="3.59376">
        <ele>538</ele>
        <time>2021-02-21T12:48:07Z</time>
      </trkpt>
      <trkpt lat="45.80093" lon="3.59379">
        <ele>537</ele>
        <time>2021-02-21T12:48:09Z</time>
      </trkpt>
      <trkpt lat="45.80091" lon="3.59381">
        <ele>537</ele>
        <time>2021-02-21T12:48:11Z</time>
      </trkpt>
      <trkpt lat="45.80088" lon="3.59383">
        <ele>537</ele>
        <time>2021-02-21T12:48:13Z</time>
      </trkpt>
      <trkpt lat="45.80086" lon="3.59385">
        <ele>537</ele>
        <time>2021-02-21T12:48:15Z</time>
      </trkpt>
      <trkpt lat="45.80083" lon="3.59387">
        <ele>537</ele>
        <time>2021-02-21T12:48:17Z</time>
      </trkpt>
      <trkpt lat="45.80081" lon="3.59388">
        <ele>536</ele>
        <time>2021-02-21T12:48:19Z</time>
      </trkpt>
      <trkpt lat="45.80079" lon="3.59389">
        <ele>536</ele>
        <time>2021-02-21T12:48:21Z</time>
      </trkpt>
      <trkpt lat="45.80076" lon="3.5939">
        <ele>536</ele>
        <time>2021-02-21T12:48:23Z</time>
      </trkpt>
      <trkpt lat="45.80073" lon="3.59391">
        <ele>535</ele>
        <time>2021-02-21T12:48:25Z</time>
      </trkpt>
      <trkpt lat="45.8007" lon="3.59391">
        <ele>535</ele>
        <time>2021-02-21T12:48:27Z</time>
      </trkpt>
      <trkpt lat="45.80067" lon="3.59391">
        <ele>535</ele>
        <time>2021-02-21T12:48:29Z</time>
      </trkpt>
      <trkpt lat="45.80064" lon="3.59391">
        <ele>534</ele>
        <time>2021-02-21T12:48:31Z</time>
      </trkpt>
      <trkpt lat="45.80061" lon="3.5939">
        <ele>534</ele>
        <time>2021-02-21T12:48:33Z</time>
      </trkpt>
      <trkpt lat="45.80059" lon="3.5939">
        <ele>534</ele>
        <time>2021-02-21T12:48:35Z</time>
      </trkpt>
      <trkpt lat="45.80056" lon="3.5939">
        <ele>534</ele>
        <time>2021-02-21T12:48:37Z</time>
      </trkpt>
      <trkpt lat="45.80053" lon="3.5939">
        <ele>533</ele>
        <time>2021-02-21T12:48:39Z</time>
      </trkpt>
      <trkpt lat="45.8005" lon="3.59389">
        <ele>533</ele>
        <time>2021-02-21T12:48:41Z</time>
      </trkpt>
      <trkpt lat="45.80048" lon="3.59388">
        <ele>533</ele>
        <time>2021-02-21T12:48:43Z</time>
      </trkpt>
      <trkpt lat="45.80045" lon="3.59388">
        <ele>532</ele>
        <time>2021-02-21T12:48:45Z</time>
      </trkpt>
      <trkpt lat="45.80042" lon="3.59387">
        <ele>532</ele>
        <time>2021-02-21T12:48:47Z</time>
      </trkpt>
      <trkpt lat="45.8004" lon="3.59386">
        <ele>532</ele>
        <time>2021-02-21T12:48:49Z</time>
      </trkpt>
      <trkpt lat="45.80037" lon="3.59385">
        <ele>531</ele>
        <time>2021-02-21T12:48:51Z</time>
      </trkpt>
      <trkpt lat="45.80034" lon="3.59384">
        <ele>531</ele>
        <time>2021-02-21T12:48:53Z</time>
      </trkpt>
      <trkpt lat="45.80032" lon="3.59383">
        <ele>531</ele>
        <time>2021-02-21T12:48:55Z</time>
      </trkpt>
      <trkpt lat="45.80029" lon="3.59381">
        <ele>531</ele>
        <time>2021-02-21T12:48:57Z</time>
      </trkpt>
      <trkpt lat="45.80027" lon="3.59378">
        <ele>530</ele>
        <time>2021-02-21T12:48:59Z</time>
      </trkpt>
      <trkpt lat="45.80025" lon="3.59376">
        <ele>530</ele>
        <time>2021-02-21T12:49:01Z</time>
      </trkpt>
      <trkpt lat="45.80023" lon="3.59373">
        <ele>530</ele>
        <time>2021-02-21T12:49:03Z</time>
      </trkpt>
      <trkpt lat="45.80021" lon="3.5937">
        <ele>530</ele>
        <time>2021-02-21T12:49:05Z</time>
      </trkpt>
      <trkpt lat="45.8002" lon="3.59366">
        <ele>529</ele>
        <time>2021-02-21T12:49:07Z</time>
      </trkpt>
      <trkpt lat="45.80018" lon="3.59363">
        <ele>529</ele>
        <time>2021-02-21T12:49:09Z</time>
      </trkpt>
      <trkpt lat="45.80017" lon="3.5936">
        <ele>529</ele>
        <time>2021-02-21T12:49:11Z</time>
      </trkpt>
      <trkpt lat="45.80015" lon="3.59357">
        <ele>528</ele>
        <time>2021-02-21T12:49:13Z</time>
      </trkpt>
      <trkpt lat="45.80013" lon="3.59353">
        <ele>528</ele>
        <time>2021-02-21T12:49:15Z</time>
      </trkpt>
      <trkpt lat="45.80012" lon="3.5935">
        <ele>528</ele>
        <time>2021-02-21T12:49:17Z</time>
      </trkpt>
      <trkpt lat="45.8001" lon="3.59347">
        <ele>527</ele>
        <time>2021-02-21T12:49:19Z</time>
      </trkpt>
      <trkpt lat="45.80008" lon="3.59343">
        <ele>527</ele>
        <time>2021-02-21T12:49:21Z</time>
      </trkpt>
      <trkpt lat="45.80007" lon="3.5934">
        <ele>527</ele>
        <time>2021-02-21T12:49:23Z</time>
      </trkpt>
      <trkpt lat="45.80006" lon="3.59336">
        <ele>526</ele>
        <time>2021-02-21T12:49:25Z</time>
      </trkpt>
      <trkpt lat="45.80004" lon="3.59333">
        <ele>526</ele>
        <time>2021-02-21T12:49:27Z</time>
      </trkpt>
      <trkpt lat="45.80003" lon="3.59329">
        <ele>526</ele>
        <time>2021-02-21T12:49:29Z</time>
      </trkpt>
      <trkpt lat="45.80001" lon="3.59326">
        <ele>525</ele>
        <time>2021-02-21T12:49:31Z</time>
      </trkpt>
      <trkpt lat="45.8" lon="3.59323">
        <ele>525</ele>
        <time>2021-02-21T12:49:33Z</time>
      </trkpt>
      <trkpt lat="45.79999" lon="3.5932">
        <ele>525</ele>
        <time>2021-02-21T12:49:35Z</time>
      </trkpt>
      <trkpt lat="45.79997" lon="3.59317">
        <ele>525</ele>
        <time>2021-02-21T12:49:37Z</time>
      </trkpt>
      <trkpt lat="45.79995" lon="3.59314">
        <ele>525</ele>
        <time>2021-02-21T12:49:39Z</time>
      </trkpt>
      <trkpt lat="45.79994" lon="3.5931">
        <ele>524</ele>
        <time>2021-02-21T12:49:41Z</time>
      </trkpt>
      <trkpt lat="45.79993" lon="3.59307">
        <ele>524</ele>
        <time>2021-02-21T12:49:43Z</time>
      </trkpt>
      <trkpt lat="45.7999" lon="3.59304">
        <ele>524</ele>
        <time>2021-02-21T12:49:45Z</time>
      </trkpt>
      <trkpt lat="45.79988" lon="3.59301">
        <ele>524</ele>
        <time>2021-02-21T12:49:47Z</time>
      </trkpt>
      <trkpt lat="45.79986" lon="3.59298">
        <ele>524</ele>
        <time>2021-02-21T12:49:49Z</time>
      </trkpt>
      <trkpt lat="45.79984" lon="3.59295">
        <ele>524</ele>
        <time>2021-02-21T12:49:51Z</time>
      </trkpt>
      <trkpt lat="45.79982" lon="3.59292">
        <ele>524</ele>
        <time>2021-02-21T12:49:53Z</time>
      </trkpt>
      <trkpt lat="45.7998" lon="3.59289">
        <ele>524</ele>
        <time>2021-02-21T12:49:55Z</time>
      </trkpt>
      <trkpt lat="45.79978" lon="3.59287">
        <ele>524</ele>
        <time>2021-02-21T12:49:57Z</time>
      </trkpt>
      <trkpt lat="45.79976" lon="3.59284">
        <ele>524</ele>
        <time>2021-02-21T12:49:59Z</time>
      </trkpt>
      <trkpt lat="45.79974" lon="3.59281">
        <ele>524</ele>
        <time>2021-02-21T12:50:01Z</time>
      </trkpt>
      <trkpt lat="45.79972" lon="3.59279">
        <ele>524</ele>
        <time>2021-02-21T12:50:03Z</time>
      </trkpt>
      <trkpt lat="45.7997" lon="3.59276">
        <ele>525</ele>
        <time>2021-02-21T12:50:05Z</time>
      </trkpt>
      <trkpt lat="45.79968" lon="3.59273">
        <ele>525</ele>
        <time>2021-02-21T12:50:07Z</time>
      </trkpt>
      <trkpt lat="45.79966" lon="3.5927">
        <ele>525</ele>
        <time>2021-02-21T12:50:09Z</time>
      </trkpt>
      <trkpt lat="45.79964" lon="3.59268">
        <ele>525</ele>
        <time>2021-02-21T12:50:11Z</time>
      </trkpt>
      <trkpt lat="45.79962" lon="3.59266">
        <ele>525</ele>
        <time>2021-02-21T12:50:13Z</time>
      </trkpt>
      <trkpt lat="45.7996" lon="3.59263">
        <ele>525</ele>
        <time>2021-02-21T12:50:15Z</time>
      </trkpt>
      <trkpt lat="45.79958" lon="3.59261">
        <ele>525</ele>
        <time>2021-02-21T12:50:17Z</time>
      </trkpt>
      <trkpt lat="45.79956" lon="3.59258">
        <ele>525</ele>
        <time>2021-02-21T12:50:19Z</time>
      </trkpt>
      <trkpt lat="45.79954" lon="3.59256">
        <ele>525</ele>
        <time>2021-02-21T12:50:21Z</time>
      </trkpt>
      <trkpt lat="45.79951" lon="3.59254">
        <ele>525</ele>
        <time>2021-02-21T12:50:23Z</time>
      </trkpt>
      <trkpt lat="45.79949" lon="3.59251">
        <ele>525</ele>
        <time>2021-02-21T12:50:25Z</time>
      </trkpt>
      <trkpt lat="45.79948" lon="3.59248">
        <ele>524</ele>
        <time>2021-02-21T12:50:27Z</time>
      </trkpt>
      <trkpt lat="45.79946" lon="3.59246">
        <ele>524</ele>
        <time>2021-02-21T12:50:29Z</time>
      </trkpt>
      <trkpt lat="45.79944" lon="3.59243">
        <ele>525</ele>
        <time>2021-02-21T12:50:31Z</time>
      </trkpt>
      <trkpt lat="45.79942" lon="3.59241">
        <ele>525</ele>
        <time>2021-02-21T12:50:33Z</time>
      </trkpt>
      <trkpt lat="45.7994" lon="3.59238">
        <ele>525</ele>
        <time>2021-02-21T12:50:35Z</time>
      </trkpt>
      <trkpt lat="45.79938" lon="3.59235">
        <ele>525</ele>
        <time>2021-02-21T12:50:37Z</time>
      </trkpt>
      <trkpt lat="45.79936" lon="3.59232">
        <ele>525</ele>
        <time>2021-02-21T12:50:39Z</time>
      </trkpt>
      <trkpt lat="45.79934" lon="3.5923">
        <ele>525</ele>
        <time>2021-02-21T12:50:41Z</time>
      </trkpt>
      <trkpt lat="45.79933" lon="3.59227">
        <ele>525</ele>
        <time>2021-02-21T12:50:43Z</time>
      </trkpt>
      <trkpt lat="45.7993" lon="3.59224">
        <ele>525</ele>
        <time>2021-02-21T12:50:45Z</time>
      </trkpt>
      <trkpt lat="45.79929" lon="3.59221">
        <ele>524</ele>
        <time>2021-02-21T12:50:47Z</time>
      </trkpt>
      <trkpt lat="45.79927" lon="3.59218">
        <ele>524</ele>
        <time>2021-02-21T12:50:49Z</time>
      </trkpt>
      <trkpt lat="45.79925" lon="3.59215">
        <ele>524</ele>
        <time>2021-02-21T12:50:51Z</time>
      </trkpt>
      <trkpt lat="45.79923" lon="3.59212">
        <ele>524</ele>
        <time>2021-02-21T12:50:53Z</time>
      </trkpt>
      <trkpt lat="45.79921" lon="3.5921">
        <ele>524</ele>
        <time>2021-02-21T12:50:55Z</time>
      </trkpt>
      <trkpt lat="45.79919" lon="3.59207">
        <ele>524</ele>
        <time>2021-02-21T12:50:57Z</time>
      </trkpt>
      <trkpt lat="45.79917" lon="3.59204">
        <ele>524</ele>
        <time>2021-02-21T12:50:59Z</time>
      </trkpt>
      <trkpt lat="45.79915" lon="3.59202">
        <ele>524</ele>
        <time>2021-02-21T12:51:01Z</time>
      </trkpt>
      <trkpt lat="45.79913" lon="3.59199">
        <ele>524</ele>
        <time>2021-02-21T12:51:03Z</time>
      </trkpt>
      <trkpt lat="45.79911" lon="3.59196">
        <ele>524</ele>
        <time>2021-02-21T12:51:05Z</time>
      </trkpt>
      <trkpt lat="45.79909" lon="3.59194">
        <ele>524</ele>
        <time>2021-02-21T12:51:07Z</time>
      </trkpt>
      <trkpt lat="45.79907" lon="3.59191">
        <ele>524</ele>
        <time>2021-02-21T12:51:09Z</time>
      </trkpt>
      <trkpt lat="45.79905" lon="3.59188">
        <ele>524</ele>
        <time>2021-02-21T12:51:11Z</time>
      </trkpt>
      <trkpt lat="45.79903" lon="3.59185">
        <ele>524</ele>
        <time>2021-02-21T12:51:13Z</time>
      </trkpt>
      <trkpt lat="45.79901" lon="3.59183">
        <ele>524</ele>
        <time>2021-02-21T12:51:15Z</time>
      </trkpt>
      <trkpt lat="45.79899" lon="3.5918">
        <ele>524</ele>
        <time>2021-02-21T12:51:17Z</time>
      </trkpt>
      <trkpt lat="45.79897" lon="3.59177">
        <ele>524</ele>
        <time>2021-02-21T12:51:19Z</time>
      </trkpt>
      <trkpt lat="45.79895" lon="3.59174">
        <ele>524</ele>
        <time>2021-02-21T12:51:21Z</time>
      </trkpt>
      <trkpt lat="45.79893" lon="3.59172">
        <ele>524</ele>
        <time>2021-02-21T12:51:23Z</time>
      </trkpt>
      <trkpt lat="45.79891" lon="3.59169">
        <ele>524</ele>
        <time>2021-02-21T12:51:25Z</time>
      </trkpt>
      <trkpt lat="45.79889" lon="3.59167">
        <ele>524</ele>
        <time>2021-02-21T12:51:27Z</time>
      </trkpt>
      <trkpt lat="45.79887" lon="3.59164">
        <ele>523</ele>
        <time>2021-02-21T12:51:29Z</time>
      </trkpt>
      <trkpt lat="45.79885" lon="3.59161">
        <ele>523</ele>
        <time>2021-02-21T12:51:31Z</time>
      </trkpt>
      <trkpt lat="45.79883" lon="3.59158">
        <ele>523</ele>
        <time>2021-02-21T12:51:33Z</time>
      </trkpt>
      <trkpt lat="45.79881" lon="3.59155">
        <ele>522</ele>
        <time>2021-02-21T12:51:35Z</time>
      </trkpt>
      <trkpt lat="45.79879" lon="3.59152">
        <ele>522</ele>
        <time>2021-02-21T12:51:37Z</time>
      </trkpt>
      <trkpt lat="45.79877" lon="3.5915">
        <ele>522</ele>
        <time>2021-02-21T12:51:39Z</time>
      </trkpt>
      <trkpt lat="45.79875" lon="3.59148">
        <ele>521</ele>
        <time>2021-02-21T12:51:41Z</time>
      </trkpt>
      <trkpt lat="45.79873" lon="3.59145">
        <ele>521</ele>
        <time>2021-02-21T12:51:43Z</time>
      </trkpt>
      <trkpt lat="45.79871" lon="3.59143">
        <ele>521</ele>
        <time>2021-02-21T12:51:45Z</time>
      </trkpt>
      <trkpt lat="45.79869" lon="3.59141">
        <ele>521</ele>
        <time>2021-02-21T12:51:47Z</time>
      </trkpt>
      <trkpt lat="45.79867" lon="3.59138">
        <ele>521</ele>
        <time>2021-02-21T12:51:49Z</time>
      </trkpt>
      <trkpt lat="45.79865" lon="3.59136">
        <ele>520</ele>
        <time>2021-02-21T12:51:51Z</time>
      </trkpt>
      <trkpt lat="45.79863" lon="3.59134">
        <ele>520</ele>
        <time>2021-02-21T12:51:53Z</time>
      </trkpt>
      <trkpt lat="45.79861" lon="3.59131">
        <ele>520</ele>
        <time>2021-02-21T12:51:55Z</time>
      </trkpt>
      <trkpt lat="45.79859" lon="3.59128">
        <ele>520</ele>
        <time>2021-02-21T12:51:57Z</time>
      </trkpt>
      <trkpt lat="45.79857" lon="3.59126">
        <ele>519</ele>
        <time>2021-02-21T12:51:59Z</time>
      </trkpt>
      <trkpt lat="45.79854" lon="3.59123">
        <ele>519</ele>
        <time>2021-02-21T12:52:01Z</time>
      </trkpt>
      <trkpt lat="45.79852" lon="3.5912">
        <ele>519</ele>
        <time>2021-02-21T12:52:03Z</time>
      </trkpt>
      <trkpt lat="45.7985" lon="3.59118">
        <ele>519</ele>
        <time>2021-02-21T12:52:05Z</time>
      </trkpt>
      <trkpt lat="45.79848" lon="3.59115">
        <ele>519</ele>
        <time>2021-02-21T12:52:07Z</time>
      </trkpt>
      <trkpt lat="45.79846" lon="3.59113">
        <ele>519</ele>
        <time>2021-02-21T12:52:09Z</time>
      </trkpt>
      <trkpt lat="45.79844" lon="3.59111">
        <ele>519</ele>
        <time>2021-02-21T12:52:11Z</time>
      </trkpt>
      <trkpt lat="45.79842" lon="3.59109">
        <ele>518</ele>
        <time>2021-02-21T12:52:13Z</time>
      </trkpt>
      <trkpt lat="45.7984" lon="3.59107">
        <ele>518</ele>
        <time>2021-02-21T12:52:15Z</time>
      </trkpt>
      <trkpt lat="45.79837" lon="3.59105">
        <ele>518</ele>
        <time>2021-02-21T12:52:17Z</time>
      </trkpt>
      <trkpt lat="45.79835" lon="3.59102">
        <ele>518</ele>
        <time>2021-02-21T12:52:19Z</time>
      </trkpt>
      <trkpt lat="45.79833" lon="3.59099">
        <ele>518</ele>
        <time>2021-02-21T12:52:21Z</time>
      </trkpt>
      <trkpt lat="45.79831" lon="3.59097">
        <ele>518</ele>
        <time>2021-02-21T12:52:23Z</time>
      </trkpt>
      <trkpt lat="45.79829" lon="3.59095">
        <ele>518</ele>
        <time>2021-02-21T12:52:25Z</time>
      </trkpt>
      <trkpt lat="45.79827" lon="3.59093">
        <ele>518</ele>
        <time>2021-02-21T12:52:27Z</time>
      </trkpt>
      <trkpt lat="45.79825" lon="3.5909">
        <ele>518</ele>
        <time>2021-02-21T12:52:29Z</time>
      </trkpt>
      <trkpt lat="45.79823" lon="3.59088">
        <ele>518</ele>
        <time>2021-02-21T12:52:31Z</time>
      </trkpt>
      <trkpt lat="45.79821" lon="3.59085">
        <ele>518</ele>
        <time>2021-02-21T12:52:33Z</time>
      </trkpt>
      <trkpt lat="45.79819" lon="3.59083">
        <ele>519</ele>
        <time>2021-02-21T12:52:35Z</time>
      </trkpt>
      <trkpt lat="45.79817" lon="3.5908">
        <ele>519</ele>
        <time>2021-02-21T12:52:37Z</time>
      </trkpt>
      <trkpt lat="45.79815" lon="3.59078">
        <ele>519</ele>
        <time>2021-02-21T12:52:39Z</time>
      </trkpt>
      <trkpt lat="45.79813" lon="3.59075">
        <ele>520</ele>
        <time>2021-02-21T12:52:41Z</time>
      </trkpt>
      <trkpt lat="45.79811" lon="3.59072">
        <ele>520</ele>
        <time>2021-02-21T12:52:43Z</time>
      </trkpt>
      <trkpt lat="45.7981" lon="3.59069">
        <ele>520</ele>
        <time>2021-02-21T12:52:45Z</time>
      </trkpt>
      <trkpt lat="45.79808" lon="3.59066">
        <ele>521</ele>
        <time>2021-02-21T12:52:47Z</time>
      </trkpt>
      <trkpt lat="45.79807" lon="3.59062">
        <ele>521</ele>
        <time>2021-02-21T12:52:49Z</time>
      </trkpt>
      <trkpt lat="45.79806" lon="3.59058">
        <ele>521</ele>
        <time>2021-02-21T12:52:51Z</time>
      </trkpt>
      <trkpt lat="45.79806" lon="3.59054">
        <ele>521</ele>
        <time>2021-02-21T12:52:53Z</time>
      </trkpt>
      <trkpt lat="45.79805" lon="3.59051">
        <ele>522</ele>
        <time>2021-02-21T12:52:55Z</time>
      </trkpt>
      <trkpt lat="45.79804" lon="3.59047">
        <ele>522</ele>
        <time>2021-02-21T12:52:57Z</time>
      </trkpt>
      <trkpt lat="45.79803" lon="3.59043">
        <ele>522</ele>
        <time>2021-02-21T12:52:59Z</time>
      </trkpt>
      <trkpt lat="45.79803" lon="3.59039">
        <ele>522</ele>
        <time>2021-02-21T12:53:01Z</time>
      </trkpt>
      <trkpt lat="45.79802" lon="3.59035">
        <ele>522</ele>
        <time>2021-02-21T12:53:03Z</time>
      </trkpt>
      <trkpt lat="45.79802" lon="3.59031">
        <ele>522</ele>
        <time>2021-02-21T12:53:05Z</time>
      </trkpt>
      <trkpt lat="45.79803" lon="3.59028">
        <ele>522</ele>
        <time>2021-02-21T12:53:07Z</time>
      </trkpt>
      <trkpt lat="45.79803" lon="3.59024">
        <ele>521</ele>
        <time>2021-02-21T12:53:09Z</time>
      </trkpt>
      <trkpt lat="45.79804" lon="3.5902">
        <ele>521</ele>
        <time>2021-02-21T12:53:11Z</time>
      </trkpt>
      <trkpt lat="45.79804" lon="3.59016">
        <ele>521</ele>
        <time>2021-02-21T12:53:13Z</time>
      </trkpt>
      <trkpt lat="45.79805" lon="3.59011">
        <ele>521</ele>
        <time>2021-02-21T12:53:15Z</time>
      </trkpt>
      <trkpt lat="45.79806" lon="3.59007">
        <ele>521</ele>
        <time>2021-02-21T12:53:17Z</time>
      </trkpt>
      <trkpt lat="45.79806" lon="3.59003">
        <ele>521</ele>
        <time>2021-02-21T12:53:19Z</time>
      </trkpt>
      <trkpt lat="45.79807" lon="3.59">
        <ele>520</ele>
        <time>2021-02-21T12:53:21Z</time>
      </trkpt>
      <trkpt lat="45.79808" lon="3.58996">
        <ele>520</ele>
        <time>2021-02-21T12:53:23Z</time>
      </trkpt>
      <trkpt lat="45.79808" lon="3.58992">
        <ele>520</ele>
        <time>2021-02-21T12:53:25Z</time>
      </trkpt>
      <trkpt lat="45.79808" lon="3.58988">
        <ele>519</ele>
        <time>2021-02-21T12:53:27Z</time>
      </trkpt>
      <trkpt lat="45.79809" lon="3.58984">
        <ele>519</ele>
        <time>2021-02-21T12:53:29Z</time>
      </trkpt>
      <trkpt lat="45.79809" lon="3.5898">
        <ele>518</ele>
        <time>2021-02-21T12:53:31Z</time>
      </trkpt>
      <trkpt lat="45.79809" lon="3.58977">
        <ele>518</ele>
        <time>2021-02-21T12:53:33Z</time>
      </trkpt>
      <trkpt lat="45.79809" lon="3.58973">
        <ele>518</ele>
        <time>2021-02-21T12:53:35Z</time>
      </trkpt>
      <trkpt lat="45.79809" lon="3.58969">
        <ele>517</ele>
        <time>2021-02-21T12:53:37Z</time>
      </trkpt>
      <trkpt lat="45.79809" lon="3.58965">
        <ele>517</ele>
        <time>2021-02-21T12:53:39Z</time>
      </trkpt>
      <trkpt lat="45.79809" lon="3.58961">
        <ele>516</ele>
        <time>2021-02-21T12:53:41Z</time>
      </trkpt>
      <trkpt lat="45.79809" lon="3.58957">
        <ele>516</ele>
        <time>2021-02-21T12:53:43Z</time>
      </trkpt>
      <trkpt lat="45.7981" lon="3.58953">
        <ele>516</ele>
        <time>2021-02-21T12:53:45Z</time>
      </trkpt>
      <trkpt lat="45.79811" lon="3.58949">
        <ele>515</ele>
        <time>2021-02-21T12:53:47Z</time>
      </trkpt>
      <trkpt lat="45.79811" lon="3.58946">
        <ele>515</ele>
        <time>2021-02-21T12:53:49Z</time>
      </trkpt>
      <trkpt lat="45.79812" lon="3.58942">
        <ele>515</ele>
        <time>2021-02-21T12:53:51Z</time>
      </trkpt>
      <trkpt lat="45.79813" lon="3.58938">
        <ele>515</ele>
        <time>2021-02-21T12:53:53Z</time>
      </trkpt>
      <trkpt lat="45.79815" lon="3.58935">
        <ele>515</ele>
        <time>2021-02-21T12:53:55Z</time>
      </trkpt>
      <trkpt lat="45.79816" lon="3.58931">
        <ele>514</ele>
        <time>2021-02-21T12:53:57Z</time>
      </trkpt>
      <trkpt lat="45.79817" lon="3.58928">
        <ele>514</ele>
        <time>2021-02-21T12:53:59Z</time>
      </trkpt>
      <trkpt lat="45.79818" lon="3.58924">
        <ele>514</ele>
        <time>2021-02-21T12:54:01Z</time>
      </trkpt>
      <trkpt lat="45.79819" lon="3.58921">
        <ele>514</ele>
        <time>2021-02-21T12:54:03Z</time>
      </trkpt>
      <trkpt lat="45.79821" lon="3.58918">
        <ele>514</ele>
        <time>2021-02-21T12:54:05Z</time>
      </trkpt>
      <trkpt lat="45.79822" lon="3.58915">
        <ele>514</ele>
        <time>2021-02-21T12:54:07Z</time>
      </trkpt>
      <trkpt lat="45.79824" lon="3.58911">
        <ele>515</ele>
        <time>2021-02-21T12:54:09Z</time>
      </trkpt>
      <trkpt lat="45.79825" lon="3.58908">
        <ele>515</ele>
        <time>2021-02-21T12:54:11Z</time>
      </trkpt>
      <trkpt lat="45.79827" lon="3.58906">
        <ele>516</ele>
        <time>2021-02-21T12:54:13Z</time>
      </trkpt>
      <trkpt lat="45.79829" lon="3.58903">
        <ele>516</ele>
        <time>2021-02-21T12:54:15Z</time>
      </trkpt>
      <trkpt lat="45.7983" lon="3.589">
        <ele>517</ele>
        <time>2021-02-21T12:54:17Z</time>
      </trkpt>
      <trkpt lat="45.79832" lon="3.58897">
        <ele>517</ele>
        <time>2021-02-21T12:54:19Z</time>
      </trkpt>
      <trkpt lat="45.79833" lon="3.58894">
        <ele>518</ele>
        <time>2021-02-21T12:54:21Z</time>
      </trkpt>
      <trkpt lat="45.79835" lon="3.58892">
        <ele>518</ele>
        <time>2021-02-21T12:54:23Z</time>
      </trkpt>
      <trkpt lat="45.79837" lon="3.58888">
        <ele>518</ele>
        <time>2021-02-21T12:54:25Z</time>
      </trkpt>
      <trkpt lat="45.79838" lon="3.58886">
        <ele>518</ele>
        <time>2021-02-21T12:54:27Z</time>
      </trkpt>
      <trkpt lat="45.7984" lon="3.58883">
        <ele>519</ele>
        <time>2021-02-21T12:54:29Z</time>
      </trkpt>
      <trkpt lat="45.79842" lon="3.5888">
        <ele>519</ele>
        <time>2021-02-21T12:54:31Z</time>
      </trkpt>
      <trkpt lat="45.79843" lon="3.58878">
        <ele>519</ele>
        <time>2021-02-21T12:54:33Z</time>
      </trkpt>
      <trkpt lat="45.79845" lon="3.58875">
        <ele>520</ele>
        <time>2021-02-21T12:54:35Z</time>
      </trkpt>
      <trkpt lat="45.79847" lon="3.58872">
        <ele>520</ele>
        <time>2021-02-21T12:54:37Z</time>
      </trkpt>
      <trkpt lat="45.79848" lon="3.58869">
        <ele>520</ele>
        <time>2021-02-21T12:54:39Z</time>
      </trkpt>
      <trkpt lat="45.7985" lon="3.58867">
        <ele>520</ele>
        <time>2021-02-21T12:54:41Z</time>
      </trkpt>
      <trkpt lat="45.79852" lon="3.58864">
        <ele>521</ele>
        <time>2021-02-21T12:54:43Z</time>
      </trkpt>
      <trkpt lat="45.79853" lon="3.58861">
        <ele>521</ele>
        <time>2021-02-21T12:54:45Z</time>
      </trkpt>
      <trkpt lat="45.79855" lon="3.58858">
        <ele>521</ele>
        <time>2021-02-21T12:54:47Z</time>
      </trkpt>
      <trkpt lat="45.79857" lon="3.58856">
        <ele>522</ele>
        <time>2021-02-21T12:54:49Z</time>
      </trkpt>
      <trkpt lat="45.79859" lon="3.58854">
        <ele>522</ele>
        <time>2021-02-21T12:54:51Z</time>
      </trkpt>
      <trkpt lat="45.79861" lon="3.58851">
        <ele>522</ele>
        <time>2021-02-21T12:54:53Z</time>
      </trkpt>
      <trkpt lat="45.79863" lon="3.58849">
        <ele>522</ele>
        <time>2021-02-21T12:54:55Z</time>
      </trkpt>
      <trkpt lat="45.79866" lon="3.58847">
        <ele>522</ele>
        <time>2021-02-21T12:54:57Z</time>
      </trkpt>
      <trkpt lat="45.79868" lon="3.58844">
        <ele>522</ele>
        <time>2021-02-21T12:54:59Z</time>
      </trkpt>
      <trkpt lat="45.7987" lon="3.58842">
        <ele>522</ele>
        <time>2021-02-21T12:55:01Z</time>
      </trkpt>
      <trkpt lat="45.79872" lon="3.5884">
        <ele>522</ele>
        <time>2021-02-21T12:55:03Z</time>
      </trkpt>
      <trkpt lat="45.79875" lon="3.58839">
        <ele>522</ele>
        <time>2021-02-21T12:55:05Z</time>
      </trkpt>
      <trkpt lat="45.79877" lon="3.58837">
        <ele>522</ele>
        <time>2021-02-21T12:55:07Z</time>
      </trkpt>
      <trkpt lat="45.79879" lon="3.58835">
        <ele>522</ele>
        <time>2021-02-21T12:55:09Z</time>
      </trkpt>
      <trkpt lat="45.79881" lon="3.58833">
        <ele>522</ele>
        <time>2021-02-21T12:55:11Z</time>
      </trkpt>
      <trkpt lat="45.79884" lon="3.58831">
        <ele>522</ele>
        <time>2021-02-21T12:55:13Z</time>
      </trkpt>
      <trkpt lat="45.79886" lon="3.58828">
        <ele>523</ele>
        <time>2021-02-21T12:55:15Z</time>
      </trkpt>
      <trkpt lat="45.79888" lon="3.58826">
        <ele>523</ele>
        <time>2021-02-21T12:55:17Z</time>
      </trkpt>
      <trkpt lat="45.7989" lon="3.58824">
        <ele>523</ele>
        <time>2021-02-21T12:55:19Z</time>
      </trkpt>
      <trkpt lat="45.79892" lon="3.58822">
        <ele>523</ele>
        <time>2021-02-21T12:55:21Z</time>
      </trkpt>
      <trkpt lat="45.79894" lon="3.5882">
        <ele>522</ele>
        <time>2021-02-21T12:55:23Z</time>
      </trkpt>
      <trkpt lat="45.79897" lon="3.58818">
        <ele>522</ele>
        <time>2021-02-21T12:55:25Z</time>
      </trkpt>
      <trkpt lat="45.79899" lon="3.58816">
        <ele>522</ele>
        <time>2021-02-21T12:55:27Z</time>
      </trkpt>
      <trkpt lat="45.79901" lon="3.58814">
        <ele>522</ele>
        <time>2021-02-21T12:55:29Z</time>
      </trkpt>
      <trkpt lat="45.79903" lon="3.58812">
        <ele>522</ele>
        <time>2021-02-21T12:55:31Z</time>
      </trkpt>
      <trkpt lat="45.79905" lon="3.5881">
        <ele>522</ele>
        <time>2021-02-21T12:55:33Z</time>
      </trkpt>
      <trkpt lat="45.79908" lon="3.58808">
        <ele>522</ele>
        <time>2021-02-21T12:55:35Z</time>
      </trkpt>
      <trkpt lat="45.7991" lon="3.58806">
        <ele>522</ele>
        <time>2021-02-21T12:55:37Z</time>
      </trkpt>
      <trkpt lat="45.79912" lon="3.58804">
        <ele>522</ele>
        <time>2021-02-21T12:55:39Z</time>
      </trkpt>
      <trkpt lat="45.79914" lon="3.58802">
        <ele>522</ele>
        <time>2021-02-21T12:55:41Z</time>
      </trkpt>
      <trkpt lat="45.79916" lon="3.588">
        <ele>522</ele>
        <time>2021-02-21T12:55:43Z</time>
      </trkpt>
      <trkpt lat="45.79919" lon="3.58798">
        <ele>522</ele>
        <time>2021-02-21T12:55:45Z</time>
      </trkpt>
      <trkpt lat="45.79921" lon="3.58796">
        <ele>522</ele>
        <time>2021-02-21T12:55:47Z</time>
      </trkpt>
      <trkpt lat="45.79923" lon="3.58793">
        <ele>522</ele>
        <time>2021-02-21T12:55:49Z</time>
      </trkpt>
      <trkpt lat="45.79925" lon="3.58791">
        <ele>522</ele>
        <time>2021-02-21T12:55:51Z</time>
      </trkpt>
      <trkpt lat="45.79927" lon="3.58789">
        <ele>522</ele>
        <time>2021-02-21T12:55:53Z</time>
      </trkpt>
      <trkpt lat="45.79929" lon="3.58787">
        <ele>522</ele>
        <time>2021-02-21T12:55:55Z</time>
      </trkpt>
      <trkpt lat="45.79932" lon="3.58785">
        <ele>522</ele>
        <time>2021-02-21T12:55:57Z</time>
      </trkpt>
      <trkpt lat="45.79934" lon="3.58784">
        <ele>522</ele>
        <time>2021-02-21T12:55:59Z</time>
      </trkpt>
      <trkpt lat="45.79936" lon="3.58782">
        <ele>522</ele>
        <time>2021-02-21T12:56:01Z</time>
      </trkpt>
      <trkpt lat="45.79939" lon="3.5878">
        <ele>522</ele>
        <time>2021-02-21T12:56:03Z</time>
      </trkpt>
      <trkpt lat="45.79941" lon="3.58779">
        <ele>522</ele>
        <time>2021-02-21T12:56:05Z</time>
      </trkpt>
      <trkpt lat="45.79943" lon="3.58777">
        <ele>522</ele>
        <time>2021-02-21T12:56:07Z</time>
      </trkpt>
      <trkpt lat="45.79946" lon="3.58775">
        <ele>522</ele>
        <time>2021-02-21T12:56:09Z</time>
      </trkpt>
      <trkpt lat="45.79948" lon="3.58773">
        <ele>522</ele>
        <time>2021-02-21T12:56:11Z</time>
      </trkpt>
      <trkpt lat="45.79951" lon="3.58772">
        <ele>522</ele>
        <time>2021-02-21T12:56:13Z</time>
      </trkpt>
      <trkpt lat="45.79954" lon="3.5877">
        <ele>522</ele>
        <time>2021-02-21T12:56:15Z</time>
      </trkpt>
      <trkpt lat="45.79956" lon="3.58769">
        <ele>522</ele>
        <time>2021-02-21T12:56:17Z</time>
      </trkpt>
      <trkpt lat="45.79959" lon="3.58767">
        <ele>522</ele>
        <time>2021-02-21T12:56:19Z</time>
      </trkpt>
      <trkpt lat="45.79961" lon="3.58765">
        <ele>522</ele>
        <time>2021-02-21T12:56:21Z</time>
      </trkpt>
      <trkpt lat="45.79964" lon="3.58764">
        <ele>522</ele>
        <time>2021-02-21T12:56:23Z</time>
      </trkpt>
      <trkpt lat="45.79966" lon="3.58762">
        <ele>522</ele>
        <time>2021-02-21T12:56:25Z</time>
      </trkpt>
      <trkpt lat="45.79968" lon="3.58761">
        <ele>522</ele>
        <time>2021-02-21T12:56:27Z</time>
      </trkpt>
      <trkpt lat="45.7997" lon="3.58758">
        <ele>522</ele>
        <time>2021-02-21T12:56:29Z</time>
      </trkpt>
      <trkpt lat="45.79973" lon="3.58756">
        <ele>522</ele>
        <time>2021-02-21T12:56:31Z</time>
      </trkpt>
      <trkpt lat="45.79975" lon="3.58755">
        <ele>521</ele>
        <time>2021-02-21T12:56:33Z</time>
      </trkpt>
      <trkpt lat="45.79978" lon="3.58753">
        <ele>521</ele>
        <time>2021-02-21T12:56:35Z</time>
      </trkpt>
      <trkpt lat="45.79981" lon="3.58752">
        <ele>521</ele>
        <time>2021-02-21T12:56:37Z</time>
      </trkpt>
      <trkpt lat="45.79983" lon="3.58751">
        <ele>521</ele>
        <time>2021-02-21T12:56:39Z</time>
      </trkpt>
      <trkpt lat="45.79985" lon="3.58749">
        <ele>521</ele>
        <time>2021-02-21T12:56:41Z</time>
      </trkpt>
      <trkpt lat="45.79987" lon="3.58747">
        <ele>521</ele>
        <time>2021-02-21T12:56:43Z</time>
      </trkpt>
      <trkpt lat="45.79989" lon="3.58745">
        <ele>521</ele>
        <time>2021-02-21T12:56:45Z</time>
      </trkpt>
      <trkpt lat="45.79991" lon="3.58743">
        <ele>522</ele>
        <time>2021-02-21T12:56:47Z</time>
      </trkpt>
      <trkpt lat="45.79993" lon="3.58741">
        <ele>522</ele>
        <time>2021-02-21T12:56:49Z</time>
      </trkpt>
      <trkpt lat="45.79995" lon="3.58739">
        <ele>522</ele>
        <time>2021-02-21T12:56:51Z</time>
      </trkpt>
      <trkpt lat="45.79996" lon="3.58736">
        <ele>522</ele>
        <time>2021-02-21T12:56:53Z</time>
      </trkpt>
      <trkpt lat="45.79998" lon="3.58734">
        <ele>522</ele>
        <time>2021-02-21T12:56:55Z</time>
      </trkpt>
      <trkpt lat="45.8" lon="3.58731">
        <ele>522</ele>
        <time>2021-02-21T12:56:57Z</time>
      </trkpt>
      <trkpt lat="45.80002" lon="3.58728">
        <ele>523</ele>
        <time>2021-02-21T12:56:59Z</time>
      </trkpt>
      <trkpt lat="45.80003" lon="3.58725">
        <ele>523</ele>
        <time>2021-02-21T12:57:01Z</time>
      </trkpt>
      <trkpt lat="45.80005" lon="3.58722">
        <ele>523</ele>
        <time>2021-02-21T12:57:03Z</time>
      </trkpt>
      <trkpt lat="45.80007" lon="3.5872">
        <ele>523</ele>
        <time>2021-02-21T12:57:05Z</time>
      </trkpt>
      <trkpt lat="45.80009" lon="3.58716">
        <ele>524</ele>
        <time>2021-02-21T12:57:07Z</time>
      </trkpt>
      <trkpt lat="45.8001" lon="3.58713">
        <ele>524</ele>
        <time>2021-02-21T12:57:09Z</time>
      </trkpt>
      <trkpt lat="45.80012" lon="3.5871">
        <ele>524</ele>
        <time>2021-02-21T12:57:11Z</time>
      </trkpt>
      <trkpt lat="45.80014" lon="3.58707">
        <ele>524</ele>
        <time>2021-02-21T12:57:13Z</time>
      </trkpt>
      <trkpt lat="45.80015" lon="3.58704">
        <ele>525</ele>
        <time>2021-02-21T12:57:15Z</time>
      </trkpt>
      <trkpt lat="45.80017" lon="3.58701">
        <ele>525</ele>
        <time>2021-02-21T12:57:17Z</time>
      </trkpt>
      <trkpt lat="45.80017" lon="3.58698">
        <ele>525</ele>
        <time>2021-02-21T12:57:19Z</time>
      </trkpt>
      <trkpt lat="45.80019" lon="3.58695">
        <ele>526</ele>
        <time>2021-02-21T12:57:21Z</time>
      </trkpt>
      <trkpt lat="45.80019" lon="3.58691">
        <ele>526</ele>
        <time>2021-02-21T12:57:23Z</time>
      </trkpt>
      <trkpt lat="45.80019" lon="3.58688">
        <ele>526</ele>
        <time>2021-02-21T12:57:25Z</time>
      </trkpt>
      <trkpt lat="45.80019" lon="3.58684">
        <ele>526</ele>
        <time>2021-02-21T12:57:27Z</time>
      </trkpt>
      <trkpt lat="45.80019" lon="3.5868">
        <ele>526</ele>
        <time>2021-02-21T12:57:29Z</time>
      </trkpt>
      <trkpt lat="45.8002" lon="3.58676">
        <ele>526</ele>
        <time>2021-02-21T12:57:31Z</time>
      </trkpt>
      <trkpt lat="45.80019" lon="3.58672">
        <ele>527</ele>
        <time>2021-02-21T12:57:33Z</time>
      </trkpt>
      <trkpt lat="45.80019" lon="3.58669">
        <ele>527</ele>
        <time>2021-02-21T12:57:35Z</time>
      </trkpt>
      <trkpt lat="45.80018" lon="3.58665">
        <ele>527</ele>
        <time>2021-02-21T12:57:37Z</time>
      </trkpt>
      <trkpt lat="45.80017" lon="3.58662">
        <ele>527</ele>
        <time>2021-02-21T12:57:39Z</time>
      </trkpt>
      <trkpt lat="45.80016" lon="3.58659">
        <ele>527</ele>
        <time>2021-02-21T12:57:41Z</time>
      </trkpt>
      <trkpt lat="45.80016" lon="3.58656">
        <ele>527</ele>
        <time>2021-02-21T12:57:43Z</time>
      </trkpt>
      <trkpt lat="45.80016" lon="3.58653">
        <ele>527</ele>
        <time>2021-02-21T12:57:45Z</time>
      </trkpt>
      <trkpt lat="45.80015" lon="3.58649">
        <ele>527</ele>
        <time>2021-02-21T12:57:48Z</time>
      </trkpt>
      <trkpt lat="45.80014" lon="3.58645">
        <ele>527</ele>
        <time>2021-02-21T12:57:50Z</time>
      </trkpt>
      <trkpt lat="45.80012" lon="3.58641">
        <ele>527</ele>
        <time>2021-02-21T12:57:52Z</time>
      </trkpt>
      <trkpt lat="45.80011" lon="3.58637">
        <ele>527</ele>
        <time>2021-02-21T12:57:54Z</time>
      </trkpt>
      <trkpt lat="45.8001" lon="3.58634">
        <ele>526</ele>
        <time>2021-02-21T12:57:56Z</time>
      </trkpt>
      <trkpt lat="45.80009" lon="3.5863">
        <ele>526</ele>
        <time>2021-02-21T12:57:58Z</time>
      </trkpt>
      <trkpt lat="45.80008" lon="3.58626">
        <ele>526</ele>
        <time>2021-02-21T12:58:00Z</time>
      </trkpt>
      <trkpt lat="45.80007" lon="3.58622">
        <ele>526</ele>
        <time>2021-02-21T12:58:02Z</time>
      </trkpt>
      <trkpt lat="45.80007" lon="3.58617">
        <ele>526</ele>
        <time>2021-02-21T12:58:04Z</time>
      </trkpt>
      <trkpt lat="45.80007" lon="3.58612">
        <ele>526</ele>
        <time>2021-02-21T12:58:06Z</time>
      </trkpt>
      <trkpt lat="45.80008" lon="3.58609">
        <ele>525</ele>
        <time>2021-02-21T12:58:08Z</time>
      </trkpt>
      <trkpt lat="45.80008" lon="3.58606">
        <ele>525</ele>
        <time>2021-02-21T12:58:10Z</time>
      </trkpt>
      <trkpt lat="45.80009" lon="3.58601">
        <ele>525</ele>
        <time>2021-02-21T12:58:12Z</time>
      </trkpt>
      <trkpt lat="45.80009" lon="3.58592">
        <ele>524</ele>
        <time>2021-02-21T12:58:17Z</time>
      </trkpt>
      <trkpt lat="45.80008" lon="3.58588">
        <ele>524</ele>
        <time>2021-02-21T12:58:19Z</time>
      </trkpt>
      <trkpt lat="45.80008" lon="3.58584">
        <ele>524</ele>
        <time>2021-02-21T12:58:21Z</time>
      </trkpt>
      <trkpt lat="45.80006" lon="3.5858">
        <ele>524</ele>
        <time>2021-02-21T12:58:23Z</time>
      </trkpt>
      <trkpt lat="45.80005" lon="3.58576">
        <ele>525</ele>
        <time>2021-02-21T12:58:25Z</time>
      </trkpt>
      <trkpt lat="45.80004" lon="3.58573">
        <ele>525</ele>
        <time>2021-02-21T12:58:27Z</time>
      </trkpt>
      <trkpt lat="45.80004" lon="3.58569">
        <ele>526</ele>
        <time>2021-02-21T12:58:29Z</time>
      </trkpt>
      <trkpt lat="45.80003" lon="3.58566">
        <ele>526</ele>
        <time>2021-02-21T12:58:31Z</time>
      </trkpt>
      <trkpt lat="45.80003" lon="3.58563">
        <ele>526</ele>
        <time>2021-02-21T12:58:33Z</time>
      </trkpt>
      <trkpt lat="45.80002" lon="3.58559">
        <ele>527</ele>
        <time>2021-02-21T12:58:35Z</time>
      </trkpt>
      <trkpt lat="45.80002" lon="3.58555">
        <ele>527</ele>
        <time>2021-02-21T12:58:37Z</time>
      </trkpt>
      <trkpt lat="45.80003" lon="3.58551">
        <ele>527</ele>
        <time>2021-02-21T12:58:39Z</time>
      </trkpt>
      <trkpt lat="45.80004" lon="3.58547">
        <ele>527</ele>
        <time>2021-02-21T12:58:41Z</time>
      </trkpt>
      <trkpt lat="45.80004" lon="3.58544">
        <ele>528</ele>
        <time>2021-02-21T12:58:43Z</time>
      </trkpt>
      <trkpt lat="45.80004" lon="3.5854">
        <ele>528</ele>
        <time>2021-02-21T12:58:45Z</time>
      </trkpt>
      <trkpt lat="45.80005" lon="3.58536">
        <ele>528</ele>
        <time>2021-02-21T12:58:47Z</time>
      </trkpt>
      <trkpt lat="45.80006" lon="3.58532">
        <ele>528</ele>
        <time>2021-02-21T12:58:49Z</time>
      </trkpt>
      <trkpt lat="45.80005" lon="3.58529">
        <ele>529</ele>
        <time>2021-02-21T12:58:51Z</time>
      </trkpt>
      <trkpt lat="45.80005" lon="3.58525">
        <ele>529</ele>
        <time>2021-02-21T12:58:54Z</time>
      </trkpt>
      <trkpt lat="45.80003" lon="3.58511">
        <ele>532</ele>
        <time>2021-02-21T12:59:01Z</time>
      </trkpt>
      <trkpt lat="45.80005" lon="3.58498">
        <ele>533</ele>
        <time>2021-02-21T12:59:07Z</time>
      </trkpt>
      <trkpt lat="45.80008" lon="3.58486">
        <ele>533</ele>
        <time>2021-02-21T12:59:13Z</time>
      </trkpt>
      <trkpt lat="45.80009" lon="3.58481">
        <ele>533</ele>
        <time>2021-02-21T12:59:15Z</time>
      </trkpt>
      <trkpt lat="45.8001" lon="3.58479">
        <ele>533</ele>
        <time>2021-02-21T12:59:16Z</time>
      </trkpt>
      <trkpt lat="45.80012" lon="3.58475">
        <ele>532</ele>
        <time>2021-02-21T12:59:18Z</time>
      </trkpt>
      <trkpt lat="45.80014" lon="3.58473">
        <ele>532</ele>
        <time>2021-02-21T12:59:19Z</time>
      </trkpt>
      <trkpt lat="45.80016" lon="3.5847">
        <ele>531</ele>
        <time>2021-02-21T12:59:21Z</time>
      </trkpt>
      <trkpt lat="45.80015" lon="3.58467">
        <ele>532</ele>
        <time>2021-02-21T12:59:26Z</time>
      </trkpt>
      <trkpt lat="45.80016" lon="3.58454">
        <ele>533</ele>
        <time>2021-02-21T12:59:33Z</time>
      </trkpt>
      <trkpt lat="45.80015" lon="3.58442">
        <ele>535</ele>
        <time>2021-02-21T12:59:40Z</time>
      </trkpt>
      <trkpt lat="45.80014" lon="3.5844">
        <ele>536</ele>
        <time>2021-02-21T12:59:42Z</time>
      </trkpt>
      <trkpt lat="45.80015" lon="3.58435">
        <ele>536</ele>
        <time>2021-02-21T12:59:45Z</time>
      </trkpt>
      <trkpt lat="45.80018" lon="3.5843">
        <ele>535</ele>
        <time>2021-02-21T12:59:48Z</time>
      </trkpt>
      <trkpt lat="45.8002" lon="3.58428">
        <ele>535</ele>
        <time>2021-02-21T12:59:49Z</time>
      </trkpt>
      <trkpt lat="45.80021" lon="3.58425">
        <ele>535</ele>
        <time>2021-02-21T12:59:50Z</time>
      </trkpt>
      <trkpt lat="45.80022" lon="3.58422">
        <ele>535</ele>
        <time>2021-02-21T12:59:52Z</time>
      </trkpt>
      <trkpt lat="45.80025" lon="3.58418">
        <ele>535</ele>
        <time>2021-02-21T12:59:54Z</time>
      </trkpt>
      <trkpt lat="45.80026" lon="3.58416">
        <ele>534</ele>
        <time>2021-02-21T12:59:56Z</time>
      </trkpt>
      <trkpt lat="45.80028" lon="3.58412">
        <ele>535</ele>
        <time>2021-02-21T12:59:59Z</time>
      </trkpt>
      <trkpt lat="45.80029" lon="3.5841">
        <ele>535</ele>
        <time>2021-02-21T13:00:01Z</time>
      </trkpt>
      <trkpt lat="45.8003" lon="3.58407">
        <ele>535</ele>
        <time>2021-02-21T13:00:03Z</time>
      </trkpt>
      <trkpt lat="45.80031" lon="3.58403">
        <ele>536</ele>
        <time>2021-02-21T13:00:05Z</time>
      </trkpt>
      <trkpt lat="45.80031" lon="3.584">
        <ele>537</ele>
        <time>2021-02-21T13:00:06Z</time>
      </trkpt>
      <trkpt lat="45.80031" lon="3.58397">
        <ele>537</ele>
        <time>2021-02-21T13:00:07Z</time>
      </trkpt>
      <trkpt lat="45.80033" lon="3.58394">
        <ele>538</ele>
        <time>2021-02-21T13:00:09Z</time>
      </trkpt>
      <trkpt lat="45.80033" lon="3.5839">
        <ele>538</ele>
        <time>2021-02-21T13:00:11Z</time>
      </trkpt>
      <trkpt lat="45.80034" lon="3.58387">
        <ele>539</ele>
        <time>2021-02-21T13:00:13Z</time>
      </trkpt>
      <trkpt lat="45.80036" lon="3.58383">
        <ele>539</ele>
        <time>2021-02-21T13:00:15Z</time>
      </trkpt>
      <trkpt lat="45.80038" lon="3.5838">
        <ele>539</ele>
        <time>2021-02-21T13:00:17Z</time>
      </trkpt>
      <trkpt lat="45.80041" lon="3.58374">
        <ele>539</ele>
        <time>2021-02-21T13:00:20Z</time>
      </trkpt>
      <trkpt lat="45.80042" lon="3.58369">
        <ele>539</ele>
        <time>2021-02-21T13:00:23Z</time>
      </trkpt>
      <trkpt lat="45.80044" lon="3.58365">
        <ele>539</ele>
        <time>2021-02-21T13:00:25Z</time>
      </trkpt>
      <trkpt lat="45.80045" lon="3.58361">
        <ele>540</ele>
        <time>2021-02-21T13:00:27Z</time>
      </trkpt>
      <trkpt lat="45.80047" lon="3.58358">
        <ele>539</ele>
        <time>2021-02-21T13:00:28Z</time>
      </trkpt>
      <trkpt lat="45.80049" lon="3.58356">
        <ele>539</ele>
        <time>2021-02-21T13:00:29Z</time>
      </trkpt>
      <trkpt lat="45.8005" lon="3.58354">
        <ele>539</ele>
        <time>2021-02-21T13:00:30Z</time>
      </trkpt>
      <trkpt lat="45.80053" lon="3.5835">
        <ele>538</ele>
        <time>2021-02-21T13:00:32Z</time>
      </trkpt>
      <trkpt lat="45.80055" lon="3.58347">
        <ele>538</ele>
        <time>2021-02-21T13:00:34Z</time>
      </trkpt>
      <trkpt lat="45.80058" lon="3.58345">
        <ele>538</ele>
        <time>2021-02-21T13:00:36Z</time>
      </trkpt>
      <trkpt lat="45.8006" lon="3.58342">
        <ele>537</ele>
        <time>2021-02-21T13:00:38Z</time>
      </trkpt>
      <trkpt lat="45.8006" lon="3.58339">
        <ele>538</ele>
        <time>2021-02-21T13:00:40Z</time>
      </trkpt>
      <trkpt lat="45.80061" lon="3.58336">
        <ele>538</ele>
        <time>2021-02-21T13:00:42Z</time>
      </trkpt>
      <trkpt lat="45.80063" lon="3.58333">
        <ele>537</ele>
        <time>2021-02-21T13:00:44Z</time>
      </trkpt>
      <trkpt lat="45.80065" lon="3.58331">
        <ele>536</ele>
        <time>2021-02-21T13:00:46Z</time>
      </trkpt>
      <trkpt lat="45.80066" lon="3.58329">
        <ele>536</ele>
        <time>2021-02-21T13:00:48Z</time>
      </trkpt>
      <trkpt lat="45.80068" lon="3.58326">
        <ele>536</ele>
        <time>2021-02-21T13:00:50Z</time>
      </trkpt>
      <trkpt lat="45.80069" lon="3.58324">
        <ele>535</ele>
        <time>2021-02-21T13:00:52Z</time>
      </trkpt>
      <trkpt lat="45.8007" lon="3.58321">
        <ele>535</ele>
        <time>2021-02-21T13:00:54Z</time>
      </trkpt>
      <trkpt lat="45.80072" lon="3.58319">
        <ele>535</ele>
        <time>2021-02-21T13:00:56Z</time>
      </trkpt>
      <trkpt lat="45.80072" lon="3.58316">
        <ele>535</ele>
        <time>2021-02-21T13:00:58Z</time>
      </trkpt>
      <trkpt lat="45.80074" lon="3.58314">
        <ele>534</ele>
        <time>2021-02-21T13:01:00Z</time>
      </trkpt>
      <trkpt lat="45.80075" lon="3.58311">
        <ele>534</ele>
        <time>2021-02-21T13:01:02Z</time>
      </trkpt>
      <trkpt lat="45.80076" lon="3.58308">
        <ele>534</ele>
        <time>2021-02-21T13:01:04Z</time>
      </trkpt>
      <trkpt lat="45.80077" lon="3.58306">
        <ele>534</ele>
        <time>2021-02-21T13:01:06Z</time>
      </trkpt>
      <trkpt lat="45.80078" lon="3.58303">
        <ele>533</ele>
        <time>2021-02-21T13:01:08Z</time>
      </trkpt>
      <trkpt lat="45.80077" lon="3.583">
        <ele>534</ele>
        <time>2021-02-21T13:01:10Z</time>
      </trkpt>
      <trkpt lat="45.8008" lon="3.58296">
        <ele>533</ele>
        <time>2021-02-21T13:01:12Z</time>
      </trkpt>
      <trkpt lat="45.80081" lon="3.58293">
        <ele>533</ele>
        <time>2021-02-21T13:01:14Z</time>
      </trkpt>
      <trkpt lat="45.80082" lon="3.58289">
        <ele>533</ele>
        <time>2021-02-21T13:01:16Z</time>
      </trkpt>
      <trkpt lat="45.80083" lon="3.58285">
        <ele>533</ele>
        <time>2021-02-21T13:01:18Z</time>
      </trkpt>
      <trkpt lat="45.80084" lon="3.58281">
        <ele>533</ele>
        <time>2021-02-21T13:01:20Z</time>
      </trkpt>
      <trkpt lat="45.80086" lon="3.58277">
        <ele>533</ele>
        <time>2021-02-21T13:01:22Z</time>
      </trkpt>
      <trkpt lat="45.80087" lon="3.58273">
        <ele>533</ele>
        <time>2021-02-21T13:01:24Z</time>
      </trkpt>
      <trkpt lat="45.80088" lon="3.5827">
        <ele>533</ele>
        <time>2021-02-21T13:01:26Z</time>
      </trkpt>
      <trkpt lat="45.80092" lon="3.58261">
        <ele>532</ele>
        <time>2021-02-21T13:01:32Z</time>
      </trkpt>
      <trkpt lat="45.80093" lon="3.58259">
        <ele>532</ele>
        <time>2021-02-21T13:01:33Z</time>
      </trkpt>
      <trkpt lat="45.80095" lon="3.58256">
        <ele>532</ele>
        <time>2021-02-21T13:01:35Z</time>
      </trkpt>
      <trkpt lat="45.80096" lon="3.58253">
        <ele>532</ele>
        <time>2021-02-21T13:01:37Z</time>
      </trkpt>
      <trkpt lat="45.80097" lon="3.58251">
        <ele>531</ele>
        <time>2021-02-21T13:01:39Z</time>
      </trkpt>
      <trkpt lat="45.80099" lon="3.58247">
        <ele>531</ele>
        <time>2021-02-21T13:01:41Z</time>
      </trkpt>
      <trkpt lat="45.80101" lon="3.58245">
        <ele>530</ele>
        <time>2021-02-21T13:01:43Z</time>
      </trkpt>
      <trkpt lat="45.80103" lon="3.58243">
        <ele>529</ele>
        <time>2021-02-21T13:01:45Z</time>
      </trkpt>
      <trkpt lat="45.80105" lon="3.5824">
        <ele>529</ele>
        <time>2021-02-21T13:01:47Z</time>
      </trkpt>
      <trkpt lat="45.80107" lon="3.58238">
        <ele>528</ele>
        <time>2021-02-21T13:01:49Z</time>
      </trkpt>
      <trkpt lat="45.80112" lon="3.58227">
        <ele>526</ele>
        <time>2021-02-21T13:01:56Z</time>
      </trkpt>
      <trkpt lat="45.80114" lon="3.58226">
        <ele>525</ele>
        <time>2021-02-21T13:01:57Z</time>
      </trkpt>
      <trkpt lat="45.80115" lon="3.58224">
        <ele>525</ele>
        <time>2021-02-21T13:01:58Z</time>
      </trkpt>
      <trkpt lat="45.80117" lon="3.58222">
        <ele>524</ele>
        <time>2021-02-21T13:01:59Z</time>
      </trkpt>
      <trkpt lat="45.80118" lon="3.58219">
        <ele>524</ele>
        <time>2021-02-21T13:02:01Z</time>
      </trkpt>
      <trkpt lat="45.8012" lon="3.58216">
        <ele>523</ele>
        <time>2021-02-21T13:02:03Z</time>
      </trkpt>
      <trkpt lat="45.80122" lon="3.58215">
        <ele>523</ele>
        <time>2021-02-21T13:02:04Z</time>
      </trkpt>
      <trkpt lat="45.80123" lon="3.58213">
        <ele>522</ele>
        <time>2021-02-21T13:02:05Z</time>
      </trkpt>
      <trkpt lat="45.80125" lon="3.58211">
        <ele>522</ele>
        <time>2021-02-21T13:02:06Z</time>
      </trkpt>
      <trkpt lat="45.80127" lon="3.58208">
        <ele>521</ele>
        <time>2021-02-21T13:02:08Z</time>
      </trkpt>
      <trkpt lat="45.80128" lon="3.58205">
        <ele>520</ele>
        <time>2021-02-21T13:02:10Z</time>
      </trkpt>
      <trkpt lat="45.8013" lon="3.58203">
        <ele>520</ele>
        <time>2021-02-21T13:02:11Z</time>
      </trkpt>
      <trkpt lat="45.80132" lon="3.582">
        <ele>519</ele>
        <time>2021-02-21T13:02:13Z</time>
      </trkpt>
      <trkpt lat="45.80135" lon="3.58198">
        <ele>519</ele>
        <time>2021-02-21T13:02:15Z</time>
      </trkpt>
      <trkpt lat="45.80137" lon="3.58194">
        <ele>518</ele>
        <time>2021-02-21T13:02:17Z</time>
      </trkpt>
      <trkpt lat="45.80139" lon="3.5819">
        <ele>517</ele>
        <time>2021-02-21T13:02:19Z</time>
      </trkpt>
      <trkpt lat="45.8014" lon="3.58187">
        <ele>517</ele>
        <time>2021-02-21T13:02:21Z</time>
      </trkpt>
      <trkpt lat="45.80141" lon="3.58183">
        <ele>516</ele>
        <time>2021-02-21T13:02:23Z</time>
      </trkpt>
      <trkpt lat="45.80143" lon="3.5818">
        <ele>516</ele>
        <time>2021-02-21T13:02:25Z</time>
      </trkpt>
      <trkpt lat="45.80143" lon="3.58177">
        <ele>516</ele>
        <time>2021-02-21T13:02:27Z</time>
      </trkpt>
      <trkpt lat="45.80144" lon="3.58173">
        <ele>516</ele>
        <time>2021-02-21T13:02:29Z</time>
      </trkpt>
      <trkpt lat="45.80144" lon="3.58169">
        <ele>515</ele>
        <time>2021-02-21T13:02:31Z</time>
      </trkpt>
      <trkpt lat="45.80145" lon="3.58166">
        <ele>515</ele>
        <time>2021-02-21T13:02:33Z</time>
      </trkpt>
      <trkpt lat="45.80145" lon="3.58163">
        <ele>515</ele>
        <time>2021-02-21T13:02:35Z</time>
      </trkpt>
      <trkpt lat="45.80144" lon="3.5816">
        <ele>515</ele>
        <time>2021-02-21T13:02:38Z</time>
      </trkpt>
      <trkpt lat="45.80142" lon="3.58158">
        <ele>515</ele>
        <time>2021-02-21T13:02:40Z</time>
      </trkpt>
      <trkpt lat="45.80139" lon="3.58158">
        <ele>516</ele>
        <time>2021-02-21T13:02:42Z</time>
      </trkpt>
      <trkpt lat="45.80136" lon="3.58156">
        <ele>515</ele>
        <time>2021-02-21T13:02:44Z</time>
      </trkpt>
      <trkpt lat="45.80134" lon="3.58155">
        <ele>515</ele>
        <time>2021-02-21T13:02:45Z</time>
      </trkpt>
      <trkpt lat="45.80131" lon="3.58154">
        <ele>515</ele>
        <time>2021-02-21T13:02:47Z</time>
      </trkpt>
      <trkpt lat="45.80129" lon="3.58155">
        <ele>515</ele>
        <time>2021-02-21T13:02:49Z</time>
      </trkpt>
      <trkpt lat="45.80125" lon="3.58153">
        <ele>515</ele>
        <time>2021-02-21T13:02:51Z</time>
      </trkpt>
      <trkpt lat="45.80123" lon="3.58153">
        <ele>515</ele>
        <time>2021-02-21T13:02:53Z</time>
      </trkpt>
      <trkpt lat="45.8012" lon="3.58153">
        <ele>515</ele>
        <time>2021-02-21T13:02:55Z</time>
      </trkpt>
      <trkpt lat="45.80117" lon="3.58153">
        <ele>515</ele>
        <time>2021-02-21T13:02:58Z</time>
      </trkpt>
      <trkpt lat="45.80115" lon="3.58152">
        <ele>515</ele>
        <time>2021-02-21T13:03:00Z</time>
      </trkpt>
      <trkpt lat="45.80113" lon="3.58152">
        <ele>515</ele>
        <time>2021-02-21T13:03:02Z</time>
      </trkpt>
      <trkpt lat="45.80111" lon="3.58152">
        <ele>515</ele>
        <time>2021-02-21T13:03:04Z</time>
      </trkpt>
      <trkpt lat="45.80109" lon="3.58152">
        <ele>515</ele>
        <time>2021-02-21T13:03:06Z</time>
      </trkpt>
      <trkpt lat="45.80107" lon="3.58151">
        <ele>515</ele>
        <time>2021-02-21T13:03:08Z</time>
      </trkpt>
      <trkpt lat="45.80104" lon="3.5815">
        <ele>515</ele>
        <time>2021-02-21T13:03:11Z</time>
      </trkpt>
      <trkpt lat="45.80099" lon="3.58149">
        <ele>515</ele>
        <time>2021-02-21T13:03:14Z</time>
      </trkpt>
      <trkpt lat="45.80096" lon="3.58148">
        <ele>515</ele>
        <time>2021-02-21T13:03:16Z</time>
      </trkpt>
      <trkpt lat="45.80095" lon="3.58146">
        <ele>515</ele>
        <time>2021-02-21T13:03:17Z</time>
      </trkpt>
      <trkpt lat="45.80093" lon="3.58144">
        <ele>514</ele>
        <time>2021-02-21T13:03:19Z</time>
      </trkpt>
      <trkpt lat="45.8009" lon="3.58144">
        <ele>514</ele>
        <time>2021-02-21T13:03:21Z</time>
      </trkpt>
      <trkpt lat="45.80088" lon="3.58143">
        <ele>514</ele>
        <time>2021-02-21T13:03:23Z</time>
      </trkpt>
      <trkpt lat="45.80085" lon="3.58142">
        <ele>514</ele>
        <time>2021-02-21T13:03:25Z</time>
      </trkpt>
      <trkpt lat="45.80076" lon="3.58142">
        <ele>514</ele>
        <time>2021-02-21T13:03:30Z</time>
      </trkpt>
      <trkpt lat="45.80066" lon="3.58138">
        <ele>513</ele>
        <time>2021-02-21T13:03:36Z</time>
      </trkpt>
      <trkpt lat="45.8006" lon="3.58134">
        <ele>512</ele>
        <time>2021-02-21T13:03:41Z</time>
      </trkpt>
      <trkpt lat="45.80059" lon="3.58132">
        <ele>511</ele>
        <time>2021-02-21T13:03:43Z</time>
      </trkpt>
      <trkpt lat="45.80048" lon="3.58128">
        <ele>510</ele>
        <time>2021-02-21T13:03:49Z</time>
      </trkpt>
      <trkpt lat="45.80039" lon="3.58123">
        <ele>508</ele>
        <time>2021-02-21T13:03:55Z</time>
      </trkpt>
      <trkpt lat="45.80038" lon="3.58123">
        <ele>508</ele>
        <time>2021-02-21T13:03:57Z</time>
      </trkpt>
      <trkpt lat="45.80034" lon="3.5812">
        <ele>507</ele>
        <time>2021-02-21T13:04:01Z</time>
      </trkpt>
      <trkpt lat="45.80028" lon="3.58116">
        <ele>506</ele>
        <time>2021-02-21T13:04:07Z</time>
      </trkpt>
      <trkpt lat="45.80018" lon="3.58111">
        <ele>505</ele>
        <time>2021-02-21T13:04:12Z</time>
      </trkpt>
      <trkpt lat="45.80015" lon="3.58111">
        <ele>505</ele>
        <time>2021-02-21T13:04:14Z</time>
      </trkpt>
      <trkpt lat="45.80013" lon="3.58112">
        <ele>505</ele>
        <time>2021-02-21T13:04:16Z</time>
      </trkpt>
      <trkpt lat="45.8001" lon="3.58111">
        <ele>505</ele>
        <time>2021-02-21T13:04:19Z</time>
      </trkpt>
      <trkpt lat="45.80007" lon="3.58111">
        <ele>505</ele>
        <time>2021-02-21T13:04:22Z</time>
      </trkpt>
      <trkpt lat="45.80005" lon="3.5811">
        <ele>505</ele>
        <time>2021-02-21T13:04:24Z</time>
      </trkpt>
      <trkpt lat="45.8" lon="3.58109">
        <ele>505</ele>
        <time>2021-02-21T13:04:29Z</time>
      </trkpt>
      <trkpt lat="45.79997" lon="3.5811">
        <ele>505</ele>
        <time>2021-02-21T13:04:32Z</time>
      </trkpt>
      <trkpt lat="45.79995" lon="3.5811">
        <ele>505</ele>
        <time>2021-02-21T13:04:33Z</time>
      </trkpt>
      <trkpt lat="45.79993" lon="3.5811">
        <ele>504</ele>
        <time>2021-02-21T13:04:34Z</time>
      </trkpt>
      <trkpt lat="45.79991" lon="3.5811">
        <ele>504</ele>
        <time>2021-02-21T13:04:35Z</time>
      </trkpt>
      <trkpt lat="45.79989" lon="3.5811">
        <ele>504</ele>
        <time>2021-02-21T13:04:36Z</time>
      </trkpt>
      <trkpt lat="45.79986" lon="3.58111">
        <ele>504</ele>
        <time>2021-02-21T13:04:38Z</time>
      </trkpt>
      <trkpt lat="45.79983" lon="3.58111">
        <ele>504</ele>
        <time>2021-02-21T13:04:40Z</time>
      </trkpt>
      <trkpt lat="45.7998" lon="3.5811">
        <ele>503</ele>
        <time>2021-02-21T13:04:42Z</time>
      </trkpt>
      <trkpt lat="45.79978" lon="3.58111">
        <ele>503</ele>
        <time>2021-02-21T13:04:44Z</time>
      </trkpt>
      <trkpt lat="45.79976" lon="3.58112">
        <ele>503</ele>
        <time>2021-02-21T13:04:47Z</time>
      </trkpt>
      <trkpt lat="45.79973" lon="3.58112">
        <ele>503</ele>
        <time>2021-02-21T13:04:50Z</time>
      </trkpt>
      <trkpt lat="45.7997" lon="3.58113">
        <ele>502</ele>
        <time>2021-02-21T13:04:52Z</time>
      </trkpt>
      <trkpt lat="45.79967" lon="3.58112">
        <ele>502</ele>
        <time>2021-02-21T13:04:54Z</time>
      </trkpt>
      <trkpt lat="45.79965" lon="3.58111">
        <ele>501</ele>
        <time>2021-02-21T13:04:56Z</time>
      </trkpt>
      <trkpt lat="45.79963" lon="3.58111">
        <ele>501</ele>
        <time>2021-02-21T13:04:58Z</time>
      </trkpt>
      <trkpt lat="45.79961" lon="3.5811">
        <ele>500</ele>
        <time>2021-02-21T13:05:00Z</time>
      </trkpt>
      <trkpt lat="45.79959" lon="3.58111">
        <ele>500</ele>
        <time>2021-02-21T13:05:02Z</time>
      </trkpt>
      <trkpt lat="45.79957" lon="3.58112">
        <ele>500</ele>
        <time>2021-02-21T13:05:05Z</time>
      </trkpt>
      <trkpt lat="45.79956" lon="3.58107">
        <ele>499</ele>
        <time>2021-02-21T13:05:12Z</time>
      </trkpt>
      <trkpt lat="45.79952" lon="3.5811">
        <ele>499</ele>
        <time>2021-02-21T13:05:20Z</time>
      </trkpt>
      <trkpt lat="45.79943" lon="3.58117">
        <ele>498</ele>
        <time>2021-02-21T13:05:27Z</time>
      </trkpt>
      <trkpt lat="45.79935" lon="3.58125">
        <ele>497</ele>
        <time>2021-02-21T13:05:37Z</time>
      </trkpt>
      <trkpt lat="45.79925" lon="3.58128">
        <ele>494</ele>
        <time>2021-02-21T13:05:43Z</time>
      </trkpt>
      <trkpt lat="45.79917" lon="3.58134">
        <ele>492</ele>
        <time>2021-02-21T13:05:54Z</time>
      </trkpt>
      <trkpt lat="45.7991" lon="3.58145">
        <ele>492</ele>
        <time>2021-02-21T13:06:03Z</time>
      </trkpt>
      <trkpt lat="45.79902" lon="3.58154">
        <ele>491</ele>
        <time>2021-02-21T13:06:10Z</time>
      </trkpt>
      <trkpt lat="45.79894" lon="3.58159">
        <ele>490</ele>
        <time>2021-02-21T13:06:15Z</time>
      </trkpt>
      <trkpt lat="45.79889" lon="3.58164">
        <ele>490</ele>
        <time>2021-02-21T13:06:19Z</time>
      </trkpt>
      <trkpt lat="45.79887" lon="3.58164">
        <ele>490</ele>
        <time>2021-02-21T13:06:21Z</time>
      </trkpt>
      <trkpt lat="45.79885" lon="3.58167">
        <ele>490</ele>
        <time>2021-02-21T13:06:29Z</time>
      </trkpt>
      <trkpt lat="45.79883" lon="3.58171">
        <ele>491</ele>
        <time>2021-02-21T13:06:34Z</time>
      </trkpt>
      <trkpt lat="45.79879" lon="3.58169">
        <ele>491</ele>
        <time>2021-02-21T13:06:38Z</time>
      </trkpt>
      <trkpt lat="45.79881" lon="3.58166">
        <ele>490</ele>
        <time>2021-02-21T13:06:40Z</time>
      </trkpt>
      <trkpt lat="45.79884" lon="3.58162">
        <ele>490</ele>
        <time>2021-02-21T13:06:42Z</time>
      </trkpt>
      <trkpt lat="45.79885" lon="3.5816">
        <ele>489</ele>
        <time>2021-02-21T13:06:43Z</time>
      </trkpt>
      <trkpt lat="45.79886" lon="3.58156">
        <ele>489</ele>
        <time>2021-02-21T13:06:45Z</time>
      </trkpt>
      <trkpt lat="45.79886" lon="3.58152">
        <ele>488</ele>
        <time>2021-02-21T13:06:47Z</time>
      </trkpt>
      <trkpt lat="45.79884" lon="3.5815">
        <ele>488</ele>
        <time>2021-02-21T13:06:49Z</time>
      </trkpt>
      <trkpt lat="45.79874" lon="3.58145">
        <ele>487</ele>
        <time>2021-02-21T13:06:57Z</time>
      </trkpt>
      <trkpt lat="45.79866" lon="3.58136">
        <ele>486</ele>
        <time>2021-02-21T13:07:01Z</time>
      </trkpt>
      <trkpt lat="45.79861" lon="3.58127">
        <ele>486</ele>
        <time>2021-02-21T13:07:09Z</time>
      </trkpt>
      <trkpt lat="45.79859" lon="3.58126">
        <ele>485</ele>
        <time>2021-02-21T13:07:12Z</time>
      </trkpt>
      <trkpt lat="45.79857" lon="3.58124">
        <ele>485</ele>
        <time>2021-02-21T13:07:13Z</time>
      </trkpt>
      <trkpt lat="45.79856" lon="3.58122">
        <ele>485</ele>
        <time>2021-02-21T13:07:14Z</time>
      </trkpt>
      <trkpt lat="45.79854" lon="3.58121">
        <ele>484</ele>
        <time>2021-02-21T13:07:15Z</time>
      </trkpt>
      <trkpt lat="45.79852" lon="3.58118">
        <ele>484</ele>
        <time>2021-02-21T13:07:17Z</time>
      </trkpt>
      <trkpt lat="45.79852" lon="3.58115">
        <ele>484</ele>
        <time>2021-02-21T13:07:18Z</time>
      </trkpt>
      <trkpt lat="45.7985" lon="3.5811">
        <ele>483</ele>
        <time>2021-02-21T13:07:21Z</time>
      </trkpt>
      <trkpt lat="45.79849" lon="3.58107">
        <ele>483</ele>
        <time>2021-02-21T13:07:23Z</time>
      </trkpt>
      <trkpt lat="45.79849" lon="3.58104">
        <ele>482</ele>
        <time>2021-02-21T13:07:25Z</time>
      </trkpt>
      <trkpt lat="45.79848" lon="3.58101">
        <ele>482</ele>
        <time>2021-02-21T13:07:27Z</time>
      </trkpt>
      <trkpt lat="45.79846" lon="3.58096">
        <ele>481</ele>
        <time>2021-02-21T13:07:32Z</time>
      </trkpt>
      <trkpt lat="45.79845" lon="3.58094">
        <ele>481</ele>
        <time>2021-02-21T13:07:34Z</time>
      </trkpt>
      <trkpt lat="45.79843" lon="3.58091">
        <ele>480</ele>
        <time>2021-02-21T13:07:36Z</time>
      </trkpt>
      <trkpt lat="45.79842" lon="3.58088">
        <ele>480</ele>
        <time>2021-02-21T13:07:38Z</time>
      </trkpt>
      <trkpt lat="45.7984" lon="3.58085">
        <ele>479</ele>
        <time>2021-02-21T13:07:40Z</time>
      </trkpt>
      <trkpt lat="45.7984" lon="3.58082">
        <ele>479</ele>
        <time>2021-02-21T13:07:42Z</time>
      </trkpt>
      <trkpt lat="45.7984" lon="3.58077">
        <ele>478</ele>
        <time>2021-02-21T13:07:44Z</time>
      </trkpt>
      <trkpt lat="45.7984" lon="3.58074">
        <ele>478</ele>
        <time>2021-02-21T13:07:45Z</time>
      </trkpt>
      <trkpt lat="45.7984" lon="3.5807">
        <ele>477</ele>
        <time>2021-02-21T13:07:47Z</time>
      </trkpt>
      <trkpt lat="45.79839" lon="3.58067">
        <ele>477</ele>
        <time>2021-02-21T13:07:49Z</time>
      </trkpt>
      <trkpt lat="45.79837" lon="3.58062">
        <ele>476</ele>
        <time>2021-02-21T13:07:51Z</time>
      </trkpt>
      <trkpt lat="45.79836" lon="3.58058">
        <ele>475</ele>
        <time>2021-02-21T13:07:53Z</time>
      </trkpt>
      <trkpt lat="45.79835" lon="3.58054">
        <ele>475</ele>
        <time>2021-02-21T13:07:55Z</time>
      </trkpt>
      <trkpt lat="45.79834" lon="3.58051">
        <ele>474</ele>
        <time>2021-02-21T13:07:57Z</time>
      </trkpt>
      <trkpt lat="45.79833" lon="3.58047">
        <ele>474</ele>
        <time>2021-02-21T13:07:59Z</time>
      </trkpt>
      <trkpt lat="45.79832" lon="3.58043">
        <ele>473</ele>
        <time>2021-02-21T13:08:02Z</time>
      </trkpt>
      <trkpt lat="45.7983" lon="3.58041">
        <ele>473</ele>
        <time>2021-02-21T13:08:04Z</time>
      </trkpt>
      <trkpt lat="45.79829" lon="3.58038">
        <ele>473</ele>
        <time>2021-02-21T13:08:05Z</time>
      </trkpt>
      <trkpt lat="45.79827" lon="3.58035">
        <ele>472</ele>
        <time>2021-02-21T13:08:07Z</time>
      </trkpt>
      <trkpt lat="45.79826" lon="3.58032">
        <ele>472</ele>
        <time>2021-02-21T13:08:09Z</time>
      </trkpt>
      <trkpt lat="45.79825" lon="3.58028">
        <ele>471</ele>
        <time>2021-02-21T13:08:11Z</time>
      </trkpt>
      <trkpt lat="45.79825" lon="3.58026">
        <ele>471</ele>
        <time>2021-02-21T13:08:12Z</time>
      </trkpt>
      <trkpt lat="45.79824" lon="3.58023">
        <ele>471</ele>
        <time>2021-02-21T13:08:13Z</time>
      </trkpt>
      <trkpt lat="45.79823" lon="3.5802">
        <ele>470</ele>
        <time>2021-02-21T13:08:15Z</time>
      </trkpt>
      <trkpt lat="45.79823" lon="3.58017">
        <ele>470</ele>
        <time>2021-02-21T13:08:17Z</time>
      </trkpt>
      <trkpt lat="45.79823" lon="3.58014">
        <ele>470</ele>
        <time>2021-02-21T13:08:19Z</time>
      </trkpt>
      <trkpt lat="45.79822" lon="3.58011">
        <ele>470</ele>
        <time>2021-02-21T13:08:21Z</time>
      </trkpt>
      <trkpt lat="45.79821" lon="3.58008">
        <ele>469</ele>
        <time>2021-02-21T13:08:24Z</time>
      </trkpt>
      <trkpt lat="45.7982" lon="3.58005">
        <ele>469</ele>
        <time>2021-02-21T13:08:26Z</time>
      </trkpt>
      <trkpt lat="45.79819" lon="3.58002">
        <ele>469</ele>
        <time>2021-02-21T13:08:28Z</time>
      </trkpt>
      <trkpt lat="45.79819" lon="3.58">
        <ele>468</ele>
        <time>2021-02-21T13:08:32Z</time>
      </trkpt>
      <trkpt lat="45.79818" lon="3.57996">
        <ele>468</ele>
        <time>2021-02-21T13:08:34Z</time>
      </trkpt>
      <trkpt lat="45.79817" lon="3.57993">
        <ele>467</ele>
        <time>2021-02-21T13:08:36Z</time>
      </trkpt>
      <trkpt lat="45.79816" lon="3.5799">
        <ele>467</ele>
        <time>2021-02-21T13:08:38Z</time>
      </trkpt>
      <trkpt lat="45.79814" lon="3.57987">
        <ele>466</ele>
        <time>2021-02-21T13:08:40Z</time>
      </trkpt>
      <trkpt lat="45.79813" lon="3.57983">
        <ele>466</ele>
        <time>2021-02-21T13:08:42Z</time>
      </trkpt>
      <trkpt lat="45.79811" lon="3.57979">
        <ele>465</ele>
        <time>2021-02-21T13:08:44Z</time>
      </trkpt>
      <trkpt lat="45.79809" lon="3.57977">
        <ele>465</ele>
        <time>2021-02-21T13:08:46Z</time>
      </trkpt>
      <trkpt lat="45.79808" lon="3.57974">
        <ele>464</ele>
        <time>2021-02-21T13:08:48Z</time>
      </trkpt>
      <trkpt lat="45.79806" lon="3.57972">
        <ele>464</ele>
        <time>2021-02-21T13:08:50Z</time>
      </trkpt>
      <trkpt lat="45.79804" lon="3.5797">
        <ele>463</ele>
        <time>2021-02-21T13:08:52Z</time>
      </trkpt>
      <trkpt lat="45.79802" lon="3.57967">
        <ele>462</ele>
        <time>2021-02-21T13:08:54Z</time>
      </trkpt>
      <trkpt lat="45.79801" lon="3.57965">
        <ele>461</ele>
        <time>2021-02-21T13:08:56Z</time>
      </trkpt>
      <trkpt lat="45.798" lon="3.57963">
        <ele>461</ele>
        <time>2021-02-21T13:08:58Z</time>
      </trkpt>
      <trkpt lat="45.79798" lon="3.5796">
        <ele>460</ele>
        <time>2021-02-21T13:09:00Z</time>
      </trkpt>
      <trkpt lat="45.79797" lon="3.57957">
        <ele>460</ele>
        <time>2021-02-21T13:09:02Z</time>
      </trkpt>
      <trkpt lat="45.79795" lon="3.57955">
        <ele>459</ele>
        <time>2021-02-21T13:09:04Z</time>
      </trkpt>
      <trkpt lat="45.79794" lon="3.57952">
        <ele>459</ele>
        <time>2021-02-21T13:09:06Z</time>
      </trkpt>
      <trkpt lat="45.79792" lon="3.5795">
        <ele>459</ele>
        <time>2021-02-21T13:09:08Z</time>
      </trkpt>
      <trkpt lat="45.79791" lon="3.57948">
        <ele>458</ele>
        <time>2021-02-21T13:09:10Z</time>
      </trkpt>
      <trkpt lat="45.79789" lon="3.57946">
        <ele>458</ele>
        <time>2021-02-21T13:09:12Z</time>
      </trkpt>
      <trkpt lat="45.79789" lon="3.57944">
        <ele>458</ele>
        <time>2021-02-21T13:09:14Z</time>
      </trkpt>
      <trkpt lat="45.79788" lon="3.5794">
        <ele>457</ele>
        <time>2021-02-21T13:09:17Z</time>
      </trkpt>
      <trkpt lat="45.79786" lon="3.57939">
        <ele>457</ele>
        <time>2021-02-21T13:09:19Z</time>
      </trkpt>
      <trkpt lat="45.79785" lon="3.57936">
        <ele>457</ele>
        <time>2021-02-21T13:09:21Z</time>
      </trkpt>
      <trkpt lat="45.79786" lon="3.57932">
        <ele>456</ele>
        <time>2021-02-21T13:09:23Z</time>
      </trkpt>
      <trkpt lat="45.79788" lon="3.57929">
        <ele>456</ele>
        <time>2021-02-21T13:09:25Z</time>
      </trkpt>
      <trkpt lat="45.79791" lon="3.57927">
        <ele>456</ele>
        <time>2021-02-21T13:09:27Z</time>
      </trkpt>
      <trkpt lat="45.79794" lon="3.57924">
        <ele>456</ele>
        <time>2021-02-21T13:09:29Z</time>
      </trkpt>
      <trkpt lat="45.79797" lon="3.57921">
        <ele>455</ele>
        <time>2021-02-21T13:09:31Z</time>
      </trkpt>
      <trkpt lat="45.79799" lon="3.57918">
        <ele>455</ele>
        <time>2021-02-21T13:09:33Z</time>
      </trkpt>
      <trkpt lat="45.79802" lon="3.57914">
        <ele>455</ele>
        <time>2021-02-21T13:09:35Z</time>
      </trkpt>
      <trkpt lat="45.79804" lon="3.57911">
        <ele>455</ele>
        <time>2021-02-21T13:09:37Z</time>
      </trkpt>
      <trkpt lat="45.79806" lon="3.57909">
        <ele>454</ele>
        <time>2021-02-21T13:09:39Z</time>
      </trkpt>
      <trkpt lat="45.79809" lon="3.57906">
        <ele>454</ele>
        <time>2021-02-21T13:09:41Z</time>
      </trkpt>
      <trkpt lat="45.79812" lon="3.57904">
        <ele>454</ele>
        <time>2021-02-21T13:09:43Z</time>
      </trkpt>
      <trkpt lat="45.79814" lon="3.57902">
        <ele>454</ele>
        <time>2021-02-21T13:09:45Z</time>
      </trkpt>
      <trkpt lat="45.79817" lon="3.579">
        <ele>453</ele>
        <time>2021-02-21T13:09:47Z</time>
      </trkpt>
      <trkpt lat="45.7982" lon="3.57898">
        <ele>453</ele>
        <time>2021-02-21T13:09:49Z</time>
      </trkpt>
      <trkpt lat="45.79822" lon="3.57896">
        <ele>453</ele>
        <time>2021-02-21T13:09:51Z</time>
      </trkpt>
      <trkpt lat="45.79824" lon="3.57894">
        <ele>453</ele>
        <time>2021-02-21T13:09:53Z</time>
      </trkpt>
      <trkpt lat="45.79827" lon="3.57893">
        <ele>453</ele>
        <time>2021-02-21T13:09:55Z</time>
      </trkpt>
      <trkpt lat="45.79829" lon="3.5789">
        <ele>453</ele>
        <time>2021-02-21T13:09:57Z</time>
      </trkpt>
      <trkpt lat="45.79832" lon="3.57889">
        <ele>452</ele>
        <time>2021-02-21T13:09:59Z</time>
      </trkpt>
      <trkpt lat="45.79835" lon="3.57887">
        <ele>452</ele>
        <time>2021-02-21T13:10:01Z</time>
      </trkpt>
      <trkpt lat="45.79837" lon="3.57886">
        <ele>452</ele>
        <time>2021-02-21T13:10:03Z</time>
      </trkpt>
      <trkpt lat="45.79839" lon="3.57884">
        <ele>452</ele>
        <time>2021-02-21T13:10:05Z</time>
      </trkpt>
      <trkpt lat="45.79841" lon="3.57882">
        <ele>452</ele>
        <time>2021-02-21T13:10:07Z</time>
      </trkpt>
      <trkpt lat="45.79844" lon="3.57881">
        <ele>452</ele>
        <time>2021-02-21T13:10:09Z</time>
      </trkpt>
      <trkpt lat="45.79846" lon="3.5788">
        <ele>452</ele>
        <time>2021-02-21T13:10:11Z</time>
      </trkpt>
      <trkpt lat="45.79849" lon="3.5788">
        <ele>452</ele>
        <time>2021-02-21T13:10:13Z</time>
      </trkpt>
      <trkpt lat="45.79852" lon="3.5788">
        <ele>452</ele>
        <time>2021-02-21T13:10:15Z</time>
      </trkpt>
      <trkpt lat="45.79854" lon="3.57879">
        <ele>452</ele>
        <time>2021-02-21T13:10:17Z</time>
      </trkpt>
      <trkpt lat="45.79857" lon="3.57879">
        <ele>452</ele>
        <time>2021-02-21T13:10:19Z</time>
      </trkpt>
      <trkpt lat="45.79859" lon="3.57879">
        <ele>453</ele>
        <time>2021-02-21T13:10:21Z</time>
      </trkpt>
      <trkpt lat="45.79861" lon="3.5788">
        <ele>453</ele>
        <time>2021-02-21T13:10:23Z</time>
      </trkpt>
      <trkpt lat="45.79863" lon="3.57879">
        <ele>453</ele>
        <time>2021-02-21T13:10:26Z</time>
      </trkpt>
      <trkpt lat="45.79865" lon="3.57879">
        <ele>452</ele>
        <time>2021-02-21T13:10:28Z</time>
      </trkpt>
      <trkpt lat="45.79867" lon="3.5788">
        <ele>452</ele>
        <time>2021-02-21T13:10:29Z</time>
      </trkpt>
      <trkpt lat="45.79869" lon="3.57882">
        <ele>452</ele>
        <time>2021-02-21T13:10:30Z</time>
      </trkpt>
      <trkpt lat="45.79871" lon="3.57882">
        <ele>452</ele>
        <time>2021-02-21T13:10:31Z</time>
      </trkpt>
      <trkpt lat="45.79873" lon="3.57883">
        <ele>452</ele>
        <time>2021-02-21T13:10:32Z</time>
      </trkpt>
      <trkpt lat="45.79875" lon="3.57883">
        <ele>452</ele>
        <time>2021-02-21T13:10:33Z</time>
      </trkpt>
      <trkpt lat="45.79877" lon="3.57883">
        <ele>452</ele>
        <time>2021-02-21T13:10:35Z</time>
      </trkpt>
      <trkpt lat="45.7988" lon="3.57883">
        <ele>451</ele>
        <time>2021-02-21T13:10:37Z</time>
      </trkpt>
      <trkpt lat="45.79882" lon="3.57883">
        <ele>451</ele>
        <time>2021-02-21T13:10:39Z</time>
      </trkpt>
      <trkpt lat="45.79884" lon="3.57883">
        <ele>451</ele>
        <time>2021-02-21T13:10:41Z</time>
      </trkpt>
      <trkpt lat="45.79887" lon="3.57885">
        <ele>451</ele>
        <time>2021-02-21T13:10:43Z</time>
      </trkpt>
      <trkpt lat="45.79889" lon="3.57886">
        <ele>451</ele>
        <time>2021-02-21T13:10:45Z</time>
      </trkpt>
      <trkpt lat="45.79891" lon="3.57887">
        <ele>451</ele>
        <time>2021-02-21T13:10:47Z</time>
      </trkpt>
      <trkpt lat="45.79893" lon="3.57886">
        <ele>451</ele>
        <time>2021-02-21T13:10:48Z</time>
      </trkpt>
      <trkpt lat="45.79896" lon="3.57886">
        <ele>450</ele>
        <time>2021-02-21T13:10:50Z</time>
      </trkpt>
      <trkpt lat="45.79899" lon="3.57886">
        <ele>450</ele>
        <time>2021-02-21T13:10:52Z</time>
      </trkpt>
      <trkpt lat="45.79902" lon="3.57886">
        <ele>450</ele>
        <time>2021-02-21T13:10:54Z</time>
      </trkpt>
      <trkpt lat="45.79904" lon="3.57886">
        <ele>450</ele>
        <time>2021-02-21T13:10:56Z</time>
      </trkpt>
      <trkpt lat="45.79907" lon="3.57886">
        <ele>449</ele>
        <time>2021-02-21T13:10:58Z</time>
      </trkpt>
      <trkpt lat="45.7991" lon="3.57886">
        <ele>449</ele>
        <time>2021-02-21T13:11:00Z</time>
      </trkpt>
      <trkpt lat="45.79913" lon="3.57886">
        <ele>449</ele>
        <time>2021-02-21T13:11:02Z</time>
      </trkpt>
      <trkpt lat="45.79911" lon="3.57885">
        <ele>449</ele>
        <time>2021-02-21T13:11:05Z</time>
      </trkpt>
      <trkpt lat="45.79913" lon="3.57882">
        <ele>448</ele>
        <time>2021-02-21T13:11:11Z</time>
      </trkpt>
      <trkpt lat="45.79916" lon="3.57881">
        <ele>448</ele>
        <time>2021-02-21T13:11:14Z</time>
      </trkpt>
      <trkpt lat="45.79918" lon="3.5788">
        <ele>447</ele>
        <time>2021-02-21T13:11:15Z</time>
      </trkpt>
      <trkpt lat="45.7992" lon="3.57879">
        <ele>447</ele>
        <time>2021-02-21T13:11:17Z</time>
      </trkpt>
      <trkpt lat="45.79923" lon="3.57878">
        <ele>446</ele>
        <time>2021-02-21T13:11:19Z</time>
      </trkpt>
      <trkpt lat="45.79925" lon="3.57877">
        <ele>445</ele>
        <time>2021-02-21T13:11:22Z</time>
      </trkpt>
      <trkpt lat="45.79927" lon="3.57876">
        <ele>445</ele>
        <time>2021-02-21T13:11:23Z</time>
      </trkpt>
      <trkpt lat="45.79928" lon="3.57874">
        <ele>444</ele>
        <time>2021-02-21T13:11:24Z</time>
      </trkpt>
      <trkpt lat="45.79931" lon="3.57872">
        <ele>443</ele>
        <time>2021-02-21T13:11:26Z</time>
      </trkpt>
      <trkpt lat="45.79934" lon="3.57869">
        <ele>443</ele>
        <time>2021-02-21T13:11:28Z</time>
      </trkpt>
      <trkpt lat="45.79937" lon="3.57868">
        <ele>442</ele>
        <time>2021-02-21T13:11:30Z</time>
      </trkpt>
      <trkpt lat="45.79938" lon="3.57867">
        <ele>441</ele>
        <time>2021-02-21T13:11:32Z</time>
      </trkpt>
      <trkpt lat="45.79941" lon="3.57864">
        <ele>440</ele>
        <time>2021-02-21T13:11:34Z</time>
      </trkpt>
      <trkpt lat="45.79944" lon="3.57862">
        <ele>440</ele>
        <time>2021-02-21T13:11:36Z</time>
      </trkpt>
      <trkpt lat="45.79947" lon="3.5786">
        <ele>439</ele>
        <time>2021-02-21T13:11:38Z</time>
      </trkpt>
      <trkpt lat="45.79949" lon="3.57858">
        <ele>439</ele>
        <time>2021-02-21T13:11:40Z</time>
      </trkpt>
      <trkpt lat="45.79952" lon="3.57855">
        <ele>438</ele>
        <time>2021-02-21T13:11:42Z</time>
      </trkpt>
      <trkpt lat="45.79954" lon="3.57854">
        <ele>438</ele>
        <time>2021-02-21T13:11:43Z</time>
      </trkpt>
      <trkpt lat="45.79955" lon="3.57853">
        <ele>438</ele>
        <time>2021-02-21T13:11:44Z</time>
      </trkpt>
      <trkpt lat="45.79958" lon="3.5785">
        <ele>438</ele>
        <time>2021-02-21T13:11:46Z</time>
      </trkpt>
      <trkpt lat="45.7996" lon="3.57849">
        <ele>438</ele>
        <time>2021-02-21T13:11:47Z</time>
      </trkpt>
      <trkpt lat="45.79962" lon="3.57848">
        <ele>437</ele>
        <time>2021-02-21T13:11:48Z</time>
      </trkpt>
      <trkpt lat="45.79964" lon="3.57846">
        <ele>437</ele>
        <time>2021-02-21T13:11:50Z</time>
      </trkpt>
      <trkpt lat="45.79967" lon="3.57844">
        <ele>437</ele>
        <time>2021-02-21T13:11:52Z</time>
      </trkpt>
      <trkpt lat="45.79969" lon="3.57843">
        <ele>437</ele>
        <time>2021-02-21T13:11:54Z</time>
      </trkpt>
      <trkpt lat="45.79971" lon="3.5784">
        <ele>437</ele>
        <time>2021-02-21T13:11:56Z</time>
      </trkpt>
      <trkpt lat="45.79974" lon="3.57836">
        <ele>436</ele>
        <time>2021-02-21T13:12:01Z</time>
      </trkpt>
      <trkpt lat="45.79974" lon="3.57833">
        <ele>435</ele>
        <time>2021-02-21T13:12:03Z</time>
      </trkpt>
      <trkpt lat="45.79976" lon="3.5783">
        <ele>435</ele>
        <time>2021-02-21T13:12:05Z</time>
      </trkpt>
      <trkpt lat="45.79978" lon="3.5782">
        <ele>433</ele>
        <time>2021-02-21T13:12:11Z</time>
      </trkpt>
      <trkpt lat="45.7998" lon="3.57818">
        <ele>432</ele>
        <time>2021-02-21T13:12:13Z</time>
      </trkpt>
      <trkpt lat="45.79983" lon="3.57816">
        <ele>432</ele>
        <time>2021-02-21T13:12:15Z</time>
      </trkpt>
      <trkpt lat="45.79985" lon="3.57814">
        <ele>432</ele>
        <time>2021-02-21T13:12:17Z</time>
      </trkpt>
      <trkpt lat="45.79987" lon="3.57812">
        <ele>431</ele>
        <time>2021-02-21T13:12:19Z</time>
      </trkpt>
      <trkpt lat="45.79988" lon="3.57809">
        <ele>431</ele>
        <time>2021-02-21T13:12:21Z</time>
      </trkpt>
      <trkpt lat="45.7999" lon="3.57804">
        <ele>430</ele>
        <time>2021-02-21T13:12:24Z</time>
      </trkpt>
      <trkpt lat="45.79991" lon="3.57801">
        <ele>429</ele>
        <time>2021-02-21T13:12:26Z</time>
      </trkpt>
      <trkpt lat="45.79993" lon="3.57795">
        <ele>428</ele>
        <time>2021-02-21T13:12:29Z</time>
      </trkpt>
      <trkpt lat="45.79999" lon="3.57786">
        <ele>427</ele>
        <time>2021-02-21T13:12:34Z</time>
      </trkpt>
      <trkpt lat="45.80004" lon="3.57776">
        <ele>425</ele>
        <time>2021-02-21T13:12:41Z</time>
      </trkpt>
      <trkpt lat="45.80006" lon="3.57774">
        <ele>424</ele>
        <time>2021-02-21T13:12:43Z</time>
      </trkpt>
      <trkpt lat="45.80008" lon="3.57772">
        <ele>424</ele>
        <time>2021-02-21T13:12:45Z</time>
      </trkpt>
      <trkpt lat="45.8001" lon="3.5777">
        <ele>423</ele>
        <time>2021-02-21T13:12:47Z</time>
      </trkpt>
      <trkpt lat="45.80012" lon="3.57768">
        <ele>423</ele>
        <time>2021-02-21T13:12:48Z</time>
      </trkpt>
      <trkpt lat="45.80013" lon="3.57767">
        <ele>422</ele>
        <time>2021-02-21T13:12:49Z</time>
      </trkpt>
      <trkpt lat="45.80015" lon="3.57766">
        <ele>422</ele>
        <time>2021-02-21T13:12:50Z</time>
      </trkpt>
      <trkpt lat="45.80017" lon="3.57763">
        <ele>421</ele>
        <time>2021-02-21T13:12:52Z</time>
      </trkpt>
      <trkpt lat="45.80019" lon="3.57762">
        <ele>421</ele>
        <time>2021-02-21T13:12:56Z</time>
      </trkpt>
      <trkpt lat="45.8002" lon="3.57764">
        <ele>421</ele>
        <time>2021-02-21T13:13:08Z</time>
      </trkpt>
      <trkpt lat="45.80019" lon="3.57767">
        <ele>422</ele>
        <time>2021-02-21T13:13:11Z</time>
      </trkpt>
      <trkpt lat="45.8002" lon="3.57769">
        <ele>422</ele>
        <time>2021-02-21T13:13:14Z</time>
      </trkpt>
      <trkpt lat="45.80021" lon="3.57772">
        <ele>422</ele>
        <time>2021-02-21T13:13:29Z</time>
      </trkpt>
      <trkpt lat="45.80022" lon="3.57768">
        <ele>422</ele>
        <time>2021-02-21T13:13:44Z</time>
      </trkpt>
      <trkpt lat="45.80028" lon="3.57778">
        <ele>422</ele>
        <time>2021-02-21T13:15:51Z</time>
      </trkpt>
      <trkpt lat="45.8003" lon="3.57773">
        <ele>422</ele>
        <time>2021-02-21T13:16:16Z</time>
      </trkpt>
      <trkpt lat="45.80039" lon="3.57769">
        <ele>420</ele>
        <time>2021-02-21T13:17:14Z</time>
      </trkpt>
      <trkpt lat="45.80046" lon="3.57771">
        <ele>420</ele>
        <time>2021-02-21T13:18:04Z</time>
      </trkpt>
      <trkpt lat="45.80036" lon="3.57771">
        <ele>421</ele>
        <time>2021-02-21T13:18:27Z</time>
      </trkpt>
      <trkpt lat="45.80034" lon="3.5777">
        <ele>421</ele>
        <time>2021-02-21T13:18:51Z</time>
      </trkpt>
      <trkpt lat="45.80024" lon="3.57762">
        <ele>421</ele>
        <time>2021-02-21T13:19:38Z</time>
      </trkpt>
      <trkpt lat="45.80024" lon="3.57767">
        <ele>421</ele>
        <time>2021-02-21T13:19:55Z</time>
      </trkpt>
      <trkpt lat="45.8002" lon="3.57763">
        <ele>421</ele>
        <time>2021-02-21T13:20:03Z</time>
      </trkpt>
      <trkpt lat="45.80023" lon="3.57762">
        <ele>421</ele>
        <time>2021-02-21T13:20:55Z</time>
      </trkpt>
      <trkpt lat="45.80032" lon="3.57765">
        <ele>420</ele>
        <time>2021-02-21T13:21:13Z</time>
      </trkpt>
      <trkpt lat="45.80025" lon="3.57763">
        <ele>421</ele>
        <time>2021-02-21T13:21:50Z</time>
      </trkpt>
      <trkpt lat="45.80023" lon="3.57762">
        <ele>421</ele>
        <time>2021-02-21T13:22:08Z</time>
      </trkpt>
      <trkpt lat="45.80022" lon="3.57765">
        <ele>421</ele>
        <time>2021-02-21T13:22:16Z</time>
      </trkpt>
      <trkpt lat="45.80022" lon="3.57768">
        <ele>422</ele>
        <time>2021-02-21T13:22:19Z</time>
      </trkpt>
      <trkpt lat="45.8002" lon="3.57769">
        <ele>422</ele>
        <time>2021-02-21T13:22:23Z</time>
      </trkpt>
      <trkpt lat="45.8001" lon="3.5777">
        <ele>423</ele>
        <time>2021-02-21T13:22:32Z</time>
      </trkpt>
      <trkpt lat="45.80019" lon="3.5777">
        <ele>422</ele>
        <time>2021-02-21T13:22:45Z</time>
      </trkpt>
      <trkpt lat="45.80029" lon="3.57773">
        <ele>422</ele>
        <time>2021-02-21T13:22:50Z</time>
      </trkpt>
      <trkpt lat="45.80038" lon="3.57768">
        <ele>420</ele>
        <time>2021-02-21T13:23:02Z</time>
      </trkpt>
      <trkpt lat="45.80044" lon="3.57769">
        <ele>420</ele>
        <time>2021-02-21T13:23:07Z</time>
      </trkpt>
      <trkpt lat="45.80052" lon="3.57761">
        <ele>418</ele>
        <time>2021-02-21T13:23:17Z</time>
      </trkpt>
      <trkpt lat="45.80061" lon="3.57766">
        <ele>419</ele>
        <time>2021-02-21T13:23:22Z</time>
      </trkpt>
      <trkpt lat="45.80067" lon="3.57756">
        <ele>417</ele>
        <time>2021-02-21T13:23:34Z</time>
      </trkpt>
      <trkpt lat="45.80075" lon="3.57747">
        <ele>415</ele>
        <time>2021-02-21T13:23:40Z</time>
      </trkpt>
      <trkpt lat="45.80083" lon="3.57736">
        <ele>412</ele>
        <time>2021-02-21T13:23:46Z</time>
      </trkpt>
      <trkpt lat="45.8009" lon="3.57728">
        <ele>411</ele>
        <time>2021-02-21T13:23:52Z</time>
      </trkpt>
      <trkpt lat="45.80097" lon="3.57719">
        <ele>410</ele>
        <time>2021-02-21T13:24:00Z</time>
      </trkpt>
      <trkpt lat="45.80101" lon="3.57707">
        <ele>408</ele>
        <time>2021-02-21T13:24:10Z</time>
      </trkpt>
      <trkpt lat="45.80108" lon="3.57696">
        <ele>406</ele>
        <time>2021-02-21T13:24:18Z</time>
      </trkpt>
      <trkpt lat="45.80115" lon="3.57687">
        <ele>404</ele>
        <time>2021-02-21T13:24:23Z</time>
      </trkpt>
      <trkpt lat="45.80121" lon="3.57676">
        <ele>403</ele>
        <time>2021-02-21T13:24:30Z</time>
      </trkpt>
      <trkpt lat="45.80128" lon="3.57665">
        <ele>401</ele>
        <time>2021-02-21T13:24:36Z</time>
      </trkpt>
      <trkpt lat="45.80138" lon="3.57666">
        <ele>402</ele>
        <time>2021-02-21T13:24:40Z</time>
      </trkpt>
      <trkpt lat="45.80147" lon="3.57664">
        <ele>402</ele>
        <time>2021-02-21T13:24:46Z</time>
      </trkpt>
      <trkpt lat="45.80157" lon="3.57664">
        <ele>403</ele>
        <time>2021-02-21T13:24:54Z</time>
      </trkpt>
      <trkpt lat="45.80159" lon="3.57665">
        <ele>403</ele>
        <time>2021-02-21T13:24:56Z</time>
      </trkpt>
      <trkpt lat="45.80161" lon="3.57665">
        <ele>403</ele>
        <time>2021-02-21T13:24:57Z</time>
      </trkpt>
      <trkpt lat="45.80164" lon="3.57665">
        <ele>404</ele>
        <time>2021-02-21T13:24:59Z</time>
      </trkpt>
      <trkpt lat="45.80174" lon="3.57662">
        <ele>402</ele>
        <time>2021-02-21T13:25:07Z</time>
      </trkpt>
      <trkpt lat="45.8018" lon="3.57659">
        <ele>400</ele>
        <time>2021-02-21T13:25:12Z</time>
      </trkpt>
      <trkpt lat="45.80183" lon="3.57658">
        <ele>400</ele>
        <time>2021-02-21T13:25:14Z</time>
      </trkpt>
      <trkpt lat="45.80186" lon="3.57658">
        <ele>400</ele>
        <time>2021-02-21T13:25:16Z</time>
      </trkpt>
      <trkpt lat="45.80188" lon="3.57657">
        <ele>400</ele>
        <time>2021-02-21T13:25:19Z</time>
      </trkpt>
      <trkpt lat="45.8019" lon="3.57658">
        <ele>399</ele>
        <time>2021-02-21T13:25:21Z</time>
      </trkpt>
      <trkpt lat="45.80192" lon="3.57658">
        <ele>400</ele>
        <time>2021-02-21T13:25:23Z</time>
      </trkpt>
      <trkpt lat="45.80194" lon="3.57656">
        <ele>399</ele>
        <time>2021-02-21T13:25:25Z</time>
      </trkpt>
      <trkpt lat="45.80196" lon="3.57656">
        <ele>398</ele>
        <time>2021-02-21T13:25:27Z</time>
      </trkpt>
      <trkpt lat="45.80199" lon="3.57658">
        <ele>398</ele>
        <time>2021-02-21T13:25:29Z</time>
      </trkpt>
      <trkpt lat="45.80203" lon="3.57661">
        <ele>399</ele>
        <time>2021-02-21T13:25:31Z</time>
      </trkpt>
      <trkpt lat="45.80202" lon="3.57664">
        <ele>400</ele>
        <time>2021-02-21T13:25:39Z</time>
      </trkpt>
      <trkpt lat="45.80211" lon="3.57665">
        <ele>398</ele>
        <time>2021-02-21T13:25:47Z</time>
      </trkpt>
      <trkpt lat="45.80213" lon="3.57667">
        <ele>398</ele>
        <time>2021-02-21T13:25:50Z</time>
      </trkpt>
      <trkpt lat="45.80222" lon="3.57664">
        <ele>395</ele>
        <time>2021-02-21T13:25:58Z</time>
      </trkpt>
      <trkpt lat="45.80232" lon="3.57659">
        <ele>393</ele>
        <time>2021-02-21T13:26:07Z</time>
      </trkpt>
      <trkpt lat="45.80243" lon="3.5766">
        <ele>392</ele>
        <time>2021-02-21T13:26:14Z</time>
      </trkpt>
      <trkpt lat="45.80252" lon="3.5766">
        <ele>392</ele>
        <time>2021-02-21T13:26:23Z</time>
      </trkpt>
      <trkpt lat="45.80261" lon="3.57664">
        <ele>391</ele>
        <time>2021-02-21T13:26:31Z</time>
      </trkpt>
      <trkpt lat="45.8027" lon="3.57667">
        <ele>390</ele>
        <time>2021-02-21T13:26:37Z</time>
      </trkpt>
      <trkpt lat="45.80281" lon="3.57672">
        <ele>390</ele>
        <time>2021-02-21T13:26:43Z</time>
      </trkpt>
      <trkpt lat="45.80291" lon="3.57679">
        <ele>391</ele>
        <time>2021-02-21T13:26:46Z</time>
      </trkpt>
      <trkpt lat="45.80301" lon="3.57683">
        <ele>391</ele>
        <time>2021-02-21T13:26:49Z</time>
      </trkpt>
      <trkpt lat="45.80311" lon="3.57688">
        <ele>391</ele>
        <time>2021-02-21T13:26:54Z</time>
      </trkpt>
      <trkpt lat="45.80319" lon="3.57696">
        <ele>391</ele>
        <time>2021-02-21T13:26:59Z</time>
      </trkpt>
      <trkpt lat="45.80326" lon="3.57704">
        <ele>391</ele>
        <time>2021-02-21T13:27:07Z</time>
      </trkpt>
      <trkpt lat="45.8033" lon="3.57708">
        <ele>391</ele>
        <time>2021-02-21T13:27:11Z</time>
      </trkpt>
      <trkpt lat="45.80332" lon="3.5771">
        <ele>391</ele>
        <time>2021-02-21T13:27:13Z</time>
      </trkpt>
      <trkpt lat="45.80334" lon="3.57713">
        <ele>391</ele>
        <time>2021-02-21T13:27:15Z</time>
      </trkpt>
      <trkpt lat="45.80336" lon="3.57715">
        <ele>391</ele>
        <time>2021-02-21T13:27:17Z</time>
      </trkpt>
      <trkpt lat="45.80338" lon="3.57718">
        <ele>391</ele>
        <time>2021-02-21T13:27:18Z</time>
      </trkpt>
      <trkpt lat="45.80336" lon="3.57722">
        <ele>392</ele>
        <time>2021-02-21T13:27:19Z</time>
      </trkpt>
      <trkpt lat="45.80337" lon="3.57725">
        <ele>392</ele>
        <time>2021-02-21T13:27:21Z</time>
      </trkpt>
      <trkpt lat="45.80339" lon="3.57727">
        <ele>392</ele>
        <time>2021-02-21T13:27:23Z</time>
      </trkpt>
      <trkpt lat="45.8034" lon="3.57729">
        <ele>392</ele>
        <time>2021-02-21T13:27:25Z</time>
      </trkpt>
      <trkpt lat="45.80342" lon="3.57731">
        <ele>392</ele>
        <time>2021-02-21T13:27:28Z</time>
      </trkpt>
      <trkpt lat="45.80343" lon="3.57733">
        <ele>392</ele>
        <time>2021-02-21T13:27:30Z</time>
      </trkpt>
      <trkpt lat="45.80345" lon="3.57734">
        <ele>391</ele>
        <time>2021-02-21T13:27:33Z</time>
      </trkpt>
      <trkpt lat="45.80347" lon="3.57734">
        <ele>391</ele>
        <time>2021-02-21T13:27:37Z</time>
      </trkpt>
      <trkpt lat="45.80347" lon="3.57731">
        <ele>391</ele>
        <time>2021-02-21T13:27:45Z</time>
      </trkpt>
      <trkpt lat="45.8035" lon="3.57733">
        <ele>390</ele>
        <time>2021-02-21T13:27:51Z</time>
      </trkpt>
      <trkpt lat="45.80347" lon="3.57733">
        <ele>391</ele>
        <time>2021-02-21T13:27:56Z</time>
      </trkpt>
      <trkpt lat="45.80349" lon="3.57732">
        <ele>390</ele>
        <time>2021-02-21T13:28:00Z</time>
      </trkpt>
      <trkpt lat="45.80356" lon="3.57728">
        <ele>388</ele>
        <time>2021-02-21T13:28:08Z</time>
      </trkpt>
      <trkpt lat="45.80358" lon="3.57726">
        <ele>388</ele>
        <time>2021-02-21T13:28:10Z</time>
      </trkpt>
      <trkpt lat="45.80361" lon="3.57726">
        <ele>388</ele>
        <time>2021-02-21T13:28:12Z</time>
      </trkpt>
      <trkpt lat="45.80362" lon="3.57728">
        <ele>388</ele>
        <time>2021-02-21T13:28:14Z</time>
      </trkpt>
      <trkpt lat="45.80365" lon="3.57726">
        <ele>388</ele>
        <time>2021-02-21T13:28:19Z</time>
      </trkpt>
      <trkpt lat="45.80368" lon="3.57719">
        <ele>388</ele>
        <time>2021-02-21T13:28:24Z</time>
      </trkpt>
      <trkpt lat="45.80378" lon="3.57719">
        <ele>390</ele>
        <time>2021-02-21T13:28:33Z</time>
      </trkpt>
      <trkpt lat="45.80385" lon="3.57708">
        <ele>392</ele>
        <time>2021-02-21T13:28:43Z</time>
      </trkpt>
      <trkpt lat="45.80394" lon="3.57703">
        <ele>395</ele>
        <time>2021-02-21T13:28:51Z</time>
      </trkpt>
      <trkpt lat="45.80395" lon="3.57703">
        <ele>396</ele>
        <time>2021-02-21T13:28:52Z</time>
      </trkpt>
      <trkpt lat="45.80398" lon="3.57704">
        <ele>397</ele>
        <time>2021-02-21T13:28:54Z</time>
      </trkpt>
      <trkpt lat="45.804" lon="3.57704">
        <ele>397</ele>
        <time>2021-02-21T13:28:55Z</time>
      </trkpt>
      <trkpt lat="45.80402" lon="3.57704">
        <ele>398</ele>
        <time>2021-02-21T13:28:57Z</time>
      </trkpt>
      <trkpt lat="45.80403" lon="3.57705">
        <ele>398</ele>
        <time>2021-02-21T13:29:00Z</time>
      </trkpt>
      <trkpt lat="45.804" lon="3.57705">
        <ele>397</ele>
        <time>2021-02-21T13:29:04Z</time>
      </trkpt>
      <trkpt lat="45.80397" lon="3.57708">
        <ele>396</ele>
        <time>2021-02-21T13:29:19Z</time>
      </trkpt>
      <trkpt lat="45.80393" lon="3.5772">
        <ele>392</ele>
        <time>2021-02-21T13:29:23Z</time>
      </trkpt>
      <trkpt lat="45.80393" lon="3.57724">
        <ele>392</ele>
        <time>2021-02-21T13:29:37Z</time>
      </trkpt>
      <trkpt lat="45.80394" lon="3.57721">
        <ele>393</ele>
        <time>2021-02-21T13:29:44Z</time>
      </trkpt>
      <trkpt lat="45.80398" lon="3.57715">
        <ele>395</ele>
        <time>2021-02-21T13:29:51Z</time>
      </trkpt>
      <trkpt lat="45.80398" lon="3.57712">
        <ele>395</ele>
        <time>2021-02-21T13:29:53Z</time>
      </trkpt>
      <trkpt lat="45.80399" lon="3.57708">
        <ele>396</ele>
        <time>2021-02-21T13:29:55Z</time>
      </trkpt>
      <trkpt lat="45.80399" lon="3.57705">
        <ele>397</ele>
        <time>2021-02-21T13:29:59Z</time>
      </trkpt>
      <trkpt lat="45.80397" lon="3.57703">
        <ele>397</ele>
        <time>2021-02-21T13:30:02Z</time>
      </trkpt>
      <trkpt lat="45.80398" lon="3.57699">
        <ele>397</ele>
        <time>2021-02-21T13:30:05Z</time>
      </trkpt>
      <trkpt lat="45.80397" lon="3.57696">
        <ele>398</ele>
        <time>2021-02-21T13:30:08Z</time>
      </trkpt>
      <trkpt lat="45.80396" lon="3.57694">
        <ele>397</ele>
        <time>2021-02-21T13:30:11Z</time>
      </trkpt>
      <trkpt lat="45.80396" lon="3.5769">
        <ele>398</ele>
        <time>2021-02-21T13:30:13Z</time>
      </trkpt>
      <trkpt lat="45.80395" lon="3.57687">
        <ele>398</ele>
        <time>2021-02-21T13:30:15Z</time>
      </trkpt>
      <trkpt lat="45.80395" lon="3.57684">
        <ele>398</ele>
        <time>2021-02-21T13:30:17Z</time>
      </trkpt>
      <trkpt lat="45.80394" lon="3.57682">
        <ele>398</ele>
        <time>2021-02-21T13:30:19Z</time>
      </trkpt>
      <trkpt lat="45.80394" lon="3.57679">
        <ele>398</ele>
        <time>2021-02-21T13:30:21Z</time>
      </trkpt>
      <trkpt lat="45.80394" lon="3.57676">
        <ele>399</ele>
        <time>2021-02-21T13:30:23Z</time>
      </trkpt>
      <trkpt lat="45.80395" lon="3.57673">
        <ele>399</ele>
        <time>2021-02-21T13:30:25Z</time>
      </trkpt>
      <trkpt lat="45.80397" lon="3.57669">
        <ele>400</ele>
        <time>2021-02-21T13:30:27Z</time>
      </trkpt>
      <trkpt lat="45.80398" lon="3.57666">
        <ele>401</ele>
        <time>2021-02-21T13:30:29Z</time>
      </trkpt>
      <trkpt lat="45.80398" lon="3.57663">
        <ele>402</ele>
        <time>2021-02-21T13:30:31Z</time>
      </trkpt>
      <trkpt lat="45.80398" lon="3.57659">
        <ele>402</ele>
        <time>2021-02-21T13:30:33Z</time>
      </trkpt>
      <trkpt lat="45.80398" lon="3.57657">
        <ele>402</ele>
        <time>2021-02-21T13:30:35Z</time>
      </trkpt>
      <trkpt lat="45.80398" lon="3.57653">
        <ele>403</ele>
        <time>2021-02-21T13:30:37Z</time>
      </trkpt>
      <trkpt lat="45.80397" lon="3.57647">
        <ele>403</ele>
        <time>2021-02-21T13:30:40Z</time>
      </trkpt>
      <trkpt lat="45.80397" lon="3.57644">
        <ele>404</ele>
        <time>2021-02-21T13:30:42Z</time>
      </trkpt>
      <trkpt lat="45.80396" lon="3.5764">
        <ele>404</ele>
        <time>2021-02-21T13:30:45Z</time>
      </trkpt>
      <trkpt lat="45.80396" lon="3.57637">
        <ele>404</ele>
        <time>2021-02-21T13:30:47Z</time>
      </trkpt>
      <trkpt lat="45.80394" lon="3.57635">
        <ele>404</ele>
        <time>2021-02-21T13:30:49Z</time>
      </trkpt>
      <trkpt lat="45.80393" lon="3.57633">
        <ele>404</ele>
        <time>2021-02-21T13:30:52Z</time>
      </trkpt>
      <trkpt lat="45.80392" lon="3.5763">
        <ele>404</ele>
        <time>2021-02-21T13:30:55Z</time>
      </trkpt>
      <trkpt lat="45.80392" lon="3.57627">
        <ele>404</ele>
        <time>2021-02-21T13:30:57Z</time>
      </trkpt>
      <trkpt lat="45.80391" lon="3.57624">
        <ele>404</ele>
        <time>2021-02-21T13:30:59Z</time>
      </trkpt>
      <trkpt lat="45.80391" lon="3.57621">
        <ele>405</ele>
        <time>2021-02-21T13:31:01Z</time>
      </trkpt>
      <trkpt lat="45.80392" lon="3.57617">
        <ele>406</ele>
        <time>2021-02-21T13:31:03Z</time>
      </trkpt>
      <trkpt lat="45.80392" lon="3.57614">
        <ele>406</ele>
        <time>2021-02-21T13:31:05Z</time>
      </trkpt>
      <trkpt lat="45.80393" lon="3.57611">
        <ele>407</ele>
        <time>2021-02-21T13:31:07Z</time>
      </trkpt>
      <trkpt lat="45.80394" lon="3.57607">
        <ele>407</ele>
        <time>2021-02-21T13:31:09Z</time>
      </trkpt>
      <trkpt lat="45.80394" lon="3.57603">
        <ele>408</ele>
        <time>2021-02-21T13:31:11Z</time>
      </trkpt>
      <trkpt lat="45.80394" lon="3.57598">
        <ele>408</ele>
        <time>2021-02-21T13:31:14Z</time>
      </trkpt>
      <trkpt lat="45.80394" lon="3.57593">
        <ele>408</ele>
        <time>2021-02-21T13:31:17Z</time>
      </trkpt>
      <trkpt lat="45.80394" lon="3.57589">
        <ele>409</ele>
        <time>2021-02-21T13:31:19Z</time>
      </trkpt>
      <trkpt lat="45.80394" lon="3.57575">
        <ele>409</ele>
        <time>2021-02-21T13:31:26Z</time>
      </trkpt>
      <trkpt lat="45.80394" lon="3.57573">
        <ele>409</ele>
        <time>2021-02-21T13:31:28Z</time>
      </trkpt>
      <trkpt lat="45.80394" lon="3.5757">
        <ele>409</ele>
        <time>2021-02-21T13:31:30Z</time>
      </trkpt>
      <trkpt lat="45.80395" lon="3.57567">
        <ele>409</ele>
        <time>2021-02-21T13:31:32Z</time>
      </trkpt>
      <trkpt lat="45.80395" lon="3.57563">
        <ele>409</ele>
        <time>2021-02-21T13:31:34Z</time>
      </trkpt>
      <trkpt lat="45.80396" lon="3.57561">
        <ele>409</ele>
        <time>2021-02-21T13:31:36Z</time>
      </trkpt>
      <trkpt lat="45.80398" lon="3.57559">
        <ele>410</ele>
        <time>2021-02-21T13:31:38Z</time>
      </trkpt>
      <trkpt lat="45.80399" lon="3.57557">
        <ele>410</ele>
        <time>2021-02-21T13:31:40Z</time>
      </trkpt>
      <trkpt lat="45.80401" lon="3.57555">
        <ele>410</ele>
        <time>2021-02-21T13:31:42Z</time>
      </trkpt>
      <trkpt lat="45.80402" lon="3.57552">
        <ele>410</ele>
        <time>2021-02-21T13:31:45Z</time>
      </trkpt>
      <trkpt lat="45.80407" lon="3.57545">
        <ele>412</ele>
        <time>2021-02-21T13:31:51Z</time>
      </trkpt>
      <trkpt lat="45.80412" lon="3.57532">
        <ele>413</ele>
        <time>2021-02-21T13:31:58Z</time>
      </trkpt>
      <trkpt lat="45.80414" lon="3.5753">
        <ele>413</ele>
        <time>2021-02-21T13:32:00Z</time>
      </trkpt>
      <trkpt lat="45.80415" lon="3.57528">
        <ele>413</ele>
        <time>2021-02-21T13:32:02Z</time>
      </trkpt>
      <trkpt lat="45.80416" lon="3.57525">
        <ele>414</ele>
        <time>2021-02-21T13:32:05Z</time>
      </trkpt>
      <trkpt lat="45.80417" lon="3.57522">
        <ele>414</ele>
        <time>2021-02-21T13:32:07Z</time>
      </trkpt>
      <trkpt lat="45.80421" lon="3.57519">
        <ele>415</ele>
        <time>2021-02-21T13:32:11Z</time>
      </trkpt>
      <trkpt lat="45.80428" lon="3.5751">
        <ele>417</ele>
        <time>2021-02-21T13:32:20Z</time>
      </trkpt>
      <trkpt lat="45.80435" lon="3.57507">
        <ele>419</ele>
        <time>2021-02-21T13:32:29Z</time>
      </trkpt>
      <trkpt lat="45.80437" lon="3.57506">
        <ele>419</ele>
        <time>2021-02-21T13:32:31Z</time>
      </trkpt>
      <trkpt lat="45.8044" lon="3.57505">
        <ele>420</ele>
        <time>2021-02-21T13:32:34Z</time>
      </trkpt>
      <trkpt lat="45.80441" lon="3.57504">
        <ele>420</ele>
        <time>2021-02-21T13:32:36Z</time>
      </trkpt>
      <trkpt lat="45.80443" lon="3.57503">
        <ele>420</ele>
        <time>2021-02-21T13:32:39Z</time>
      </trkpt>
      <trkpt lat="45.80446" lon="3.57503">
        <ele>421</ele>
        <time>2021-02-21T13:32:42Z</time>
      </trkpt>
      <trkpt lat="45.80449" lon="3.57502">
        <ele>421</ele>
        <time>2021-02-21T13:32:45Z</time>
      </trkpt>
      <trkpt lat="45.80451" lon="3.57501">
        <ele>422</ele>
        <time>2021-02-21T13:32:47Z</time>
      </trkpt>
      <trkpt lat="45.80453" lon="3.57501">
        <ele>422</ele>
        <time>2021-02-21T13:32:49Z</time>
      </trkpt>
      <trkpt lat="45.80455" lon="3.575">
        <ele>423</ele>
        <time>2021-02-21T13:32:51Z</time>
      </trkpt>
      <trkpt lat="45.80457" lon="3.57499">
        <ele>423</ele>
        <time>2021-02-21T13:32:53Z</time>
      </trkpt>
      <trkpt lat="45.80459" lon="3.57497">
        <ele>423</ele>
        <time>2021-02-21T13:32:55Z</time>
      </trkpt>
      <trkpt lat="45.8046" lon="3.57494">
        <ele>423</ele>
        <time>2021-02-21T13:32:59Z</time>
      </trkpt>
      <trkpt lat="45.80468" lon="3.57486">
        <ele>424</ele>
        <time>2021-02-21T13:33:08Z</time>
      </trkpt>
      <trkpt lat="45.80477" lon="3.57477">
        <ele>424</ele>
        <time>2021-02-21T13:33:15Z</time>
      </trkpt>
      <trkpt lat="45.80481" lon="3.57464">
        <ele>424</ele>
        <time>2021-02-21T13:33:23Z</time>
      </trkpt>
      <trkpt lat="45.80483" lon="3.57462">
        <ele>424</ele>
        <time>2021-02-21T13:33:25Z</time>
      </trkpt>
      <trkpt lat="45.80484" lon="3.57459">
        <ele>424</ele>
        <time>2021-02-21T13:33:28Z</time>
      </trkpt>
      <trkpt lat="45.80486" lon="3.57457">
        <ele>424</ele>
        <time>2021-02-21T13:33:30Z</time>
      </trkpt>
      <trkpt lat="45.80488" lon="3.57456">
        <ele>424</ele>
        <time>2021-02-21T13:33:32Z</time>
      </trkpt>
      <trkpt lat="45.8049" lon="3.57454">
        <ele>424</ele>
        <time>2021-02-21T13:33:35Z</time>
      </trkpt>
      <trkpt lat="45.80491" lon="3.57453">
        <ele>424</ele>
        <time>2021-02-21T13:33:37Z</time>
      </trkpt>
      <trkpt lat="45.80493" lon="3.57451">
        <ele>424</ele>
        <time>2021-02-21T13:33:39Z</time>
      </trkpt>
      <trkpt lat="45.80495" lon="3.57451">
        <ele>424</ele>
        <time>2021-02-21T13:33:41Z</time>
      </trkpt>
      <trkpt lat="45.80497" lon="3.57449">
        <ele>424</ele>
        <time>2021-02-21T13:33:43Z</time>
      </trkpt>
      <trkpt lat="45.80499" lon="3.57447">
        <ele>424</ele>
        <time>2021-02-21T13:33:45Z</time>
      </trkpt>
      <trkpt lat="45.80501" lon="3.57448">
        <ele>424</ele>
        <time>2021-02-21T13:33:47Z</time>
      </trkpt>
      <trkpt lat="45.80503" lon="3.57449">
        <ele>425</ele>
        <time>2021-02-21T13:33:49Z</time>
      </trkpt>
      <trkpt lat="45.80506" lon="3.57449">
        <ele>425</ele>
        <time>2021-02-21T13:33:51Z</time>
      </trkpt>
      <trkpt lat="45.80508" lon="3.5745">
        <ele>426</ele>
        <time>2021-02-21T13:33:53Z</time>
      </trkpt>
      <trkpt lat="45.8051" lon="3.5745">
        <ele>426</ele>
        <time>2021-02-21T13:33:55Z</time>
      </trkpt>
      <trkpt lat="45.80512" lon="3.57449">
        <ele>427</ele>
        <time>2021-02-21T13:33:58Z</time>
      </trkpt>
      <trkpt lat="45.80514" lon="3.57447">
        <ele>427</ele>
        <time>2021-02-21T13:34:00Z</time>
      </trkpt>
      <trkpt lat="45.80515" lon="3.57446">
        <ele>427</ele>
        <time>2021-02-21T13:34:02Z</time>
      </trkpt>
      <trkpt lat="45.80517" lon="3.57443">
        <ele>427</ele>
        <time>2021-02-21T13:34:05Z</time>
      </trkpt>
      <trkpt lat="45.80519" lon="3.57441">
        <ele>427</ele>
        <time>2021-02-21T13:34:07Z</time>
      </trkpt>
      <trkpt lat="45.8052" lon="3.57439">
        <ele>428</ele>
        <time>2021-02-21T13:34:09Z</time>
      </trkpt>
      <trkpt lat="45.80522" lon="3.57438">
        <ele>428</ele>
        <time>2021-02-21T13:34:11Z</time>
      </trkpt>
      <trkpt lat="45.80524" lon="3.57438">
        <ele>428</ele>
        <time>2021-02-21T13:34:13Z</time>
      </trkpt>
      <trkpt lat="45.80525" lon="3.57437">
        <ele>428</ele>
        <time>2021-02-21T13:34:15Z</time>
      </trkpt>
      <trkpt lat="45.80527" lon="3.57435">
        <ele>429</ele>
        <time>2021-02-21T13:34:18Z</time>
      </trkpt>
      <trkpt lat="45.80529" lon="3.57433">
        <ele>429</ele>
        <time>2021-02-21T13:34:21Z</time>
      </trkpt>
      <trkpt lat="45.80531" lon="3.57432">
        <ele>429</ele>
        <time>2021-02-21T13:34:23Z</time>
      </trkpt>
      <trkpt lat="45.80533" lon="3.57431">
        <ele>430</ele>
        <time>2021-02-21T13:34:25Z</time>
      </trkpt>
      <trkpt lat="45.80535" lon="3.5743">
        <ele>430</ele>
        <time>2021-02-21T13:34:27Z</time>
      </trkpt>
      <trkpt lat="45.80537" lon="3.57429">
        <ele>430</ele>
        <time>2021-02-21T13:34:29Z</time>
      </trkpt>
      <trkpt lat="45.80539" lon="3.57428">
        <ele>431</ele>
        <time>2021-02-21T13:34:31Z</time>
      </trkpt>
      <trkpt lat="45.80541" lon="3.57427">
        <ele>431</ele>
        <time>2021-02-21T13:34:34Z</time>
      </trkpt>
      <trkpt lat="45.80543" lon="3.57425">
        <ele>431</ele>
        <time>2021-02-21T13:34:37Z</time>
      </trkpt>
      <trkpt lat="45.80545" lon="3.57423">
        <ele>431</ele>
        <time>2021-02-21T13:34:39Z</time>
      </trkpt>
      <trkpt lat="45.80547" lon="3.5742">
        <ele>431</ele>
        <time>2021-02-21T13:34:41Z</time>
      </trkpt>
      <trkpt lat="45.80549" lon="3.57419">
        <ele>431</ele>
        <time>2021-02-21T13:34:43Z</time>
      </trkpt>
      <trkpt lat="45.8055" lon="3.57417">
        <ele>432</ele>
        <time>2021-02-21T13:34:45Z</time>
      </trkpt>
      <trkpt lat="45.80552" lon="3.57415">
        <ele>432</ele>
        <time>2021-02-21T13:34:48Z</time>
      </trkpt>
      <trkpt lat="45.80554" lon="3.57413">
        <ele>432</ele>
        <time>2021-02-21T13:34:50Z</time>
      </trkpt>
      <trkpt lat="45.80556" lon="3.57411">
        <ele>433</ele>
        <time>2021-02-21T13:34:53Z</time>
      </trkpt>
      <trkpt lat="45.80557" lon="3.57408">
        <ele>433</ele>
        <time>2021-02-21T13:34:56Z</time>
      </trkpt>
      <trkpt lat="45.80559" lon="3.57406">
        <ele>433</ele>
        <time>2021-02-21T13:34:58Z</time>
      </trkpt>
      <trkpt lat="45.80561" lon="3.57403">
        <ele>434</ele>
        <time>2021-02-21T13:35:01Z</time>
      </trkpt>
      <trkpt lat="45.80562" lon="3.57401">
        <ele>434</ele>
        <time>2021-02-21T13:35:04Z</time>
      </trkpt>
      <trkpt lat="45.80564" lon="3.57399">
        <ele>434</ele>
        <time>2021-02-21T13:35:07Z</time>
      </trkpt>
      <trkpt lat="45.80566" lon="3.57396">
        <ele>435</ele>
        <time>2021-02-21T13:35:10Z</time>
      </trkpt>
      <trkpt lat="45.80567" lon="3.57393">
        <ele>435</ele>
        <time>2021-02-21T13:35:13Z</time>
      </trkpt>
      <trkpt lat="45.80568" lon="3.57392">
        <ele>435</ele>
        <time>2021-02-21T13:35:15Z</time>
      </trkpt>
      <trkpt lat="45.8057" lon="3.57389">
        <ele>435</ele>
        <time>2021-02-21T13:35:17Z</time>
      </trkpt>
      <trkpt lat="45.80571" lon="3.57387">
        <ele>435</ele>
        <time>2021-02-21T13:35:19Z</time>
      </trkpt>
      <trkpt lat="45.80572" lon="3.57384">
        <ele>435</ele>
        <time>2021-02-21T13:35:21Z</time>
      </trkpt>
      <trkpt lat="45.80573" lon="3.57381">
        <ele>436</ele>
        <time>2021-02-21T13:35:24Z</time>
      </trkpt>
      <trkpt lat="45.80574" lon="3.57379">
        <ele>436</ele>
        <time>2021-02-21T13:35:26Z</time>
      </trkpt>
      <trkpt lat="45.80575" lon="3.57375">
        <ele>436</ele>
        <time>2021-02-21T13:35:29Z</time>
      </trkpt>
      <trkpt lat="45.80576" lon="3.57373">
        <ele>436</ele>
        <time>2021-02-21T13:35:31Z</time>
      </trkpt>
      <trkpt lat="45.80578" lon="3.57371">
        <ele>437</ele>
        <time>2021-02-21T13:35:33Z</time>
      </trkpt>
      <trkpt lat="45.80578" lon="3.57369">
        <ele>437</ele>
        <time>2021-02-21T13:35:35Z</time>
      </trkpt>
      <trkpt lat="45.8058" lon="3.57367">
        <ele>437</ele>
        <time>2021-02-21T13:35:37Z</time>
      </trkpt>
      <trkpt lat="45.80582" lon="3.57364">
        <ele>437</ele>
        <time>2021-02-21T13:35:40Z</time>
      </trkpt>
      <trkpt lat="45.80583" lon="3.57362">
        <ele>437</ele>
        <time>2021-02-21T13:35:43Z</time>
      </trkpt>
      <trkpt lat="45.80584" lon="3.57359">
        <ele>438</ele>
        <time>2021-02-21T13:35:46Z</time>
      </trkpt>
      <trkpt lat="45.80585" lon="3.57357">
        <ele>438</ele>
        <time>2021-02-21T13:35:48Z</time>
      </trkpt>
      <trkpt lat="45.80586" lon="3.57355">
        <ele>438</ele>
        <time>2021-02-21T13:35:50Z</time>
      </trkpt>
      <trkpt lat="45.80588" lon="3.57352">
        <ele>438</ele>
        <time>2021-02-21T13:35:52Z</time>
      </trkpt>
      <trkpt lat="45.80589" lon="3.5735">
        <ele>439</ele>
        <time>2021-02-21T13:35:54Z</time>
      </trkpt>
      <trkpt lat="45.8059" lon="3.57347">
        <ele>439</ele>
        <time>2021-02-21T13:35:57Z</time>
      </trkpt>
      <trkpt lat="45.80592" lon="3.57344">
        <ele>439</ele>
        <time>2021-02-21T13:35:59Z</time>
      </trkpt>
      <trkpt lat="45.80593" lon="3.57342">
        <ele>439</ele>
        <time>2021-02-21T13:36:01Z</time>
      </trkpt>
      <trkpt lat="45.80594" lon="3.5734">
        <ele>440</ele>
        <time>2021-02-21T13:36:03Z</time>
      </trkpt>
      <trkpt lat="45.80596" lon="3.57339">
        <ele>440</ele>
        <time>2021-02-21T13:36:05Z</time>
      </trkpt>
      <trkpt lat="45.80597" lon="3.57337">
        <ele>440</ele>
        <time>2021-02-21T13:36:07Z</time>
      </trkpt>
      <trkpt lat="45.80599" lon="3.57335">
        <ele>440</ele>
        <time>2021-02-21T13:36:09Z</time>
      </trkpt>
      <trkpt lat="45.806" lon="3.57332">
        <ele>440</ele>
        <time>2021-02-21T13:36:11Z</time>
      </trkpt>
      <trkpt lat="45.80601" lon="3.5733">
        <ele>440</ele>
        <time>2021-02-21T13:36:13Z</time>
      </trkpt>
      <trkpt lat="45.80603" lon="3.57329">
        <ele>440</ele>
        <time>2021-02-21T13:36:15Z</time>
      </trkpt>
      <trkpt lat="45.80605" lon="3.57327">
        <ele>441</ele>
        <time>2021-02-21T13:36:17Z</time>
      </trkpt>
      <trkpt lat="45.80606" lon="3.57323">
        <ele>441</ele>
        <time>2021-02-21T13:36:20Z</time>
      </trkpt>
      <trkpt lat="45.80607" lon="3.57321">
        <ele>441</ele>
        <time>2021-02-21T13:36:22Z</time>
      </trkpt>
      <trkpt lat="45.80608" lon="3.57318">
        <ele>441</ele>
        <time>2021-02-21T13:36:24Z</time>
      </trkpt>
      <trkpt lat="45.80609" lon="3.57315">
        <ele>441</ele>
        <time>2021-02-21T13:36:26Z</time>
      </trkpt>
      <trkpt lat="45.8061" lon="3.57313">
        <ele>441</ele>
        <time>2021-02-21T13:36:28Z</time>
      </trkpt>
      <trkpt lat="45.80609" lon="3.57309">
        <ele>441</ele>
        <time>2021-02-21T13:36:30Z</time>
      </trkpt>
      <trkpt lat="45.80608" lon="3.57305">
        <ele>441</ele>
        <time>2021-02-21T13:36:32Z</time>
      </trkpt>
      <trkpt lat="45.80605" lon="3.57303">
        <ele>441</ele>
        <time>2021-02-21T13:36:34Z</time>
      </trkpt>
      <trkpt lat="45.80602" lon="3.57302">
        <ele>441</ele>
        <time>2021-02-21T13:36:36Z</time>
      </trkpt>
      <trkpt lat="45.80599" lon="3.57301">
        <ele>441</ele>
        <time>2021-02-21T13:36:38Z</time>
      </trkpt>
      <trkpt lat="45.80597" lon="3.57299">
        <ele>441</ele>
        <time>2021-02-21T13:36:40Z</time>
      </trkpt>
      <trkpt lat="45.80594" lon="3.57298">
        <ele>441</ele>
        <time>2021-02-21T13:36:42Z</time>
      </trkpt>
      <trkpt lat="45.80591" lon="3.57297">
        <ele>441</ele>
        <time>2021-02-21T13:36:44Z</time>
      </trkpt>
      <trkpt lat="45.80589" lon="3.57295">
        <ele>441</ele>
        <time>2021-02-21T13:36:46Z</time>
      </trkpt>
      <trkpt lat="45.80586" lon="3.57294">
        <ele>441</ele>
        <time>2021-02-21T13:36:48Z</time>
      </trkpt>
      <trkpt lat="45.80584" lon="3.57292">
        <ele>441</ele>
        <time>2021-02-21T13:36:50Z</time>
      </trkpt>
      <trkpt lat="45.80582" lon="3.57291">
        <ele>440</ele>
        <time>2021-02-21T13:36:52Z</time>
      </trkpt>
      <trkpt lat="45.80579" lon="3.57289">
        <ele>440</ele>
        <time>2021-02-21T13:36:54Z</time>
      </trkpt>
      <trkpt lat="45.80577" lon="3.57288">
        <ele>440</ele>
        <time>2021-02-21T13:36:56Z</time>
      </trkpt>
      <trkpt lat="45.80575" lon="3.57286">
        <ele>440</ele>
        <time>2021-02-21T13:36:58Z</time>
      </trkpt>
      <trkpt lat="45.80573" lon="3.57284">
        <ele>440</ele>
        <time>2021-02-21T13:37:00Z</time>
      </trkpt>
      <trkpt lat="45.80571" lon="3.57283">
        <ele>440</ele>
        <time>2021-02-21T13:37:02Z</time>
      </trkpt>
      <trkpt lat="45.80568" lon="3.57281">
        <ele>439</ele>
        <time>2021-02-21T13:37:04Z</time>
      </trkpt>
      <trkpt lat="45.80566" lon="3.57279">
        <ele>439</ele>
        <time>2021-02-21T13:37:06Z</time>
      </trkpt>
      <trkpt lat="45.80564" lon="3.57277">
        <ele>439</ele>
        <time>2021-02-21T13:37:08Z</time>
      </trkpt>
      <trkpt lat="45.80562" lon="3.57276">
        <ele>439</ele>
        <time>2021-02-21T13:37:10Z</time>
      </trkpt>
      <trkpt lat="45.80559" lon="3.57275">
        <ele>439</ele>
        <time>2021-02-21T13:37:12Z</time>
      </trkpt>
      <trkpt lat="45.80557" lon="3.57274">
        <ele>439</ele>
        <time>2021-02-21T13:37:14Z</time>
      </trkpt>
      <trkpt lat="45.80554" lon="3.57272">
        <ele>438</ele>
        <time>2021-02-21T13:37:16Z</time>
      </trkpt>
      <trkpt lat="45.80552" lon="3.57271">
        <ele>438</ele>
        <time>2021-02-21T13:37:18Z</time>
      </trkpt>
      <trkpt lat="45.8055" lon="3.57269">
        <ele>438</ele>
        <time>2021-02-21T13:37:20Z</time>
      </trkpt>
      <trkpt lat="45.80547" lon="3.57267">
        <ele>438</ele>
        <time>2021-02-21T13:37:22Z</time>
      </trkpt>
      <trkpt lat="45.80545" lon="3.57266">
        <ele>437</ele>
        <time>2021-02-21T13:37:24Z</time>
      </trkpt>
      <trkpt lat="45.80542" lon="3.57264">
        <ele>437</ele>
        <time>2021-02-21T13:37:26Z</time>
      </trkpt>
      <trkpt lat="45.8054" lon="3.57263">
        <ele>437</ele>
        <time>2021-02-21T13:37:28Z</time>
      </trkpt>
      <trkpt lat="45.80537" lon="3.57261">
        <ele>436</ele>
        <time>2021-02-21T13:37:30Z</time>
      </trkpt>
      <trkpt lat="45.80535" lon="3.5726">
        <ele>436</ele>
        <time>2021-02-21T13:37:32Z</time>
      </trkpt>
      <trkpt lat="45.80532" lon="3.57258">
        <ele>436</ele>
        <time>2021-02-21T13:37:34Z</time>
      </trkpt>
      <trkpt lat="45.8053" lon="3.57257">
        <ele>436</ele>
        <time>2021-02-21T13:37:36Z</time>
      </trkpt>
      <trkpt lat="45.80528" lon="3.57255">
        <ele>436</ele>
        <time>2021-02-21T13:37:38Z</time>
      </trkpt>
      <trkpt lat="45.80525" lon="3.57253">
        <ele>436</ele>
        <time>2021-02-21T13:37:40Z</time>
      </trkpt>
      <trkpt lat="45.80523" lon="3.57251">
        <ele>436</ele>
        <time>2021-02-21T13:37:42Z</time>
      </trkpt>
      <trkpt lat="45.80521" lon="3.57249">
        <ele>436</ele>
        <time>2021-02-21T13:37:44Z</time>
      </trkpt>
      <trkpt lat="45.80519" lon="3.57247">
        <ele>436</ele>
        <time>2021-02-21T13:37:46Z</time>
      </trkpt>
      <trkpt lat="45.80517" lon="3.57245">
        <ele>436</ele>
        <time>2021-02-21T13:37:48Z</time>
      </trkpt>
      <trkpt lat="45.80514" lon="3.57243">
        <ele>436</ele>
        <time>2021-02-21T13:37:50Z</time>
      </trkpt>
      <trkpt lat="45.80512" lon="3.5724">
        <ele>436</ele>
        <time>2021-02-21T13:37:52Z</time>
      </trkpt>
      <trkpt lat="45.8051" lon="3.57238">
        <ele>436</ele>
        <time>2021-02-21T13:37:54Z</time>
      </trkpt>
      <trkpt lat="45.80508" lon="3.57235">
        <ele>436</ele>
        <time>2021-02-21T13:37:56Z</time>
      </trkpt>
      <trkpt lat="45.80506" lon="3.57233">
        <ele>436</ele>
        <time>2021-02-21T13:37:58Z</time>
      </trkpt>
      <trkpt lat="45.80504" lon="3.5723">
        <ele>436</ele>
        <time>2021-02-21T13:38:00Z</time>
      </trkpt>
      <trkpt lat="45.80502" lon="3.57227">
        <ele>436</ele>
        <time>2021-02-21T13:38:02Z</time>
      </trkpt>
      <trkpt lat="45.805" lon="3.57225">
        <ele>437</ele>
        <time>2021-02-21T13:38:04Z</time>
      </trkpt>
      <trkpt lat="45.80498" lon="3.57222">
        <ele>437</ele>
        <time>2021-02-21T13:38:06Z</time>
      </trkpt>
      <trkpt lat="45.80496" lon="3.5722">
        <ele>437</ele>
        <time>2021-02-21T13:38:08Z</time>
      </trkpt>
      <trkpt lat="45.80494" lon="3.57217">
        <ele>437</ele>
        <time>2021-02-21T13:38:10Z</time>
      </trkpt>
      <trkpt lat="45.80493" lon="3.57214">
        <ele>437</ele>
        <time>2021-02-21T13:38:12Z</time>
      </trkpt>
      <trkpt lat="45.80491" lon="3.57211">
        <ele>437</ele>
        <time>2021-02-21T13:38:14Z</time>
      </trkpt>
      <trkpt lat="45.80489" lon="3.57208">
        <ele>437</ele>
        <time>2021-02-21T13:38:16Z</time>
      </trkpt>
      <trkpt lat="45.80487" lon="3.57206">
        <ele>437</ele>
        <time>2021-02-21T13:38:18Z</time>
      </trkpt>
      <trkpt lat="45.80486" lon="3.57203">
        <ele>437</ele>
        <time>2021-02-21T13:38:20Z</time>
      </trkpt>
      <trkpt lat="45.80485" lon="3.572">
        <ele>437</ele>
        <time>2021-02-21T13:38:22Z</time>
      </trkpt>
      <trkpt lat="45.80483" lon="3.57196">
        <ele>437</ele>
        <time>2021-02-21T13:38:24Z</time>
      </trkpt>
      <trkpt lat="45.80482" lon="3.57193">
        <ele>437</ele>
        <time>2021-02-21T13:38:26Z</time>
      </trkpt>
      <trkpt lat="45.8048" lon="3.5719">
        <ele>438</ele>
        <time>2021-02-21T13:38:28Z</time>
      </trkpt>
      <trkpt lat="45.80479" lon="3.57186">
        <ele>438</ele>
        <time>2021-02-21T13:38:30Z</time>
      </trkpt>
      <trkpt lat="45.80478" lon="3.57182">
        <ele>438</ele>
        <time>2021-02-21T13:38:32Z</time>
      </trkpt>
      <trkpt lat="45.80477" lon="3.57179">
        <ele>438</ele>
        <time>2021-02-21T13:38:34Z</time>
      </trkpt>
      <trkpt lat="45.80476" lon="3.57175">
        <ele>438</ele>
        <time>2021-02-21T13:38:36Z</time>
      </trkpt>
      <trkpt lat="45.80474" lon="3.57171">
        <ele>438</ele>
        <time>2021-02-21T13:38:38Z</time>
      </trkpt>
      <trkpt lat="45.80473" lon="3.57168">
        <ele>438</ele>
        <time>2021-02-21T13:38:40Z</time>
      </trkpt>
      <trkpt lat="45.80471" lon="3.57165">
        <ele>439</ele>
        <time>2021-02-21T13:38:42Z</time>
      </trkpt>
      <trkpt lat="45.8047" lon="3.57161">
        <ele>439</ele>
        <time>2021-02-21T13:38:44Z</time>
      </trkpt>
      <trkpt lat="45.80469" lon="3.57158">
        <ele>439</ele>
        <time>2021-02-21T13:38:46Z</time>
      </trkpt>
      <trkpt lat="45.80468" lon="3.57154">
        <ele>439</ele>
        <time>2021-02-21T13:38:48Z</time>
      </trkpt>
      <trkpt lat="45.80468" lon="3.5715">
        <ele>439</ele>
        <time>2021-02-21T13:38:50Z</time>
      </trkpt>
      <trkpt lat="45.80466" lon="3.57147">
        <ele>439</ele>
        <time>2021-02-21T13:38:52Z</time>
      </trkpt>
      <trkpt lat="45.80465" lon="3.57143">
        <ele>439</ele>
        <time>2021-02-21T13:38:54Z</time>
      </trkpt>
      <trkpt lat="45.80464" lon="3.5714">
        <ele>439</ele>
        <time>2021-02-21T13:38:56Z</time>
      </trkpt>
      <trkpt lat="45.80463" lon="3.57137">
        <ele>440</ele>
        <time>2021-02-21T13:38:58Z</time>
      </trkpt>
      <trkpt lat="45.80461" lon="3.57133">
        <ele>440</ele>
        <time>2021-02-21T13:39:00Z</time>
      </trkpt>
      <trkpt lat="45.8046" lon="3.5713">
        <ele>440</ele>
        <time>2021-02-21T13:39:02Z</time>
      </trkpt>
      <trkpt lat="45.80459" lon="3.57126">
        <ele>440</ele>
        <time>2021-02-21T13:39:04Z</time>
      </trkpt>
      <trkpt lat="45.80457" lon="3.57122">
        <ele>440</ele>
        <time>2021-02-21T13:39:06Z</time>
      </trkpt>
      <trkpt lat="45.80455" lon="3.57119">
        <ele>440</ele>
        <time>2021-02-21T13:39:08Z</time>
      </trkpt>
      <trkpt lat="45.80454" lon="3.57116">
        <ele>440</ele>
        <time>2021-02-21T13:39:10Z</time>
      </trkpt>
      <trkpt lat="45.80452" lon="3.57112">
        <ele>440</ele>
        <time>2021-02-21T13:39:12Z</time>
      </trkpt>
      <trkpt lat="45.80451" lon="3.57109">
        <ele>440</ele>
        <time>2021-02-21T13:39:14Z</time>
      </trkpt>
      <trkpt lat="45.80449" lon="3.57106">
        <ele>440</ele>
        <time>2021-02-21T13:39:16Z</time>
      </trkpt>
      <trkpt lat="45.80448" lon="3.57102">
        <ele>440</ele>
        <time>2021-02-21T13:39:18Z</time>
      </trkpt>
      <trkpt lat="45.80446" lon="3.57099">
        <ele>440</ele>
        <time>2021-02-21T13:39:20Z</time>
      </trkpt>
      <trkpt lat="45.80444" lon="3.57096">
        <ele>439</ele>
        <time>2021-02-21T13:39:22Z</time>
      </trkpt>
      <trkpt lat="45.80443" lon="3.57093">
        <ele>439</ele>
        <time>2021-02-21T13:39:24Z</time>
      </trkpt>
      <trkpt lat="45.80442" lon="3.57091">
        <ele>439</ele>
        <time>2021-02-21T13:39:27Z</time>
      </trkpt>
      <trkpt lat="45.8044" lon="3.57088">
        <ele>439</ele>
        <time>2021-02-21T13:39:30Z</time>
      </trkpt>
      <trkpt lat="45.80439" lon="3.57084">
        <ele>439</ele>
        <time>2021-02-21T13:39:32Z</time>
      </trkpt>
      <trkpt lat="45.80438" lon="3.57081">
        <ele>439</ele>
        <time>2021-02-21T13:39:34Z</time>
      </trkpt>
      <trkpt lat="45.80436" lon="3.57077">
        <ele>439</ele>
        <time>2021-02-21T13:39:36Z</time>
      </trkpt>
      <trkpt lat="45.80434" lon="3.57074">
        <ele>439</ele>
        <time>2021-02-21T13:39:38Z</time>
      </trkpt>
      <trkpt lat="45.80432" lon="3.57071">
        <ele>439</ele>
        <time>2021-02-21T13:39:40Z</time>
      </trkpt>
      <trkpt lat="45.8043" lon="3.57068">
        <ele>439</ele>
        <time>2021-02-21T13:39:42Z</time>
      </trkpt>
      <trkpt lat="45.80428" lon="3.57065">
        <ele>439</ele>
        <time>2021-02-21T13:39:44Z</time>
      </trkpt>
      <trkpt lat="45.80426" lon="3.57062">
        <ele>439</ele>
        <time>2021-02-21T13:39:46Z</time>
      </trkpt>
      <trkpt lat="45.80424" lon="3.5706">
        <ele>439</ele>
        <time>2021-02-21T13:39:48Z</time>
      </trkpt>
      <trkpt lat="45.80422" lon="3.57057">
        <ele>439</ele>
        <time>2021-02-21T13:39:50Z</time>
      </trkpt>
      <trkpt lat="45.8042" lon="3.57055">
        <ele>439</ele>
        <time>2021-02-21T13:39:52Z</time>
      </trkpt>
      <trkpt lat="45.80418" lon="3.57052">
        <ele>439</ele>
        <time>2021-02-21T13:39:54Z</time>
      </trkpt>
      <trkpt lat="45.80416" lon="3.57049">
        <ele>438</ele>
        <time>2021-02-21T13:39:56Z</time>
      </trkpt>
      <trkpt lat="45.80414" lon="3.57046">
        <ele>438</ele>
        <time>2021-02-21T13:39:58Z</time>
      </trkpt>
      <trkpt lat="45.80412" lon="3.57043">
        <ele>438</ele>
        <time>2021-02-21T13:40:00Z</time>
      </trkpt>
      <trkpt lat="45.80411" lon="3.57039">
        <ele>438</ele>
        <time>2021-02-21T13:40:02Z</time>
      </trkpt>
      <trkpt lat="45.8041" lon="3.57035">
        <ele>438</ele>
        <time>2021-02-21T13:40:04Z</time>
      </trkpt>
      <trkpt lat="45.8041" lon="3.57032">
        <ele>438</ele>
        <time>2021-02-21T13:40:06Z</time>
      </trkpt>
      <trkpt lat="45.8041" lon="3.57028">
        <ele>438</ele>
        <time>2021-02-21T13:40:08Z</time>
      </trkpt>
      <trkpt lat="45.80411" lon="3.57025">
        <ele>438</ele>
        <time>2021-02-21T13:40:10Z</time>
      </trkpt>
      <trkpt lat="45.80412" lon="3.57021">
        <ele>438</ele>
        <time>2021-02-21T13:40:12Z</time>
      </trkpt>
      <trkpt lat="45.80413" lon="3.57018">
        <ele>438</ele>
        <time>2021-02-21T13:40:14Z</time>
      </trkpt>
      <trkpt lat="45.80413" lon="3.57015">
        <ele>438</ele>
        <time>2021-02-21T13:40:16Z</time>
      </trkpt>
      <trkpt lat="45.80414" lon="3.57011">
        <ele>438</ele>
        <time>2021-02-21T13:40:18Z</time>
      </trkpt>
      <trkpt lat="45.80415" lon="3.57007">
        <ele>438</ele>
        <time>2021-02-21T13:40:20Z</time>
      </trkpt>
      <trkpt lat="45.80415" lon="3.57002">
        <ele>438</ele>
        <time>2021-02-21T13:40:22Z</time>
      </trkpt>
      <trkpt lat="45.80416" lon="3.56998">
        <ele>437</ele>
        <time>2021-02-21T13:40:24Z</time>
      </trkpt>
      <trkpt lat="45.80417" lon="3.56995">
        <ele>437</ele>
        <time>2021-02-21T13:40:26Z</time>
      </trkpt>
      <trkpt lat="45.80418" lon="3.56992">
        <ele>437</ele>
        <time>2021-02-21T13:40:28Z</time>
      </trkpt>
      <trkpt lat="45.80419" lon="3.56989">
        <ele>437</ele>
        <time>2021-02-21T13:40:30Z</time>
      </trkpt>
      <trkpt lat="45.8042" lon="3.56986">
        <ele>437</ele>
        <time>2021-02-21T13:40:32Z</time>
      </trkpt>
      <trkpt lat="45.8042" lon="3.56982">
        <ele>437</ele>
        <time>2021-02-21T13:40:34Z</time>
      </trkpt>
      <trkpt lat="45.8042" lon="3.5698">
        <ele>437</ele>
        <time>2021-02-21T13:40:35Z</time>
      </trkpt>
      <trkpt lat="45.80421" lon="3.56975">
        <ele>437</ele>
        <time>2021-02-21T13:40:37Z</time>
      </trkpt>
      <trkpt lat="45.80421" lon="3.5697">
        <ele>437</ele>
        <time>2021-02-21T13:40:39Z</time>
      </trkpt>
      <trkpt lat="45.80422" lon="3.56966">
        <ele>437</ele>
        <time>2021-02-21T13:40:41Z</time>
      </trkpt>
      <trkpt lat="45.80422" lon="3.56962">
        <ele>437</ele>
        <time>2021-02-21T13:40:43Z</time>
      </trkpt>
      <trkpt lat="45.80422" lon="3.56958">
        <ele>437</ele>
        <time>2021-02-21T13:40:45Z</time>
      </trkpt>
      <trkpt lat="45.80423" lon="3.56954">
        <ele>437</ele>
        <time>2021-02-21T13:40:47Z</time>
      </trkpt>
      <trkpt lat="45.80424" lon="3.5695">
        <ele>437</ele>
        <time>2021-02-21T13:40:49Z</time>
      </trkpt>
      <trkpt lat="45.80424" lon="3.56946">
        <ele>437</ele>
        <time>2021-02-21T13:40:51Z</time>
      </trkpt>
      <trkpt lat="45.80425" lon="3.56942">
        <ele>437</ele>
        <time>2021-02-21T13:40:53Z</time>
      </trkpt>
      <trkpt lat="45.80425" lon="3.56938">
        <ele>437</ele>
        <time>2021-02-21T13:40:55Z</time>
      </trkpt>
      <trkpt lat="45.80426" lon="3.56934">
        <ele>437</ele>
        <time>2021-02-21T13:40:57Z</time>
      </trkpt>
      <trkpt lat="45.80427" lon="3.5693">
        <ele>437</ele>
        <time>2021-02-21T13:40:59Z</time>
      </trkpt>
      <trkpt lat="45.80428" lon="3.56927">
        <ele>438</ele>
        <time>2021-02-21T13:41:01Z</time>
      </trkpt>
      <trkpt lat="45.80428" lon="3.56923">
        <ele>438</ele>
        <time>2021-02-21T13:41:03Z</time>
      </trkpt>
      <trkpt lat="45.80428" lon="3.56919">
        <ele>438</ele>
        <time>2021-02-21T13:41:05Z</time>
      </trkpt>
      <trkpt lat="45.80429" lon="3.56915">
        <ele>438</ele>
        <time>2021-02-21T13:41:07Z</time>
      </trkpt>
      <trkpt lat="45.8043" lon="3.56912">
        <ele>438</ele>
        <time>2021-02-21T13:41:09Z</time>
      </trkpt>
      <trkpt lat="45.8043" lon="3.56908">
        <ele>438</ele>
        <time>2021-02-21T13:41:11Z</time>
      </trkpt>
      <trkpt lat="45.80431" lon="3.56904">
        <ele>438</ele>
        <time>2021-02-21T13:41:13Z</time>
      </trkpt>
      <trkpt lat="45.80432" lon="3.56901">
        <ele>439</ele>
        <time>2021-02-21T13:41:15Z</time>
      </trkpt>
      <trkpt lat="45.80433" lon="3.56897">
        <ele>439</ele>
        <time>2021-02-21T13:41:17Z</time>
      </trkpt>
      <trkpt lat="45.80433" lon="3.56894">
        <ele>439</ele>
        <time>2021-02-21T13:41:19Z</time>
      </trkpt>
      <trkpt lat="45.80434" lon="3.56891">
        <ele>439</ele>
        <time>2021-02-21T13:41:21Z</time>
      </trkpt>
      <trkpt lat="45.80435" lon="3.56887">
        <ele>439</ele>
        <time>2021-02-21T13:41:23Z</time>
      </trkpt>
      <trkpt lat="45.80435" lon="3.56883">
        <ele>439</ele>
        <time>2021-02-21T13:41:25Z</time>
      </trkpt>
      <trkpt lat="45.80436" lon="3.5688">
        <ele>439</ele>
        <time>2021-02-21T13:41:27Z</time>
      </trkpt>
      <trkpt lat="45.80436" lon="3.56877">
        <ele>439</ele>
        <time>2021-02-21T13:41:28Z</time>
      </trkpt>
      <trkpt lat="45.80436" lon="3.56873">
        <ele>439</ele>
        <time>2021-02-21T13:41:30Z</time>
      </trkpt>
      <trkpt lat="45.80437" lon="3.56868">
        <ele>439</ele>
        <time>2021-02-21T13:41:32Z</time>
      </trkpt>
      <trkpt lat="45.80437" lon="3.56864">
        <ele>439</ele>
        <time>2021-02-21T13:41:34Z</time>
      </trkpt>
      <trkpt lat="45.80438" lon="3.5686">
        <ele>439</ele>
        <time>2021-02-21T13:41:36Z</time>
      </trkpt>
      <trkpt lat="45.80437" lon="3.56856">
        <ele>439</ele>
        <time>2021-02-21T13:41:38Z</time>
      </trkpt>
      <trkpt lat="45.80437" lon="3.56852">
        <ele>439</ele>
        <time>2021-02-21T13:41:40Z</time>
      </trkpt>
      <trkpt lat="45.80437" lon="3.56847">
        <ele>439</ele>
        <time>2021-02-21T13:41:42Z</time>
      </trkpt>
      <trkpt lat="45.80436" lon="3.56843">
        <ele>439</ele>
        <time>2021-02-21T13:41:44Z</time>
      </trkpt>
      <trkpt lat="45.80436" lon="3.56839">
        <ele>439</ele>
        <time>2021-02-21T13:41:46Z</time>
      </trkpt>
      <trkpt lat="45.80435" lon="3.56835">
        <ele>438</ele>
        <time>2021-02-21T13:41:48Z</time>
      </trkpt>
      <trkpt lat="45.80435" lon="3.56831">
        <ele>438</ele>
        <time>2021-02-21T13:41:50Z</time>
      </trkpt>
      <trkpt lat="45.80434" lon="3.56827">
        <ele>438</ele>
        <time>2021-02-21T13:41:52Z</time>
      </trkpt>
      <trkpt lat="45.80434" lon="3.56823">
        <ele>438</ele>
        <time>2021-02-21T13:41:54Z</time>
      </trkpt>
      <trkpt lat="45.80433" lon="3.56819">
        <ele>438</ele>
        <time>2021-02-21T13:41:56Z</time>
      </trkpt>
      <trkpt lat="45.80432" lon="3.56816">
        <ele>438</ele>
        <time>2021-02-21T13:41:58Z</time>
      </trkpt>
      <trkpt lat="45.80431" lon="3.56812">
        <ele>438</ele>
        <time>2021-02-21T13:42:00Z</time>
      </trkpt>
      <trkpt lat="45.8043" lon="3.56809">
        <ele>437</ele>
        <time>2021-02-21T13:42:02Z</time>
      </trkpt>
      <trkpt lat="45.80429" lon="3.56805">
        <ele>437</ele>
        <time>2021-02-21T13:42:04Z</time>
      </trkpt>
      <trkpt lat="45.80428" lon="3.56801">
        <ele>437</ele>
        <time>2021-02-21T13:42:06Z</time>
      </trkpt>
      <trkpt lat="45.80427" lon="3.56798">
        <ele>437</ele>
        <time>2021-02-21T13:42:08Z</time>
      </trkpt>
      <trkpt lat="45.80427" lon="3.56794">
        <ele>436</ele>
        <time>2021-02-21T13:42:10Z</time>
      </trkpt>
      <trkpt lat="45.80426" lon="3.56791">
        <ele>436</ele>
        <time>2021-02-21T13:42:12Z</time>
      </trkpt>
      <trkpt lat="45.80427" lon="3.56787">
        <ele>436</ele>
        <time>2021-02-21T13:42:14Z</time>
      </trkpt>
      <trkpt lat="45.80426" lon="3.56784">
        <ele>435</ele>
        <time>2021-02-21T13:42:16Z</time>
      </trkpt>
      <trkpt lat="45.80426" lon="3.5678">
        <ele>435</ele>
        <time>2021-02-21T13:42:18Z</time>
      </trkpt>
      <trkpt lat="45.80425" lon="3.56777">
        <ele>435</ele>
        <time>2021-02-21T13:42:20Z</time>
      </trkpt>
      <trkpt lat="45.80424" lon="3.56774">
        <ele>434</ele>
        <time>2021-02-21T13:42:22Z</time>
      </trkpt>
      <trkpt lat="45.80424" lon="3.5677">
        <ele>434</ele>
        <time>2021-02-21T13:42:24Z</time>
      </trkpt>
      <trkpt lat="45.80424" lon="3.56766">
        <ele>433</ele>
        <time>2021-02-21T13:42:26Z</time>
      </trkpt>
      <trkpt lat="45.80423" lon="3.56763">
        <ele>433</ele>
        <time>2021-02-21T13:42:28Z</time>
      </trkpt>
      <trkpt lat="45.80423" lon="3.56759">
        <ele>432</ele>
        <time>2021-02-21T13:42:30Z</time>
      </trkpt>
      <trkpt lat="45.80424" lon="3.56755">
        <ele>432</ele>
        <time>2021-02-21T13:42:32Z</time>
      </trkpt>
      <trkpt lat="45.80423" lon="3.56752">
        <ele>431</ele>
        <time>2021-02-21T13:42:34Z</time>
      </trkpt>
      <trkpt lat="45.80423" lon="3.56748">
        <ele>430</ele>
        <time>2021-02-21T13:42:36Z</time>
      </trkpt>
      <trkpt lat="45.80423" lon="3.56743">
        <ele>430</ele>
        <time>2021-02-21T13:42:38Z</time>
      </trkpt>
      <trkpt lat="45.80423" lon="3.56739">
        <ele>429</ele>
        <time>2021-02-21T13:42:40Z</time>
      </trkpt>
      <trkpt lat="45.80423" lon="3.56736">
        <ele>428</ele>
        <time>2021-02-21T13:42:42Z</time>
      </trkpt>
      <trkpt lat="45.80423" lon="3.56732">
        <ele>428</ele>
        <time>2021-02-21T13:42:44Z</time>
      </trkpt>
      <trkpt lat="45.80424" lon="3.56728">
        <ele>427</ele>
        <time>2021-02-21T13:42:46Z</time>
      </trkpt>
      <trkpt lat="45.80424" lon="3.56724">
        <ele>426</ele>
        <time>2021-02-21T13:42:48Z</time>
      </trkpt>
      <trkpt lat="45.80424" lon="3.5672">
        <ele>426</ele>
        <time>2021-02-21T13:42:50Z</time>
      </trkpt>
      <trkpt lat="45.80424" lon="3.56717">
        <ele>425</ele>
        <time>2021-02-21T13:42:52Z</time>
      </trkpt>
      <trkpt lat="45.80425" lon="3.56715">
        <ele>425</ele>
        <time>2021-02-21T13:42:54Z</time>
      </trkpt>
      <trkpt lat="45.80425" lon="3.56712">
        <ele>425</ele>
        <time>2021-02-21T13:42:56Z</time>
      </trkpt>
      <trkpt lat="45.80425" lon="3.56709">
        <ele>424</ele>
        <time>2021-02-21T13:42:58Z</time>
      </trkpt>
      <trkpt lat="45.80425" lon="3.56705">
        <ele>424</ele>
        <time>2021-02-21T13:43:00Z</time>
      </trkpt>
      <trkpt lat="45.80425" lon="3.56701">
        <ele>423</ele>
        <time>2021-02-21T13:43:02Z</time>
      </trkpt>
      <trkpt lat="45.80425" lon="3.56696">
        <ele>423</ele>
        <time>2021-02-21T13:43:04Z</time>
      </trkpt>
      <trkpt lat="45.80426" lon="3.56692">
        <ele>422</ele>
        <time>2021-02-21T13:43:06Z</time>
      </trkpt>
      <trkpt lat="45.80427" lon="3.56689">
        <ele>422</ele>
        <time>2021-02-21T13:43:08Z</time>
      </trkpt>
      <trkpt lat="45.80428" lon="3.56686">
        <ele>422</ele>
        <time>2021-02-21T13:43:10Z</time>
      </trkpt>
      <trkpt lat="45.80429" lon="3.56683">
        <ele>422</ele>
        <time>2021-02-21T13:43:12Z</time>
      </trkpt>
      <trkpt lat="45.8043" lon="3.56681">
        <ele>422</ele>
        <time>2021-02-21T13:43:14Z</time>
      </trkpt>
      <trkpt lat="45.80431" lon="3.56677">
        <ele>422</ele>
        <time>2021-02-21T13:43:16Z</time>
      </trkpt>
      <trkpt lat="45.80432" lon="3.56674">
        <ele>421</ele>
        <time>2021-02-21T13:43:18Z</time>
      </trkpt>
      <trkpt lat="45.80432" lon="3.5667">
        <ele>421</ele>
        <time>2021-02-21T13:43:20Z</time>
      </trkpt>
      <trkpt lat="45.80433" lon="3.56666">
        <ele>421</ele>
        <time>2021-02-21T13:43:22Z</time>
      </trkpt>
      <trkpt lat="45.80432" lon="3.56663">
        <ele>421</ele>
        <time>2021-02-21T13:43:24Z</time>
      </trkpt>
      <trkpt lat="45.80431" lon="3.56659">
        <ele>420</ele>
        <time>2021-02-21T13:43:26Z</time>
      </trkpt>
      <trkpt lat="45.80431" lon="3.56656">
        <ele>420</ele>
        <time>2021-02-21T13:43:27Z</time>
      </trkpt>
      <trkpt lat="45.80431" lon="3.56651">
        <ele>420</ele>
        <time>2021-02-21T13:43:29Z</time>
      </trkpt>
      <trkpt lat="45.80431" lon="3.56648">
        <ele>420</ele>
        <time>2021-02-21T13:43:30Z</time>
      </trkpt>
      <trkpt lat="45.80432" lon="3.56644">
        <ele>419</ele>
        <time>2021-02-21T13:43:32Z</time>
      </trkpt>
      <trkpt lat="45.80433" lon="3.56641">
        <ele>419</ele>
        <time>2021-02-21T13:43:34Z</time>
      </trkpt>
      <trkpt lat="45.80434" lon="3.56637">
        <ele>419</ele>
        <time>2021-02-21T13:43:36Z</time>
      </trkpt>
      <trkpt lat="45.80435" lon="3.56634">
        <ele>419</ele>
        <time>2021-02-21T13:43:38Z</time>
      </trkpt>
      <trkpt lat="45.80435" lon="3.5663">
        <ele>418</ele>
        <time>2021-02-21T13:43:40Z</time>
      </trkpt>
      <trkpt lat="45.80437" lon="3.56626">
        <ele>418</ele>
        <time>2021-02-21T13:43:42Z</time>
      </trkpt>
      <trkpt lat="45.80438" lon="3.56624">
        <ele>418</ele>
        <time>2021-02-21T13:43:44Z</time>
      </trkpt>
      <trkpt lat="45.80439" lon="3.5662">
        <ele>417</ele>
        <time>2021-02-21T13:43:46Z</time>
      </trkpt>
      <trkpt lat="45.80439" lon="3.56617">
        <ele>417</ele>
        <time>2021-02-21T13:43:48Z</time>
      </trkpt>
      <trkpt lat="45.8044" lon="3.56613">
        <ele>417</ele>
        <time>2021-02-21T13:43:50Z</time>
      </trkpt>
      <trkpt lat="45.80442" lon="3.5661">
        <ele>417</ele>
        <time>2021-02-21T13:43:52Z</time>
      </trkpt>
      <trkpt lat="45.80443" lon="3.56607">
        <ele>416</ele>
        <time>2021-02-21T13:43:54Z</time>
      </trkpt>
      <trkpt lat="45.80444" lon="3.56603">
        <ele>416</ele>
        <time>2021-02-21T13:43:56Z</time>
      </trkpt>
      <trkpt lat="45.80445" lon="3.566">
        <ele>416</ele>
        <time>2021-02-21T13:43:58Z</time>
      </trkpt>
      <trkpt lat="45.80446" lon="3.56597">
        <ele>416</ele>
        <time>2021-02-21T13:44:00Z</time>
      </trkpt>
      <trkpt lat="45.80447" lon="3.56593">
        <ele>416</ele>
        <time>2021-02-21T13:44:02Z</time>
      </trkpt>
      <trkpt lat="45.80447" lon="3.5659">
        <ele>416</ele>
        <time>2021-02-21T13:44:04Z</time>
      </trkpt>
      <trkpt lat="45.80448" lon="3.56586">
        <ele>416</ele>
        <time>2021-02-21T13:44:06Z</time>
      </trkpt>
      <trkpt lat="45.80449" lon="3.56582">
        <ele>415</ele>
        <time>2021-02-21T13:44:08Z</time>
      </trkpt>
      <trkpt lat="45.8045" lon="3.5658">
        <ele>415</ele>
        <time>2021-02-21T13:44:10Z</time>
      </trkpt>
      <trkpt lat="45.80452" lon="3.56576">
        <ele>415</ele>
        <time>2021-02-21T13:44:12Z</time>
      </trkpt>
      <trkpt lat="45.80452" lon="3.56572">
        <ele>415</ele>
        <time>2021-02-21T13:44:14Z</time>
      </trkpt>
      <trkpt lat="45.80454" lon="3.56567">
        <ele>415</ele>
        <time>2021-02-21T13:44:16Z</time>
      </trkpt>
      <trkpt lat="45.80454" lon="3.56563">
        <ele>415</ele>
        <time>2021-02-21T13:44:18Z</time>
      </trkpt>
      <trkpt lat="45.80454" lon="3.56559">
        <ele>414</ele>
        <time>2021-02-21T13:44:20Z</time>
      </trkpt>
      <trkpt lat="45.80454" lon="3.56555">
        <ele>414</ele>
        <time>2021-02-21T13:44:22Z</time>
      </trkpt>
      <trkpt lat="45.80454" lon="3.56552">
        <ele>414</ele>
        <time>2021-02-21T13:44:24Z</time>
      </trkpt>
      <trkpt lat="45.80453" lon="3.56547">
        <ele>414</ele>
        <time>2021-02-21T13:44:26Z</time>
      </trkpt>
      <trkpt lat="45.80452" lon="3.56544">
        <ele>413</ele>
        <time>2021-02-21T13:44:28Z</time>
      </trkpt>
      <trkpt lat="45.80452" lon="3.5654">
        <ele>413</ele>
        <time>2021-02-21T13:44:30Z</time>
      </trkpt>
      <trkpt lat="45.80452" lon="3.56536">
        <ele>413</ele>
        <time>2021-02-21T13:44:32Z</time>
      </trkpt>
      <trkpt lat="45.80451" lon="3.56533">
        <ele>413</ele>
        <time>2021-02-21T13:44:34Z</time>
      </trkpt>
      <trkpt lat="45.80451" lon="3.56529">
        <ele>412</ele>
        <time>2021-02-21T13:44:36Z</time>
      </trkpt>
      <trkpt lat="45.8045" lon="3.56526">
        <ele>412</ele>
        <time>2021-02-21T13:44:38Z</time>
      </trkpt>
      <trkpt lat="45.8045" lon="3.56523">
        <ele>412</ele>
        <time>2021-02-21T13:44:40Z</time>
      </trkpt>
      <trkpt lat="45.8045" lon="3.56519">
        <ele>411</ele>
        <time>2021-02-21T13:44:42Z</time>
      </trkpt>
      <trkpt lat="45.8045" lon="3.56516">
        <ele>411</ele>
        <time>2021-02-21T13:44:44Z</time>
      </trkpt>
      <trkpt lat="45.8045" lon="3.56512">
        <ele>410</ele>
        <time>2021-02-21T13:44:46Z</time>
      </trkpt>
      <trkpt lat="45.8045" lon="3.5651">
        <ele>410</ele>
        <time>2021-02-21T13:44:48Z</time>
      </trkpt>
      <trkpt lat="45.80449" lon="3.56506">
        <ele>410</ele>
        <time>2021-02-21T13:44:50Z</time>
      </trkpt>
      <trkpt lat="45.80449" lon="3.56502">
        <ele>409</ele>
        <time>2021-02-21T13:44:52Z</time>
      </trkpt>
      <trkpt lat="45.80449" lon="3.565">
        <ele>409</ele>
        <time>2021-02-21T13:44:53Z</time>
      </trkpt>
      <trkpt lat="45.80448" lon="3.56495">
        <ele>409</ele>
        <time>2021-02-21T13:44:55Z</time>
      </trkpt>
      <trkpt lat="45.80448" lon="3.56491">
        <ele>408</ele>
        <time>2021-02-21T13:44:57Z</time>
      </trkpt>
      <trkpt lat="45.80449" lon="3.56486">
        <ele>408</ele>
        <time>2021-02-21T13:44:59Z</time>
      </trkpt>
      <trkpt lat="45.80449" lon="3.56482">
        <ele>408</ele>
        <time>2021-02-21T13:45:01Z</time>
      </trkpt>
      <trkpt lat="45.8045" lon="3.56478">
        <ele>408</ele>
        <time>2021-02-21T13:45:03Z</time>
      </trkpt>
      <trkpt lat="45.8045" lon="3.56474">
        <ele>407</ele>
        <time>2021-02-21T13:45:05Z</time>
      </trkpt>
      <trkpt lat="45.80449" lon="3.5647">
        <ele>407</ele>
        <time>2021-02-21T13:45:07Z</time>
      </trkpt>
      <trkpt lat="45.80449" lon="3.56467">
        <ele>407</ele>
        <time>2021-02-21T13:45:09Z</time>
      </trkpt>
      <trkpt lat="45.8045" lon="3.56463">
        <ele>407</ele>
        <time>2021-02-21T13:45:11Z</time>
      </trkpt>
      <trkpt lat="45.8045" lon="3.5646">
        <ele>407</ele>
        <time>2021-02-21T13:45:13Z</time>
      </trkpt>
      <trkpt lat="45.8045" lon="3.56456">
        <ele>407</ele>
        <time>2021-02-21T13:45:15Z</time>
      </trkpt>
      <trkpt lat="45.80449" lon="3.56452">
        <ele>406</ele>
        <time>2021-02-21T13:45:17Z</time>
      </trkpt>
      <trkpt lat="45.80449" lon="3.56448">
        <ele>406</ele>
        <time>2021-02-21T13:45:19Z</time>
      </trkpt>
      <trkpt lat="45.8045" lon="3.56444">
        <ele>406</ele>
        <time>2021-02-21T13:45:21Z</time>
      </trkpt>
      <trkpt lat="45.8045" lon="3.5644">
        <ele>406</ele>
        <time>2021-02-21T13:45:23Z</time>
      </trkpt>
      <trkpt lat="45.8045" lon="3.56435">
        <ele>406</ele>
        <time>2021-02-21T13:45:25Z</time>
      </trkpt>
      <trkpt lat="45.8045" lon="3.56431">
        <ele>406</ele>
        <time>2021-02-21T13:45:27Z</time>
      </trkpt>
      <trkpt lat="45.8045" lon="3.56428">
        <ele>406</ele>
        <time>2021-02-21T13:45:29Z</time>
      </trkpt>
      <trkpt lat="45.8045" lon="3.56424">
        <ele>406</ele>
        <time>2021-02-21T13:45:31Z</time>
      </trkpt>
      <trkpt lat="45.8045" lon="3.5642">
        <ele>406</ele>
        <time>2021-02-21T13:45:33Z</time>
      </trkpt>
      <trkpt lat="45.8045" lon="3.56417">
        <ele>406</ele>
        <time>2021-02-21T13:45:35Z</time>
      </trkpt>
      <trkpt lat="45.80449" lon="3.56413">
        <ele>406</ele>
        <time>2021-02-21T13:45:37Z</time>
      </trkpt>
      <trkpt lat="45.80447" lon="3.5641">
        <ele>406</ele>
        <time>2021-02-21T13:45:39Z</time>
      </trkpt>
      <trkpt lat="45.80446" lon="3.56407">
        <ele>406</ele>
        <time>2021-02-21T13:45:41Z</time>
      </trkpt>
      <trkpt lat="45.80445" lon="3.56404">
        <ele>406</ele>
        <time>2021-02-21T13:45:43Z</time>
      </trkpt>
      <trkpt lat="45.80445" lon="3.56401">
        <ele>406</ele>
        <time>2021-02-21T13:45:45Z</time>
      </trkpt>
      <trkpt lat="45.80446" lon="3.56398">
        <ele>406</ele>
        <time>2021-02-21T13:45:46Z</time>
      </trkpt>
      <trkpt lat="45.80446" lon="3.56395">
        <ele>406</ele>
        <time>2021-02-21T13:45:47Z</time>
      </trkpt>
      <trkpt lat="45.80446" lon="3.56382">
        <ele>406</ele>
        <time>2021-02-21T13:45:54Z</time>
      </trkpt>
      <trkpt lat="45.80444" lon="3.56369">
        <ele>405</ele>
        <time>2021-02-21T13:46:02Z</time>
      </trkpt>
      <trkpt lat="45.80443" lon="3.56366">
        <ele>405</ele>
        <time>2021-02-21T13:46:04Z</time>
      </trkpt>
      <trkpt lat="45.80442" lon="3.56362">
        <ele>405</ele>
        <time>2021-02-21T13:46:06Z</time>
      </trkpt>
      <trkpt lat="45.80441" lon="3.56358">
        <ele>405</ele>
        <time>2021-02-21T13:46:08Z</time>
      </trkpt>
      <trkpt lat="45.8044" lon="3.56354">
        <ele>405</ele>
        <time>2021-02-21T13:46:10Z</time>
      </trkpt>
      <trkpt lat="45.8044" lon="3.56351">
        <ele>405</ele>
        <time>2021-02-21T13:46:12Z</time>
      </trkpt>
      <trkpt lat="45.80439" lon="3.56348">
        <ele>405</ele>
        <time>2021-02-21T13:46:14Z</time>
      </trkpt>
      <trkpt lat="45.80439" lon="3.56344">
        <ele>404</ele>
        <time>2021-02-21T13:46:16Z</time>
      </trkpt>
      <trkpt lat="45.80437" lon="3.5634">
        <ele>404</ele>
        <time>2021-02-21T13:46:18Z</time>
      </trkpt>
      <trkpt lat="45.80436" lon="3.56338">
        <ele>404</ele>
        <time>2021-02-21T13:46:20Z</time>
      </trkpt>
      <trkpt lat="45.80436" lon="3.56334">
        <ele>404</ele>
        <time>2021-02-21T13:46:22Z</time>
      </trkpt>
      <trkpt lat="45.80436" lon="3.5633">
        <ele>404</ele>
        <time>2021-02-21T13:46:24Z</time>
      </trkpt>
      <trkpt lat="45.80435" lon="3.56327">
        <ele>403</ele>
        <time>2021-02-21T13:46:26Z</time>
      </trkpt>
      <trkpt lat="45.80436" lon="3.56324">
        <ele>403</ele>
        <time>2021-02-21T13:46:28Z</time>
      </trkpt>
      <trkpt lat="45.80436" lon="3.5632">
        <ele>403</ele>
        <time>2021-02-21T13:46:30Z</time>
      </trkpt>
      <trkpt lat="45.80436" lon="3.56316">
        <ele>403</ele>
        <time>2021-02-21T13:46:32Z</time>
      </trkpt>
      <trkpt lat="45.80437" lon="3.56311">
        <ele>402</ele>
        <time>2021-02-21T13:46:34Z</time>
      </trkpt>
      <trkpt lat="45.80438" lon="3.56299">
        <ele>402</ele>
        <time>2021-02-21T13:46:39Z</time>
      </trkpt>
      <trkpt lat="45.80438" lon="3.56297">
        <ele>402</ele>
        <time>2021-02-21T13:46:40Z</time>
      </trkpt>
      <trkpt lat="45.80438" lon="3.56292">
        <ele>401</ele>
        <time>2021-02-21T13:46:42Z</time>
      </trkpt>
      <trkpt lat="45.80438" lon="3.56287">
        <ele>401</ele>
        <time>2021-02-21T13:46:44Z</time>
      </trkpt>
      <trkpt lat="45.80438" lon="3.56282">
        <ele>401</ele>
        <time>2021-02-21T13:46:46Z</time>
      </trkpt>
      <trkpt lat="45.80439" lon="3.56277">
        <ele>401</ele>
        <time>2021-02-21T13:46:48Z</time>
      </trkpt>
      <trkpt lat="45.80439" lon="3.56273">
        <ele>401</ele>
        <time>2021-02-21T13:46:50Z</time>
      </trkpt>
      <trkpt lat="45.8044" lon="3.56269">
        <ele>401</ele>
        <time>2021-02-21T13:46:52Z</time>
      </trkpt>
      <trkpt lat="45.8044" lon="3.56266">
        <ele>400</ele>
        <time>2021-02-21T13:46:54Z</time>
      </trkpt>
      <trkpt lat="45.80441" lon="3.56262">
        <ele>400</ele>
        <time>2021-02-21T13:46:56Z</time>
      </trkpt>
      <trkpt lat="45.80442" lon="3.56258">
        <ele>400</ele>
        <time>2021-02-21T13:46:58Z</time>
      </trkpt>
      <trkpt lat="45.80443" lon="3.56254">
        <ele>400</ele>
        <time>2021-02-21T13:47:00Z</time>
      </trkpt>
      <trkpt lat="45.80443" lon="3.56249">
        <ele>399</ele>
        <time>2021-02-21T13:47:02Z</time>
      </trkpt>
      <trkpt lat="45.80444" lon="3.56246">
        <ele>399</ele>
        <time>2021-02-21T13:47:04Z</time>
      </trkpt>
      <trkpt lat="45.80445" lon="3.56242">
        <ele>399</ele>
        <time>2021-02-21T13:47:06Z</time>
      </trkpt>
      <trkpt lat="45.80446" lon="3.5624">
        <ele>399</ele>
        <time>2021-02-21T13:47:08Z</time>
      </trkpt>
      <trkpt lat="45.80447" lon="3.56236">
        <ele>399</ele>
        <time>2021-02-21T13:47:10Z</time>
      </trkpt>
      <trkpt lat="45.80448" lon="3.56232">
        <ele>398</ele>
        <time>2021-02-21T13:47:12Z</time>
      </trkpt>
      <trkpt lat="45.80448" lon="3.56228">
        <ele>398</ele>
        <time>2021-02-21T13:47:14Z</time>
      </trkpt>
      <trkpt lat="45.80449" lon="3.56224">
        <ele>398</ele>
        <time>2021-02-21T13:47:16Z</time>
      </trkpt>
      <trkpt lat="45.8045" lon="3.5622">
        <ele>398</ele>
        <time>2021-02-21T13:47:18Z</time>
      </trkpt>
      <trkpt lat="45.80452" lon="3.56217">
        <ele>398</ele>
        <time>2021-02-21T13:47:20Z</time>
      </trkpt>
      <trkpt lat="45.80454" lon="3.56213">
        <ele>398</ele>
        <time>2021-02-21T13:47:22Z</time>
      </trkpt>
      <trkpt lat="45.80455" lon="3.56208">
        <ele>398</ele>
        <time>2021-02-21T13:47:24Z</time>
      </trkpt>
      <trkpt lat="45.80457" lon="3.56205">
        <ele>398</ele>
        <time>2021-02-21T13:47:26Z</time>
      </trkpt>
      <trkpt lat="45.80458" lon="3.56201">
        <ele>398</ele>
        <time>2021-02-21T13:47:28Z</time>
      </trkpt>
      <trkpt lat="45.8046" lon="3.56198">
        <ele>398</ele>
        <time>2021-02-21T13:47:30Z</time>
      </trkpt>
      <trkpt lat="45.80461" lon="3.56194">
        <ele>398</ele>
        <time>2021-02-21T13:47:32Z</time>
      </trkpt>
      <trkpt lat="45.80462" lon="3.56191">
        <ele>398</ele>
        <time>2021-02-21T13:47:34Z</time>
      </trkpt>
      <trkpt lat="45.80462" lon="3.56187">
        <ele>397</ele>
        <time>2021-02-21T13:47:36Z</time>
      </trkpt>
      <trkpt lat="45.80463" lon="3.56182">
        <ele>397</ele>
        <time>2021-02-21T13:47:38Z</time>
      </trkpt>
      <trkpt lat="45.80464" lon="3.56179">
        <ele>397</ele>
        <time>2021-02-21T13:47:40Z</time>
      </trkpt>
      <trkpt lat="45.80465" lon="3.56175">
        <ele>397</ele>
        <time>2021-02-21T13:47:42Z</time>
      </trkpt>
      <trkpt lat="45.80467" lon="3.56172">
        <ele>397</ele>
        <time>2021-02-21T13:47:44Z</time>
      </trkpt>
      <trkpt lat="45.80468" lon="3.56168">
        <ele>396</ele>
        <time>2021-02-21T13:47:46Z</time>
      </trkpt>
      <trkpt lat="45.80469" lon="3.56166">
        <ele>396</ele>
        <time>2021-02-21T13:47:48Z</time>
      </trkpt>
      <trkpt lat="45.8047" lon="3.56162">
        <ele>396</ele>
        <time>2021-02-21T13:47:50Z</time>
      </trkpt>
      <trkpt lat="45.80472" lon="3.56159">
        <ele>396</ele>
        <time>2021-02-21T13:47:52Z</time>
      </trkpt>
      <trkpt lat="45.80473" lon="3.56155">
        <ele>396</ele>
        <time>2021-02-21T13:47:54Z</time>
      </trkpt>
      <trkpt lat="45.80474" lon="3.56152">
        <ele>395</ele>
        <time>2021-02-21T13:47:56Z</time>
      </trkpt>
      <trkpt lat="45.80475" lon="3.56149">
        <ele>395</ele>
        <time>2021-02-21T13:47:58Z</time>
      </trkpt>
      <trkpt lat="45.80476" lon="3.56145">
        <ele>395</ele>
        <time>2021-02-21T13:48:00Z</time>
      </trkpt>
      <trkpt lat="45.80477" lon="3.56142">
        <ele>395</ele>
        <time>2021-02-21T13:48:02Z</time>
      </trkpt>
      <trkpt lat="45.80477" lon="3.56138">
        <ele>394</ele>
        <time>2021-02-21T13:48:04Z</time>
      </trkpt>
      <trkpt lat="45.80477" lon="3.56134">
        <ele>394</ele>
        <time>2021-02-21T13:48:06Z</time>
      </trkpt>
      <trkpt lat="45.80477" lon="3.5613">
        <ele>393</ele>
        <time>2021-02-21T13:48:08Z</time>
      </trkpt>
      <trkpt lat="45.80477" lon="3.56126">
        <ele>393</ele>
        <time>2021-02-21T13:48:10Z</time>
      </trkpt>
      <trkpt lat="45.80478" lon="3.56123">
        <ele>393</ele>
        <time>2021-02-21T13:48:12Z</time>
      </trkpt>
      <trkpt lat="45.80478" lon="3.56119">
        <ele>392</ele>
        <time>2021-02-21T13:48:14Z</time>
      </trkpt>
      <trkpt lat="45.80478" lon="3.56116">
        <ele>392</ele>
        <time>2021-02-21T13:48:16Z</time>
      </trkpt>
      <trkpt lat="45.80478" lon="3.56113">
        <ele>391</ele>
        <time>2021-02-21T13:48:18Z</time>
      </trkpt>
      <trkpt lat="45.80478" lon="3.56109">
        <ele>391</ele>
        <time>2021-02-21T13:48:20Z</time>
      </trkpt>
      <trkpt lat="45.80479" lon="3.56105">
        <ele>391</ele>
        <time>2021-02-21T13:48:22Z</time>
      </trkpt>
      <trkpt lat="45.80479" lon="3.56102">
        <ele>391</ele>
        <time>2021-02-21T13:48:23Z</time>
      </trkpt>
      <trkpt lat="45.80479" lon="3.56098">
        <ele>391</ele>
        <time>2021-02-21T13:48:25Z</time>
      </trkpt>
      <trkpt lat="45.80479" lon="3.56094">
        <ele>391</ele>
        <time>2021-02-21T13:48:27Z</time>
      </trkpt>
      <trkpt lat="45.80479" lon="3.56091">
        <ele>391</ele>
        <time>2021-02-21T13:48:29Z</time>
      </trkpt>
      <trkpt lat="45.8048" lon="3.56087">
        <ele>390</ele>
        <time>2021-02-21T13:48:31Z</time>
      </trkpt>
      <trkpt lat="45.8048" lon="3.56084">
        <ele>390</ele>
        <time>2021-02-21T13:48:33Z</time>
      </trkpt>
      <trkpt lat="45.8048" lon="3.5608">
        <ele>390</ele>
        <time>2021-02-21T13:48:35Z</time>
      </trkpt>
      <trkpt lat="45.8048" lon="3.56076">
        <ele>390</ele>
        <time>2021-02-21T13:48:37Z</time>
      </trkpt>
      <trkpt lat="45.80481" lon="3.56072">
        <ele>390</ele>
        <time>2021-02-21T13:48:39Z</time>
      </trkpt>
      <trkpt lat="45.80481" lon="3.56068">
        <ele>390</ele>
        <time>2021-02-21T13:48:41Z</time>
      </trkpt>
      <trkpt lat="45.80481" lon="3.56064">
        <ele>390</ele>
        <time>2021-02-21T13:48:43Z</time>
      </trkpt>
      <trkpt lat="45.80481" lon="3.56061">
        <ele>390</ele>
        <time>2021-02-21T13:48:45Z</time>
      </trkpt>
      <trkpt lat="45.80482" lon="3.56057">
        <ele>390</ele>
        <time>2021-02-21T13:48:47Z</time>
      </trkpt>
      <trkpt lat="45.80482" lon="3.56053">
        <ele>391</ele>
        <time>2021-02-21T13:48:49Z</time>
      </trkpt>
      <trkpt lat="45.80482" lon="3.56049">
        <ele>391</ele>
        <time>2021-02-21T13:48:51Z</time>
      </trkpt>
      <trkpt lat="45.80483" lon="3.56045">
        <ele>391</ele>
        <time>2021-02-21T13:48:53Z</time>
      </trkpt>
      <trkpt lat="45.80482" lon="3.56041">
        <ele>391</ele>
        <time>2021-02-21T13:48:55Z</time>
      </trkpt>
      <trkpt lat="45.80482" lon="3.56037">
        <ele>391</ele>
        <time>2021-02-21T13:48:57Z</time>
      </trkpt>
      <trkpt lat="45.80483" lon="3.56034">
        <ele>391</ele>
        <time>2021-02-21T13:48:59Z</time>
      </trkpt>
      <trkpt lat="45.80485" lon="3.56033">
        <ele>391</ele>
        <time>2021-02-21T13:49:01Z</time>
      </trkpt>
      <trkpt lat="45.80487" lon="3.56032">
        <ele>391</ele>
        <time>2021-02-21T13:49:03Z</time>
      </trkpt>
      <trkpt lat="45.80489" lon="3.5603">
        <ele>391</ele>
        <time>2021-02-21T13:49:05Z</time>
      </trkpt>
      <trkpt lat="45.80491" lon="3.56027">
        <ele>392</ele>
        <time>2021-02-21T13:49:07Z</time>
      </trkpt>
      <trkpt lat="45.80493" lon="3.56024">
        <ele>392</ele>
        <time>2021-02-21T13:49:09Z</time>
      </trkpt>
      <trkpt lat="45.80495" lon="3.5602">
        <ele>392</ele>
        <time>2021-02-21T13:49:11Z</time>
      </trkpt>
      <trkpt lat="45.80496" lon="3.56017">
        <ele>392</ele>
        <time>2021-02-21T13:49:13Z</time>
      </trkpt>
      <trkpt lat="45.80497" lon="3.56014">
        <ele>392</ele>
        <time>2021-02-21T13:49:15Z</time>
      </trkpt>
      <trkpt lat="45.80499" lon="3.56011">
        <ele>392</ele>
        <time>2021-02-21T13:49:17Z</time>
      </trkpt>
      <trkpt lat="45.805" lon="3.56008">
        <ele>392</ele>
        <time>2021-02-21T13:49:19Z</time>
      </trkpt>
      <trkpt lat="45.80501" lon="3.56005">
        <ele>392</ele>
        <time>2021-02-21T13:49:21Z</time>
      </trkpt>
      <trkpt lat="45.80503" lon="3.56002">
        <ele>392</ele>
        <time>2021-02-21T13:49:23Z</time>
      </trkpt>
      <trkpt lat="45.80504" lon="3.55998">
        <ele>392</ele>
        <time>2021-02-21T13:49:25Z</time>
      </trkpt>
      <trkpt lat="45.80506" lon="3.55994">
        <ele>392</ele>
        <time>2021-02-21T13:49:27Z</time>
      </trkpt>
      <trkpt lat="45.80507" lon="3.5599">
        <ele>392</ele>
        <time>2021-02-21T13:49:29Z</time>
      </trkpt>
      <trkpt lat="45.80508" lon="3.55986">
        <ele>391</ele>
        <time>2021-02-21T13:49:31Z</time>
      </trkpt>
      <trkpt lat="45.80509" lon="3.55983">
        <ele>391</ele>
        <time>2021-02-21T13:49:33Z</time>
      </trkpt>
      <trkpt lat="45.8051" lon="3.5598">
        <ele>391</ele>
        <time>2021-02-21T13:49:36Z</time>
      </trkpt>
      <trkpt lat="45.80511" lon="3.55977">
        <ele>391</ele>
        <time>2021-02-21T13:49:38Z</time>
      </trkpt>
      <trkpt lat="45.80512" lon="3.55974">
        <ele>391</ele>
        <time>2021-02-21T13:49:40Z</time>
      </trkpt>
      <trkpt lat="45.80514" lon="3.5597">
        <ele>390</ele>
        <time>2021-02-21T13:49:42Z</time>
      </trkpt>
      <trkpt lat="45.80514" lon="3.55967">
        <ele>390</ele>
        <time>2021-02-21T13:49:44Z</time>
      </trkpt>
      <trkpt lat="45.80515" lon="3.55964">
        <ele>390</ele>
        <time>2021-02-21T13:49:46Z</time>
      </trkpt>
      <trkpt lat="45.80517" lon="3.55961">
        <ele>390</ele>
        <time>2021-02-21T13:49:48Z</time>
      </trkpt>
      <trkpt lat="45.80518" lon="3.55958">
        <ele>390</ele>
        <time>2021-02-21T13:49:50Z</time>
      </trkpt>
      <trkpt lat="45.80519" lon="3.55954">
        <ele>389</ele>
        <time>2021-02-21T13:49:52Z</time>
      </trkpt>
      <trkpt lat="45.8052" lon="3.5595">
        <ele>389</ele>
        <time>2021-02-21T13:49:54Z</time>
      </trkpt>
      <trkpt lat="45.80521" lon="3.55947">
        <ele>389</ele>
        <time>2021-02-21T13:49:56Z</time>
      </trkpt>
      <trkpt lat="45.80522" lon="3.55943">
        <ele>389</ele>
        <time>2021-02-21T13:49:58Z</time>
      </trkpt>
      <trkpt lat="45.80523" lon="3.55939">
        <ele>389</ele>
        <time>2021-02-21T13:50:00Z</time>
      </trkpt>
      <trkpt lat="45.80524" lon="3.55935">
        <ele>389</ele>
        <time>2021-02-21T13:50:02Z</time>
      </trkpt>
      <trkpt lat="45.80525" lon="3.55932">
        <ele>388</ele>
        <time>2021-02-21T13:50:04Z</time>
      </trkpt>
      <trkpt lat="45.80526" lon="3.55928">
        <ele>388</ele>
        <time>2021-02-21T13:50:06Z</time>
      </trkpt>
      <trkpt lat="45.80528" lon="3.55925">
        <ele>388</ele>
        <time>2021-02-21T13:50:08Z</time>
      </trkpt>
      <trkpt lat="45.80529" lon="3.55923">
        <ele>388</ele>
        <time>2021-02-21T13:50:10Z</time>
      </trkpt>
      <trkpt lat="45.80531" lon="3.5592">
        <ele>388</ele>
        <time>2021-02-21T13:50:12Z</time>
      </trkpt>
      <trkpt lat="45.80532" lon="3.55917">
        <ele>388</ele>
        <time>2021-02-21T13:50:14Z</time>
      </trkpt>
      <trkpt lat="45.80533" lon="3.55913">
        <ele>388</ele>
        <time>2021-02-21T13:50:16Z</time>
      </trkpt>
      <trkpt lat="45.80535" lon="3.5591">
        <ele>387</ele>
        <time>2021-02-21T13:50:18Z</time>
      </trkpt>
      <trkpt lat="45.80536" lon="3.55907">
        <ele>387</ele>
        <time>2021-02-21T13:50:20Z</time>
      </trkpt>
      <trkpt lat="45.80538" lon="3.55904">
        <ele>387</ele>
        <time>2021-02-21T13:50:22Z</time>
      </trkpt>
      <trkpt lat="45.8054" lon="3.559">
        <ele>387</ele>
        <time>2021-02-21T13:50:24Z</time>
      </trkpt>
      <trkpt lat="45.80541" lon="3.55897">
        <ele>387</ele>
        <time>2021-02-21T13:50:26Z</time>
      </trkpt>
      <trkpt lat="45.80543" lon="3.55894">
        <ele>387</ele>
        <time>2021-02-21T13:50:28Z</time>
      </trkpt>
      <trkpt lat="45.80544" lon="3.5589">
        <ele>387</ele>
        <time>2021-02-21T13:50:30Z</time>
      </trkpt>
      <trkpt lat="45.80546" lon="3.55887">
        <ele>387</ele>
        <time>2021-02-21T13:50:32Z</time>
      </trkpt>
      <trkpt lat="45.80547" lon="3.55884">
        <ele>386</ele>
        <time>2021-02-21T13:50:34Z</time>
      </trkpt>
      <trkpt lat="45.80549" lon="3.55882">
        <ele>386</ele>
        <time>2021-02-21T13:50:36Z</time>
      </trkpt>
      <trkpt lat="45.8055" lon="3.55879">
        <ele>386</ele>
        <time>2021-02-21T13:50:38Z</time>
      </trkpt>
      <trkpt lat="45.80552" lon="3.55876">
        <ele>386</ele>
        <time>2021-02-21T13:50:40Z</time>
      </trkpt>
      <trkpt lat="45.80554" lon="3.55873">
        <ele>386</ele>
        <time>2021-02-21T13:50:42Z</time>
      </trkpt>
      <trkpt lat="45.80556" lon="3.55871">
        <ele>386</ele>
        <time>2021-02-21T13:50:44Z</time>
      </trkpt>
      <trkpt lat="45.80557" lon="3.55869">
        <ele>385</ele>
        <time>2021-02-21T13:50:46Z</time>
      </trkpt>
      <trkpt lat="45.80559" lon="3.55867">
        <ele>385</ele>
        <time>2021-02-21T13:50:48Z</time>
      </trkpt>
      <trkpt lat="45.80561" lon="3.55865">
        <ele>385</ele>
        <time>2021-02-21T13:50:50Z</time>
      </trkpt>
      <trkpt lat="45.80563" lon="3.55863">
        <ele>384</ele>
        <time>2021-02-21T13:50:52Z</time>
      </trkpt>
      <trkpt lat="45.80565" lon="3.5586">
        <ele>384</ele>
        <time>2021-02-21T13:50:54Z</time>
      </trkpt>
      <trkpt lat="45.80566" lon="3.55858">
        <ele>384</ele>
        <time>2021-02-21T13:50:57Z</time>
      </trkpt>
      <trkpt lat="45.80568" lon="3.55855">
        <ele>383</ele>
        <time>2021-02-21T13:50:59Z</time>
      </trkpt>
      <trkpt lat="45.80571" lon="3.55852">
        <ele>383</ele>
        <time>2021-02-21T13:51:01Z</time>
      </trkpt>
      <trkpt lat="45.80573" lon="3.55849">
        <ele>383</ele>
        <time>2021-02-21T13:51:03Z</time>
      </trkpt>
      <trkpt lat="45.80576" lon="3.55846">
        <ele>382</ele>
        <time>2021-02-21T13:51:06Z</time>
      </trkpt>
      <trkpt lat="45.80585" lon="3.55841">
        <ele>382</ele>
        <time>2021-02-21T13:51:14Z</time>
      </trkpt>
      <trkpt lat="45.80596" lon="3.55837">
        <ele>382</ele>
        <time>2021-02-21T13:51:22Z</time>
      </trkpt>
      <trkpt lat="45.80606" lon="3.55837">
        <ele>382</ele>
        <time>2021-02-21T13:51:27Z</time>
      </trkpt>
      <trkpt lat="45.80615" lon="3.55832">
        <ele>382</ele>
        <time>2021-02-21T13:51:35Z</time>
      </trkpt>
      <trkpt lat="45.80623" lon="3.55823">
        <ele>382</ele>
        <time>2021-02-21T13:51:43Z</time>
      </trkpt>
      <trkpt lat="45.80631" lon="3.55817">
        <ele>381</ele>
        <time>2021-02-21T13:51:49Z</time>
      </trkpt>
      <trkpt lat="45.8064" lon="3.55811">
        <ele>381</ele>
        <time>2021-02-21T13:51:56Z</time>
      </trkpt>
      <trkpt lat="45.8065" lon="3.55807">
        <ele>380</ele>
        <time>2021-02-21T13:52:01Z</time>
      </trkpt>
      <trkpt lat="45.80659" lon="3.55801">
        <ele>379</ele>
        <time>2021-02-21T13:52:07Z</time>
      </trkpt>
      <trkpt lat="45.80669" lon="3.55794">
        <ele>378</ele>
        <time>2021-02-21T13:52:13Z</time>
      </trkpt>
      <trkpt lat="45.80677" lon="3.55786">
        <ele>377</ele>
        <time>2021-02-21T13:52:23Z</time>
      </trkpt>
      <trkpt lat="45.80685" lon="3.55778">
        <ele>376</ele>
        <time>2021-02-21T13:52:31Z</time>
      </trkpt>
      <trkpt lat="45.8069" lon="3.55771">
        <ele>375</ele>
        <time>2021-02-21T13:52:38Z</time>
      </trkpt>
      <trkpt lat="45.80692" lon="3.55768">
        <ele>375</ele>
        <time>2021-02-21T13:52:40Z</time>
      </trkpt>
      <trkpt lat="45.80694" lon="3.55766">
        <ele>374</ele>
        <time>2021-02-21T13:52:42Z</time>
      </trkpt>
      <trkpt lat="45.80696" lon="3.55763">
        <ele>374</ele>
        <time>2021-02-21T13:52:44Z</time>
      </trkpt>
      <trkpt lat="45.80697" lon="3.5576">
        <ele>374</ele>
        <time>2021-02-21T13:52:47Z</time>
      </trkpt>
      <trkpt lat="45.80699" lon="3.55758">
        <ele>374</ele>
        <time>2021-02-21T13:52:49Z</time>
      </trkpt>
      <trkpt lat="45.807" lon="3.55756">
        <ele>374</ele>
        <time>2021-02-21T13:52:51Z</time>
      </trkpt>
      <trkpt lat="45.80708" lon="3.5575">
        <ele>373</ele>
        <time>2021-02-21T13:53:00Z</time>
      </trkpt>
      <trkpt lat="45.80717" lon="3.55744">
        <ele>372</ele>
        <time>2021-02-21T13:53:06Z</time>
      </trkpt>
      <trkpt lat="45.80724" lon="3.55736">
        <ele>372</ele>
        <time>2021-02-21T13:53:11Z</time>
      </trkpt>
      <trkpt lat="45.80727" lon="3.55733">
        <ele>372</ele>
        <time>2021-02-21T13:53:13Z</time>
      </trkpt>
      <trkpt lat="45.80729" lon="3.5573">
        <ele>371</ele>
        <time>2021-02-21T13:53:15Z</time>
      </trkpt>
      <trkpt lat="45.8073" lon="3.55728">
        <ele>371</ele>
        <time>2021-02-21T13:53:17Z</time>
      </trkpt>
      <trkpt lat="45.80734" lon="3.55727">
        <ele>371</ele>
        <time>2021-02-21T13:53:19Z</time>
      </trkpt>
      <trkpt lat="45.80736" lon="3.55726">
        <ele>371</ele>
        <time>2021-02-21T13:53:20Z</time>
      </trkpt>
      <trkpt lat="45.80738" lon="3.55725">
        <ele>371</ele>
        <time>2021-02-21T13:53:21Z</time>
      </trkpt>
      <trkpt lat="45.8074" lon="3.55725">
        <ele>370</ele>
        <time>2021-02-21T13:53:22Z</time>
      </trkpt>
      <trkpt lat="45.80742" lon="3.55724">
        <ele>370</ele>
        <time>2021-02-21T13:53:23Z</time>
      </trkpt>
      <trkpt lat="45.80744" lon="3.55723">
        <ele>370</ele>
        <time>2021-02-21T13:53:24Z</time>
      </trkpt>
      <trkpt lat="45.80746" lon="3.55722">
        <ele>370</ele>
        <time>2021-02-21T13:53:26Z</time>
      </trkpt>
      <trkpt lat="45.80748" lon="3.5572">
        <ele>370</ele>
        <time>2021-02-21T13:53:28Z</time>
      </trkpt>
      <trkpt lat="45.80752" lon="3.55719">
        <ele>369</ele>
        <time>2021-02-21T13:53:30Z</time>
      </trkpt>
      <trkpt lat="45.80755" lon="3.55717">
        <ele>369</ele>
        <time>2021-02-21T13:53:32Z</time>
      </trkpt>
      <trkpt lat="45.80757" lon="3.55715">
        <ele>369</ele>
        <time>2021-02-21T13:53:34Z</time>
      </trkpt>
      <trkpt lat="45.80758" lon="3.55712">
        <ele>369</ele>
        <time>2021-02-21T13:53:36Z</time>
      </trkpt>
      <trkpt lat="45.80761" lon="3.55711">
        <ele>368</ele>
        <time>2021-02-21T13:53:38Z</time>
      </trkpt>
      <trkpt lat="45.80763" lon="3.55709">
        <ele>368</ele>
        <time>2021-02-21T13:53:41Z</time>
      </trkpt>
      <trkpt lat="45.80764" lon="3.55706">
        <ele>368</ele>
        <time>2021-02-21T13:53:43Z</time>
      </trkpt>
      <trkpt lat="45.80766" lon="3.55704">
        <ele>368</ele>
        <time>2021-02-21T13:53:45Z</time>
      </trkpt>
      <trkpt lat="45.80768" lon="3.55702">
        <ele>368</ele>
        <time>2021-02-21T13:53:47Z</time>
      </trkpt>
      <trkpt lat="45.80769" lon="3.55699">
        <ele>368</ele>
        <time>2021-02-21T13:53:50Z</time>
      </trkpt>
      <trkpt lat="45.8077" lon="3.55696">
        <ele>368</ele>
        <time>2021-02-21T13:53:53Z</time>
      </trkpt>
      <trkpt lat="45.80772" lon="3.55694">
        <ele>368</ele>
        <time>2021-02-21T13:53:55Z</time>
      </trkpt>
      <trkpt lat="45.80773" lon="3.55691">
        <ele>367</ele>
        <time>2021-02-21T13:53:57Z</time>
      </trkpt>
      <trkpt lat="45.80775" lon="3.55689">
        <ele>367</ele>
        <time>2021-02-21T13:53:59Z</time>
      </trkpt>
      <trkpt lat="45.80777" lon="3.55686">
        <ele>367</ele>
        <time>2021-02-21T13:54:01Z</time>
      </trkpt>
      <trkpt lat="45.80779" lon="3.55684">
        <ele>367</ele>
        <time>2021-02-21T13:54:03Z</time>
      </trkpt>
      <trkpt lat="45.80781" lon="3.55682">
        <ele>366</ele>
        <time>2021-02-21T13:54:05Z</time>
      </trkpt>
      <trkpt lat="45.80787" lon="3.55672">
        <ele>366</ele>
        <time>2021-02-21T13:54:11Z</time>
      </trkpt>
      <trkpt lat="45.8079" lon="3.55664">
        <ele>365</ele>
        <time>2021-02-21T13:54:17Z</time>
      </trkpt>
      <trkpt lat="45.8079" lon="3.55662">
        <ele>364</ele>
        <time>2021-02-21T13:54:19Z</time>
      </trkpt>
      <trkpt lat="45.80791" lon="3.55659">
        <ele>364</ele>
        <time>2021-02-21T13:54:21Z</time>
      </trkpt>
      <trkpt lat="45.80793" lon="3.55657">
        <ele>364</ele>
        <time>2021-02-21T13:54:23Z</time>
      </trkpt>
      <trkpt lat="45.80794" lon="3.55654">
        <ele>363</ele>
        <time>2021-02-21T13:54:25Z</time>
      </trkpt>
      <trkpt lat="45.80795" lon="3.55651">
        <ele>363</ele>
        <time>2021-02-21T13:54:26Z</time>
      </trkpt>
      <trkpt lat="45.80797" lon="3.55649">
        <ele>363</ele>
        <time>2021-02-21T13:54:28Z</time>
      </trkpt>
      <trkpt lat="45.80798" lon="3.55647">
        <ele>362</ele>
        <time>2021-02-21T13:54:30Z</time>
      </trkpt>
      <trkpt lat="45.80801" lon="3.55644">
        <ele>362</ele>
        <time>2021-02-21T13:54:32Z</time>
      </trkpt>
      <trkpt lat="45.80803" lon="3.55644">
        <ele>362</ele>
        <time>2021-02-21T13:54:33Z</time>
      </trkpt>
      <trkpt lat="45.80805" lon="3.55644">
        <ele>362</ele>
        <time>2021-02-21T13:54:34Z</time>
      </trkpt>
      <trkpt lat="45.8081" lon="3.55643">
        <ele>361</ele>
        <time>2021-02-21T13:54:37Z</time>
      </trkpt>
      <trkpt lat="45.80812" lon="3.55643">
        <ele>361</ele>
        <time>2021-02-21T13:54:38Z</time>
      </trkpt>
      <trkpt lat="45.80815" lon="3.55643">
        <ele>361</ele>
        <time>2021-02-21T13:54:40Z</time>
      </trkpt>
      <trkpt lat="45.80817" lon="3.55643">
        <ele>360</ele>
        <time>2021-02-21T13:54:42Z</time>
      </trkpt>
      <trkpt lat="45.8082" lon="3.55641">
        <ele>360</ele>
        <time>2021-02-21T13:54:46Z</time>
      </trkpt>
      <trkpt lat="45.80822" lon="3.5564">
        <ele>359</ele>
        <time>2021-02-21T13:54:48Z</time>
      </trkpt>
      <trkpt lat="45.80824" lon="3.55638">
        <ele>359</ele>
        <time>2021-02-21T13:54:50Z</time>
      </trkpt>
      <trkpt lat="45.80826" lon="3.55635">
        <ele>358</ele>
        <time>2021-02-21T13:54:52Z</time>
      </trkpt>
      <trkpt lat="45.80829" lon="3.55634">
        <ele>358</ele>
        <time>2021-02-21T13:54:54Z</time>
      </trkpt>
      <trkpt lat="45.80831" lon="3.55633">
        <ele>357</ele>
        <time>2021-02-21T13:54:58Z</time>
      </trkpt>
      <trkpt lat="45.80833" lon="3.55635">
        <ele>357</ele>
        <time>2021-02-21T13:55:00Z</time>
      </trkpt>
      <trkpt lat="45.80836" lon="3.55636">
        <ele>357</ele>
        <time>2021-02-21T13:55:02Z</time>
      </trkpt>
      <trkpt lat="45.80838" lon="3.55637">
        <ele>356</ele>
        <time>2021-02-21T13:55:04Z</time>
      </trkpt>
      <trkpt lat="45.8084" lon="3.55637">
        <ele>356</ele>
        <time>2021-02-21T13:55:06Z</time>
      </trkpt>
      <trkpt lat="45.80843" lon="3.5564">
        <ele>356</ele>
        <time>2021-02-21T13:55:08Z</time>
      </trkpt>
      <trkpt lat="45.80844" lon="3.55647">
        <ele>356</ele>
        <time>2021-02-21T13:55:12Z</time>
      </trkpt>
      <trkpt lat="45.80845" lon="3.55651">
        <ele>356</ele>
        <time>2021-02-21T13:55:16Z</time>
      </trkpt>
      <trkpt lat="45.80847" lon="3.55651">
        <ele>356</ele>
        <time>2021-02-21T13:55:19Z</time>
      </trkpt>
      <trkpt lat="45.80849" lon="3.55649">
        <ele>355</ele>
        <time>2021-02-21T13:55:21Z</time>
      </trkpt>
      <trkpt lat="45.80851" lon="3.55645">
        <ele>354</ele>
        <time>2021-02-21T13:55:25Z</time>
      </trkpt>
      <trkpt lat="45.80851" lon="3.55644">
        <ele>354</ele>
        <time>2021-02-21T13:55:26Z</time>
      </trkpt>
      <trkpt lat="45.80851" lon="3.55641">
        <ele>354</ele>
        <time>2021-02-21T13:55:28Z</time>
      </trkpt>
      <trkpt lat="45.80851" lon="3.55638">
        <ele>354</ele>
        <time>2021-02-21T13:55:30Z</time>
      </trkpt>
      <trkpt lat="45.80853" lon="3.55636">
        <ele>353</ele>
        <time>2021-02-21T13:55:32Z</time>
      </trkpt>
      <trkpt lat="45.80855" lon="3.55636">
        <ele>353</ele>
        <time>2021-02-21T13:55:34Z</time>
      </trkpt>
      <trkpt lat="45.80856" lon="3.55638">
        <ele>352</ele>
        <time>2021-02-21T13:55:35Z</time>
      </trkpt>
      <trkpt lat="45.80859" lon="3.5564">
        <ele>352</ele>
        <time>2021-02-21T13:55:36Z</time>
      </trkpt>
      <trkpt lat="45.80861" lon="3.5564">
        <ele>352</ele>
        <time>2021-02-21T13:55:38Z</time>
      </trkpt>
      <trkpt lat="45.80863" lon="3.5564">
        <ele>351</ele>
        <time>2021-02-21T13:55:40Z</time>
      </trkpt>
      <trkpt lat="45.80866" lon="3.55639">
        <ele>350</ele>
        <time>2021-02-21T13:55:42Z</time>
      </trkpt>
      <trkpt lat="45.80868" lon="3.55638">
        <ele>350</ele>
        <time>2021-02-21T13:55:44Z</time>
      </trkpt>
      <trkpt lat="45.80871" lon="3.55638">
        <ele>349</ele>
        <time>2021-02-21T13:55:46Z</time>
      </trkpt>
      <trkpt lat="45.80874" lon="3.55638">
        <ele>349</ele>
        <time>2021-02-21T13:55:48Z</time>
      </trkpt>
      <trkpt lat="45.80877" lon="3.55638">
        <ele>348</ele>
        <time>2021-02-21T13:55:50Z</time>
      </trkpt>
      <trkpt lat="45.8088" lon="3.55637">
        <ele>347</ele>
        <time>2021-02-21T13:55:52Z</time>
      </trkpt>
      <trkpt lat="45.80882" lon="3.55637">
        <ele>347</ele>
        <time>2021-02-21T13:55:54Z</time>
      </trkpt>
      <trkpt lat="45.80884" lon="3.55636">
        <ele>347</ele>
        <time>2021-02-21T13:55:56Z</time>
      </trkpt>
      <trkpt lat="45.80887" lon="3.55637">
        <ele>346</ele>
        <time>2021-02-21T13:55:58Z</time>
      </trkpt>
      <trkpt lat="45.80889" lon="3.55636">
        <ele>346</ele>
        <time>2021-02-21T13:56:00Z</time>
      </trkpt>
      <trkpt lat="45.80892" lon="3.55635">
        <ele>346</ele>
        <time>2021-02-21T13:56:02Z</time>
      </trkpt>
      <trkpt lat="45.80894" lon="3.55634">
        <ele>346</ele>
        <time>2021-02-21T13:56:04Z</time>
      </trkpt>
      <trkpt lat="45.80897" lon="3.55634">
        <ele>346</ele>
        <time>2021-02-21T13:56:06Z</time>
      </trkpt>
      <trkpt lat="45.80899" lon="3.55633">
        <ele>346</ele>
        <time>2021-02-21T13:56:08Z</time>
      </trkpt>
      <trkpt lat="45.80902" lon="3.55632">
        <ele>346</ele>
        <time>2021-02-21T13:56:10Z</time>
      </trkpt>
      <trkpt lat="45.80905" lon="3.55632">
        <ele>346</ele>
        <time>2021-02-21T13:56:12Z</time>
      </trkpt>
      <trkpt lat="45.80907" lon="3.55631">
        <ele>346</ele>
        <time>2021-02-21T13:56:14Z</time>
      </trkpt>
      <trkpt lat="45.80909" lon="3.55632">
        <ele>346</ele>
        <time>2021-02-21T13:56:16Z</time>
      </trkpt>
      <trkpt lat="45.80911" lon="3.55633">
        <ele>346</ele>
        <time>2021-02-21T13:56:17Z</time>
      </trkpt>
      <trkpt lat="45.80913" lon="3.55633">
        <ele>346</ele>
        <time>2021-02-21T13:56:19Z</time>
      </trkpt>
      <trkpt lat="45.80915" lon="3.55632">
        <ele>346</ele>
        <time>2021-02-21T13:56:21Z</time>
      </trkpt>
      <trkpt lat="45.80917" lon="3.55631">
        <ele>346</ele>
        <time>2021-02-21T13:56:23Z</time>
      </trkpt>
      <trkpt lat="45.80919" lon="3.5563">
        <ele>346</ele>
        <time>2021-02-21T13:56:25Z</time>
      </trkpt>
      <trkpt lat="45.80921" lon="3.55629">
        <ele>346</ele>
        <time>2021-02-21T13:56:27Z</time>
      </trkpt>
      <trkpt lat="45.80923" lon="3.55627">
        <ele>346</ele>
        <time>2021-02-21T13:56:29Z</time>
      </trkpt>
      <trkpt lat="45.80925" lon="3.55627">
        <ele>346</ele>
        <time>2021-02-21T13:56:31Z</time>
      </trkpt>
      <trkpt lat="45.80927" lon="3.55625">
        <ele>346</ele>
        <time>2021-02-21T13:56:33Z</time>
      </trkpt>
      <trkpt lat="45.80929" lon="3.55625">
        <ele>346</ele>
        <time>2021-02-21T13:56:35Z</time>
      </trkpt>
      <trkpt lat="45.80931" lon="3.55625">
        <ele>347</ele>
        <time>2021-02-21T13:56:39Z</time>
      </trkpt>
      <trkpt lat="45.80933" lon="3.55624">
        <ele>347</ele>
        <time>2021-02-21T13:56:41Z</time>
      </trkpt>
      <trkpt lat="45.80937" lon="3.55619">
        <ele>347</ele>
        <time>2021-02-21T13:56:44Z</time>
      </trkpt>
      <trkpt lat="45.80947" lon="3.55623">
        <ele>348</ele>
        <time>2021-02-21T13:56:49Z</time>
      </trkpt>
      <trkpt lat="45.80949" lon="3.55622">
        <ele>348</ele>
        <time>2021-02-21T13:56:51Z</time>
      </trkpt>
      <trkpt lat="45.80959" lon="3.5562">
        <ele>348</ele>
        <time>2021-02-21T13:57:00Z</time>
      </trkpt>
      <trkpt lat="45.8096" lon="3.55618">
        <ele>348</ele>
        <time>2021-02-21T13:57:02Z</time>
      </trkpt>
      <trkpt lat="45.80962" lon="3.55616">
        <ele>348</ele>
        <time>2021-02-21T13:57:05Z</time>
      </trkpt>
      <trkpt lat="45.80963" lon="3.55613">
        <ele>348</ele>
        <time>2021-02-21T13:57:08Z</time>
      </trkpt>
      <trkpt lat="45.80962" lon="3.5561">
        <ele>349</ele>
        <time>2021-02-21T13:57:11Z</time>
      </trkpt>
      <trkpt lat="45.80963" lon="3.55607">
        <ele>349</ele>
        <time>2021-02-21T13:57:18Z</time>
      </trkpt>
      <trkpt lat="45.80964" lon="3.55605">
        <ele>349</ele>
        <time>2021-02-21T13:57:20Z</time>
      </trkpt>
      <trkpt lat="45.80966" lon="3.55606">
        <ele>349</ele>
        <time>2021-02-21T13:57:26Z</time>
      </trkpt>
      <trkpt lat="45.80966" lon="3.55603">
        <ele>349</ele>
        <time>2021-02-21T13:57:31Z</time>
      </trkpt>
      <trkpt lat="45.80968" lon="3.55608">
        <ele>349</ele>
        <time>2021-02-21T13:57:41Z</time>
      </trkpt>
      <trkpt lat="45.8097" lon="3.55609">
        <ele>349</ele>
        <time>2021-02-21T13:57:45Z</time>
      </trkpt>
      <trkpt lat="45.80972" lon="3.55612">
        <ele>348</ele>
        <time>2021-02-21T13:57:47Z</time>
      </trkpt>
      <trkpt lat="45.80973" lon="3.55616">
        <ele>348</ele>
        <time>2021-02-21T13:57:49Z</time>
      </trkpt>
      <trkpt lat="45.80975" lon="3.55614">
        <ele>349</ele>
        <time>2021-02-21T13:57:56Z</time>
      </trkpt>
      <trkpt lat="45.80977" lon="3.55613">
        <ele>349</ele>
        <time>2021-02-21T13:57:58Z</time>
      </trkpt>
      <trkpt lat="45.8098" lon="3.55612">
        <ele>349</ele>
        <time>2021-02-21T13:58:00Z</time>
      </trkpt>
      <trkpt lat="45.80982" lon="3.5561">
        <ele>350</ele>
        <time>2021-02-21T13:58:02Z</time>
      </trkpt>
      <trkpt lat="45.80983" lon="3.55607">
        <ele>350</ele>
        <time>2021-02-21T13:58:04Z</time>
      </trkpt>
      <trkpt lat="45.80984" lon="3.55605">
        <ele>350</ele>
        <time>2021-02-21T13:58:06Z</time>
      </trkpt>
      <trkpt lat="45.80986" lon="3.55601">
        <ele>350</ele>
        <time>2021-02-21T13:58:08Z</time>
      </trkpt>
      <trkpt lat="45.80986" lon="3.55598">
        <ele>351</ele>
        <time>2021-02-21T13:58:11Z</time>
      </trkpt>
      <trkpt lat="45.80987" lon="3.55595">
        <ele>351</ele>
        <time>2021-02-21T13:58:14Z</time>
      </trkpt>
      <trkpt lat="45.80988" lon="3.55591">
        <ele>351</ele>
        <time>2021-02-21T13:58:17Z</time>
      </trkpt>
      <trkpt lat="45.80988" lon="3.55588">
        <ele>352</ele>
        <time>2021-02-21T13:58:19Z</time>
      </trkpt>
      <trkpt lat="45.80989" lon="3.55585">
        <ele>352</ele>
        <time>2021-02-21T13:58:21Z</time>
      </trkpt>
      <trkpt lat="45.80989" lon="3.55583">
        <ele>352</ele>
        <time>2021-02-21T13:58:24Z</time>
      </trkpt>
      <trkpt lat="45.80989" lon="3.5558">
        <ele>352</ele>
        <time>2021-02-21T13:58:27Z</time>
      </trkpt>
      <trkpt lat="45.80989" lon="3.55577">
        <ele>352</ele>
        <time>2021-02-21T13:58:29Z</time>
      </trkpt>
      <trkpt lat="45.80988" lon="3.55572">
        <ele>353</ele>
        <time>2021-02-21T13:58:33Z</time>
      </trkpt>
      <trkpt lat="45.80988" lon="3.5557">
        <ele>353</ele>
        <time>2021-02-21T13:58:35Z</time>
      </trkpt>
      <trkpt lat="45.80987" lon="3.55567">
        <ele>353</ele>
        <time>2021-02-21T13:58:37Z</time>
      </trkpt>
      <trkpt lat="45.80986" lon="3.55564">
        <ele>353</ele>
        <time>2021-02-21T13:58:40Z</time>
      </trkpt>
      <trkpt lat="45.80985" lon="3.55561">
        <ele>353</ele>
        <time>2021-02-21T13:58:43Z</time>
      </trkpt>
      <trkpt lat="45.80985" lon="3.55558">
        <ele>353</ele>
        <time>2021-02-21T13:58:45Z</time>
      </trkpt>
      <trkpt lat="45.80985" lon="3.55555">
        <ele>353</ele>
        <time>2021-02-21T13:58:47Z</time>
      </trkpt>
      <trkpt lat="45.80986" lon="3.55552">
        <ele>354</ele>
        <time>2021-02-21T13:58:49Z</time>
      </trkpt>
      <trkpt lat="45.80985" lon="3.55549">
        <ele>354</ele>
        <time>2021-02-21T13:58:51Z</time>
      </trkpt>
      <trkpt lat="45.80984" lon="3.55546">
        <ele>354</ele>
        <time>2021-02-21T13:58:53Z</time>
      </trkpt>
      <trkpt lat="45.80983" lon="3.55543">
        <ele>354</ele>
        <time>2021-02-21T13:58:55Z</time>
      </trkpt>
      <trkpt lat="45.80983" lon="3.5554">
        <ele>354</ele>
        <time>2021-02-21T13:58:57Z</time>
      </trkpt>
      <trkpt lat="45.80983" lon="3.55537">
        <ele>354</ele>
        <time>2021-02-21T13:58:59Z</time>
      </trkpt>
      <trkpt lat="45.80982" lon="3.55534">
        <ele>354</ele>
        <time>2021-02-21T13:59:01Z</time>
      </trkpt>
      <trkpt lat="45.80981" lon="3.55532">
        <ele>354</ele>
        <time>2021-02-21T13:59:03Z</time>
      </trkpt>
      <trkpt lat="45.8098" lon="3.5553">
        <ele>354</ele>
        <time>2021-02-21T13:59:06Z</time>
      </trkpt>
      <trkpt lat="45.80978" lon="3.55527">
        <ele>354</ele>
        <time>2021-02-21T13:59:08Z</time>
      </trkpt>
      <trkpt lat="45.80977" lon="3.55525">
        <ele>354</ele>
        <time>2021-02-21T13:59:10Z</time>
      </trkpt>
      <trkpt lat="45.80976" lon="3.55522">
        <ele>354</ele>
        <time>2021-02-21T13:59:12Z</time>
      </trkpt>
      <trkpt lat="45.80975" lon="3.5552">
        <ele>354</ele>
        <time>2021-02-21T13:59:14Z</time>
      </trkpt>
      <trkpt lat="45.80973" lon="3.55519">
        <ele>354</ele>
        <time>2021-02-21T13:59:16Z</time>
      </trkpt>
      <trkpt lat="45.80972" lon="3.55515">
        <ele>354</ele>
        <time>2021-02-21T13:59:19Z</time>
      </trkpt>
      <trkpt lat="45.80972" lon="3.55512">
        <ele>354</ele>
        <time>2021-02-21T13:59:21Z</time>
      </trkpt>
      <trkpt lat="45.80971" lon="3.55507">
        <ele>355</ele>
        <time>2021-02-21T13:59:23Z</time>
      </trkpt>
      <trkpt lat="45.8097" lon="3.55506">
        <ele>355</ele>
        <time>2021-02-21T13:59:24Z</time>
      </trkpt>
      <trkpt lat="45.80969" lon="3.55505">
        <ele>355</ele>
        <time>2021-02-21T13:59:26Z</time>
      </trkpt>
      <trkpt lat="45.80967" lon="3.55504">
        <ele>355</ele>
        <time>2021-02-21T13:59:28Z</time>
      </trkpt>
      <trkpt lat="45.80965" lon="3.55503">
        <ele>355</ele>
        <time>2021-02-21T13:59:31Z</time>
      </trkpt>
      <trkpt lat="45.80963" lon="3.555">
        <ele>355</ele>
        <time>2021-02-21T13:59:34Z</time>
      </trkpt>
      <trkpt lat="45.80962" lon="3.55498">
        <ele>355</ele>
        <time>2021-02-21T13:59:36Z</time>
      </trkpt>
      <trkpt lat="45.80961" lon="3.55495">
        <ele>355</ele>
        <time>2021-02-21T13:59:38Z</time>
      </trkpt>
      <trkpt lat="45.80961" lon="3.55491">
        <ele>356</ele>
        <time>2021-02-21T13:59:41Z</time>
      </trkpt>
      <trkpt lat="45.80961" lon="3.55488">
        <ele>356</ele>
        <time>2021-02-21T13:59:43Z</time>
      </trkpt>
      <trkpt lat="45.80961" lon="3.55484">
        <ele>356</ele>
        <time>2021-02-21T13:59:45Z</time>
      </trkpt>
      <trkpt lat="45.80961" lon="3.55481">
        <ele>357</ele>
        <time>2021-02-21T13:59:47Z</time>
      </trkpt>
      <trkpt lat="45.80961" lon="3.55478">
        <ele>357</ele>
        <time>2021-02-21T13:59:49Z</time>
      </trkpt>
      <trkpt lat="45.80961" lon="3.55475">
        <ele>357</ele>
        <time>2021-02-21T13:59:51Z</time>
      </trkpt>
      <trkpt lat="45.80961" lon="3.55471">
        <ele>358</ele>
        <time>2021-02-21T13:59:53Z</time>
      </trkpt>
      <trkpt lat="45.80961" lon="3.55469">
        <ele>358</ele>
        <time>2021-02-21T13:59:55Z</time>
      </trkpt>
      <trkpt lat="45.80961" lon="3.55466">
        <ele>358</ele>
        <time>2021-02-21T13:59:57Z</time>
      </trkpt>
      <trkpt lat="45.80961" lon="3.55463">
        <ele>358</ele>
        <time>2021-02-21T13:59:59Z</time>
      </trkpt>
      <trkpt lat="45.80961" lon="3.5546">
        <ele>359</ele>
        <time>2021-02-21T14:00:01Z</time>
      </trkpt>
      <trkpt lat="45.8096" lon="3.55456">
        <ele>359</ele>
        <time>2021-02-21T14:00:03Z</time>
      </trkpt>
      <trkpt lat="45.8096" lon="3.55453">
        <ele>359</ele>
        <time>2021-02-21T14:00:05Z</time>
      </trkpt>
      <trkpt lat="45.8096" lon="3.5545">
        <ele>359</ele>
        <time>2021-02-21T14:00:07Z</time>
      </trkpt>
      <trkpt lat="45.8096" lon="3.55446">
        <ele>359</ele>
        <time>2021-02-21T14:00:09Z</time>
      </trkpt>
      <trkpt lat="45.80959" lon="3.55442">
        <ele>360</ele>
        <time>2021-02-21T14:00:11Z</time>
      </trkpt>
      <trkpt lat="45.8096" lon="3.55437">
        <ele>360</ele>
        <time>2021-02-21T14:00:13Z</time>
      </trkpt>
      <trkpt lat="45.8096" lon="3.55433">
        <ele>360</ele>
        <time>2021-02-21T14:00:15Z</time>
      </trkpt>
      <trkpt lat="45.8096" lon="3.5543">
        <ele>361</ele>
        <time>2021-02-21T14:00:17Z</time>
      </trkpt>
      <trkpt lat="45.80962" lon="3.55427">
        <ele>361</ele>
        <time>2021-02-21T14:00:19Z</time>
      </trkpt>
      <trkpt lat="45.80963" lon="3.55425">
        <ele>361</ele>
        <time>2021-02-21T14:00:21Z</time>
      </trkpt>
      <trkpt lat="45.80965" lon="3.55423">
        <ele>362</ele>
        <time>2021-02-21T14:00:23Z</time>
      </trkpt>
      <trkpt lat="45.80967" lon="3.5542">
        <ele>362</ele>
        <time>2021-02-21T14:00:25Z</time>
      </trkpt>
      <trkpt lat="45.80968" lon="3.55417">
        <ele>362</ele>
        <time>2021-02-21T14:00:27Z</time>
      </trkpt>
      <trkpt lat="45.80969" lon="3.55415">
        <ele>362</ele>
        <time>2021-02-21T14:00:29Z</time>
      </trkpt>
      <trkpt lat="45.8097" lon="3.55412">
        <ele>363</ele>
        <time>2021-02-21T14:00:31Z</time>
      </trkpt>
      <trkpt lat="45.80971" lon="3.5541">
        <ele>363</ele>
        <time>2021-02-21T14:00:33Z</time>
      </trkpt>
      <trkpt lat="45.80973" lon="3.55408">
        <ele>363</ele>
        <time>2021-02-21T14:00:35Z</time>
      </trkpt>
      <trkpt lat="45.80974" lon="3.55406">
        <ele>363</ele>
        <time>2021-02-21T14:00:38Z</time>
      </trkpt>
      <trkpt lat="45.80976" lon="3.55404">
        <ele>364</ele>
        <time>2021-02-21T14:00:41Z</time>
      </trkpt>
      <trkpt lat="45.80978" lon="3.554">
        <ele>364</ele>
        <time>2021-02-21T14:00:43Z</time>
      </trkpt>
      <trkpt lat="45.8098" lon="3.55398">
        <ele>364</ele>
        <time>2021-02-21T14:00:45Z</time>
      </trkpt>
      <trkpt lat="45.80982" lon="3.55396">
        <ele>365</ele>
        <time>2021-02-21T14:00:47Z</time>
      </trkpt>
      <trkpt lat="45.80983" lon="3.55393">
        <ele>365</ele>
        <time>2021-02-21T14:00:50Z</time>
      </trkpt>
      <trkpt lat="45.80984" lon="3.5539">
        <ele>365</ele>
        <time>2021-02-21T14:00:53Z</time>
      </trkpt>
      <trkpt lat="45.80986" lon="3.55389">
        <ele>366</ele>
        <time>2021-02-21T14:00:55Z</time>
      </trkpt>
      <trkpt lat="45.80988" lon="3.55387">
        <ele>366</ele>
        <time>2021-02-21T14:00:57Z</time>
      </trkpt>
      <trkpt lat="45.8099" lon="3.55385">
        <ele>366</ele>
        <time>2021-02-21T14:00:59Z</time>
      </trkpt>
      <trkpt lat="45.80991" lon="3.55384">
        <ele>366</ele>
        <time>2021-02-21T14:01:01Z</time>
      </trkpt>
      <trkpt lat="45.80993" lon="3.55382">
        <ele>366</ele>
        <time>2021-02-21T14:01:04Z</time>
      </trkpt>
      <trkpt lat="45.80996" lon="3.5538">
        <ele>367</ele>
        <time>2021-02-21T14:01:07Z</time>
      </trkpt>
      <trkpt lat="45.80997" lon="3.55378">
        <ele>367</ele>
        <time>2021-02-21T14:01:09Z</time>
      </trkpt>
      <trkpt lat="45.80999" lon="3.55376">
        <ele>367</ele>
        <time>2021-02-21T14:01:12Z</time>
      </trkpt>
      <trkpt lat="45.81001" lon="3.55375">
        <ele>367</ele>
        <time>2021-02-21T14:01:14Z</time>
      </trkpt>
      <trkpt lat="45.81003" lon="3.55374">
        <ele>367</ele>
        <time>2021-02-21T14:01:16Z</time>
      </trkpt>
      <trkpt lat="45.81006" lon="3.55372">
        <ele>368</ele>
        <time>2021-02-21T14:01:18Z</time>
      </trkpt>
      <trkpt lat="45.81007" lon="3.55371">
        <ele>368</ele>
        <time>2021-02-21T14:01:20Z</time>
      </trkpt>
      <trkpt lat="45.8101" lon="3.5537">
        <ele>368</ele>
        <time>2021-02-21T14:01:22Z</time>
      </trkpt>
      <trkpt lat="45.81012" lon="3.55368">
        <ele>369</ele>
        <time>2021-02-21T14:01:24Z</time>
      </trkpt>
      <trkpt lat="45.81014" lon="3.55368">
        <ele>369</ele>
        <time>2021-02-21T14:01:26Z</time>
      </trkpt>
      <trkpt lat="45.81016" lon="3.55368">
        <ele>369</ele>
        <time>2021-02-21T14:01:28Z</time>
      </trkpt>
      <trkpt lat="45.81018" lon="3.55368">
        <ele>370</ele>
        <time>2021-02-21T14:01:32Z</time>
      </trkpt>
      <trkpt lat="45.8102" lon="3.55367">
        <ele>370</ele>
        <time>2021-02-21T14:01:34Z</time>
      </trkpt>
      <trkpt lat="45.81022" lon="3.55366">
        <ele>370</ele>
        <time>2021-02-21T14:01:36Z</time>
      </trkpt>
      <trkpt lat="45.81024" lon="3.55365">
        <ele>371</ele>
        <time>2021-02-21T14:01:39Z</time>
      </trkpt>
      <trkpt lat="45.81026" lon="3.55363">
        <ele>371</ele>
        <time>2021-02-21T14:01:41Z</time>
      </trkpt>
      <trkpt lat="45.81028" lon="3.55362">
        <ele>371</ele>
        <time>2021-02-21T14:01:43Z</time>
      </trkpt>
      <trkpt lat="45.81031" lon="3.55361">
        <ele>372</ele>
        <time>2021-02-21T14:01:46Z</time>
      </trkpt>
      <trkpt lat="45.81033" lon="3.5536">
        <ele>372</ele>
        <time>2021-02-21T14:01:48Z</time>
      </trkpt>
      <trkpt lat="45.81034" lon="3.55358">
        <ele>372</ele>
        <time>2021-02-21T14:01:50Z</time>
      </trkpt>
      <trkpt lat="45.81036" lon="3.55356">
        <ele>373</ele>
        <time>2021-02-21T14:01:52Z</time>
      </trkpt>
      <trkpt lat="45.81037" lon="3.55355">
        <ele>373</ele>
        <time>2021-02-21T14:01:54Z</time>
      </trkpt>
      <trkpt lat="45.81039" lon="3.55353">
        <ele>373</ele>
        <time>2021-02-21T14:01:56Z</time>
      </trkpt>
      <trkpt lat="45.81041" lon="3.55351">
        <ele>374</ele>
        <time>2021-02-21T14:01:59Z</time>
      </trkpt>
      <trkpt lat="45.81042" lon="3.55349">
        <ele>374</ele>
        <time>2021-02-21T14:02:01Z</time>
      </trkpt>
      <trkpt lat="45.81045" lon="3.55348">
        <ele>374</ele>
        <time>2021-02-21T14:02:03Z</time>
      </trkpt>
      <trkpt lat="45.81047" lon="3.55348">
        <ele>374</ele>
        <time>2021-02-21T14:02:05Z</time>
      </trkpt>
      <trkpt lat="45.81049" lon="3.55346">
        <ele>375</ele>
        <time>2021-02-21T14:02:07Z</time>
      </trkpt>
      <trkpt lat="45.81051" lon="3.55345">
        <ele>375</ele>
        <time>2021-02-21T14:02:09Z</time>
      </trkpt>
      <trkpt lat="45.81053" lon="3.55344">
        <ele>375</ele>
        <time>2021-02-21T14:02:11Z</time>
      </trkpt>
      <trkpt lat="45.81055" lon="3.55343">
        <ele>375</ele>
        <time>2021-02-21T14:02:14Z</time>
      </trkpt>
      <trkpt lat="45.81057" lon="3.5534">
        <ele>376</ele>
        <time>2021-02-21T14:02:17Z</time>
      </trkpt>
      <trkpt lat="45.81059" lon="3.55338">
        <ele>376</ele>
        <time>2021-02-21T14:02:20Z</time>
      </trkpt>
      <trkpt lat="45.8106" lon="3.55336">
        <ele>376</ele>
        <time>2021-02-21T14:02:22Z</time>
      </trkpt>
      <trkpt lat="45.81062" lon="3.55335">
        <ele>376</ele>
        <time>2021-02-21T14:02:25Z</time>
      </trkpt>
      <trkpt lat="45.81065" lon="3.55333">
        <ele>377</ele>
        <time>2021-02-21T14:02:28Z</time>
      </trkpt>
      <trkpt lat="45.81066" lon="3.55332">
        <ele>377</ele>
        <time>2021-02-21T14:02:30Z</time>
      </trkpt>
      <trkpt lat="45.81069" lon="3.5533">
        <ele>377</ele>
        <time>2021-02-21T14:02:33Z</time>
      </trkpt>
      <trkpt lat="45.8107" lon="3.55329">
        <ele>377</ele>
        <time>2021-02-21T14:02:35Z</time>
      </trkpt>
      <trkpt lat="45.81072" lon="3.55327">
        <ele>377</ele>
        <time>2021-02-21T14:02:37Z</time>
      </trkpt>
      <trkpt lat="45.81074" lon="3.55326">
        <ele>378</ele>
        <time>2021-02-21T14:02:39Z</time>
      </trkpt>
      <trkpt lat="45.81076" lon="3.55325">
        <ele>378</ele>
        <time>2021-02-21T14:02:42Z</time>
      </trkpt>
      <trkpt lat="45.81078" lon="3.55323">
        <ele>378</ele>
        <time>2021-02-21T14:02:45Z</time>
      </trkpt>
      <trkpt lat="45.81081" lon="3.55322">
        <ele>378</ele>
        <time>2021-02-21T14:02:48Z</time>
      </trkpt>
      <trkpt lat="45.81083" lon="3.55321">
        <ele>378</ele>
        <time>2021-02-21T14:02:51Z</time>
      </trkpt>
      <trkpt lat="45.81084" lon="3.55319">
        <ele>379</ele>
        <time>2021-02-21T14:02:54Z</time>
      </trkpt>
      <trkpt lat="45.81086" lon="3.55318">
        <ele>379</ele>
        <time>2021-02-21T14:02:56Z</time>
      </trkpt>
      <trkpt lat="45.81087" lon="3.55316">
        <ele>379</ele>
        <time>2021-02-21T14:02:58Z</time>
      </trkpt>
      <trkpt lat="45.81089" lon="3.55315">
        <ele>379</ele>
        <time>2021-02-21T14:03:00Z</time>
      </trkpt>
      <trkpt lat="45.81091" lon="3.55315">
        <ele>379</ele>
        <time>2021-02-21T14:03:02Z</time>
      </trkpt>
      <trkpt lat="45.81093" lon="3.55314">
        <ele>379</ele>
        <time>2021-02-21T14:03:05Z</time>
      </trkpt>
      <trkpt lat="45.81095" lon="3.55312">
        <ele>379</ele>
        <time>2021-02-21T14:03:08Z</time>
      </trkpt>
      <trkpt lat="45.81097" lon="3.55311">
        <ele>379</ele>
        <time>2021-02-21T14:03:10Z</time>
      </trkpt>
      <trkpt lat="45.81099" lon="3.5531">
        <ele>380</ele>
        <time>2021-02-21T14:03:12Z</time>
      </trkpt>
      <trkpt lat="45.81101" lon="3.55308">
        <ele>380</ele>
        <time>2021-02-21T14:03:15Z</time>
      </trkpt>
      <trkpt lat="45.81103" lon="3.55307">
        <ele>380</ele>
        <time>2021-02-21T14:03:18Z</time>
      </trkpt>
      <trkpt lat="45.81105" lon="3.55306">
        <ele>380</ele>
        <time>2021-02-21T14:03:20Z</time>
      </trkpt>
      <trkpt lat="45.81107" lon="3.55304">
        <ele>380</ele>
        <time>2021-02-21T14:03:22Z</time>
      </trkpt>
      <trkpt lat="45.81108" lon="3.55303">
        <ele>380</ele>
        <time>2021-02-21T14:03:24Z</time>
      </trkpt>
      <trkpt lat="45.8111" lon="3.55301">
        <ele>381</ele>
        <time>2021-02-21T14:03:26Z</time>
      </trkpt>
      <trkpt lat="45.81113" lon="3.553">
        <ele>381</ele>
        <time>2021-02-21T14:03:29Z</time>
      </trkpt>
      <trkpt lat="45.81115" lon="3.55299">
        <ele>381</ele>
        <time>2021-02-21T14:03:31Z</time>
      </trkpt>
      <trkpt lat="45.81117" lon="3.55298">
        <ele>381</ele>
        <time>2021-02-21T14:03:33Z</time>
      </trkpt>
      <trkpt lat="45.81118" lon="3.55297">
        <ele>381</ele>
        <time>2021-02-21T14:03:35Z</time>
      </trkpt>
      <trkpt lat="45.8112" lon="3.55295">
        <ele>382</ele>
        <time>2021-02-21T14:03:37Z</time>
      </trkpt>
      <trkpt lat="45.81123" lon="3.55293">
        <ele>382</ele>
        <time>2021-02-21T14:03:39Z</time>
      </trkpt>
      <trkpt lat="45.81125" lon="3.55291">
        <ele>382</ele>
        <time>2021-02-21T14:03:41Z</time>
      </trkpt>
      <trkpt lat="45.81127" lon="3.55289">
        <ele>382</ele>
        <time>2021-02-21T14:03:43Z</time>
      </trkpt>
      <trkpt lat="45.81129" lon="3.55285">
        <ele>383</ele>
        <time>2021-02-21T14:03:45Z</time>
      </trkpt>
      <trkpt lat="45.81131" lon="3.55284">
        <ele>383</ele>
        <time>2021-02-21T14:03:47Z</time>
      </trkpt>
      <trkpt lat="45.81133" lon="3.55282">
        <ele>384</ele>
        <time>2021-02-21T14:03:49Z</time>
      </trkpt>
      <trkpt lat="45.81135" lon="3.55281">
        <ele>384</ele>
        <time>2021-02-21T14:03:51Z</time>
      </trkpt>
      <trkpt lat="45.81137" lon="3.5528">
        <ele>384</ele>
        <time>2021-02-21T14:03:53Z</time>
      </trkpt>
      <trkpt lat="45.81139" lon="3.55279">
        <ele>384</ele>
        <time>2021-02-21T14:03:55Z</time>
      </trkpt>
      <trkpt lat="45.81141" lon="3.55278">
        <ele>384</ele>
        <time>2021-02-21T14:03:57Z</time>
      </trkpt>
      <trkpt lat="45.81143" lon="3.55276">
        <ele>385</ele>
        <time>2021-02-21T14:03:59Z</time>
      </trkpt>
      <trkpt lat="45.81146" lon="3.55274">
        <ele>385</ele>
        <time>2021-02-21T14:04:01Z</time>
      </trkpt>
      <trkpt lat="45.81148" lon="3.55273">
        <ele>385</ele>
        <time>2021-02-21T14:04:03Z</time>
      </trkpt>
      <trkpt lat="45.81151" lon="3.55272">
        <ele>385</ele>
        <time>2021-02-21T14:04:05Z</time>
      </trkpt>
      <trkpt lat="45.81153" lon="3.5527">
        <ele>385</ele>
        <time>2021-02-21T14:04:07Z</time>
      </trkpt>
      <trkpt lat="45.81156" lon="3.55269">
        <ele>385</ele>
        <time>2021-02-21T14:04:09Z</time>
      </trkpt>
      <trkpt lat="45.81158" lon="3.55268">
        <ele>385</ele>
        <time>2021-02-21T14:04:11Z</time>
      </trkpt>
      <trkpt lat="45.81161" lon="3.55266">
        <ele>385</ele>
        <time>2021-02-21T14:04:13Z</time>
      </trkpt>
      <trkpt lat="45.81164" lon="3.55264">
        <ele>385</ele>
        <time>2021-02-21T14:04:15Z</time>
      </trkpt>
      <trkpt lat="45.81166" lon="3.55262">
        <ele>385</ele>
        <time>2021-02-21T14:04:17Z</time>
      </trkpt>
      <trkpt lat="45.8117" lon="3.55261">
        <ele>385</ele>
        <time>2021-02-21T14:04:19Z</time>
      </trkpt>
      <trkpt lat="45.81172" lon="3.55262">
        <ele>385</ele>
        <time>2021-02-21T14:04:21Z</time>
      </trkpt>
      <trkpt lat="45.81174" lon="3.55265">
        <ele>385</ele>
        <time>2021-02-21T14:04:23Z</time>
      </trkpt>
      <trkpt lat="45.81175" lon="3.55268">
        <ele>384</ele>
        <time>2021-02-21T14:04:25Z</time>
      </trkpt>
      <trkpt lat="45.81176" lon="3.5527">
        <ele>384</ele>
        <time>2021-02-21T14:04:27Z</time>
      </trkpt>
      <trkpt lat="45.81178" lon="3.55271">
        <ele>384</ele>
        <time>2021-02-21T14:04:29Z</time>
      </trkpt>
      <trkpt lat="45.8118" lon="3.55274">
        <ele>383</ele>
        <time>2021-02-21T14:04:31Z</time>
      </trkpt>
      <trkpt lat="45.81183" lon="3.55276">
        <ele>383</ele>
        <time>2021-02-21T14:04:33Z</time>
      </trkpt>
      <trkpt lat="45.81185" lon="3.55278">
        <ele>383</ele>
        <time>2021-02-21T14:04:35Z</time>
      </trkpt>
      <trkpt lat="45.81188" lon="3.5528">
        <ele>383</ele>
        <time>2021-02-21T14:04:37Z</time>
      </trkpt>
      <trkpt lat="45.8119" lon="3.55282">
        <ele>382</ele>
        <time>2021-02-21T14:04:39Z</time>
      </trkpt>
      <trkpt lat="45.81192" lon="3.55283">
        <ele>382</ele>
        <time>2021-02-21T14:04:41Z</time>
      </trkpt>
      <trkpt lat="45.81194" lon="3.55285">
        <ele>382</ele>
        <time>2021-02-21T14:04:43Z</time>
      </trkpt>
      <trkpt lat="45.81196" lon="3.55286">
        <ele>382</ele>
        <time>2021-02-21T14:04:45Z</time>
      </trkpt>
      <trkpt lat="45.81197" lon="3.55288">
        <ele>381</ele>
        <time>2021-02-21T14:04:47Z</time>
      </trkpt>
      <trkpt lat="45.81198" lon="3.55291">
        <ele>381</ele>
        <time>2021-02-21T14:04:49Z</time>
      </trkpt>
      <trkpt lat="45.81206" lon="3.553">
        <ele>380</ele>
        <time>2021-02-21T14:04:56Z</time>
      </trkpt>
      <trkpt lat="45.81209" lon="3.55304">
        <ele>379</ele>
        <time>2021-02-21T14:04:59Z</time>
      </trkpt>
      <trkpt lat="45.81211" lon="3.55306">
        <ele>379</ele>
        <time>2021-02-21T14:05:01Z</time>
      </trkpt>
      <trkpt lat="45.81214" lon="3.55308">
        <ele>378</ele>
        <time>2021-02-21T14:05:03Z</time>
      </trkpt>
      <trkpt lat="45.81217" lon="3.55311">
        <ele>378</ele>
        <time>2021-02-21T14:05:05Z</time>
      </trkpt>
      <trkpt lat="45.8122" lon="3.55313">
        <ele>377</ele>
        <time>2021-02-21T14:05:07Z</time>
      </trkpt>
      <trkpt lat="45.81222" lon="3.55316">
        <ele>377</ele>
        <time>2021-02-21T14:05:09Z</time>
      </trkpt>
      <trkpt lat="45.81224" lon="3.55317">
        <ele>377</ele>
        <time>2021-02-21T14:05:10Z</time>
      </trkpt>
      <trkpt lat="45.81226" lon="3.55319">
        <ele>376</ele>
        <time>2021-02-21T14:05:11Z</time>
      </trkpt>
      <trkpt lat="45.81228" lon="3.55321">
        <ele>376</ele>
        <time>2021-02-21T14:05:13Z</time>
      </trkpt>
      <trkpt lat="45.81231" lon="3.55323">
        <ele>375</ele>
        <time>2021-02-21T14:05:15Z</time>
      </trkpt>
      <trkpt lat="45.81234" lon="3.55326">
        <ele>375</ele>
        <time>2021-02-21T14:05:17Z</time>
      </trkpt>
      <trkpt lat="45.81236" lon="3.55328">
        <ele>374</ele>
        <time>2021-02-21T14:05:19Z</time>
      </trkpt>
      <trkpt lat="45.81238" lon="3.5533">
        <ele>374</ele>
        <time>2021-02-21T14:05:21Z</time>
      </trkpt>
      <trkpt lat="45.81241" lon="3.55331">
        <ele>374</ele>
        <time>2021-02-21T14:05:23Z</time>
      </trkpt>
      <trkpt lat="45.81243" lon="3.55332">
        <ele>373</ele>
        <time>2021-02-21T14:05:25Z</time>
      </trkpt>
      <trkpt lat="45.81245" lon="3.55334">
        <ele>373</ele>
        <time>2021-02-21T14:05:27Z</time>
      </trkpt>
      <trkpt lat="45.81248" lon="3.55336">
        <ele>372</ele>
        <time>2021-02-21T14:05:29Z</time>
      </trkpt>
      <trkpt lat="45.8125" lon="3.55338">
        <ele>372</ele>
        <time>2021-02-21T14:05:31Z</time>
      </trkpt>
      <trkpt lat="45.81252" lon="3.5534">
        <ele>372</ele>
        <time>2021-02-21T14:05:33Z</time>
      </trkpt>
      <trkpt lat="45.81254" lon="3.55341">
        <ele>372</ele>
        <time>2021-02-21T14:05:35Z</time>
      </trkpt>
      <trkpt lat="45.81256" lon="3.55342">
        <ele>372</ele>
        <time>2021-02-21T14:05:37Z</time>
      </trkpt>
      <trkpt lat="45.81258" lon="3.55344">
        <ele>372</ele>
        <time>2021-02-21T14:05:39Z</time>
      </trkpt>
      <trkpt lat="45.81262" lon="3.55346">
        <ele>372</ele>
        <time>2021-02-21T14:05:41Z</time>
      </trkpt>
      <trkpt lat="45.81264" lon="3.55347">
        <ele>372</ele>
        <time>2021-02-21T14:05:43Z</time>
      </trkpt>
      <trkpt lat="45.81266" lon="3.55348">
        <ele>372</ele>
        <time>2021-02-21T14:05:45Z</time>
      </trkpt>
      <trkpt lat="45.81269" lon="3.55349">
        <ele>372</ele>
        <time>2021-02-21T14:05:47Z</time>
      </trkpt>
      <trkpt lat="45.81272" lon="3.55348">
        <ele>372</ele>
        <time>2021-02-21T14:05:49Z</time>
      </trkpt>
      <trkpt lat="45.81274" lon="3.55349">
        <ele>372</ele>
        <time>2021-02-21T14:05:50Z</time>
      </trkpt>
      <trkpt lat="45.81277" lon="3.55349">
        <ele>372</ele>
        <time>2021-02-21T14:05:52Z</time>
      </trkpt>
      <trkpt lat="45.8128" lon="3.55349">
        <ele>372</ele>
        <time>2021-02-21T14:05:54Z</time>
      </trkpt>
      <trkpt lat="45.81282" lon="3.55349">
        <ele>373</ele>
        <time>2021-02-21T14:05:56Z</time>
      </trkpt>
      <trkpt lat="45.81285" lon="3.55349">
        <ele>373</ele>
        <time>2021-02-21T14:05:58Z</time>
      </trkpt>
      <trkpt lat="45.81287" lon="3.55349">
        <ele>373</ele>
        <time>2021-02-21T14:06:00Z</time>
      </trkpt>
      <trkpt lat="45.81289" lon="3.55349">
        <ele>373</ele>
        <time>2021-02-21T14:06:02Z</time>
      </trkpt>
      <trkpt lat="45.81292" lon="3.55349">
        <ele>373</ele>
        <time>2021-02-21T14:06:04Z</time>
      </trkpt>
      <trkpt lat="45.81294" lon="3.55349">
        <ele>373</ele>
        <time>2021-02-21T14:06:06Z</time>
      </trkpt>
      <trkpt lat="45.81296" lon="3.55349">
        <ele>373</ele>
        <time>2021-02-21T14:06:08Z</time>
      </trkpt>
      <trkpt lat="45.81299" lon="3.55348">
        <ele>374</ele>
        <time>2021-02-21T14:06:10Z</time>
      </trkpt>
      <trkpt lat="45.81301" lon="3.5535">
        <ele>374</ele>
        <time>2021-02-21T14:06:12Z</time>
      </trkpt>
      <trkpt lat="45.81303" lon="3.55351">
        <ele>374</ele>
        <time>2021-02-21T14:06:14Z</time>
      </trkpt>
      <trkpt lat="45.81305" lon="3.55352">
        <ele>374</ele>
        <time>2021-02-21T14:06:16Z</time>
      </trkpt>
      <trkpt lat="45.81307" lon="3.55353">
        <ele>374</ele>
        <time>2021-02-21T14:06:18Z</time>
      </trkpt>
      <trkpt lat="45.81317" lon="3.55363">
        <ele>373</ele>
        <time>2021-02-21T14:06:23Z</time>
      </trkpt>
      <trkpt lat="45.81323" lon="3.55373">
        <ele>372</ele>
        <time>2021-02-21T14:06:27Z</time>
      </trkpt>
      <trkpt lat="45.81327" lon="3.55377">
        <ele>372</ele>
        <time>2021-02-21T14:06:29Z</time>
      </trkpt>
      <trkpt lat="45.81329" lon="3.5538">
        <ele>372</ele>
        <time>2021-02-21T14:06:31Z</time>
      </trkpt>
      <trkpt lat="45.81329" lon="3.55384">
        <ele>371</ele>
        <time>2021-02-21T14:06:33Z</time>
      </trkpt>
      <trkpt lat="45.81334" lon="3.55396">
        <ele>370</ele>
        <time>2021-02-21T14:06:41Z</time>
      </trkpt>
      <trkpt lat="45.81335" lon="3.55402">
        <ele>370</ele>
        <time>2021-02-21T14:06:44Z</time>
      </trkpt>
      <trkpt lat="45.81334" lon="3.55407">
        <ele>369</ele>
        <time>2021-02-21T14:06:46Z</time>
      </trkpt>
      <trkpt lat="45.81333" lon="3.55411">
        <ele>369</ele>
        <time>2021-02-21T14:06:48Z</time>
      </trkpt>
      <trkpt lat="45.8133" lon="3.55421">
        <ele>368</ele>
        <time>2021-02-21T14:06:52Z</time>
      </trkpt>
      <trkpt lat="45.81326" lon="3.55428">
        <ele>367</ele>
        <time>2021-02-21T14:06:55Z</time>
      </trkpt>
      <trkpt lat="45.81323" lon="3.55432">
        <ele>367</ele>
        <time>2021-02-21T14:06:57Z</time>
      </trkpt>
      <trkpt lat="45.8132" lon="3.55435">
        <ele>367</ele>
        <time>2021-02-21T14:06:59Z</time>
      </trkpt>
      <trkpt lat="45.81317" lon="3.55438">
        <ele>366</ele>
        <time>2021-02-21T14:07:01Z</time>
      </trkpt>
      <trkpt lat="45.81316" lon="3.55442">
        <ele>366</ele>
        <time>2021-02-21T14:07:03Z</time>
      </trkpt>
      <trkpt lat="45.81314" lon="3.55444">
        <ele>365</ele>
        <time>2021-02-21T14:07:05Z</time>
      </trkpt>
      <trkpt lat="45.81312" lon="3.55447">
        <ele>365</ele>
        <time>2021-02-21T14:07:07Z</time>
      </trkpt>
      <trkpt lat="45.8131" lon="3.55451">
        <ele>365</ele>
        <time>2021-02-21T14:07:09Z</time>
      </trkpt>
      <trkpt lat="45.81304" lon="3.55455">
        <ele>366.1</ele>
      </trkpt>
      <trkpt lat="45.81302" lon="3.55494">
        <ele>364.7</ele>
      </trkpt>
      <trkpt lat="45.81304" lon="3.55526">
        <ele>366.2</ele>
      </trkpt>
      <trkpt lat="45.81304" lon="3.55536">
        <ele>366.7</ele>
      </trkpt>
      <trkpt lat="45.81297" lon="3.55546">
        <ele>366.4</ele>
      </trkpt>
      <trkpt lat="45.81275" lon="3.55569">
        <ele>365.4</ele>
      </trkpt>
      <trkpt lat="45.81267" lon="3.55589">
        <ele>365.9</ele>
      </trkpt>
      <trkpt lat="45.81249" lon="3.5562">
        <ele>365.7</ele>
      </trkpt>
      <trkpt lat="45.81235" lon="3.55681">
        <ele>367.1</ele>
      </trkpt>
      <trkpt lat="45.81233" lon="3.55716">
        <ele>368.7</ele>
      </trkpt>
      <trkpt lat="45.81229" lon="3.55752">
        <ele>369.9</ele>
      </trkpt>
      <trkpt lat="45.81226" lon="3.55817">
        <ele>367.6</ele>
      </trkpt>
      <trkpt lat="45.81227" lon="3.55879">
        <ele>366.3</ele>
      </trkpt>
      <trkpt lat="45.81238" lon="3.55922">
        <ele>366.4</ele>
      </trkpt>
      <trkpt lat="45.81256" lon="3.55965">
        <ele>365.8</ele>
      </trkpt>
      <trkpt lat="45.81278" lon="3.56002">
        <ele>365.4</ele>
      </trkpt>
      <trkpt lat="45.81283" lon="3.56015">
        <ele>366</ele>
      </trkpt>
      <trkpt lat="45.81285" lon="3.56033">
        <ele>366.5</ele>
      </trkpt>
      <trkpt lat="45.81285" lon="3.56077">
        <ele>367.3</ele>
      </trkpt>
      <trkpt lat="45.81308" lon="3.56138">
        <ele>367.1</ele>
      </trkpt>
      <trkpt lat="45.81327" lon="3.56172">
        <ele>367.3</ele>
      </trkpt>
      <trkpt lat="45.81345" lon="3.56197">
        <ele>367.6</ele>
      </trkpt>
      <trkpt lat="45.81362" lon="3.56212">
        <ele>368.1</ele>
      </trkpt>
      <trkpt lat="45.81397" lon="3.56236">
        <ele>369.3</ele>
      </trkpt>
      <trkpt lat="45.81402" lon="3.56244">
        <ele>369.3</ele>
      </trkpt>
      <trkpt lat="45.8141" lon="3.56256">
        <ele>369.5</ele>
      </trkpt>
      <trkpt lat="45.81464" lon="3.56248">
        <ele>370.1</ele>
      </trkpt>
      <trkpt lat="45.81503" lon="3.56241">
        <ele>370.7</ele>
      </trkpt>
      <trkpt lat="45.81517" lon="3.56234">
        <ele>371.5</ele>
      </trkpt>
      <trkpt lat="45.81534" lon="3.5622">
        <ele>372.8</ele>
      </trkpt>
      <trkpt lat="45.81601" lon="3.56151">
        <ele>378.7</ele>
      </trkpt>
      <trkpt lat="45.81678" lon="3.5606">
        <ele>383.3</ele>
      </trkpt>
      <trkpt lat="45.81692" lon="3.56049">
        <ele>384.1</ele>
        <extensions>
          <visugpx:TrkExtension xmlns:visugpx="https://www.visugpx.com/editgpx/">
            <visugpx:node>9</visugpx:node>
            </visugpx:TrkExtension>
        </extensions>
      </trkpt>
      <trkpt lat="45.81693" lon="3.56048">
        <ele>384.1</ele>
      </trkpt>
      <trkpt lat="45.817" lon="3.56044">
        <ele>384.3</ele>
      </trkpt>
      <trkpt lat="45.81718" lon="3.56102">
        <ele>381.8</ele>
      </trkpt>
      <trkpt lat="45.8173" lon="3.56098">
        <ele>382.5</ele>
      </trkpt>
      <trkpt lat="45.81789" lon="3.56087">
        <ele>388</ele>
      </trkpt>
      <trkpt lat="45.81803" lon="3.56091">
        <ele>389.4</ele>
      </trkpt>
      <trkpt lat="45.81863" lon="3.56078">
        <ele>394.3</ele>
      </trkpt>
      <trkpt lat="45.81909" lon="3.56081">
        <ele>396.5</ele>
      </trkpt>
      <trkpt lat="45.81959" lon="3.56079">
        <ele>399.4</ele>
        <extensions>
          <visugpx:TrkExtension xmlns:visugpx="https://www.visugpx.com/editgpx/">
            <visugpx:node>16</visugpx:node>
            </visugpx:TrkExtension>
        </extensions>
      </trkpt>
    </trkseg>
  </trk>
</gpx>